<?xml version="1.0" encoding="UTF-8" standalone="no" ?>
<gpx xmlns="http://www.topografix.com/GPX/1/1" xmlns:xsi="http://www.w3.org/2001/XMLSchema-instance" xsi:schemaLocation="http://www.topografix.com/GPX/1/1 http://www.topografix.com/GPX/1/1/gpx.xsd" version="1.1" creator="VisuGPX - https://www.visugpx.com">
  <metadata>
    <name>Via-rhôna de Lyon à Sète</name>
    <desc><![CDATA[Via Rhona de Lyon à Sète en 7 jours soit un total de 594 km]]></desc>
  </metadata>
  <trk>
    <name><![CDATA[2019-05-27 10:08:33]]></name>
    <trkseg>
      <trkpt lat="44.85374" lon="4.83629">
        <ele>107.29</ele>
        <time>2019-05-27T08:08:33.000Z</time>
      </trkpt>
      <trkpt lat="44.85364" lon="4.83627">
        <ele>106.29</ele>
        <time>2019-05-27T08:08:47.000Z</time>
      </trkpt>
      <trkpt lat="44.8535" lon="4.83624">
        <ele>106.04</ele>
        <time>2019-05-27T08:08:52.000Z</time>
      </trkpt>
      <trkpt lat="44.85332" lon="4.83621">
        <ele>104.29</ele>
        <time>2019-05-27T08:08:57.000Z</time>
      </trkpt>
      <trkpt lat="44.8531" lon="4.83607">
        <ele>105.04</ele>
        <time>2019-05-27T08:09:02.000Z</time>
      </trkpt>
      <trkpt lat="44.85285" lon="4.83588">
        <ele>107.72</ele>
        <time>2019-05-27T08:09:07.000Z</time>
      </trkpt>
      <trkpt lat="44.85267" lon="4.83563">
        <ele>108.29</ele>
        <time>2019-05-27T08:09:12.000Z</time>
      </trkpt>
      <trkpt lat="44.85249" lon="4.83532">
        <ele>106.11</ele>
        <time>2019-05-27T08:09:17.000Z</time>
      </trkpt>
      <trkpt lat="44.85229" lon="4.835">
        <ele>106.1</ele>
        <time>2019-05-27T08:09:22.000Z</time>
      </trkpt>
      <trkpt lat="44.85208" lon="4.83464">
        <ele>106.04</ele>
        <time>2019-05-27T08:09:27.000Z</time>
      </trkpt>
      <trkpt lat="44.85185" lon="4.83428">
        <ele>107.02</ele>
        <time>2019-05-27T08:09:32.000Z</time>
      </trkpt>
      <trkpt lat="44.85161" lon="4.83392">
        <ele>107.03</ele>
        <time>2019-05-27T08:09:37.000Z</time>
      </trkpt>
      <trkpt lat="44.85136" lon="4.83352">
        <ele>105.05</ele>
        <time>2019-05-27T08:09:42.000Z</time>
      </trkpt>
      <trkpt lat="44.85112" lon="4.8331">
        <ele>104.01</ele>
        <time>2019-05-27T08:09:47.000Z</time>
      </trkpt>
      <trkpt lat="44.85087" lon="4.83269">
        <ele>104.04</ele>
        <time>2019-05-27T08:09:52.000Z</time>
      </trkpt>
      <trkpt lat="44.85062" lon="4.8323">
        <ele>104.97</ele>
        <time>2019-05-27T08:09:57.000Z</time>
      </trkpt>
      <trkpt lat="44.85038" lon="4.8319">
        <ele>104.1</ele>
        <time>2019-05-27T08:10:02.000Z</time>
      </trkpt>
      <trkpt lat="44.85013" lon="4.83152">
        <ele>105.04</ele>
        <time>2019-05-27T08:10:07.000Z</time>
      </trkpt>
      <trkpt lat="44.84988" lon="4.83112">
        <ele>104.3</ele>
        <time>2019-05-27T08:10:12.000Z</time>
      </trkpt>
      <trkpt lat="44.84961" lon="4.83068">
        <ele>103.05</ele>
        <time>2019-05-27T08:10:17.000Z</time>
      </trkpt>
      <trkpt lat="44.84932" lon="4.83022">
        <ele>100.31</ele>
        <time>2019-05-27T08:10:22.000Z</time>
      </trkpt>
      <trkpt lat="44.84904" lon="4.82975">
        <ele>100.8</ele>
        <time>2019-05-27T08:10:27.000Z</time>
      </trkpt>
      <trkpt lat="44.8488" lon="4.82928">
        <ele>99.3</ele>
        <time>2019-05-27T08:10:32.000Z</time>
      </trkpt>
      <trkpt lat="44.84854" lon="4.82884">
        <ele>99.09</ele>
        <time>2019-05-27T08:10:37.000Z</time>
      </trkpt>
      <trkpt lat="44.8483" lon="4.82843">
        <ele>99.03</ele>
        <time>2019-05-27T08:10:42.000Z</time>
      </trkpt>
      <trkpt lat="44.84806" lon="4.82805">
        <ele>99.96</ele>
        <time>2019-05-27T08:10:47.000Z</time>
      </trkpt>
      <trkpt lat="44.84779" lon="4.82768">
        <ele>99.04</ele>
        <time>2019-05-27T08:10:52.000Z</time>
      </trkpt>
      <trkpt lat="44.84754" lon="4.8273">
        <ele>97.16</ele>
        <time>2019-05-27T08:10:57.000Z</time>
      </trkpt>
      <trkpt lat="44.8473" lon="4.82695">
        <ele>99.03</ele>
        <time>2019-05-27T08:11:02.000Z</time>
      </trkpt>
      <trkpt lat="44.84708" lon="4.82658">
        <ele>99.03</ele>
        <time>2019-05-27T08:11:07.000Z</time>
      </trkpt>
      <trkpt lat="44.84684" lon="4.8262">
        <ele>100.03</ele>
        <time>2019-05-27T08:11:12.000Z</time>
      </trkpt>
      <trkpt lat="44.84661" lon="4.82579">
        <ele>99.04</ele>
        <time>2019-05-27T08:11:17.000Z</time>
      </trkpt>
      <trkpt lat="44.84639" lon="4.82542">
        <ele>98.97</ele>
        <time>2019-05-27T08:11:22.000Z</time>
      </trkpt>
      <trkpt lat="44.84617" lon="4.82506">
        <ele>100.78</ele>
        <time>2019-05-27T08:11:27.000Z</time>
      </trkpt>
      <trkpt lat="44.84597" lon="4.82472">
        <ele>100.04</ele>
        <time>2019-05-27T08:11:32.000Z</time>
      </trkpt>
      <trkpt lat="44.84571" lon="4.8244">
        <ele>100.78</ele>
        <time>2019-05-27T08:11:37.000Z</time>
      </trkpt>
      <trkpt lat="44.84548" lon="4.82406">
        <ele>100.09</ele>
        <time>2019-05-27T08:11:42.000Z</time>
      </trkpt>
      <trkpt lat="44.84526" lon="4.82373">
        <ele>100.04</ele>
        <time>2019-05-27T08:11:47.000Z</time>
      </trkpt>
      <trkpt lat="44.84504" lon="4.82339">
        <ele>100.05</ele>
        <time>2019-05-27T08:11:52.000Z</time>
      </trkpt>
      <trkpt lat="44.84475" lon="4.82307">
        <ele>100.02</ele>
        <time>2019-05-27T08:11:57.000Z</time>
      </trkpt>
      <trkpt lat="44.84451" lon="4.82271">
        <ele>100.97</ele>
        <time>2019-05-27T08:12:02.000Z</time>
      </trkpt>
      <trkpt lat="44.84429" lon="4.8224">
        <ele>101.02</ele>
        <time>2019-05-27T08:12:07.000Z</time>
      </trkpt>
      <trkpt lat="44.84416" lon="4.82211">
        <ele>99.11</ele>
        <time>2019-05-27T08:12:12.000Z</time>
      </trkpt>
      <trkpt lat="44.84428" lon="4.82194">
        <ele>100.78</ele>
        <time>2019-05-27T08:12:17.000Z</time>
      </trkpt>
      <trkpt lat="44.84435" lon="4.82186">
        <ele>101.72</ele>
        <time>2019-05-27T08:12:24.000Z</time>
      </trkpt>
      <trkpt lat="44.84441" lon="4.82177">
        <ele>104.01</ele>
        <time>2019-05-27T08:12:29.000Z</time>
      </trkpt>
      <trkpt lat="44.84449" lon="4.82169">
        <ele>105.01</ele>
        <time>2019-05-27T08:12:34.000Z</time>
      </trkpt>
      <trkpt lat="44.84455" lon="4.82156">
        <ele>107.95</ele>
        <time>2019-05-27T08:12:39.000Z</time>
      </trkpt>
      <trkpt lat="44.84457" lon="4.82141">
        <ele>108.08</ele>
        <time>2019-05-27T08:12:44.000Z</time>
      </trkpt>
      <trkpt lat="44.84449" lon="4.82123">
        <ele>109.03</ele>
        <time>2019-05-27T08:12:49.000Z</time>
      </trkpt>
      <trkpt lat="44.84433" lon="4.82109">
        <ele>110.84</ele>
        <time>2019-05-27T08:12:54.000Z</time>
      </trkpt>
      <trkpt lat="44.8441" lon="4.82095">
        <ele>110.28</ele>
        <time>2019-05-27T08:12:59.000Z</time>
      </trkpt>
      <trkpt lat="44.84388" lon="4.82081">
        <ele>110.03</ele>
        <time>2019-05-27T08:13:04.000Z</time>
      </trkpt>
      <trkpt lat="44.84365" lon="4.82065">
        <ele>111.78</ele>
        <time>2019-05-27T08:13:09.000Z</time>
      </trkpt>
      <trkpt lat="44.84342" lon="4.82046">
        <ele>111.03</ele>
        <time>2019-05-27T08:13:14.000Z</time>
      </trkpt>
      <trkpt lat="44.8432" lon="4.82026">
        <ele>110.84</ele>
        <time>2019-05-27T08:13:19.000Z</time>
      </trkpt>
      <trkpt lat="44.84302" lon="4.82009">
        <ele>112.03</ele>
        <time>2019-05-27T08:13:24.000Z</time>
      </trkpt>
      <trkpt lat="44.84283" lon="4.81993">
        <ele>111.03</ele>
        <time>2019-05-27T08:13:29.000Z</time>
      </trkpt>
      <trkpt lat="44.84263" lon="4.81977">
        <ele>110.04</ele>
        <time>2019-05-27T08:13:34.000Z</time>
      </trkpt>
      <trkpt lat="44.84238" lon="4.81964">
        <ele>109.04</ele>
        <time>2019-05-27T08:13:39.000Z</time>
      </trkpt>
      <trkpt lat="44.8421" lon="4.81946">
        <ele>108.03</ele>
        <time>2019-05-27T08:13:44.000Z</time>
      </trkpt>
      <trkpt lat="44.84182" lon="4.81925">
        <ele>108.03</ele>
        <time>2019-05-27T08:13:49.000Z</time>
      </trkpt>
      <trkpt lat="44.84154" lon="4.81902">
        <ele>107.04</ele>
        <time>2019-05-27T08:13:54.000Z</time>
      </trkpt>
      <trkpt lat="44.84125" lon="4.81882">
        <ele>107.03</ele>
        <time>2019-05-27T08:13:59.000Z</time>
      </trkpt>
      <trkpt lat="44.84095" lon="4.81861">
        <ele>107.78</ele>
        <time>2019-05-27T08:14:04.000Z</time>
      </trkpt>
      <trkpt lat="44.84068" lon="4.81843">
        <ele>108.03</ele>
        <time>2019-05-27T08:14:09.000Z</time>
      </trkpt>
      <trkpt lat="44.84038" lon="4.81832">
        <ele>109.03</ele>
        <time>2019-05-27T08:14:14.000Z</time>
      </trkpt>
      <trkpt lat="44.84008" lon="4.81814">
        <ele>108.28</ele>
        <time>2019-05-27T08:14:19.000Z</time>
      </trkpt>
      <trkpt lat="44.83977" lon="4.81791">
        <ele>107.09</ele>
        <time>2019-05-27T08:14:24.000Z</time>
      </trkpt>
      <trkpt lat="44.83948" lon="4.81767">
        <ele>108.03</ele>
        <time>2019-05-27T08:14:29.000Z</time>
      </trkpt>
      <trkpt lat="44.83918" lon="4.81744">
        <ele>107.04</ele>
        <time>2019-05-27T08:14:34.000Z</time>
      </trkpt>
      <trkpt lat="44.83886" lon="4.81724">
        <ele>105.23</ele>
        <time>2019-05-27T08:14:39.000Z</time>
      </trkpt>
      <trkpt lat="44.83853" lon="4.81705">
        <ele>106.77</ele>
        <time>2019-05-27T08:14:44.000Z</time>
      </trkpt>
      <trkpt lat="44.8382" lon="4.81687">
        <ele>106.78</ele>
        <time>2019-05-27T08:14:49.000Z</time>
      </trkpt>
      <trkpt lat="44.83787" lon="4.8167">
        <ele>107.21</ele>
        <time>2019-05-27T08:14:54.000Z</time>
      </trkpt>
      <trkpt lat="44.83753" lon="4.81654">
        <ele>106.52</ele>
        <time>2019-05-27T08:14:59.000Z</time>
      </trkpt>
      <trkpt lat="44.83718" lon="4.8164">
        <ele>107.71</ele>
        <time>2019-05-27T08:15:04.000Z</time>
      </trkpt>
      <trkpt lat="44.83683" lon="4.81627">
        <ele>107.22</ele>
        <time>2019-05-27T08:15:09.000Z</time>
      </trkpt>
      <trkpt lat="44.83646" lon="4.8161">
        <ele>105.28</ele>
        <time>2019-05-27T08:15:14.000Z</time>
      </trkpt>
      <trkpt lat="44.83609" lon="4.81595">
        <ele>105.96</ele>
        <time>2019-05-27T08:15:19.000Z</time>
      </trkpt>
      <trkpt lat="44.83569" lon="4.8158">
        <ele>107.02</ele>
        <time>2019-05-27T08:15:24.000Z</time>
      </trkpt>
      <trkpt lat="44.83529" lon="4.81565">
        <ele>106.84</ele>
        <time>2019-05-27T08:15:29.000Z</time>
      </trkpt>
      <trkpt lat="44.83491" lon="4.81547">
        <ele>106.02</ele>
        <time>2019-05-27T08:15:34.000Z</time>
      </trkpt>
      <trkpt lat="44.83452" lon="4.8153">
        <ele>106.02</ele>
        <time>2019-05-27T08:15:39.000Z</time>
      </trkpt>
      <trkpt lat="44.83416" lon="4.81509">
        <ele>105.77</ele>
        <time>2019-05-27T08:15:44.000Z</time>
      </trkpt>
      <trkpt lat="44.83379" lon="4.81488">
        <ele>106.01</ele>
        <time>2019-05-27T08:15:49.000Z</time>
      </trkpt>
      <trkpt lat="44.83345" lon="4.81466">
        <ele>106.02</ele>
        <time>2019-05-27T08:15:54.000Z</time>
      </trkpt>
      <trkpt lat="44.83311" lon="4.81441">
        <ele>106.02</ele>
        <time>2019-05-27T08:15:59.000Z</time>
      </trkpt>
      <trkpt lat="44.83279" lon="4.81415">
        <ele>106.02</ele>
        <time>2019-05-27T08:16:04.000Z</time>
      </trkpt>
      <trkpt lat="44.83246" lon="4.81387">
        <ele>106.96</ele>
        <time>2019-05-27T08:16:09.000Z</time>
      </trkpt>
      <trkpt lat="44.83215" lon="4.81358">
        <ele>107.02</ele>
        <time>2019-05-27T08:16:14.000Z</time>
      </trkpt>
      <trkpt lat="44.83185" lon="4.81328">
        <ele>108.02</ele>
        <time>2019-05-27T08:16:19.000Z</time>
      </trkpt>
      <trkpt lat="44.83155" lon="4.81298">
        <ele>109.02</ele>
        <time>2019-05-27T08:16:24.000Z</time>
      </trkpt>
      <trkpt lat="44.83125" lon="4.81268">
        <ele>110.02</ele>
        <time>2019-05-27T08:16:29.000Z</time>
      </trkpt>
      <trkpt lat="44.83095" lon="4.81237">
        <ele>109.08</ele>
        <time>2019-05-27T08:16:34.000Z</time>
      </trkpt>
      <trkpt lat="44.83063" lon="4.81205">
        <ele>108.27</ele>
        <time>2019-05-27T08:16:39.000Z</time>
      </trkpt>
      <trkpt lat="44.83031" lon="4.81176">
        <ele>108.02</ele>
        <time>2019-05-27T08:16:44.000Z</time>
      </trkpt>
      <trkpt lat="44.82999" lon="4.81148">
        <ele>107.77</ele>
        <time>2019-05-27T08:16:49.000Z</time>
      </trkpt>
      <trkpt lat="44.82965" lon="4.81125">
        <ele>107.77</ele>
        <time>2019-05-27T08:16:54.000Z</time>
      </trkpt>
      <trkpt lat="44.82932" lon="4.81103">
        <ele>107.02</ele>
        <time>2019-05-27T08:16:59.000Z</time>
      </trkpt>
      <trkpt lat="44.82896" lon="4.81084">
        <ele>107.02</ele>
        <time>2019-05-27T08:17:04.000Z</time>
      </trkpt>
      <trkpt lat="44.82861" lon="4.81069">
        <ele>107.77</ele>
        <time>2019-05-27T08:17:09.000Z</time>
      </trkpt>
      <trkpt lat="44.82826" lon="4.81053">
        <ele>108.01</ele>
        <time>2019-05-27T08:17:14.000Z</time>
      </trkpt>
      <trkpt lat="44.82792" lon="4.81038">
        <ele>109</ele>
        <time>2019-05-27T08:17:19.000Z</time>
      </trkpt>
      <trkpt lat="44.82758" lon="4.81024">
        <ele>109.76</ele>
        <time>2019-05-27T08:17:24.000Z</time>
      </trkpt>
      <trkpt lat="44.82724" lon="4.81011">
        <ele>108.08</ele>
        <time>2019-05-27T08:17:29.000Z</time>
      </trkpt>
      <trkpt lat="44.8269" lon="4.80995">
        <ele>108.02</ele>
        <time>2019-05-27T08:17:34.000Z</time>
      </trkpt>
      <trkpt lat="44.82658" lon="4.8098">
        <ele>108.08</ele>
        <time>2019-05-27T08:17:39.000Z</time>
      </trkpt>
      <trkpt lat="44.82624" lon="4.80984">
        <ele>108.77</ele>
        <time>2019-05-27T08:17:44.000Z</time>
      </trkpt>
      <trkpt lat="44.82597" lon="4.81011">
        <ele>107.02</ele>
        <time>2019-05-27T08:17:49.000Z</time>
      </trkpt>
      <trkpt lat="44.82575" lon="4.81025">
        <ele>108</ele>
        <time>2019-05-27T08:17:54.000Z</time>
      </trkpt>
      <trkpt lat="44.82556" lon="4.81019">
        <ele>107.26</ele>
        <time>2019-05-27T08:17:59.000Z</time>
      </trkpt>
      <trkpt lat="44.82532" lon="4.81009">
        <ele>106.08</ele>
        <time>2019-05-27T08:18:04.000Z</time>
      </trkpt>
      <trkpt lat="44.82502" lon="4.80991">
        <ele>104.83</ele>
        <time>2019-05-27T08:18:09.000Z</time>
      </trkpt>
      <trkpt lat="44.82475" lon="4.80962">
        <ele>105.96</ele>
        <time>2019-05-27T08:18:14.000Z</time>
      </trkpt>
      <trkpt lat="44.82448" lon="4.80933">
        <ele>106.02</ele>
        <time>2019-05-27T08:18:19.000Z</time>
      </trkpt>
      <trkpt lat="44.82435" lon="4.80919">
        <ele>105.02</ele>
        <time>2019-05-27T08:18:24.000Z</time>
      </trkpt>
      <trkpt lat="44.82426" lon="4.80911">
        <ele>103.01</ele>
        <time>2019-05-27T08:21:00.000Z</time>
      </trkpt>
      <trkpt lat="44.82419" lon="4.80895">
        <ele>105.95</ele>
        <time>2019-05-27T08:21:05.000Z</time>
      </trkpt>
      <trkpt lat="44.82414" lon="4.80877">
        <ele>105.97</ele>
        <time>2019-05-27T08:21:10.000Z</time>
      </trkpt>
      <trkpt lat="44.82414" lon="4.80863">
        <ele>107.01</ele>
        <time>2019-05-27T08:21:15.000Z</time>
      </trkpt>
      <trkpt lat="44.82413" lon="4.80841">
        <ele>105.03</ele>
        <time>2019-05-27T08:21:20.000Z</time>
      </trkpt>
      <trkpt lat="44.82395" lon="4.80833">
        <ele>104.08</ele>
        <time>2019-05-27T08:21:25.000Z</time>
      </trkpt>
      <trkpt lat="44.82374" lon="4.8083">
        <ele>104.76</ele>
        <time>2019-05-27T08:21:30.000Z</time>
      </trkpt>
      <trkpt lat="44.82354" lon="4.80832">
        <ele>105.2</ele>
        <time>2019-05-27T08:21:35.000Z</time>
      </trkpt>
      <trkpt lat="44.82335" lon="4.80833">
        <ele>103.33</ele>
        <time>2019-05-27T08:21:40.000Z</time>
      </trkpt>
      <trkpt lat="44.82305" lon="4.80821">
        <ele>102.03</ele>
        <time>2019-05-27T08:21:45.000Z</time>
      </trkpt>
      <trkpt lat="44.82276" lon="4.80811">
        <ele>102.02</ele>
        <time>2019-05-27T08:21:50.000Z</time>
      </trkpt>
      <trkpt lat="44.82247" lon="4.80795">
        <ele>100.08</ele>
        <time>2019-05-27T08:21:55.000Z</time>
      </trkpt>
      <trkpt lat="44.82229" lon="4.80794">
        <ele>100.03</ele>
        <time>2019-05-27T08:22:00.000Z</time>
      </trkpt>
      <trkpt lat="44.82225" lon="4.8081">
        <ele>100.02</ele>
        <time>2019-05-27T08:22:05.000Z</time>
      </trkpt>
      <trkpt lat="44.82217" lon="4.80823">
        <ele>100.77</ele>
        <time>2019-05-27T08:22:10.000Z</time>
      </trkpt>
      <trkpt lat="44.82206" lon="4.80823">
        <ele>101.95</ele>
        <time>2019-05-27T08:22:15.000Z</time>
      </trkpt>
      <trkpt lat="44.82188" lon="4.80811">
        <ele>102.02</ele>
        <time>2019-05-27T08:22:20.000Z</time>
      </trkpt>
      <trkpt lat="44.82175" lon="4.80793">
        <ele>102.02</ele>
        <time>2019-05-27T08:22:25.000Z</time>
      </trkpt>
      <trkpt lat="44.82156" lon="4.80787">
        <ele>103</ele>
        <time>2019-05-27T08:22:30.000Z</time>
      </trkpt>
      <trkpt lat="44.82133" lon="4.80784">
        <ele>102.02</ele>
        <time>2019-05-27T08:22:35.000Z</time>
      </trkpt>
      <trkpt lat="44.8211" lon="4.80781">
        <ele>102.77</ele>
        <time>2019-05-27T08:22:40.000Z</time>
      </trkpt>
      <trkpt lat="44.82088" lon="4.80765">
        <ele>103.94</ele>
        <time>2019-05-27T08:22:45.000Z</time>
      </trkpt>
      <trkpt lat="44.82069" lon="4.8076">
        <ele>105.76</ele>
        <time>2019-05-27T08:22:50.000Z</time>
      </trkpt>
      <trkpt lat="44.82041" lon="4.8077">
        <ele>103.27</ele>
        <time>2019-05-27T08:22:55.000Z</time>
      </trkpt>
      <trkpt lat="44.82005" lon="4.80778">
        <ele>100.28</ele>
        <time>2019-05-27T08:23:00.000Z</time>
      </trkpt>
      <trkpt lat="44.81969" lon="4.80776">
        <ele>100.2</ele>
        <time>2019-05-27T08:23:05.000Z</time>
      </trkpt>
      <trkpt lat="44.81933" lon="4.80773">
        <ele>99.77</ele>
        <time>2019-05-27T08:23:10.000Z</time>
      </trkpt>
      <trkpt lat="44.81904" lon="4.80757">
        <ele>102</ele>
        <time>2019-05-27T08:23:15.000Z</time>
      </trkpt>
      <trkpt lat="44.81877" lon="4.80737">
        <ele>102</ele>
        <time>2019-05-27T08:23:20.000Z</time>
      </trkpt>
      <trkpt lat="44.81851" lon="4.80712">
        <ele>101.26</ele>
        <time>2019-05-27T08:23:25.000Z</time>
      </trkpt>
      <trkpt lat="44.81833" lon="4.80685">
        <ele>100.08</ele>
        <time>2019-05-27T08:23:30.000Z</time>
      </trkpt>
      <trkpt lat="44.81831" lon="4.80654">
        <ele>102</ele>
        <time>2019-05-27T08:23:35.000Z</time>
      </trkpt>
      <trkpt lat="44.81826" lon="4.80638">
        <ele>100.27</ele>
        <time>2019-05-27T08:23:40.000Z</time>
      </trkpt>
      <trkpt lat="44.81809" lon="4.80631">
        <ele>102</ele>
        <time>2019-05-27T08:23:45.000Z</time>
      </trkpt>
      <trkpt lat="44.81783" lon="4.80629">
        <ele>103.01</ele>
        <time>2019-05-27T08:23:50.000Z</time>
      </trkpt>
      <trkpt lat="44.81758" lon="4.80626">
        <ele>103.01</ele>
        <time>2019-05-27T08:23:55.000Z</time>
      </trkpt>
      <trkpt lat="44.81733" lon="4.80622">
        <ele>105.01</ele>
        <time>2019-05-27T08:24:00.000Z</time>
      </trkpt>
      <trkpt lat="44.81704" lon="4.80618">
        <ele>103.08</ele>
        <time>2019-05-27T08:24:05.000Z</time>
      </trkpt>
      <trkpt lat="44.81674" lon="4.80615">
        <ele>102.08</ele>
        <time>2019-05-27T08:24:10.000Z</time>
      </trkpt>
      <trkpt lat="44.81645" lon="4.80608">
        <ele>102.01</ele>
        <time>2019-05-27T08:24:15.000Z</time>
      </trkpt>
      <trkpt lat="44.81613" lon="4.80596">
        <ele>101.26</ele>
        <time>2019-05-27T08:24:20.000Z</time>
      </trkpt>
      <trkpt lat="44.81575" lon="4.80577">
        <ele>99.08</ele>
        <time>2019-05-27T08:24:25.000Z</time>
      </trkpt>
      <trkpt lat="44.81536" lon="4.80568">
        <ele>98.08</ele>
        <time>2019-05-27T08:24:30.000Z</time>
      </trkpt>
      <trkpt lat="44.81501" lon="4.80561">
        <ele>98.95</ele>
        <time>2019-05-27T08:24:35.000Z</time>
      </trkpt>
      <trkpt lat="44.81467" lon="4.80549">
        <ele>98.03</ele>
        <time>2019-05-27T08:24:40.000Z</time>
      </trkpt>
      <trkpt lat="44.81436" lon="4.80529">
        <ele>98.01</ele>
        <time>2019-05-27T08:24:45.000Z</time>
      </trkpt>
      <trkpt lat="44.81408" lon="4.80507">
        <ele>98.95</ele>
        <time>2019-05-27T08:24:50.000Z</time>
      </trkpt>
      <trkpt lat="44.8138" lon="4.80482">
        <ele>99.95</ele>
        <time>2019-05-27T08:24:55.000Z</time>
      </trkpt>
      <trkpt lat="44.8135" lon="4.80457">
        <ele>99.02</ele>
        <time>2019-05-27T08:25:00.000Z</time>
      </trkpt>
      <trkpt lat="44.81323" lon="4.80428">
        <ele>100.02</ele>
        <time>2019-05-27T08:25:05.000Z</time>
      </trkpt>
      <trkpt lat="44.81299" lon="4.80394">
        <ele>100.02</ele>
        <time>2019-05-27T08:25:10.000Z</time>
      </trkpt>
      <trkpt lat="44.81273" lon="4.80365">
        <ele>100.01</ele>
        <time>2019-05-27T08:25:15.000Z</time>
      </trkpt>
      <trkpt lat="44.81249" lon="4.80338">
        <ele>100.01</ele>
        <time>2019-05-27T08:25:20.000Z</time>
      </trkpt>
      <trkpt lat="44.81226" lon="4.80308">
        <ele>99.09</ele>
        <time>2019-05-27T08:25:25.000Z</time>
      </trkpt>
      <trkpt lat="44.8121" lon="4.80275">
        <ele>97.02</ele>
        <time>2019-05-27T08:25:30.000Z</time>
      </trkpt>
      <trkpt lat="44.81229" lon="4.80269">
        <ele>97.2</ele>
        <time>2019-05-27T08:25:35.000Z</time>
      </trkpt>
      <trkpt lat="44.81252" lon="4.80273">
        <ele>97.26</ele>
        <time>2019-05-27T08:25:40.000Z</time>
      </trkpt>
      <trkpt lat="44.81278" lon="4.80279">
        <ele>97.82</ele>
        <time>2019-05-27T08:25:45.000Z</time>
      </trkpt>
      <trkpt lat="44.81307" lon="4.80283">
        <ele>96.76</ele>
        <time>2019-05-27T08:25:50.000Z</time>
      </trkpt>
      <trkpt lat="44.81337" lon="4.80287">
        <ele>95.97</ele>
        <time>2019-05-27T08:25:55.000Z</time>
      </trkpt>
      <trkpt lat="44.81368" lon="4.80289">
        <ele>96.95</ele>
        <time>2019-05-27T08:26:00.000Z</time>
      </trkpt>
      <trkpt lat="44.81396" lon="4.80292">
        <ele>95.01</ele>
        <time>2019-05-27T08:26:05.000Z</time>
      </trkpt>
      <trkpt lat="44.81423" lon="4.80294">
        <ele>96.95</ele>
        <time>2019-05-27T08:26:10.000Z</time>
      </trkpt>
      <trkpt lat="44.81451" lon="4.80297">
        <ele>96.06</ele>
        <time>2019-05-27T08:26:15.000Z</time>
      </trkpt>
      <trkpt lat="44.81481" lon="4.80298">
        <ele>96.02</ele>
        <time>2019-05-27T08:26:20.000Z</time>
      </trkpt>
      <trkpt lat="44.81512" lon="4.80301">
        <ele>96.26</ele>
        <time>2019-05-27T08:26:25.000Z</time>
      </trkpt>
      <trkpt lat="44.81542" lon="4.80302">
        <ele>97.76</ele>
        <time>2019-05-27T08:26:30.000Z</time>
      </trkpt>
      <trkpt lat="44.81573" lon="4.80302">
        <ele>95.84</ele>
        <time>2019-05-27T08:26:35.000Z</time>
      </trkpt>
      <trkpt lat="44.81604" lon="4.80301">
        <ele>95.08</ele>
        <time>2019-05-27T08:26:40.000Z</time>
      </trkpt>
      <trkpt lat="44.8163" lon="4.80299">
        <ele>95.25</ele>
        <time>2019-05-27T08:26:45.000Z</time>
      </trkpt>
      <trkpt lat="44.81653" lon="4.80296">
        <ele>96.95</ele>
        <time>2019-05-27T08:26:50.000Z</time>
      </trkpt>
      <trkpt lat="44.81678" lon="4.80292">
        <ele>97.81</ele>
        <time>2019-05-27T08:26:55.000Z</time>
      </trkpt>
      <trkpt lat="44.81702" lon="4.80288">
        <ele>99.01</ele>
        <time>2019-05-27T08:27:00.000Z</time>
      </trkpt>
      <trkpt lat="44.81725" lon="4.80283">
        <ele>99.2</ele>
        <time>2019-05-27T08:27:05.000Z</time>
      </trkpt>
      <trkpt lat="44.81749" lon="4.80276">
        <ele>99.02</ele>
        <time>2019-05-27T08:27:10.000Z</time>
      </trkpt>
      <trkpt lat="44.81774" lon="4.80269">
        <ele>98.02</ele>
        <time>2019-05-27T08:27:15.000Z</time>
      </trkpt>
      <trkpt lat="44.81798" lon="4.80263">
        <ele>98.95</ele>
        <time>2019-05-27T08:27:20.000Z</time>
      </trkpt>
      <trkpt lat="44.81822" lon="4.80256">
        <ele>99.02</ele>
        <time>2019-05-27T08:27:25.000Z</time>
      </trkpt>
      <trkpt lat="44.81845" lon="4.80253">
        <ele>100</ele>
        <time>2019-05-27T08:27:30.000Z</time>
      </trkpt>
      <trkpt lat="44.81867" lon="4.8025">
        <ele>100.01</ele>
        <time>2019-05-27T08:27:35.000Z</time>
      </trkpt>
      <trkpt lat="44.8189" lon="4.80249">
        <ele>100.01</ele>
        <time>2019-05-27T08:27:40.000Z</time>
      </trkpt>
      <trkpt lat="44.81912" lon="4.80249">
        <ele>100.01</ele>
        <time>2019-05-27T08:27:45.000Z</time>
      </trkpt>
      <trkpt lat="44.81934" lon="4.80246">
        <ele>99.13</ele>
        <time>2019-05-27T08:27:50.000Z</time>
      </trkpt>
      <trkpt lat="44.81957" lon="4.80245">
        <ele>100.01</ele>
        <time>2019-05-27T08:27:55.000Z</time>
      </trkpt>
      <trkpt lat="44.81982" lon="4.80241">
        <ele>100.08</ele>
        <time>2019-05-27T08:28:00.000Z</time>
      </trkpt>
      <trkpt lat="44.82006" lon="4.80238">
        <ele>100.01</ele>
        <time>2019-05-27T08:28:05.000Z</time>
      </trkpt>
      <trkpt lat="44.82029" lon="4.80236">
        <ele>100.01</ele>
        <time>2019-05-27T08:28:10.000Z</time>
      </trkpt>
      <trkpt lat="44.82054" lon="4.80233">
        <ele>100.83</ele>
        <time>2019-05-27T08:28:15.000Z</time>
      </trkpt>
      <trkpt lat="44.82078" lon="4.80231">
        <ele>100.02</ele>
        <time>2019-05-27T08:28:20.000Z</time>
      </trkpt>
      <trkpt lat="44.82102" lon="4.80228">
        <ele>100.95</ele>
        <time>2019-05-27T08:28:25.000Z</time>
      </trkpt>
      <trkpt lat="44.82125" lon="4.80223">
        <ele>101.01</ele>
        <time>2019-05-27T08:28:30.000Z</time>
      </trkpt>
      <trkpt lat="44.82149" lon="4.80213">
        <ele>100.02</ele>
        <time>2019-05-27T08:28:35.000Z</time>
      </trkpt>
      <trkpt lat="44.82173" lon="4.80203">
        <ele>99.97</ele>
        <time>2019-05-27T08:28:40.000Z</time>
      </trkpt>
      <trkpt lat="44.82196" lon="4.80188">
        <ele>100.01</ele>
        <time>2019-05-27T08:28:45.000Z</time>
      </trkpt>
      <trkpt lat="44.82218" lon="4.80173">
        <ele>100.02</ele>
        <time>2019-05-27T08:28:50.000Z</time>
      </trkpt>
      <trkpt lat="44.82239" lon="4.80154">
        <ele>100.02</ele>
        <time>2019-05-27T08:28:55.000Z</time>
      </trkpt>
      <trkpt lat="44.82258" lon="4.8014">
        <ele>99.97</ele>
        <time>2019-05-27T08:29:00.000Z</time>
      </trkpt>
      <trkpt lat="44.82279" lon="4.80127">
        <ele>100.02</ele>
        <time>2019-05-27T08:29:05.000Z</time>
      </trkpt>
      <trkpt lat="44.823" lon="4.8011">
        <ele>101</ele>
        <time>2019-05-27T08:29:10.000Z</time>
      </trkpt>
      <trkpt lat="44.82321" lon="4.80093">
        <ele>100.03</ele>
        <time>2019-05-27T08:29:15.000Z</time>
      </trkpt>
      <trkpt lat="44.82342" lon="4.80086">
        <ele>100.77</ele>
        <time>2019-05-27T08:29:20.000Z</time>
      </trkpt>
      <trkpt lat="44.8236" lon="4.80081">
        <ele>102.01</ele>
        <time>2019-05-27T08:29:25.000Z</time>
      </trkpt>
      <trkpt lat="44.82373" lon="4.80073">
        <ele>103.95</ele>
        <time>2019-05-27T08:29:30.000Z</time>
      </trkpt>
      <trkpt lat="44.82391" lon="4.8006">
        <ele>104.02</ele>
        <time>2019-05-27T08:29:35.000Z</time>
      </trkpt>
      <trkpt lat="44.82415" lon="4.80042">
        <ele>103.02</ele>
        <time>2019-05-27T08:29:40.000Z</time>
      </trkpt>
      <trkpt lat="44.82435" lon="4.80026">
        <ele>102.02</ele>
        <time>2019-05-27T08:29:45.000Z</time>
      </trkpt>
      <trkpt lat="44.82451" lon="4.80013">
        <ele>102.02</ele>
        <time>2019-05-27T08:29:50.000Z</time>
      </trkpt>
      <trkpt lat="44.82462" lon="4.80004">
        <ele>102.02</ele>
        <time>2019-05-27T08:29:55.000Z</time>
      </trkpt>
      <trkpt lat="44.82472" lon="4.79997">
        <ele>103.77</ele>
        <time>2019-05-27T08:30:01.000Z</time>
      </trkpt>
      <trkpt lat="44.82481" lon="4.8">
        <ele>105.76</ele>
        <time>2019-05-27T08:30:07.000Z</time>
      </trkpt>
      <trkpt lat="44.82475" lon="4.79988">
        <ele>105.01</ele>
        <time>2019-05-27T08:30:26.000Z</time>
      </trkpt>
      <trkpt lat="44.82466" lon="4.79966">
        <ele>106.25</ele>
        <time>2019-05-27T08:30:31.000Z</time>
      </trkpt>
      <trkpt lat="44.82454" lon="4.79941">
        <ele>107</ele>
        <time>2019-05-27T08:30:36.000Z</time>
      </trkpt>
      <trkpt lat="44.8244" lon="4.79912">
        <ele>106.02</ele>
        <time>2019-05-27T08:30:41.000Z</time>
      </trkpt>
      <trkpt lat="44.82425" lon="4.79885">
        <ele>106.02</ele>
        <time>2019-05-27T08:30:46.000Z</time>
      </trkpt>
      <trkpt lat="44.8241" lon="4.79855">
        <ele>107.01</ele>
        <time>2019-05-27T08:30:51.000Z</time>
      </trkpt>
      <trkpt lat="44.82394" lon="4.79824">
        <ele>107.26</ele>
        <time>2019-05-27T08:30:56.000Z</time>
      </trkpt>
      <trkpt lat="44.8238" lon="4.79807">
        <ele>106.03</ele>
        <time>2019-05-27T08:31:01.000Z</time>
      </trkpt>
      <trkpt lat="44.8237" lon="4.7983">
        <ele>106.01</ele>
        <time>2019-05-27T08:31:06.000Z</time>
      </trkpt>
      <trkpt lat="44.82367" lon="4.79845">
        <ele>103.21</ele>
        <time>2019-05-27T08:32:32.000Z</time>
      </trkpt>
      <trkpt lat="44.82351" lon="4.79874">
        <ele>101.28</ele>
        <time>2019-05-27T08:32:37.000Z</time>
      </trkpt>
      <trkpt lat="44.82327" lon="4.79913">
        <ele>100.77</ele>
        <time>2019-05-27T08:32:42.000Z</time>
      </trkpt>
      <trkpt lat="44.82298" lon="4.79944">
        <ele>100.02</ele>
        <time>2019-05-27T08:32:47.000Z</time>
      </trkpt>
      <trkpt lat="44.82264" lon="4.79964">
        <ele>100.77</ele>
        <time>2019-05-27T08:32:52.000Z</time>
      </trkpt>
      <trkpt lat="44.82233" lon="4.79982">
        <ele>100.97</ele>
        <time>2019-05-27T08:32:57.000Z</time>
      </trkpt>
      <trkpt lat="44.82206" lon="4.8001">
        <ele>101.76</ele>
        <time>2019-05-27T08:33:02.000Z</time>
      </trkpt>
      <trkpt lat="44.82189" lon="4.80046">
        <ele>101.02</ele>
        <time>2019-05-27T08:33:07.000Z</time>
      </trkpt>
      <trkpt lat="44.82161" lon="4.80069">
        <ele>100.09</ele>
        <time>2019-05-27T08:33:12.000Z</time>
      </trkpt>
      <trkpt lat="44.82131" lon="4.80085">
        <ele>99.25</ele>
        <time>2019-05-27T08:33:17.000Z</time>
      </trkpt>
      <trkpt lat="44.82097" lon="4.80096">
        <ele>99.26</ele>
        <time>2019-05-27T08:33:22.000Z</time>
      </trkpt>
      <trkpt lat="44.82062" lon="4.80102">
        <ele>97.28</ele>
        <time>2019-05-27T08:33:27.000Z</time>
      </trkpt>
      <trkpt lat="44.82028" lon="4.80106">
        <ele>97.76</ele>
        <time>2019-05-27T08:33:32.000Z</time>
      </trkpt>
      <trkpt lat="44.81995" lon="4.80112">
        <ele>99.7</ele>
        <time>2019-05-27T08:33:37.000Z</time>
      </trkpt>
      <trkpt lat="44.81962" lon="4.80114">
        <ele>99.28</ele>
        <time>2019-05-27T08:33:42.000Z</time>
      </trkpt>
      <trkpt lat="44.81927" lon="4.8012">
        <ele>99.01</ele>
        <time>2019-05-27T08:33:47.000Z</time>
      </trkpt>
      <trkpt lat="44.81897" lon="4.80126">
        <ele>98.01</ele>
        <time>2019-05-27T08:33:52.000Z</time>
      </trkpt>
      <trkpt lat="44.81866" lon="4.80128">
        <ele>99.75</ele>
        <time>2019-05-27T08:33:57.000Z</time>
      </trkpt>
      <trkpt lat="44.81835" lon="4.80133">
        <ele>98.08</ele>
        <time>2019-05-27T08:34:02.000Z</time>
      </trkpt>
      <trkpt lat="44.81804" lon="4.80139">
        <ele>98.76</ele>
        <time>2019-05-27T08:34:07.000Z</time>
      </trkpt>
      <trkpt lat="44.81775" lon="4.80142">
        <ele>99.95</ele>
        <time>2019-05-27T08:34:12.000Z</time>
      </trkpt>
      <trkpt lat="44.81745" lon="4.80144">
        <ele>99.03</ele>
        <time>2019-05-27T08:34:17.000Z</time>
      </trkpt>
      <trkpt lat="44.81716" lon="4.80147">
        <ele>99.01</ele>
        <time>2019-05-27T08:34:22.000Z</time>
      </trkpt>
      <trkpt lat="44.81684" lon="4.80147">
        <ele>99.95</ele>
        <time>2019-05-27T08:34:27.000Z</time>
      </trkpt>
      <trkpt lat="44.81653" lon="4.80146">
        <ele>99.01</ele>
        <time>2019-05-27T08:34:32.000Z</time>
      </trkpt>
      <trkpt lat="44.81622" lon="4.80145">
        <ele>100.23</ele>
        <time>2019-05-27T08:34:37.000Z</time>
      </trkpt>
      <trkpt lat="44.8159" lon="4.80143">
        <ele>100.07</ele>
        <time>2019-05-27T08:34:42.000Z</time>
      </trkpt>
      <trkpt lat="44.81561" lon="4.8014">
        <ele>101.95</ele>
        <time>2019-05-27T08:34:47.000Z</time>
      </trkpt>
      <trkpt lat="44.8153" lon="4.80135">
        <ele>101.02</ele>
        <time>2019-05-27T08:34:52.000Z</time>
      </trkpt>
      <trkpt lat="44.81497" lon="4.80128">
        <ele>99.78</ele>
        <time>2019-05-27T08:34:57.000Z</time>
      </trkpt>
      <trkpt lat="44.81462" lon="4.80123">
        <ele>98.55</ele>
        <time>2019-05-27T08:35:02.000Z</time>
      </trkpt>
      <trkpt lat="44.8143" lon="4.80117">
        <ele>99.7</ele>
        <time>2019-05-27T08:35:07.000Z</time>
      </trkpt>
      <trkpt lat="44.81398" lon="4.80113">
        <ele>101.7</ele>
        <time>2019-05-27T08:35:12.000Z</time>
      </trkpt>
      <trkpt lat="44.81362" lon="4.80107">
        <ele>100.07</ele>
        <time>2019-05-27T08:35:17.000Z</time>
      </trkpt>
      <trkpt lat="44.81327" lon="4.80098">
        <ele>100.21</ele>
        <time>2019-05-27T08:35:22.000Z</time>
      </trkpt>
      <trkpt lat="44.81296" lon="4.80091">
        <ele>101.95</ele>
        <time>2019-05-27T08:35:27.000Z</time>
      </trkpt>
      <trkpt lat="44.81262" lon="4.80098">
        <ele>98.33</ele>
        <time>2019-05-27T08:35:32.000Z</time>
      </trkpt>
      <trkpt lat="44.81234" lon="4.80097">
        <ele>99.01</ele>
        <time>2019-05-27T08:35:37.000Z</time>
      </trkpt>
      <trkpt lat="44.81202" lon="4.80093">
        <ele>97.03</ele>
        <time>2019-05-27T08:35:42.000Z</time>
      </trkpt>
      <trkpt lat="44.81176" lon="4.80088">
        <ele>99.99</ele>
        <time>2019-05-27T08:35:47.000Z</time>
      </trkpt>
      <trkpt lat="44.8115" lon="4.8008">
        <ele>100.75</ele>
        <time>2019-05-27T08:35:52.000Z</time>
      </trkpt>
      <trkpt lat="44.81117" lon="4.80076">
        <ele>99.21</ele>
        <time>2019-05-27T08:35:57.000Z</time>
      </trkpt>
      <trkpt lat="44.81083" lon="4.80074">
        <ele>98.26</ele>
        <time>2019-05-27T08:36:02.000Z</time>
      </trkpt>
      <trkpt lat="44.81053" lon="4.80064">
        <ele>97.03</ele>
        <time>2019-05-27T08:36:07.000Z</time>
      </trkpt>
      <trkpt lat="44.81021" lon="4.80057">
        <ele>96.03</ele>
        <time>2019-05-27T08:36:12.000Z</time>
      </trkpt>
      <trkpt lat="44.80991" lon="4.80047">
        <ele>96.99</ele>
        <time>2019-05-27T08:36:17.000Z</time>
      </trkpt>
      <trkpt lat="44.80964" lon="4.80032">
        <ele>97.76</ele>
        <time>2019-05-27T08:36:22.000Z</time>
      </trkpt>
      <trkpt lat="44.80936" lon="4.80015">
        <ele>98.95</ele>
        <time>2019-05-27T08:36:27.000Z</time>
      </trkpt>
      <trkpt lat="44.80907" lon="4.79997">
        <ele>99.06</ele>
        <time>2019-05-27T08:36:32.000Z</time>
      </trkpt>
      <trkpt lat="44.80881" lon="4.79979">
        <ele>99.01</ele>
        <time>2019-05-27T08:36:37.000Z</time>
      </trkpt>
      <trkpt lat="44.80858" lon="4.79957">
        <ele>98.59</ele>
        <time>2019-05-27T08:36:42.000Z</time>
      </trkpt>
      <trkpt lat="44.80834" lon="4.79933">
        <ele>99.26</ele>
        <time>2019-05-27T08:36:47.000Z</time>
      </trkpt>
      <trkpt lat="44.80813" lon="4.79908">
        <ele>99.01</ele>
        <time>2019-05-27T08:36:52.000Z</time>
      </trkpt>
      <trkpt lat="44.80785" lon="4.79887">
        <ele>98.26</ele>
        <time>2019-05-27T08:36:57.000Z</time>
      </trkpt>
      <trkpt lat="44.80758" lon="4.7987">
        <ele>96.51</ele>
        <time>2019-05-27T08:37:02.000Z</time>
      </trkpt>
      <trkpt lat="44.80739" lon="4.79846">
        <ele>96.82</ele>
        <time>2019-05-27T08:37:07.000Z</time>
      </trkpt>
      <trkpt lat="44.80717" lon="4.79823">
        <ele>96.01</ele>
        <time>2019-05-27T08:37:12.000Z</time>
      </trkpt>
      <trkpt lat="44.80694" lon="4.79796">
        <ele>95.07</ele>
        <time>2019-05-27T08:37:17.000Z</time>
      </trkpt>
      <trkpt lat="44.80674" lon="4.79771">
        <ele>94.01</ele>
        <time>2019-05-27T08:37:22.000Z</time>
      </trkpt>
      <trkpt lat="44.80651" lon="4.79748">
        <ele>95.01</ele>
        <time>2019-05-27T08:37:27.000Z</time>
      </trkpt>
      <trkpt lat="44.80626" lon="4.79727">
        <ele>93.81</ele>
        <time>2019-05-27T08:37:32.000Z</time>
      </trkpt>
      <trkpt lat="44.806" lon="4.79701">
        <ele>94.25</ele>
        <time>2019-05-27T08:37:37.000Z</time>
      </trkpt>
      <trkpt lat="44.80586" lon="4.7967">
        <ele>95.97</ele>
        <time>2019-05-27T08:37:42.000Z</time>
      </trkpt>
      <trkpt lat="44.80573" lon="4.7963">
        <ele>95.02</ele>
        <time>2019-05-27T08:37:47.000Z</time>
      </trkpt>
      <trkpt lat="44.80559" lon="4.79589">
        <ele>95.82</ele>
        <time>2019-05-27T08:37:52.000Z</time>
      </trkpt>
      <trkpt lat="44.80551" lon="4.79542">
        <ele>95.77</ele>
        <time>2019-05-27T08:37:57.000Z</time>
      </trkpt>
      <trkpt lat="44.80547" lon="4.79499">
        <ele>95.01</ele>
        <time>2019-05-27T08:38:02.000Z</time>
      </trkpt>
      <trkpt lat="44.80535" lon="4.79458">
        <ele>95.94</ele>
        <time>2019-05-27T08:38:07.000Z</time>
      </trkpt>
      <trkpt lat="44.80528" lon="4.7942">
        <ele>96.99</ele>
        <time>2019-05-27T08:38:12.000Z</time>
      </trkpt>
      <trkpt lat="44.80513" lon="4.79406">
        <ele>97.8</ele>
        <time>2019-05-27T08:38:17.000Z</time>
      </trkpt>
      <trkpt lat="44.80506" lon="4.79375">
        <ele>98.99</ele>
        <time>2019-05-27T08:38:22.000Z</time>
      </trkpt>
      <trkpt lat="44.80495" lon="4.79345">
        <ele>95.45</ele>
        <time>2019-05-27T08:38:27.000Z</time>
      </trkpt>
      <trkpt lat="44.80473" lon="4.79319">
        <ele>95</ele>
        <time>2019-05-27T08:38:32.000Z</time>
      </trkpt>
      <trkpt lat="44.80461" lon="4.79288">
        <ele>96.8</ele>
        <time>2019-05-27T08:38:37.000Z</time>
      </trkpt>
      <trkpt lat="44.80453" lon="4.79253">
        <ele>96.76</ele>
        <time>2019-05-27T08:38:42.000Z</time>
      </trkpt>
      <trkpt lat="44.80435" lon="4.79224">
        <ele>97.01</ele>
        <time>2019-05-27T08:38:47.000Z</time>
      </trkpt>
      <trkpt lat="44.80422" lon="4.79191">
        <ele>96.99</ele>
        <time>2019-05-27T08:38:52.000Z</time>
      </trkpt>
      <trkpt lat="44.8041" lon="4.79156">
        <ele>97.8</ele>
        <time>2019-05-27T08:38:57.000Z</time>
      </trkpt>
      <trkpt lat="44.80401" lon="4.7912">
        <ele>99.05</ele>
        <time>2019-05-27T08:39:02.000Z</time>
      </trkpt>
      <trkpt lat="44.80412" lon="4.79085">
        <ele>98</ele>
        <time>2019-05-27T08:39:07.000Z</time>
      </trkpt>
      <trkpt lat="44.80391" lon="4.79047">
        <ele>97.26</ele>
        <time>2019-05-27T08:39:12.000Z</time>
      </trkpt>
      <trkpt lat="44.80379" lon="4.79014">
        <ele>93.32</ele>
        <time>2019-05-27T08:39:17.000Z</time>
      </trkpt>
      <trkpt lat="44.80363" lon="4.78985">
        <ele>93.24</ele>
        <time>2019-05-27T08:39:22.000Z</time>
      </trkpt>
      <trkpt lat="44.80347" lon="4.78934">
        <ele>92.97</ele>
        <time>2019-05-27T08:39:27.000Z</time>
      </trkpt>
      <trkpt lat="44.80333" lon="4.78898">
        <ele>95.31</ele>
        <time>2019-05-27T08:39:32.000Z</time>
      </trkpt>
      <trkpt lat="44.80316" lon="4.78852">
        <ele>92.01</ele>
        <time>2019-05-27T08:39:37.000Z</time>
      </trkpt>
      <trkpt lat="44.80305" lon="4.78811">
        <ele>93.93</ele>
        <time>2019-05-27T08:39:42.000Z</time>
      </trkpt>
      <trkpt lat="44.80296" lon="4.78773">
        <ele>92.44</ele>
        <time>2019-05-27T08:39:47.000Z</time>
      </trkpt>
      <trkpt lat="44.80283" lon="4.78737">
        <ele>91.27</ele>
        <time>2019-05-27T08:39:52.000Z</time>
      </trkpt>
      <trkpt lat="44.80273" lon="4.78702">
        <ele>90.77</ele>
        <time>2019-05-27T08:39:57.000Z</time>
      </trkpt>
      <trkpt lat="44.80264" lon="4.78673">
        <ele>93.73</ele>
        <time>2019-05-27T08:40:02.000Z</time>
      </trkpt>
      <trkpt lat="44.80248" lon="4.78637">
        <ele>91.07</ele>
        <time>2019-05-27T08:40:07.000Z</time>
      </trkpt>
      <trkpt lat="44.80232" lon="4.78595">
        <ele>88.33</ele>
        <time>2019-05-27T08:40:12.000Z</time>
      </trkpt>
      <trkpt lat="44.80217" lon="4.78559">
        <ele>87.96</ele>
        <time>2019-05-27T08:40:17.000Z</time>
      </trkpt>
      <trkpt lat="44.80203" lon="4.78525">
        <ele>88.21</ele>
        <time>2019-05-27T08:40:22.000Z</time>
      </trkpt>
      <trkpt lat="44.8019" lon="4.78493">
        <ele>88.95</ele>
        <time>2019-05-27T08:40:27.000Z</time>
      </trkpt>
      <trkpt lat="44.8018" lon="4.78472">
        <ele>89.25</ele>
        <time>2019-05-27T08:40:32.000Z</time>
      </trkpt>
      <trkpt lat="44.80169" lon="4.78454">
        <ele>88.72</ele>
        <time>2019-05-27T08:40:37.000Z</time>
      </trkpt>
      <trkpt lat="44.80156" lon="4.78425">
        <ele>91.08</ele>
        <time>2019-05-27T08:40:42.000Z</time>
      </trkpt>
      <trkpt lat="44.80138" lon="4.78396">
        <ele>89.26</ele>
        <time>2019-05-27T08:40:47.000Z</time>
      </trkpt>
      <trkpt lat="44.80114" lon="4.78366">
        <ele>93.05</ele>
        <time>2019-05-27T08:40:52.000Z</time>
      </trkpt>
      <trkpt lat="44.80085" lon="4.78339">
        <ele>92.01</ele>
        <time>2019-05-27T08:40:57.000Z</time>
      </trkpt>
      <trkpt lat="44.80064" lon="4.78307">
        <ele>92.25</ele>
        <time>2019-05-27T08:41:02.000Z</time>
      </trkpt>
      <trkpt lat="44.80048" lon="4.78278">
        <ele>93.05</ele>
        <time>2019-05-27T08:41:07.000Z</time>
      </trkpt>
      <trkpt lat="44.80037" lon="4.78257">
        <ele>94.99</ele>
        <time>2019-05-27T08:41:12.000Z</time>
      </trkpt>
      <trkpt lat="44.80024" lon="4.78239">
        <ele>97</ele>
        <time>2019-05-27T08:41:17.000Z</time>
      </trkpt>
      <trkpt lat="44.80012" lon="4.7822">
        <ele>98</ele>
        <time>2019-05-27T08:41:22.000Z</time>
      </trkpt>
      <trkpt lat="44.80004" lon="4.78206">
        <ele>99.94</ele>
        <time>2019-05-27T08:41:27.000Z</time>
      </trkpt>
      <trkpt lat="44.80001" lon="4.78193">
        <ele>99.19</ele>
        <time>2019-05-27T08:41:41.000Z</time>
      </trkpt>
      <trkpt lat="44.80012" lon="4.78192">
        <ele>97.95</ele>
        <time>2019-05-27T08:41:46.000Z</time>
      </trkpt>
      <trkpt lat="44.80024" lon="4.78215">
        <ele>99.93</ele>
        <time>2019-05-27T08:41:51.000Z</time>
      </trkpt>
      <trkpt lat="44.80036" lon="4.78232">
        <ele>98.99</ele>
        <time>2019-05-27T08:41:56.000Z</time>
      </trkpt>
      <trkpt lat="44.8004" lon="4.78221">
        <ele>98.76</ele>
        <time>2019-05-27T08:42:08.000Z</time>
      </trkpt>
      <trkpt lat="44.80037" lon="4.78206">
        <ele>95.99</ele>
        <time>2019-05-27T08:42:19.000Z</time>
      </trkpt>
      <trkpt lat="44.8003" lon="4.7819">
        <ele>97.94</ele>
        <time>2019-05-27T08:42:24.000Z</time>
      </trkpt>
      <trkpt lat="44.80027" lon="4.78177">
        <ele>99.93</ele>
        <time>2019-05-27T08:42:29.000Z</time>
      </trkpt>
      <trkpt lat="44.80032" lon="4.7819">
        <ele>102.06</ele>
        <time>2019-05-27T08:42:41.000Z</time>
      </trkpt>
      <trkpt lat="44.80036" lon="4.78208">
        <ele>100.75</ele>
        <time>2019-05-27T08:42:46.000Z</time>
      </trkpt>
      <trkpt lat="44.80045" lon="4.78205">
        <ele>100.25</ele>
        <time>2019-05-27T08:42:52.000Z</time>
      </trkpt>
      <trkpt lat="44.80047" lon="4.78188">
        <ele>99.95</ele>
        <time>2019-05-27T08:42:57.000Z</time>
      </trkpt>
      <trkpt lat="44.80049" lon="4.78169">
        <ele>101.94</ele>
        <time>2019-05-27T08:43:02.000Z</time>
      </trkpt>
      <trkpt lat="44.8005" lon="4.78155">
        <ele>100.99</ele>
        <time>2019-05-27T08:43:08.000Z</time>
      </trkpt>
      <trkpt lat="44.80037" lon="4.78143">
        <ele>102</ele>
        <time>2019-05-27T08:43:13.000Z</time>
      </trkpt>
      <trkpt lat="44.80019" lon="4.78137">
        <ele>102.69</ele>
        <time>2019-05-27T08:43:18.000Z</time>
      </trkpt>
      <trkpt lat="44.8001" lon="4.78123">
        <ele>105.67</ele>
        <time>2019-05-27T08:43:23.000Z</time>
      </trkpt>
      <trkpt lat="44.8" lon="4.7811">
        <ele>104.95</ele>
        <time>2019-05-27T08:43:28.000Z</time>
      </trkpt>
      <trkpt lat="44.80008" lon="4.78117">
        <ele>106.92</ele>
        <time>2019-05-27T08:43:40.000Z</time>
      </trkpt>
      <trkpt lat="44.80015" lon="4.78127">
        <ele>103.08</ele>
        <time>2019-05-27T08:43:51.000Z</time>
      </trkpt>
      <trkpt lat="44.80017" lon="4.7814">
        <ele>102.7</ele>
        <time>2019-05-27T08:59:14.000Z</time>
      </trkpt>
      <trkpt lat="44.80026" lon="4.78144">
        <ele>104.99</ele>
        <time>2019-05-27T08:59:22.000Z</time>
      </trkpt>
      <trkpt lat="44.80034" lon="4.78148">
        <ele>100.83</ele>
        <time>2019-05-27T08:59:29.000Z</time>
      </trkpt>
      <trkpt lat="44.80039" lon="4.7816">
        <ele>102.98</ele>
        <time>2019-05-27T09:00:07.000Z</time>
      </trkpt>
      <trkpt lat="44.80039" lon="4.78182">
        <ele>101.02</ele>
        <time>2019-05-27T09:00:12.000Z</time>
      </trkpt>
      <trkpt lat="44.80044" lon="4.78207">
        <ele>100.21</ele>
        <time>2019-05-27T09:00:17.000Z</time>
      </trkpt>
      <trkpt lat="44.8006" lon="4.78224">
        <ele>99.07</ele>
        <time>2019-05-27T09:00:22.000Z</time>
      </trkpt>
      <trkpt lat="44.80076" lon="4.78238">
        <ele>100.73</ele>
        <time>2019-05-27T09:00:27.000Z</time>
      </trkpt>
      <trkpt lat="44.80087" lon="4.78262">
        <ele>100.07</ele>
        <time>2019-05-27T09:00:32.000Z</time>
      </trkpt>
      <trkpt lat="44.80099" lon="4.78289">
        <ele>99.25</ele>
        <time>2019-05-27T09:00:37.000Z</time>
      </trkpt>
      <trkpt lat="44.80114" lon="4.78308">
        <ele>101.98</ele>
        <time>2019-05-27T09:00:42.000Z</time>
      </trkpt>
      <trkpt lat="44.80118" lon="4.78325">
        <ele>102.02</ele>
        <time>2019-05-27T09:00:47.000Z</time>
      </trkpt>
      <trkpt lat="44.80109" lon="4.78329">
        <ele>103.02</ele>
        <time>2019-05-27T09:01:05.000Z</time>
      </trkpt>
      <trkpt lat="44.80117" lon="4.78334">
        <ele>95.76</ele>
        <time>2019-05-27T09:01:26.000Z</time>
      </trkpt>
      <trkpt lat="44.80124" lon="4.78325">
        <ele>94.94</ele>
        <time>2019-05-27T09:01:33.000Z</time>
      </trkpt>
      <trkpt lat="44.80128" lon="4.78312">
        <ele>94.82</ele>
        <time>2019-05-27T09:01:38.000Z</time>
      </trkpt>
      <trkpt lat="44.80118" lon="4.78313">
        <ele>94.95</ele>
        <time>2019-05-27T09:01:43.000Z</time>
      </trkpt>
      <trkpt lat="44.80127" lon="4.78311">
        <ele>95.27</ele>
        <time>2019-05-27T09:01:54.000Z</time>
      </trkpt>
      <trkpt lat="44.80122" lon="4.78323">
        <ele>93.1</ele>
        <time>2019-05-27T09:02:01.000Z</time>
      </trkpt>
      <trkpt lat="44.80107" lon="4.7834">
        <ele>92.69</ele>
        <time>2019-05-27T09:02:06.000Z</time>
      </trkpt>
      <trkpt lat="44.80091" lon="4.78358">
        <ele>94.55</ele>
        <time>2019-05-27T09:02:11.000Z</time>
      </trkpt>
      <trkpt lat="44.80076" lon="4.78375">
        <ele>95.93</ele>
        <time>2019-05-27T09:02:16.000Z</time>
      </trkpt>
      <trkpt lat="44.80061" lon="4.7839">
        <ele>97</ele>
        <time>2019-05-27T09:02:21.000Z</time>
      </trkpt>
      <trkpt lat="44.80042" lon="4.78406">
        <ele>98.81</ele>
        <time>2019-05-27T09:02:26.000Z</time>
      </trkpt>
      <trkpt lat="44.80023" lon="4.78425">
        <ele>99.99</ele>
        <time>2019-05-27T09:02:31.000Z</time>
      </trkpt>
      <trkpt lat="44.80003" lon="4.78448">
        <ele>97.31</ele>
        <time>2019-05-27T09:02:36.000Z</time>
      </trkpt>
      <trkpt lat="44.79981" lon="4.78472">
        <ele>97.75</ele>
        <time>2019-05-27T09:02:41.000Z</time>
      </trkpt>
      <trkpt lat="44.79959" lon="4.78494">
        <ele>99.24</ele>
        <time>2019-05-27T09:02:46.000Z</time>
      </trkpt>
      <trkpt lat="44.79933" lon="4.7852">
        <ele>96.27</ele>
        <time>2019-05-27T09:02:51.000Z</time>
      </trkpt>
      <trkpt lat="44.79907" lon="4.78549">
        <ele>92.03</ele>
        <time>2019-05-27T09:02:56.000Z</time>
      </trkpt>
      <trkpt lat="44.7989" lon="4.78566">
        <ele>91.08</ele>
        <time>2019-05-27T09:03:01.000Z</time>
      </trkpt>
      <trkpt lat="44.79871" lon="4.78549">
        <ele>90.75</ele>
        <time>2019-05-27T09:03:06.000Z</time>
      </trkpt>
      <trkpt lat="44.79842" lon="4.78525">
        <ele>94.3</ele>
        <time>2019-05-27T09:03:11.000Z</time>
      </trkpt>
      <trkpt lat="44.79813" lon="4.78501">
        <ele>93</ele>
        <time>2019-05-27T09:03:16.000Z</time>
      </trkpt>
      <trkpt lat="44.79786" lon="4.78475">
        <ele>92</ele>
        <time>2019-05-27T09:03:21.000Z</time>
      </trkpt>
      <trkpt lat="44.79758" lon="4.78451">
        <ele>93.97</ele>
        <time>2019-05-27T09:03:26.000Z</time>
      </trkpt>
      <trkpt lat="44.79731" lon="4.78429">
        <ele>92.32</ele>
        <time>2019-05-27T09:03:31.000Z</time>
      </trkpt>
      <trkpt lat="44.79707" lon="4.78408">
        <ele>92.01</ele>
        <time>2019-05-27T09:03:36.000Z</time>
      </trkpt>
      <trkpt lat="44.79679" lon="4.78387">
        <ele>90.2</ele>
        <time>2019-05-27T09:03:41.000Z</time>
      </trkpt>
      <trkpt lat="44.79653" lon="4.78363">
        <ele>91.94</ele>
        <time>2019-05-27T09:03:46.000Z</time>
      </trkpt>
      <trkpt lat="44.79628" lon="4.78347">
        <ele>91</ele>
        <time>2019-05-27T09:03:51.000Z</time>
      </trkpt>
      <trkpt lat="44.796" lon="4.7833">
        <ele>91.94</ele>
        <time>2019-05-27T09:03:56.000Z</time>
      </trkpt>
      <trkpt lat="44.79572" lon="4.78315">
        <ele>92.05</ele>
        <time>2019-05-27T09:04:01.000Z</time>
      </trkpt>
      <trkpt lat="44.79543" lon="4.78299">
        <ele>92.99</ele>
        <time>2019-05-27T09:04:06.000Z</time>
      </trkpt>
      <trkpt lat="44.79514" lon="4.78281">
        <ele>95.03</ele>
        <time>2019-05-27T09:04:11.000Z</time>
      </trkpt>
      <trkpt lat="44.79489" lon="4.78261">
        <ele>94.94</ele>
        <time>2019-05-27T09:04:16.000Z</time>
      </trkpt>
      <trkpt lat="44.7947" lon="4.78238">
        <ele>95.02</ele>
        <time>2019-05-27T09:04:21.000Z</time>
      </trkpt>
      <trkpt lat="44.7945" lon="4.78211">
        <ele>94.95</ele>
        <time>2019-05-27T09:04:26.000Z</time>
      </trkpt>
      <trkpt lat="44.79423" lon="4.78185">
        <ele>94.25</ele>
        <time>2019-05-27T09:04:31.000Z</time>
      </trkpt>
      <trkpt lat="44.79394" lon="4.78169">
        <ele>94</ele>
        <time>2019-05-27T09:04:36.000Z</time>
      </trkpt>
      <trkpt lat="44.79363" lon="4.78155">
        <ele>95</ele>
        <time>2019-05-27T09:04:41.000Z</time>
      </trkpt>
      <trkpt lat="44.79334" lon="4.78131">
        <ele>95.56</ele>
        <time>2019-05-27T09:04:46.000Z</time>
      </trkpt>
      <trkpt lat="44.79303" lon="4.78101">
        <ele>94.81</ele>
        <time>2019-05-27T09:04:51.000Z</time>
      </trkpt>
      <trkpt lat="44.7927" lon="4.7808">
        <ele>94.02</ele>
        <time>2019-05-27T09:04:56.000Z</time>
      </trkpt>
      <trkpt lat="44.79238" lon="4.78059">
        <ele>94</ele>
        <time>2019-05-27T09:05:01.000Z</time>
      </trkpt>
      <trkpt lat="44.79208" lon="4.78036">
        <ele>95</ele>
        <time>2019-05-27T09:05:06.000Z</time>
      </trkpt>
      <trkpt lat="44.79179" lon="4.7801">
        <ele>95</ele>
        <time>2019-05-27T09:05:11.000Z</time>
      </trkpt>
      <trkpt lat="44.79148" lon="4.77985">
        <ele>95</ele>
        <time>2019-05-27T09:05:16.000Z</time>
      </trkpt>
      <trkpt lat="44.79117" lon="4.77961">
        <ele>94.06</ele>
        <time>2019-05-27T09:05:21.000Z</time>
      </trkpt>
      <trkpt lat="44.79088" lon="4.77936">
        <ele>94.05</ele>
        <time>2019-05-27T09:05:26.000Z</time>
      </trkpt>
      <trkpt lat="44.79058" lon="4.77911">
        <ele>93.77</ele>
        <time>2019-05-27T09:05:31.000Z</time>
      </trkpt>
      <trkpt lat="44.79028" lon="4.77884">
        <ele>92.25</ele>
        <time>2019-05-27T09:05:36.000Z</time>
      </trkpt>
      <trkpt lat="44.78997" lon="4.77857">
        <ele>93.94</ele>
        <time>2019-05-27T09:05:41.000Z</time>
      </trkpt>
      <trkpt lat="44.78967" lon="4.77828">
        <ele>94</ele>
        <time>2019-05-27T09:05:46.000Z</time>
      </trkpt>
      <trkpt lat="44.78937" lon="4.77803">
        <ele>93</ele>
        <time>2019-05-27T09:05:51.000Z</time>
      </trkpt>
      <trkpt lat="44.78908" lon="4.77775">
        <ele>93.75</ele>
        <time>2019-05-27T09:05:56.000Z</time>
      </trkpt>
      <trkpt lat="44.78878" lon="4.77748">
        <ele>94.01</ele>
        <time>2019-05-27T09:06:01.000Z</time>
      </trkpt>
      <trkpt lat="44.78848" lon="4.77722">
        <ele>93.2</ele>
        <time>2019-05-27T09:06:06.000Z</time>
      </trkpt>
      <trkpt lat="44.78818" lon="4.77696">
        <ele>93</ele>
        <time>2019-05-27T09:06:11.000Z</time>
      </trkpt>
      <trkpt lat="44.78786" lon="4.77673">
        <ele>92</ele>
        <time>2019-05-27T09:06:16.000Z</time>
      </trkpt>
      <trkpt lat="44.78754" lon="4.77651">
        <ele>92</ele>
        <time>2019-05-27T09:06:21.000Z</time>
      </trkpt>
      <trkpt lat="44.78719" lon="4.77632">
        <ele>92</ele>
        <time>2019-05-27T09:06:26.000Z</time>
      </trkpt>
      <trkpt lat="44.78686" lon="4.7761">
        <ele>92.98</ele>
        <time>2019-05-27T09:06:31.000Z</time>
      </trkpt>
      <trkpt lat="44.78656" lon="4.77587">
        <ele>92.76</ele>
        <time>2019-05-27T09:06:36.000Z</time>
      </trkpt>
      <trkpt lat="44.78624" lon="4.77567">
        <ele>93.92</ele>
        <time>2019-05-27T09:06:41.000Z</time>
      </trkpt>
      <trkpt lat="44.78591" lon="4.77547">
        <ele>93</ele>
        <time>2019-05-27T09:06:46.000Z</time>
      </trkpt>
      <trkpt lat="44.78557" lon="4.77531">
        <ele>91.76</ele>
        <time>2019-05-27T09:06:51.000Z</time>
      </trkpt>
      <trkpt lat="44.78522" lon="4.77519">
        <ele>92</ele>
        <time>2019-05-27T09:06:56.000Z</time>
      </trkpt>
      <trkpt lat="44.78486" lon="4.77506">
        <ele>92</ele>
        <time>2019-05-27T09:07:01.000Z</time>
      </trkpt>
      <trkpt lat="44.78448" lon="4.77496">
        <ele>92.99</ele>
        <time>2019-05-27T09:07:06.000Z</time>
      </trkpt>
      <trkpt lat="44.78412" lon="4.77484">
        <ele>94.75</ele>
        <time>2019-05-27T09:07:11.000Z</time>
      </trkpt>
      <trkpt lat="44.7838" lon="4.77471">
        <ele>95.31</ele>
        <time>2019-05-27T09:07:16.000Z</time>
      </trkpt>
      <trkpt lat="44.78344" lon="4.77459">
        <ele>92.94</ele>
        <time>2019-05-27T09:07:21.000Z</time>
      </trkpt>
      <trkpt lat="44.78309" lon="4.77444">
        <ele>96.67</ele>
        <time>2019-05-27T09:07:26.000Z</time>
      </trkpt>
      <trkpt lat="44.78274" lon="4.77431">
        <ele>95.97</ele>
        <time>2019-05-27T09:07:31.000Z</time>
      </trkpt>
      <trkpt lat="44.78241" lon="4.77419">
        <ele>93.27</ele>
        <time>2019-05-27T09:07:36.000Z</time>
      </trkpt>
      <trkpt lat="44.78209" lon="4.77399">
        <ele>92.82</ele>
        <time>2019-05-27T09:07:41.000Z</time>
      </trkpt>
      <trkpt lat="44.78184" lon="4.77377">
        <ele>93.26</ele>
        <time>2019-05-27T09:07:46.000Z</time>
      </trkpt>
      <trkpt lat="44.78156" lon="4.77377">
        <ele>91</ele>
        <time>2019-05-27T09:07:51.000Z</time>
      </trkpt>
      <trkpt lat="44.78157" lon="4.77412">
        <ele>91.92</ele>
        <time>2019-05-27T09:07:56.000Z</time>
      </trkpt>
      <trkpt lat="44.78144" lon="4.77424">
        <ele>92.7</ele>
        <time>2019-05-27T09:08:01.000Z</time>
      </trkpt>
      <trkpt lat="44.78125" lon="4.77418">
        <ele>92.01</ele>
        <time>2019-05-27T09:08:06.000Z</time>
      </trkpt>
      <trkpt lat="44.78103" lon="4.77433">
        <ele>89.28</ele>
        <time>2019-05-27T09:08:11.000Z</time>
      </trkpt>
      <trkpt lat="44.78088" lon="4.77409">
        <ele>90.68</ele>
        <time>2019-05-27T09:08:16.000Z</time>
      </trkpt>
      <trkpt lat="44.7808" lon="4.77402">
        <ele>89.06</ele>
        <time>2019-05-27T09:08:49.000Z</time>
      </trkpt>
      <trkpt lat="44.78081" lon="4.77387">
        <ele>88.98</ele>
        <time>2019-05-27T09:09:54.000Z</time>
      </trkpt>
      <trkpt lat="44.78076" lon="4.77371">
        <ele>89.93</ele>
        <time>2019-05-27T09:09:59.000Z</time>
      </trkpt>
      <trkpt lat="44.78063" lon="4.77345">
        <ele>91</ele>
        <time>2019-05-27T09:10:04.000Z</time>
      </trkpt>
      <trkpt lat="44.78049" lon="4.77317">
        <ele>92.93</ele>
        <time>2019-05-27T09:10:09.000Z</time>
      </trkpt>
      <trkpt lat="44.78032" lon="4.77285">
        <ele>94.73</ele>
        <time>2019-05-27T09:10:14.000Z</time>
      </trkpt>
      <trkpt lat="44.78014" lon="4.77249">
        <ele>93.5</ele>
        <time>2019-05-27T09:10:19.000Z</time>
      </trkpt>
      <trkpt lat="44.77998" lon="4.77212">
        <ele>94.75</ele>
        <time>2019-05-27T09:10:24.000Z</time>
      </trkpt>
      <trkpt lat="44.77983" lon="4.77172">
        <ele>95</ele>
        <time>2019-05-27T09:10:29.000Z</time>
      </trkpt>
      <trkpt lat="44.77963" lon="4.77133">
        <ele>95</ele>
        <time>2019-05-27T09:10:34.000Z</time>
      </trkpt>
      <trkpt lat="44.77942" lon="4.77093">
        <ele>95</ele>
        <time>2019-05-27T09:10:39.000Z</time>
      </trkpt>
      <trkpt lat="44.7792" lon="4.77057">
        <ele>94.01</ele>
        <time>2019-05-27T09:10:44.000Z</time>
      </trkpt>
      <trkpt lat="44.77896" lon="4.77026">
        <ele>93.76</ele>
        <time>2019-05-27T09:10:49.000Z</time>
      </trkpt>
      <trkpt lat="44.77874" lon="4.76995">
        <ele>92.07</ele>
        <time>2019-05-27T09:10:54.000Z</time>
      </trkpt>
      <trkpt lat="44.77849" lon="4.76968">
        <ele>92</ele>
        <time>2019-05-27T09:10:59.000Z</time>
      </trkpt>
      <trkpt lat="44.77824" lon="4.76944">
        <ele>92.95</ele>
        <time>2019-05-27T09:11:04.000Z</time>
      </trkpt>
      <trkpt lat="44.778" lon="4.76918">
        <ele>93.79</ele>
        <time>2019-05-27T09:11:09.000Z</time>
      </trkpt>
      <trkpt lat="44.77774" lon="4.76892">
        <ele>94.17</ele>
        <time>2019-05-27T09:11:14.000Z</time>
      </trkpt>
      <trkpt lat="44.77749" lon="4.76867">
        <ele>94.18</ele>
        <time>2019-05-27T09:11:19.000Z</time>
      </trkpt>
      <trkpt lat="44.77722" lon="4.76841">
        <ele>94.76</ele>
        <time>2019-05-27T09:11:24.000Z</time>
      </trkpt>
      <trkpt lat="44.77694" lon="4.76814">
        <ele>94</ele>
        <time>2019-05-27T09:11:29.000Z</time>
      </trkpt>
      <trkpt lat="44.77667" lon="4.76784">
        <ele>94</ele>
        <time>2019-05-27T09:11:34.000Z</time>
      </trkpt>
      <trkpt lat="44.77639" lon="4.76756">
        <ele>92.31</ele>
        <time>2019-05-27T09:11:39.000Z</time>
      </trkpt>
      <trkpt lat="44.77606" lon="4.76745">
        <ele>91.26</ele>
        <time>2019-05-27T09:11:44.000Z</time>
      </trkpt>
      <trkpt lat="44.77576" lon="4.76754">
        <ele>91.05</ele>
        <time>2019-05-27T09:11:49.000Z</time>
      </trkpt>
      <trkpt lat="44.77545" lon="4.7677">
        <ele>92.73</ele>
        <time>2019-05-27T09:11:54.000Z</time>
      </trkpt>
      <trkpt lat="44.77513" lon="4.76779">
        <ele>91.26</ele>
        <time>2019-05-27T09:11:59.000Z</time>
      </trkpt>
      <trkpt lat="44.77481" lon="4.76781">
        <ele>91.24</ele>
        <time>2019-05-27T09:12:04.000Z</time>
      </trkpt>
      <trkpt lat="44.77445" lon="4.76783">
        <ele>91.23</ele>
        <time>2019-05-27T09:12:09.000Z</time>
      </trkpt>
      <trkpt lat="44.77412" lon="4.7678">
        <ele>89.01</ele>
        <time>2019-05-27T09:12:14.000Z</time>
      </trkpt>
      <trkpt lat="44.77379" lon="4.76771">
        <ele>88.99</ele>
        <time>2019-05-27T09:12:19.000Z</time>
      </trkpt>
      <trkpt lat="44.77346" lon="4.76763">
        <ele>88.99</ele>
        <time>2019-05-27T09:12:24.000Z</time>
      </trkpt>
      <trkpt lat="44.77313" lon="4.76764">
        <ele>90.69</ele>
        <time>2019-05-27T09:12:29.000Z</time>
      </trkpt>
      <trkpt lat="44.77279" lon="4.76762">
        <ele>93.72</ele>
        <time>2019-05-27T09:12:34.000Z</time>
      </trkpt>
      <trkpt lat="44.77264" lon="4.76788">
        <ele>94.23</ele>
        <time>2019-05-27T09:12:39.000Z</time>
      </trkpt>
      <trkpt lat="44.77261" lon="4.76809">
        <ele>93.75</ele>
        <time>2019-05-27T09:12:44.000Z</time>
      </trkpt>
      <trkpt lat="44.77258" lon="4.76827">
        <ele>96.68</ele>
        <time>2019-05-27T09:12:49.000Z</time>
      </trkpt>
      <trkpt lat="44.77255" lon="4.76839">
        <ele>96.24</ele>
        <time>2019-05-27T09:12:54.000Z</time>
      </trkpt>
      <trkpt lat="44.77253" lon="4.76862">
        <ele>96.05</ele>
        <time>2019-05-27T09:12:59.000Z</time>
      </trkpt>
      <trkpt lat="44.77253" lon="4.76888">
        <ele>96.99</ele>
        <time>2019-05-27T09:13:04.000Z</time>
      </trkpt>
      <trkpt lat="44.77253" lon="4.76906">
        <ele>96.99</ele>
        <time>2019-05-27T09:13:09.000Z</time>
      </trkpt>
      <trkpt lat="44.77242" lon="4.76908">
        <ele>97.95</ele>
        <time>2019-05-27T09:13:14.000Z</time>
      </trkpt>
      <trkpt lat="44.77227" lon="4.76905">
        <ele>98.74</ele>
        <time>2019-05-27T09:13:19.000Z</time>
      </trkpt>
      <trkpt lat="44.77213" lon="4.76901">
        <ele>99.98</ele>
        <time>2019-05-27T09:13:24.000Z</time>
      </trkpt>
      <trkpt lat="44.77196" lon="4.76901">
        <ele>100.99</ele>
        <time>2019-05-27T09:13:29.000Z</time>
      </trkpt>
      <trkpt lat="44.77179" lon="4.769">
        <ele>100.99</ele>
        <time>2019-05-27T09:13:34.000Z</time>
      </trkpt>
      <trkpt lat="44.77159" lon="4.76898">
        <ele>101.04</ele>
        <time>2019-05-27T09:13:39.000Z</time>
      </trkpt>
      <trkpt lat="44.77136" lon="4.76896">
        <ele>100.99</ele>
        <time>2019-05-27T09:13:44.000Z</time>
      </trkpt>
      <trkpt lat="44.7711" lon="4.76895">
        <ele>101.06</ele>
        <time>2019-05-27T09:13:49.000Z</time>
      </trkpt>
      <trkpt lat="44.77086" lon="4.76893">
        <ele>98.93</ele>
        <time>2019-05-27T09:13:54.000Z</time>
      </trkpt>
      <trkpt lat="44.77076" lon="4.7689">
        <ele>99.99</ele>
        <time>2019-05-27T09:13:59.000Z</time>
      </trkpt>
      <trkpt lat="44.77078" lon="4.76864">
        <ele>99.99</ele>
        <time>2019-05-27T09:14:04.000Z</time>
      </trkpt>
      <trkpt lat="44.77081" lon="4.76826">
        <ele>100.23</ele>
        <time>2019-05-27T09:14:09.000Z</time>
      </trkpt>
      <trkpt lat="44.7708" lon="4.76786">
        <ele>99.06</ele>
        <time>2019-05-27T09:14:14.000Z</time>
      </trkpt>
      <trkpt lat="44.77079" lon="4.76744">
        <ele>98</ele>
        <time>2019-05-27T09:14:19.000Z</time>
      </trkpt>
      <trkpt lat="44.77077" lon="4.76702">
        <ele>98.23</ele>
        <time>2019-05-27T09:14:24.000Z</time>
      </trkpt>
      <trkpt lat="44.77073" lon="4.76664">
        <ele>98.93</ele>
        <time>2019-05-27T09:14:29.000Z</time>
      </trkpt>
      <trkpt lat="44.77065" lon="4.7667">
        <ele>97.06</ele>
        <time>2019-05-27T09:14:35.000Z</time>
      </trkpt>
      <trkpt lat="44.77063" lon="4.76705">
        <ele>95.01</ele>
        <time>2019-05-27T09:14:40.000Z</time>
      </trkpt>
      <trkpt lat="44.77056" lon="4.76686">
        <ele>93</ele>
        <time>2019-05-27T09:14:45.000Z</time>
      </trkpt>
      <trkpt lat="44.77055" lon="4.76655">
        <ele>92.99</ele>
        <time>2019-05-27T09:14:50.000Z</time>
      </trkpt>
      <trkpt lat="44.77052" lon="4.76619">
        <ele>92.99</ele>
        <time>2019-05-27T09:14:55.000Z</time>
      </trkpt>
      <trkpt lat="44.77047" lon="4.76582">
        <ele>93.06</ele>
        <time>2019-05-27T09:15:00.000Z</time>
      </trkpt>
      <trkpt lat="44.77042" lon="4.76545">
        <ele>93.74</ele>
        <time>2019-05-27T09:15:05.000Z</time>
      </trkpt>
      <trkpt lat="44.77036" lon="4.76509">
        <ele>94.74</ele>
        <time>2019-05-27T09:15:10.000Z</time>
      </trkpt>
      <trkpt lat="44.77028" lon="4.76471">
        <ele>93.81</ele>
        <time>2019-05-27T09:15:15.000Z</time>
      </trkpt>
      <trkpt lat="44.7702" lon="4.76432">
        <ele>93.99</ele>
        <time>2019-05-27T09:15:20.000Z</time>
      </trkpt>
      <trkpt lat="44.77011" lon="4.76394">
        <ele>94.99</ele>
        <time>2019-05-27T09:15:25.000Z</time>
      </trkpt>
      <trkpt lat="44.77" lon="4.76352">
        <ele>95.18</ele>
        <time>2019-05-27T09:15:30.000Z</time>
      </trkpt>
      <trkpt lat="44.76989" lon="4.76309">
        <ele>95.99</ele>
        <time>2019-05-27T09:15:35.000Z</time>
      </trkpt>
      <trkpt lat="44.76976" lon="4.76266">
        <ele>95.99</ele>
        <time>2019-05-27T09:15:40.000Z</time>
      </trkpt>
      <trkpt lat="44.76962" lon="4.76224">
        <ele>95.19</ele>
        <time>2019-05-27T09:15:45.000Z</time>
      </trkpt>
      <trkpt lat="44.76947" lon="4.76183">
        <ele>95.99</ele>
        <time>2019-05-27T09:15:50.000Z</time>
      </trkpt>
      <trkpt lat="44.76925" lon="4.76145">
        <ele>95.23</ele>
        <time>2019-05-27T09:15:55.000Z</time>
      </trkpt>
      <trkpt lat="44.76905" lon="4.76108">
        <ele>94.99</ele>
        <time>2019-05-27T09:16:00.000Z</time>
      </trkpt>
      <trkpt lat="44.76882" lon="4.76073">
        <ele>94.99</ele>
        <time>2019-05-27T09:16:05.000Z</time>
      </trkpt>
      <trkpt lat="44.76855" lon="4.76044">
        <ele>95.99</ele>
        <time>2019-05-27T09:16:10.000Z</time>
      </trkpt>
      <trkpt lat="44.76827" lon="4.76017">
        <ele>96.74</ele>
        <time>2019-05-27T09:16:15.000Z</time>
      </trkpt>
      <trkpt lat="44.76798" lon="4.75993">
        <ele>95.96</ele>
        <time>2019-05-27T09:16:20.000Z</time>
      </trkpt>
      <trkpt lat="44.76767" lon="4.75973">
        <ele>95.06</ele>
        <time>2019-05-27T09:16:25.000Z</time>
      </trkpt>
      <trkpt lat="44.76736" lon="4.75958">
        <ele>95.99</ele>
        <time>2019-05-27T09:16:30.000Z</time>
      </trkpt>
      <trkpt lat="44.76702" lon="4.75943">
        <ele>95.01</ele>
        <time>2019-05-27T09:16:35.000Z</time>
      </trkpt>
      <trkpt lat="44.76669" lon="4.7593">
        <ele>93.99</ele>
        <time>2019-05-27T09:16:40.000Z</time>
      </trkpt>
      <trkpt lat="44.76636" lon="4.75915">
        <ele>93.24</ele>
        <time>2019-05-27T09:16:45.000Z</time>
      </trkpt>
      <trkpt lat="44.76602" lon="4.759">
        <ele>92.99</ele>
        <time>2019-05-27T09:16:50.000Z</time>
      </trkpt>
      <trkpt lat="44.76571" lon="4.75884">
        <ele>92.99</ele>
        <time>2019-05-27T09:16:55.000Z</time>
      </trkpt>
      <trkpt lat="44.76539" lon="4.75871">
        <ele>93.93</ele>
        <time>2019-05-27T09:17:00.000Z</time>
      </trkpt>
      <trkpt lat="44.76508" lon="4.75857">
        <ele>93.99</ele>
        <time>2019-05-27T09:17:05.000Z</time>
      </trkpt>
      <trkpt lat="44.76477" lon="4.75841">
        <ele>93.06</ele>
        <time>2019-05-27T09:17:10.000Z</time>
      </trkpt>
      <trkpt lat="44.76445" lon="4.75826">
        <ele>93.94</ele>
        <time>2019-05-27T09:17:15.000Z</time>
      </trkpt>
      <trkpt lat="44.76414" lon="4.7581">
        <ele>94.01</ele>
        <time>2019-05-27T09:17:20.000Z</time>
      </trkpt>
      <trkpt lat="44.76381" lon="4.75797">
        <ele>93.01</ele>
        <time>2019-05-27T09:17:25.000Z</time>
      </trkpt>
      <trkpt lat="44.7635" lon="4.75783">
        <ele>93.99</ele>
        <time>2019-05-27T09:17:30.000Z</time>
      </trkpt>
      <trkpt lat="44.76318" lon="4.75768">
        <ele>93.98</ele>
        <time>2019-05-27T09:17:35.000Z</time>
      </trkpt>
      <trkpt lat="44.76285" lon="4.75753">
        <ele>93.99</ele>
        <time>2019-05-27T09:17:40.000Z</time>
      </trkpt>
      <trkpt lat="44.76252" lon="4.75737">
        <ele>93.24</ele>
        <time>2019-05-27T09:17:45.000Z</time>
      </trkpt>
      <trkpt lat="44.76216" lon="4.75722">
        <ele>92.98</ele>
        <time>2019-05-27T09:17:50.000Z</time>
      </trkpt>
      <trkpt lat="44.76181" lon="4.75704">
        <ele>92.99</ele>
        <time>2019-05-27T09:17:55.000Z</time>
      </trkpt>
      <trkpt lat="44.76146" lon="4.75688">
        <ele>93.74</ele>
        <time>2019-05-27T09:18:00.000Z</time>
      </trkpt>
      <trkpt lat="44.76112" lon="4.75675">
        <ele>93.99</ele>
        <time>2019-05-27T09:18:05.000Z</time>
      </trkpt>
      <trkpt lat="44.76076" lon="4.75656">
        <ele>93</ele>
        <time>2019-05-27T09:18:10.000Z</time>
      </trkpt>
      <trkpt lat="44.76038" lon="4.7564">
        <ele>93.99</ele>
        <time>2019-05-27T09:18:15.000Z</time>
      </trkpt>
      <trkpt lat="44.76002" lon="4.75622">
        <ele>92.25</ele>
        <time>2019-05-27T09:18:20.000Z</time>
      </trkpt>
      <trkpt lat="44.75964" lon="4.75605">
        <ele>93.93</ele>
        <time>2019-05-27T09:18:25.000Z</time>
      </trkpt>
      <trkpt lat="44.75927" lon="4.75589">
        <ele>93.99</ele>
        <time>2019-05-27T09:18:30.000Z</time>
      </trkpt>
      <trkpt lat="44.75891" lon="4.75578">
        <ele>94.79</ele>
        <time>2019-05-27T09:18:35.000Z</time>
      </trkpt>
      <trkpt lat="44.75854" lon="4.7557">
        <ele>95.74</ele>
        <time>2019-05-27T09:18:40.000Z</time>
      </trkpt>
      <trkpt lat="44.75819" lon="4.7556">
        <ele>95.24</ele>
        <time>2019-05-27T09:18:45.000Z</time>
      </trkpt>
      <trkpt lat="44.75784" lon="4.75556">
        <ele>95</ele>
        <time>2019-05-27T09:18:50.000Z</time>
      </trkpt>
      <trkpt lat="44.75751" lon="4.75553">
        <ele>94.01</ele>
        <time>2019-05-27T09:18:55.000Z</time>
      </trkpt>
      <trkpt lat="44.75719" lon="4.7555">
        <ele>93.99</ele>
        <time>2019-05-27T09:19:00.000Z</time>
      </trkpt>
      <trkpt lat="44.75695" lon="4.75565">
        <ele>93.25</ele>
        <time>2019-05-27T09:19:05.000Z</time>
      </trkpt>
      <trkpt lat="44.75688" lon="4.75611">
        <ele>92.24</ele>
        <time>2019-05-27T09:19:10.000Z</time>
      </trkpt>
      <trkpt lat="44.75685" lon="4.75635">
        <ele>91.99</ele>
        <time>2019-05-27T09:19:15.000Z</time>
      </trkpt>
      <trkpt lat="44.75678" lon="4.7566">
        <ele>92.05</ele>
        <time>2019-05-27T09:19:20.000Z</time>
      </trkpt>
      <trkpt lat="44.7566" lon="4.75674">
        <ele>93.87</ele>
        <time>2019-05-27T09:19:25.000Z</time>
      </trkpt>
      <trkpt lat="44.75648" lon="4.7568">
        <ele>94.93</ele>
        <time>2019-05-27T09:19:30.000Z</time>
      </trkpt>
      <trkpt lat="44.75638" lon="4.75681">
        <ele>94.94</ele>
        <time>2019-05-27T09:19:35.000Z</time>
      </trkpt>
      <trkpt lat="44.75632" lon="4.75669">
        <ele>95.79</ele>
        <time>2019-05-27T09:19:42.000Z</time>
      </trkpt>
      <trkpt lat="44.75634" lon="4.75646">
        <ele>96.49</ele>
        <time>2019-05-27T09:19:47.000Z</time>
      </trkpt>
      <trkpt lat="44.75636" lon="4.75626">
        <ele>95.99</ele>
        <time>2019-05-27T09:19:52.000Z</time>
      </trkpt>
      <trkpt lat="44.75626" lon="4.75623">
        <ele>95.98</ele>
        <time>2019-05-27T09:20:00.000Z</time>
      </trkpt>
      <trkpt lat="44.75625" lon="4.75598">
        <ele>95.98</ele>
        <time>2019-05-27T09:20:05.000Z</time>
      </trkpt>
      <trkpt lat="44.75628" lon="4.75566">
        <ele>94</ele>
        <time>2019-05-27T09:20:10.000Z</time>
      </trkpt>
      <trkpt lat="44.75624" lon="4.75531">
        <ele>94.99</ele>
        <time>2019-05-27T09:20:15.000Z</time>
      </trkpt>
      <trkpt lat="44.75605" lon="4.7552">
        <ele>95.98</ele>
        <time>2019-05-27T09:20:20.000Z</time>
      </trkpt>
      <trkpt lat="44.75608" lon="4.75495">
        <ele>96.93</ele>
        <time>2019-05-27T09:20:25.000Z</time>
      </trkpt>
      <trkpt lat="44.75621" lon="4.75474">
        <ele>95.99</ele>
        <time>2019-05-27T09:20:30.000Z</time>
      </trkpt>
      <trkpt lat="44.75628" lon="4.75455">
        <ele>96.93</ele>
        <time>2019-05-27T09:20:35.000Z</time>
      </trkpt>
      <trkpt lat="44.75623" lon="4.75435">
        <ele>95.24</ele>
        <time>2019-05-27T09:20:40.000Z</time>
      </trkpt>
      <trkpt lat="44.75621" lon="4.75416">
        <ele>93.81</ele>
        <time>2019-05-27T09:20:45.000Z</time>
      </trkpt>
      <trkpt lat="44.75619" lon="4.75397">
        <ele>94.01</ele>
        <time>2019-05-27T09:20:50.000Z</time>
      </trkpt>
      <trkpt lat="44.75617" lon="4.75372">
        <ele>93.18</ele>
        <time>2019-05-27T09:20:55.000Z</time>
      </trkpt>
      <trkpt lat="44.75618" lon="4.7535">
        <ele>93.74</ele>
        <time>2019-05-27T09:21:00.000Z</time>
      </trkpt>
      <trkpt lat="44.75618" lon="4.75329">
        <ele>95.24</ele>
        <time>2019-05-27T09:21:05.000Z</time>
      </trkpt>
      <trkpt lat="44.75615" lon="4.75305">
        <ele>94.98</ele>
        <time>2019-05-27T09:21:10.000Z</time>
      </trkpt>
      <trkpt lat="44.75613" lon="4.75278">
        <ele>96.68</ele>
        <time>2019-05-27T09:21:15.000Z</time>
      </trkpt>
      <trkpt lat="44.75613" lon="4.75247">
        <ele>95.92</ele>
        <time>2019-05-27T09:21:20.000Z</time>
      </trkpt>
      <trkpt lat="44.75604" lon="4.7521">
        <ele>96.99</ele>
        <time>2019-05-27T09:21:25.000Z</time>
      </trkpt>
      <trkpt lat="44.75603" lon="4.75174">
        <ele>96.23</ele>
        <time>2019-05-27T09:21:30.000Z</time>
      </trkpt>
      <trkpt lat="44.75599" lon="4.75135">
        <ele>97.36</ele>
        <time>2019-05-27T09:21:35.000Z</time>
      </trkpt>
      <trkpt lat="44.75595" lon="4.75097">
        <ele>96.57</ele>
        <time>2019-05-27T09:21:40.000Z</time>
      </trkpt>
      <trkpt lat="44.75588" lon="4.75074">
        <ele>94.3</ele>
        <time>2019-05-27T09:21:45.000Z</time>
      </trkpt>
      <trkpt lat="44.75588" lon="4.7505">
        <ele>96.91</ele>
        <time>2019-05-27T09:21:50.000Z</time>
      </trkpt>
      <trkpt lat="44.75589" lon="4.75036">
        <ele>97.49</ele>
        <time>2019-05-27T09:22:05.000Z</time>
      </trkpt>
      <trkpt lat="44.75584" lon="4.75025">
        <ele>91.96</ele>
        <time>2019-05-27T09:22:11.000Z</time>
      </trkpt>
      <trkpt lat="44.75579" lon="4.75001">
        <ele>90.94</ele>
        <time>2019-05-27T09:22:16.000Z</time>
      </trkpt>
      <trkpt lat="44.75575" lon="4.74977">
        <ele>90.8</ele>
        <time>2019-05-27T09:22:21.000Z</time>
      </trkpt>
      <trkpt lat="44.75566" lon="4.74974">
        <ele>91</ele>
        <time>2019-05-27T09:22:26.000Z</time>
      </trkpt>
      <trkpt lat="44.75554" lon="4.74975">
        <ele>92.99</ele>
        <time>2019-05-27T09:22:31.000Z</time>
      </trkpt>
      <trkpt lat="44.75539" lon="4.74971">
        <ele>91.99</ele>
        <time>2019-05-27T09:22:36.000Z</time>
      </trkpt>
      <trkpt lat="44.75528" lon="4.74965">
        <ele>92.49</ele>
        <time>2019-05-27T09:22:41.000Z</time>
      </trkpt>
      <trkpt lat="44.75528" lon="4.74948">
        <ele>92.91</ele>
        <time>2019-05-27T09:22:46.000Z</time>
      </trkpt>
      <trkpt lat="44.75526" lon="4.74924">
        <ele>93.69</ele>
        <time>2019-05-27T09:22:51.000Z</time>
      </trkpt>
      <trkpt lat="44.75526" lon="4.74889">
        <ele>92.99</ele>
        <time>2019-05-27T09:22:56.000Z</time>
      </trkpt>
      <trkpt lat="44.75517" lon="4.74871">
        <ele>92</ele>
        <time>2019-05-27T09:23:01.000Z</time>
      </trkpt>
      <trkpt lat="44.75516" lon="4.7485">
        <ele>91.99</ele>
        <time>2019-05-27T09:23:06.000Z</time>
      </trkpt>
      <trkpt lat="44.75518" lon="4.74834">
        <ele>92.18</ele>
        <time>2019-05-27T09:23:11.000Z</time>
      </trkpt>
      <trkpt lat="44.75498" lon="4.74837">
        <ele>92</ele>
        <time>2019-05-27T09:23:16.000Z</time>
      </trkpt>
      <trkpt lat="44.75482" lon="4.74856">
        <ele>91.99</ele>
        <time>2019-05-27T09:23:21.000Z</time>
      </trkpt>
      <trkpt lat="44.7549" lon="4.74845">
        <ele>94.98</ele>
        <time>2019-05-27T09:23:31.000Z</time>
      </trkpt>
      <trkpt lat="44.7548" lon="4.74845">
        <ele>93.25</ele>
        <time>2019-05-27T09:23:38.000Z</time>
      </trkpt>
      <trkpt lat="44.7547" lon="4.74858">
        <ele>92.48</ele>
        <time>2019-05-27T09:23:43.000Z</time>
      </trkpt>
      <trkpt lat="44.7546" lon="4.74849">
        <ele>92.74</ele>
        <time>2019-05-27T09:23:48.000Z</time>
      </trkpt>
      <trkpt lat="44.7545" lon="4.74832">
        <ele>93.18</ele>
        <time>2019-05-27T09:23:53.000Z</time>
      </trkpt>
      <trkpt lat="44.75441" lon="4.74817">
        <ele>94.98</ele>
        <time>2019-05-27T09:23:58.000Z</time>
      </trkpt>
      <trkpt lat="44.75431" lon="4.74819">
        <ele>92.31</ele>
        <time>2019-05-27T09:24:04.000Z</time>
      </trkpt>
      <trkpt lat="44.75419" lon="4.74841">
        <ele>93.68</ele>
        <time>2019-05-27T09:24:09.000Z</time>
      </trkpt>
      <trkpt lat="44.75418" lon="4.74827">
        <ele>94.97</ele>
        <time>2019-05-27T09:24:17.000Z</time>
      </trkpt>
      <trkpt lat="44.75425" lon="4.74801">
        <ele>92.25</ele>
        <time>2019-05-27T09:24:22.000Z</time>
      </trkpt>
      <trkpt lat="44.75402" lon="4.74792">
        <ele>93.22</ele>
        <time>2019-05-27T09:24:27.000Z</time>
      </trkpt>
      <trkpt lat="44.75378" lon="4.74786">
        <ele>93.03</ele>
        <time>2019-05-27T09:24:32.000Z</time>
      </trkpt>
      <trkpt lat="44.75354" lon="4.7478">
        <ele>92.25</ele>
        <time>2019-05-27T09:24:37.000Z</time>
      </trkpt>
      <trkpt lat="44.75342" lon="4.74759">
        <ele>92.74</ele>
        <time>2019-05-27T09:24:42.000Z</time>
      </trkpt>
      <trkpt lat="44.75325" lon="4.7477">
        <ele>91.24</ele>
        <time>2019-05-27T09:24:47.000Z</time>
      </trkpt>
      <trkpt lat="44.75303" lon="4.74773">
        <ele>91.74</ele>
        <time>2019-05-27T09:24:52.000Z</time>
      </trkpt>
      <trkpt lat="44.75279" lon="4.74767">
        <ele>91.94</ele>
        <time>2019-05-27T09:24:57.000Z</time>
      </trkpt>
      <trkpt lat="44.75254" lon="4.74762">
        <ele>92.99</ele>
        <time>2019-05-27T09:25:02.000Z</time>
      </trkpt>
      <trkpt lat="44.75229" lon="4.74753">
        <ele>95.9</ele>
        <time>2019-05-27T09:25:07.000Z</time>
      </trkpt>
      <trkpt lat="44.75201" lon="4.74749">
        <ele>99.96</ele>
        <time>2019-05-27T09:25:12.000Z</time>
      </trkpt>
      <trkpt lat="44.75176" lon="4.74742">
        <ele>97.54</ele>
        <time>2019-05-27T09:25:17.000Z</time>
      </trkpt>
      <trkpt lat="44.75148" lon="4.74737">
        <ele>96.97</ele>
        <time>2019-05-27T09:25:22.000Z</time>
      </trkpt>
      <trkpt lat="44.75121" lon="4.7473">
        <ele>97.05</ele>
        <time>2019-05-27T09:25:27.000Z</time>
      </trkpt>
      <trkpt lat="44.75098" lon="4.74728">
        <ele>97.22</ele>
        <time>2019-05-27T09:25:32.000Z</time>
      </trkpt>
      <trkpt lat="44.75074" lon="4.74724">
        <ele>95.01</ele>
        <time>2019-05-27T09:25:37.000Z</time>
      </trkpt>
      <trkpt lat="44.75048" lon="4.74715">
        <ele>94.05</ele>
        <time>2019-05-27T09:25:42.000Z</time>
      </trkpt>
      <trkpt lat="44.75018" lon="4.74704">
        <ele>93.05</ele>
        <time>2019-05-27T09:25:47.000Z</time>
      </trkpt>
      <trkpt lat="44.74988" lon="4.74687">
        <ele>91.99</ele>
        <time>2019-05-27T09:25:52.000Z</time>
      </trkpt>
      <trkpt lat="44.74955" lon="4.74672">
        <ele>91.98</ele>
        <time>2019-05-27T09:25:57.000Z</time>
      </trkpt>
      <trkpt lat="44.74922" lon="4.74657">
        <ele>92.97</ele>
        <time>2019-05-27T09:26:02.000Z</time>
      </trkpt>
      <trkpt lat="44.7489" lon="4.74639">
        <ele>92.98</ele>
        <time>2019-05-27T09:26:07.000Z</time>
      </trkpt>
      <trkpt lat="44.74856" lon="4.74622">
        <ele>93</ele>
        <time>2019-05-27T09:26:12.000Z</time>
      </trkpt>
      <trkpt lat="44.74824" lon="4.74605">
        <ele>91.99</ele>
        <time>2019-05-27T09:26:17.000Z</time>
      </trkpt>
      <trkpt lat="44.74796" lon="4.74583">
        <ele>90.99</ele>
        <time>2019-05-27T09:26:22.000Z</time>
      </trkpt>
      <trkpt lat="44.74776" lon="4.7456">
        <ele>90.78</ele>
        <time>2019-05-27T09:26:27.000Z</time>
      </trkpt>
      <trkpt lat="44.74767" lon="4.74545">
        <ele>89.92</ele>
        <time>2019-05-27T09:26:32.000Z</time>
      </trkpt>
      <trkpt lat="44.74758" lon="4.74542">
        <ele>90.49</ele>
        <time>2019-05-27T09:26:37.000Z</time>
      </trkpt>
      <trkpt lat="44.74748" lon="4.74535">
        <ele>86.99</ele>
        <time>2019-05-27T09:26:48.000Z</time>
      </trkpt>
      <trkpt lat="44.74731" lon="4.74539">
        <ele>88.97</ele>
        <time>2019-05-27T09:26:53.000Z</time>
      </trkpt>
      <trkpt lat="44.74717" lon="4.7456">
        <ele>90.17</ele>
        <time>2019-05-27T09:26:58.000Z</time>
      </trkpt>
      <trkpt lat="44.74703" lon="4.74574">
        <ele>89.97</ele>
        <time>2019-05-27T09:27:03.000Z</time>
      </trkpt>
      <trkpt lat="44.74682" lon="4.74559">
        <ele>90.92</ele>
        <time>2019-05-27T09:27:08.000Z</time>
      </trkpt>
      <trkpt lat="44.74659" lon="4.7455">
        <ele>91.98</ele>
        <time>2019-05-27T09:27:13.000Z</time>
      </trkpt>
      <trkpt lat="44.74634" lon="4.7454">
        <ele>90.24</ele>
        <time>2019-05-27T09:27:18.000Z</time>
      </trkpt>
      <trkpt lat="44.74609" lon="4.74525">
        <ele>90.73</ele>
        <time>2019-05-27T09:27:23.000Z</time>
      </trkpt>
      <trkpt lat="44.74584" lon="4.74514">
        <ele>90.98</ele>
        <time>2019-05-27T09:27:28.000Z</time>
      </trkpt>
      <trkpt lat="44.74556" lon="4.74502">
        <ele>90.05</ele>
        <time>2019-05-27T09:27:33.000Z</time>
      </trkpt>
      <trkpt lat="44.74531" lon="4.74489">
        <ele>91.73</ele>
        <time>2019-05-27T09:27:38.000Z</time>
      </trkpt>
      <trkpt lat="44.74502" lon="4.74476">
        <ele>93.18</ele>
        <time>2019-05-27T09:27:43.000Z</time>
      </trkpt>
      <trkpt lat="44.74475" lon="4.74463">
        <ele>90.99</ele>
        <time>2019-05-27T09:27:48.000Z</time>
      </trkpt>
      <trkpt lat="44.74448" lon="4.74449">
        <ele>91.92</ele>
        <time>2019-05-27T09:27:53.000Z</time>
      </trkpt>
      <trkpt lat="44.74421" lon="4.74438">
        <ele>92.98</ele>
        <time>2019-05-27T09:27:58.000Z</time>
      </trkpt>
      <trkpt lat="44.74394" lon="4.74424">
        <ele>92.23</ele>
        <time>2019-05-27T09:28:03.000Z</time>
      </trkpt>
      <trkpt lat="44.74365" lon="4.74413">
        <ele>92.98</ele>
        <time>2019-05-27T09:28:08.000Z</time>
      </trkpt>
      <trkpt lat="44.74339" lon="4.744">
        <ele>93.97</ele>
        <time>2019-05-27T09:28:13.000Z</time>
      </trkpt>
      <trkpt lat="44.74309" lon="4.74394">
        <ele>92.48</ele>
        <time>2019-05-27T09:28:18.000Z</time>
      </trkpt>
      <trkpt lat="44.74277" lon="4.74387">
        <ele>92.98</ele>
        <time>2019-05-27T09:28:23.000Z</time>
      </trkpt>
      <trkpt lat="44.74251" lon="4.74387">
        <ele>93.97</ele>
        <time>2019-05-27T09:28:28.000Z</time>
      </trkpt>
      <trkpt lat="44.74225" lon="4.74376">
        <ele>93.23</ele>
        <time>2019-05-27T09:28:33.000Z</time>
      </trkpt>
      <trkpt lat="44.74203" lon="4.7437">
        <ele>92.25</ele>
        <time>2019-05-27T09:28:38.000Z</time>
      </trkpt>
      <trkpt lat="44.74196" lon="4.74404">
        <ele>90.99</ele>
        <time>2019-05-27T09:28:43.000Z</time>
      </trkpt>
      <trkpt lat="44.74192" lon="4.74443">
        <ele>90.99</ele>
        <time>2019-05-27T09:28:48.000Z</time>
      </trkpt>
      <trkpt lat="44.74187" lon="4.74483">
        <ele>92.72</ele>
        <time>2019-05-27T09:28:53.000Z</time>
      </trkpt>
      <trkpt lat="44.74183" lon="4.74522">
        <ele>92.98</ele>
        <time>2019-05-27T09:28:58.000Z</time>
      </trkpt>
      <trkpt lat="44.74179" lon="4.74559">
        <ele>91.99</ele>
        <time>2019-05-27T09:29:03.000Z</time>
      </trkpt>
      <trkpt lat="44.74173" lon="4.74598">
        <ele>92.04</ele>
        <time>2019-05-27T09:29:08.000Z</time>
      </trkpt>
      <trkpt lat="44.74168" lon="4.74633">
        <ele>91.99</ele>
        <time>2019-05-27T09:29:13.000Z</time>
      </trkpt>
      <trkpt lat="44.74165" lon="4.7467">
        <ele>91.99</ele>
        <time>2019-05-27T09:29:18.000Z</time>
      </trkpt>
      <trkpt lat="44.74159" lon="4.74704">
        <ele>92.93</ele>
        <time>2019-05-27T09:29:23.000Z</time>
      </trkpt>
      <trkpt lat="44.74154" lon="4.74737">
        <ele>92.05</ele>
        <time>2019-05-27T09:29:28.000Z</time>
      </trkpt>
      <trkpt lat="44.7415" lon="4.74771">
        <ele>91.99</ele>
        <time>2019-05-27T09:29:33.000Z</time>
      </trkpt>
      <trkpt lat="44.74142" lon="4.74802">
        <ele>91.93</ele>
        <time>2019-05-27T09:29:38.000Z</time>
      </trkpt>
      <trkpt lat="44.7412" lon="4.74808">
        <ele>91.99</ele>
        <time>2019-05-27T09:29:43.000Z</time>
      </trkpt>
      <trkpt lat="44.74093" lon="4.74803">
        <ele>91.99</ele>
        <time>2019-05-27T09:29:48.000Z</time>
      </trkpt>
      <trkpt lat="44.74065" lon="4.74802">
        <ele>91.01</ele>
        <time>2019-05-27T09:29:53.000Z</time>
      </trkpt>
      <trkpt lat="44.74036" lon="4.74796">
        <ele>91.74</ele>
        <time>2019-05-27T09:29:58.000Z</time>
      </trkpt>
      <trkpt lat="44.74005" lon="4.74792">
        <ele>91.99</ele>
        <time>2019-05-27T09:30:03.000Z</time>
      </trkpt>
      <trkpt lat="44.73974" lon="4.74787">
        <ele>91.24</ele>
        <time>2019-05-27T09:30:08.000Z</time>
      </trkpt>
      <trkpt lat="44.73941" lon="4.7478">
        <ele>92.74</ele>
        <time>2019-05-27T09:30:13.000Z</time>
      </trkpt>
      <trkpt lat="44.73906" lon="4.74776">
        <ele>91.99</ele>
        <time>2019-05-27T09:30:18.000Z</time>
      </trkpt>
      <trkpt lat="44.73872" lon="4.74772">
        <ele>91.06</ele>
        <time>2019-05-27T09:30:23.000Z</time>
      </trkpt>
      <trkpt lat="44.73838" lon="4.74766">
        <ele>90.01</ele>
        <time>2019-05-27T09:30:28.000Z</time>
      </trkpt>
      <trkpt lat="44.73802" lon="4.74761">
        <ele>90.99</ele>
        <time>2019-05-27T09:30:33.000Z</time>
      </trkpt>
      <trkpt lat="44.73767" lon="4.74757">
        <ele>91</ele>
        <time>2019-05-27T09:30:38.000Z</time>
      </trkpt>
      <trkpt lat="44.73729" lon="4.74753">
        <ele>90.01</ele>
        <time>2019-05-27T09:30:43.000Z</time>
      </trkpt>
      <trkpt lat="44.73693" lon="4.74747">
        <ele>89.19</ele>
        <time>2019-05-27T09:30:48.000Z</time>
      </trkpt>
      <trkpt lat="44.73659" lon="4.74741">
        <ele>90.73</ele>
        <time>2019-05-27T09:30:53.000Z</time>
      </trkpt>
      <trkpt lat="44.73625" lon="4.74737">
        <ele>90.99</ele>
        <time>2019-05-27T09:30:58.000Z</time>
      </trkpt>
      <trkpt lat="44.73591" lon="4.74733">
        <ele>90.99</ele>
        <time>2019-05-27T09:31:03.000Z</time>
      </trkpt>
      <trkpt lat="44.73556" lon="4.74727">
        <ele>91.01</ele>
        <time>2019-05-27T09:31:08.000Z</time>
      </trkpt>
      <trkpt lat="44.73521" lon="4.74721">
        <ele>91.06</ele>
        <time>2019-05-27T09:31:13.000Z</time>
      </trkpt>
      <trkpt lat="44.73486" lon="4.74716">
        <ele>90.26</ele>
        <time>2019-05-27T09:31:18.000Z</time>
      </trkpt>
      <trkpt lat="44.73451" lon="4.74712">
        <ele>90.99</ele>
        <time>2019-05-27T09:31:23.000Z</time>
      </trkpt>
      <trkpt lat="44.73417" lon="4.74707">
        <ele>90.99</ele>
        <time>2019-05-27T09:31:28.000Z</time>
      </trkpt>
      <trkpt lat="44.73384" lon="4.74702">
        <ele>91.93</ele>
        <time>2019-05-27T09:31:33.000Z</time>
      </trkpt>
      <trkpt lat="44.7335" lon="4.74697">
        <ele>91.75</ele>
        <time>2019-05-27T09:31:38.000Z</time>
      </trkpt>
      <trkpt lat="44.73316" lon="4.74691">
        <ele>91.99</ele>
        <time>2019-05-27T09:31:43.000Z</time>
      </trkpt>
      <trkpt lat="44.73281" lon="4.74685">
        <ele>90.06</ele>
        <time>2019-05-27T09:31:48.000Z</time>
      </trkpt>
      <trkpt lat="44.73247" lon="4.74679">
        <ele>90.24</ele>
        <time>2019-05-27T09:31:53.000Z</time>
      </trkpt>
      <trkpt lat="44.73217" lon="4.74676">
        <ele>89.76</ele>
        <time>2019-05-27T09:31:58.000Z</time>
      </trkpt>
      <trkpt lat="44.73198" lon="4.74675">
        <ele>90</ele>
        <time>2019-05-27T09:32:03.000Z</time>
      </trkpt>
      <trkpt lat="44.7319" lon="4.74702">
        <ele>91</ele>
        <time>2019-05-27T09:32:08.000Z</time>
      </trkpt>
      <trkpt lat="44.73176" lon="4.74725">
        <ele>92</ele>
        <time>2019-05-27T09:32:13.000Z</time>
      </trkpt>
      <trkpt lat="44.73161" lon="4.7474">
        <ele>93.99</ele>
        <time>2019-05-27T09:32:18.000Z</time>
      </trkpt>
      <trkpt lat="44.7315" lon="4.74763">
        <ele>92.75</ele>
        <time>2019-05-27T09:32:23.000Z</time>
      </trkpt>
      <trkpt lat="44.73137" lon="4.74792">
        <ele>93.99</ele>
        <time>2019-05-27T09:32:28.000Z</time>
      </trkpt>
      <trkpt lat="44.73125" lon="4.74824">
        <ele>94.93</ele>
        <time>2019-05-27T09:32:33.000Z</time>
      </trkpt>
      <trkpt lat="44.73114" lon="4.74858">
        <ele>93.08</ele>
        <time>2019-05-27T09:32:38.000Z</time>
      </trkpt>
      <trkpt lat="44.73101" lon="4.74892">
        <ele>94.75</ele>
        <time>2019-05-27T09:32:43.000Z</time>
      </trkpt>
      <trkpt lat="44.7309" lon="4.74929">
        <ele>95.75</ele>
        <time>2019-05-27T09:32:48.000Z</time>
      </trkpt>
      <trkpt lat="44.73078" lon="4.74966">
        <ele>95</ele>
        <time>2019-05-27T09:32:53.000Z</time>
      </trkpt>
      <trkpt lat="44.73068" lon="4.75001">
        <ele>94.99</ele>
        <time>2019-05-27T09:32:58.000Z</time>
      </trkpt>
      <trkpt lat="44.7306" lon="4.75037">
        <ele>94</ele>
        <time>2019-05-27T09:33:03.000Z</time>
      </trkpt>
      <trkpt lat="44.73054" lon="4.75075">
        <ele>93.01</ele>
        <time>2019-05-27T09:33:08.000Z</time>
      </trkpt>
      <trkpt lat="44.73048" lon="4.75112">
        <ele>92.95</ele>
        <time>2019-05-27T09:33:13.000Z</time>
      </trkpt>
      <trkpt lat="44.73044" lon="4.75149">
        <ele>92</ele>
        <time>2019-05-27T09:33:18.000Z</time>
      </trkpt>
      <trkpt lat="44.73058" lon="4.75178">
        <ele>90.27</ele>
        <time>2019-05-27T09:33:23.000Z</time>
      </trkpt>
      <trkpt lat="44.73082" lon="4.75205">
        <ele>89.06</ele>
        <time>2019-05-27T09:33:28.000Z</time>
      </trkpt>
      <trkpt lat="44.73106" lon="4.7523">
        <ele>88.05</ele>
        <time>2019-05-27T09:33:33.000Z</time>
      </trkpt>
      <trkpt lat="44.73125" lon="4.75261">
        <ele>88.02</ele>
        <time>2019-05-27T09:33:38.000Z</time>
      </trkpt>
      <trkpt lat="44.73141" lon="4.75295">
        <ele>89</ele>
        <time>2019-05-27T09:33:43.000Z</time>
      </trkpt>
      <trkpt lat="44.73154" lon="4.75331">
        <ele>90.75</ele>
        <time>2019-05-27T09:33:48.000Z</time>
      </trkpt>
      <trkpt lat="44.73172" lon="4.75361">
        <ele>92</ele>
        <time>2019-05-27T09:33:53.000Z</time>
      </trkpt>
      <trkpt lat="44.73191" lon="4.75387">
        <ele>92.98</ele>
        <time>2019-05-27T09:33:58.000Z</time>
      </trkpt>
      <trkpt lat="44.73214" lon="4.75408">
        <ele>90.07</ele>
        <time>2019-05-27T09:34:03.000Z</time>
      </trkpt>
      <trkpt lat="44.73239" lon="4.75416">
        <ele>89.25</ele>
        <time>2019-05-27T09:34:08.000Z</time>
      </trkpt>
      <trkpt lat="44.73263" lon="4.75418">
        <ele>89.94</ele>
        <time>2019-05-27T09:34:13.000Z</time>
      </trkpt>
      <trkpt lat="44.73276" lon="4.7544">
        <ele>88.82</ele>
        <time>2019-05-27T09:34:18.000Z</time>
      </trkpt>
      <trkpt lat="44.73272" lon="4.75473">
        <ele>87.08</ele>
        <time>2019-05-27T09:34:23.000Z</time>
      </trkpt>
      <trkpt lat="44.73268" lon="4.7551">
        <ele>87.81</ele>
        <time>2019-05-27T09:34:28.000Z</time>
      </trkpt>
      <trkpt lat="44.73263" lon="4.75546">
        <ele>88</ele>
        <time>2019-05-27T09:34:33.000Z</time>
      </trkpt>
      <trkpt lat="44.73259" lon="4.75584">
        <ele>88</ele>
        <time>2019-05-27T09:34:38.000Z</time>
      </trkpt>
      <trkpt lat="44.73255" lon="4.75622">
        <ele>88</ele>
        <time>2019-05-27T09:34:43.000Z</time>
      </trkpt>
      <trkpt lat="44.73246" lon="4.75652">
        <ele>87.76</ele>
        <time>2019-05-27T09:34:48.000Z</time>
      </trkpt>
      <trkpt lat="44.73221" lon="4.75652">
        <ele>88.81</ele>
        <time>2019-05-27T09:34:53.000Z</time>
      </trkpt>
      <trkpt lat="44.73194" lon="4.75656">
        <ele>87.25</ele>
        <time>2019-05-27T09:34:58.000Z</time>
      </trkpt>
      <trkpt lat="44.73166" lon="4.75667">
        <ele>86.27</ele>
        <time>2019-05-27T09:35:03.000Z</time>
      </trkpt>
      <trkpt lat="44.73139" lon="4.75683">
        <ele>86.74</ele>
        <time>2019-05-27T09:35:08.000Z</time>
      </trkpt>
      <trkpt lat="44.73124" lon="4.757">
        <ele>87</ele>
        <time>2019-05-27T09:35:13.000Z</time>
      </trkpt>
      <trkpt lat="44.73112" lon="4.75709">
        <ele>87</ele>
        <time>2019-05-27T09:35:18.000Z</time>
      </trkpt>
      <trkpt lat="44.73092" lon="4.75717">
        <ele>84.79</ele>
        <time>2019-05-27T09:35:23.000Z</time>
      </trkpt>
      <trkpt lat="44.73081" lon="4.75715">
        <ele>88.17</ele>
        <time>2019-05-27T09:35:28.000Z</time>
      </trkpt>
      <trkpt lat="44.73072" lon="4.75711">
        <ele>89.93</ele>
        <time>2019-05-27T09:35:33.000Z</time>
      </trkpt>
      <trkpt lat="44.73061" lon="4.75706">
        <ele>88.37</ele>
        <time>2019-05-27T09:35:38.000Z</time>
      </trkpt>
      <trkpt lat="44.73049" lon="4.75701">
        <ele>88.8</ele>
        <time>2019-05-27T09:35:43.000Z</time>
      </trkpt>
      <trkpt lat="44.73036" lon="4.75695">
        <ele>88.3</ele>
        <time>2019-05-27T09:35:48.000Z</time>
      </trkpt>
      <trkpt lat="44.7302" lon="4.75689">
        <ele>87.25</ele>
        <time>2019-05-27T09:35:53.000Z</time>
      </trkpt>
      <trkpt lat="44.73" lon="4.75682">
        <ele>87.95</ele>
        <time>2019-05-27T09:35:58.000Z</time>
      </trkpt>
      <trkpt lat="44.72973" lon="4.7568">
        <ele>83.2</ele>
        <time>2019-05-27T09:36:03.000Z</time>
      </trkpt>
      <trkpt lat="44.72944" lon="4.75676">
        <ele>86.68</ele>
        <time>2019-05-27T09:36:08.000Z</time>
      </trkpt>
      <trkpt lat="44.72914" lon="4.75666">
        <ele>86.99</ele>
        <time>2019-05-27T09:36:13.000Z</time>
      </trkpt>
      <trkpt lat="44.72883" lon="4.75651">
        <ele>87.13</ele>
        <time>2019-05-27T09:36:18.000Z</time>
      </trkpt>
      <trkpt lat="44.72851" lon="4.75636">
        <ele>85.07</ele>
        <time>2019-05-27T09:36:23.000Z</time>
      </trkpt>
      <trkpt lat="44.7282" lon="4.75619">
        <ele>85</ele>
        <time>2019-05-27T09:36:28.000Z</time>
      </trkpt>
      <trkpt lat="44.72788" lon="4.75602">
        <ele>85.19</ele>
        <time>2019-05-27T09:36:33.000Z</time>
      </trkpt>
      <trkpt lat="44.72754" lon="4.75616">
        <ele>84.02</ele>
        <time>2019-05-27T09:36:38.000Z</time>
      </trkpt>
      <trkpt lat="44.72724" lon="4.75634">
        <ele>84.75</ele>
        <time>2019-05-27T09:36:43.000Z</time>
      </trkpt>
      <trkpt lat="44.72694" lon="4.75649">
        <ele>82.07</ele>
        <time>2019-05-27T09:36:48.000Z</time>
      </trkpt>
      <trkpt lat="44.72666" lon="4.75672">
        <ele>80.25</ele>
        <time>2019-05-27T09:36:53.000Z</time>
      </trkpt>
      <trkpt lat="44.72635" lon="4.7569">
        <ele>80.74</ele>
        <time>2019-05-27T09:36:58.000Z</time>
      </trkpt>
      <trkpt lat="44.72609" lon="4.75718">
        <ele>81.02</ele>
        <time>2019-05-27T09:37:03.000Z</time>
      </trkpt>
      <trkpt lat="44.72591" lon="4.75757">
        <ele>82.49</ele>
        <time>2019-05-27T09:37:08.000Z</time>
      </trkpt>
      <trkpt lat="44.72565" lon="4.75783">
        <ele>82.25</ele>
        <time>2019-05-27T09:37:13.000Z</time>
      </trkpt>
      <trkpt lat="44.72534" lon="4.75796">
        <ele>83.01</ele>
        <time>2019-05-27T09:37:18.000Z</time>
      </trkpt>
      <trkpt lat="44.72503" lon="4.75817">
        <ele>83</ele>
        <time>2019-05-27T09:37:23.000Z</time>
      </trkpt>
      <trkpt lat="44.72468" lon="4.75835">
        <ele>82.22</ele>
        <time>2019-05-27T09:37:28.000Z</time>
      </trkpt>
      <trkpt lat="44.72439" lon="4.75848">
        <ele>81.25</ele>
        <time>2019-05-27T09:37:33.000Z</time>
      </trkpt>
      <trkpt lat="44.72407" lon="4.75864">
        <ele>80.01</ele>
        <time>2019-05-27T09:37:38.000Z</time>
      </trkpt>
      <trkpt lat="44.72378" lon="4.75886">
        <ele>80.05</ele>
        <time>2019-05-27T09:37:43.000Z</time>
      </trkpt>
      <trkpt lat="44.72345" lon="4.75882">
        <ele>80.8</ele>
        <time>2019-05-27T09:37:48.000Z</time>
      </trkpt>
      <trkpt lat="44.72316" lon="4.75851">
        <ele>82.94</ele>
        <time>2019-05-27T09:37:53.000Z</time>
      </trkpt>
      <trkpt lat="44.7229" lon="4.7582">
        <ele>84.99</ele>
        <time>2019-05-27T09:37:58.000Z</time>
      </trkpt>
      <trkpt lat="44.72258" lon="4.75801">
        <ele>84.99</ele>
        <time>2019-05-27T09:38:03.000Z</time>
      </trkpt>
      <trkpt lat="44.72227" lon="4.75782">
        <ele>85.99</ele>
        <time>2019-05-27T09:38:08.000Z</time>
      </trkpt>
      <trkpt lat="44.72198" lon="4.75756">
        <ele>85.26</ele>
        <time>2019-05-27T09:38:13.000Z</time>
      </trkpt>
      <trkpt lat="44.72166" lon="4.75733">
        <ele>85.01</ele>
        <time>2019-05-27T09:38:18.000Z</time>
      </trkpt>
      <trkpt lat="44.72139" lon="4.75702">
        <ele>84.26</ele>
        <time>2019-05-27T09:38:23.000Z</time>
      </trkpt>
      <trkpt lat="44.7211" lon="4.75674">
        <ele>84.19</ele>
        <time>2019-05-27T09:38:28.000Z</time>
      </trkpt>
      <trkpt lat="44.7208" lon="4.75653">
        <ele>84.96</ele>
        <time>2019-05-27T09:38:33.000Z</time>
      </trkpt>
      <trkpt lat="44.72049" lon="4.75637">
        <ele>84.01</ele>
        <time>2019-05-27T09:38:38.000Z</time>
      </trkpt>
      <trkpt lat="44.72015" lon="4.75645">
        <ele>85.01</ele>
        <time>2019-05-27T09:38:43.000Z</time>
      </trkpt>
      <trkpt lat="44.71981" lon="4.75654">
        <ele>86.74</ele>
        <time>2019-05-27T09:38:48.000Z</time>
      </trkpt>
      <trkpt lat="44.71947" lon="4.75658">
        <ele>84.15</ele>
        <time>2019-05-27T09:38:53.000Z</time>
      </trkpt>
      <trkpt lat="44.7191" lon="4.75659">
        <ele>85.01</ele>
        <time>2019-05-27T09:38:58.000Z</time>
      </trkpt>
      <trkpt lat="44.71875" lon="4.75662">
        <ele>85.01</ele>
        <time>2019-05-27T09:39:03.000Z</time>
      </trkpt>
      <trkpt lat="44.71843" lon="4.75672">
        <ele>82.09</ele>
        <time>2019-05-27T09:39:08.000Z</time>
      </trkpt>
      <trkpt lat="44.71812" lon="4.75687">
        <ele>79.83</ele>
        <time>2019-05-27T09:39:13.000Z</time>
      </trkpt>
      <trkpt lat="44.71784" lon="4.7569">
        <ele>79.77</ele>
        <time>2019-05-27T09:39:18.000Z</time>
      </trkpt>
      <trkpt lat="44.71768" lon="4.75686">
        <ele>81.99</ele>
        <time>2019-05-27T09:39:23.000Z</time>
      </trkpt>
      <trkpt lat="44.71756" lon="4.75708">
        <ele>82.01</ele>
        <time>2019-05-27T09:39:28.000Z</time>
      </trkpt>
      <trkpt lat="44.71741" lon="4.75734">
        <ele>81.07</ele>
        <time>2019-05-27T09:39:33.000Z</time>
      </trkpt>
      <trkpt lat="44.71724" lon="4.75763">
        <ele>81.01</ele>
        <time>2019-05-27T09:39:38.000Z</time>
      </trkpt>
      <trkpt lat="44.71708" lon="4.75792">
        <ele>83.68</ele>
        <time>2019-05-27T09:39:43.000Z</time>
      </trkpt>
      <trkpt lat="44.7169" lon="4.75823">
        <ele>85.96</ele>
        <time>2019-05-27T09:39:48.000Z</time>
      </trkpt>
      <trkpt lat="44.71673" lon="4.75855">
        <ele>86.01</ele>
        <time>2019-05-27T09:39:53.000Z</time>
      </trkpt>
      <trkpt lat="44.71655" lon="4.75884">
        <ele>86.26</ele>
        <time>2019-05-27T09:39:58.000Z</time>
      </trkpt>
      <trkpt lat="44.71638" lon="4.75914">
        <ele>86.95</ele>
        <time>2019-05-27T09:40:03.000Z</time>
      </trkpt>
      <trkpt lat="44.71619" lon="4.75944">
        <ele>85.78</ele>
        <time>2019-05-27T09:40:08.000Z</time>
      </trkpt>
      <trkpt lat="44.71601" lon="4.75976">
        <ele>86.01</ele>
        <time>2019-05-27T09:40:13.000Z</time>
      </trkpt>
      <trkpt lat="44.71583" lon="4.76004">
        <ele>85.07</ele>
        <time>2019-05-27T09:40:18.000Z</time>
      </trkpt>
      <trkpt lat="44.71567" lon="4.76033">
        <ele>84.81</ele>
        <time>2019-05-27T09:40:23.000Z</time>
      </trkpt>
      <trkpt lat="44.71554" lon="4.76053">
        <ele>84.26</ele>
        <time>2019-05-27T09:40:28.000Z</time>
      </trkpt>
      <trkpt lat="44.71541" lon="4.76072">
        <ele>85.99</ele>
        <time>2019-05-27T09:40:33.000Z</time>
      </trkpt>
      <trkpt lat="44.71524" lon="4.76093">
        <ele>85.76</ele>
        <time>2019-05-27T09:40:38.000Z</time>
      </trkpt>
      <trkpt lat="44.71506" lon="4.7612">
        <ele>89.49</ele>
        <time>2019-05-27T09:40:43.000Z</time>
      </trkpt>
      <trkpt lat="44.71489" lon="4.76151">
        <ele>87.11</ele>
        <time>2019-05-27T09:40:48.000Z</time>
      </trkpt>
      <trkpt lat="44.71468" lon="4.76177">
        <ele>85.78</ele>
        <time>2019-05-27T09:40:53.000Z</time>
      </trkpt>
      <trkpt lat="44.71444" lon="4.76201">
        <ele>87.07</ele>
        <time>2019-05-27T09:40:58.000Z</time>
      </trkpt>
      <trkpt lat="44.71423" lon="4.76222">
        <ele>87.01</ele>
        <time>2019-05-27T09:41:03.000Z</time>
      </trkpt>
      <trkpt lat="44.71395" lon="4.76236">
        <ele>86.13</ele>
        <time>2019-05-27T09:41:08.000Z</time>
      </trkpt>
      <trkpt lat="44.71374" lon="4.76248">
        <ele>84.06</ele>
        <time>2019-05-27T09:41:13.000Z</time>
      </trkpt>
      <trkpt lat="44.71361" lon="4.76275">
        <ele>85.47</ele>
        <time>2019-05-27T09:41:18.000Z</time>
      </trkpt>
      <trkpt lat="44.71369" lon="4.76302">
        <ele>86.01</ele>
        <time>2019-05-27T09:41:23.000Z</time>
      </trkpt>
      <trkpt lat="44.71364" lon="4.76326">
        <ele>83.97</ele>
        <time>2019-05-27T09:41:28.000Z</time>
      </trkpt>
      <trkpt lat="44.71347" lon="4.76336">
        <ele>87.02</ele>
        <time>2019-05-27T09:41:33.000Z</time>
      </trkpt>
      <trkpt lat="44.71338" lon="4.7634">
        <ele>89.45</ele>
        <time>2019-05-27T09:41:49.000Z</time>
      </trkpt>
      <trkpt lat="44.7132" lon="4.76349">
        <ele>87.34</ele>
        <time>2019-05-27T09:41:54.000Z</time>
      </trkpt>
      <trkpt lat="44.713" lon="4.7637">
        <ele>84.08</ele>
        <time>2019-05-27T09:41:59.000Z</time>
      </trkpt>
      <trkpt lat="44.7128" lon="4.76386">
        <ele>78.12</ele>
        <time>2019-05-27T09:42:04.000Z</time>
      </trkpt>
      <trkpt lat="44.71262" lon="4.7641">
        <ele>82.76</ele>
        <time>2019-05-27T09:42:09.000Z</time>
      </trkpt>
      <trkpt lat="44.71252" lon="4.76429">
        <ele>87.32</ele>
        <time>2019-05-27T09:42:14.000Z</time>
      </trkpt>
      <trkpt lat="44.71242" lon="4.76432">
        <ele>82.16</ele>
        <time>2019-05-27T09:42:19.000Z</time>
      </trkpt>
      <trkpt lat="44.71231" lon="4.7643">
        <ele>82.01</ele>
        <time>2019-05-27T09:42:27.000Z</time>
      </trkpt>
      <trkpt lat="44.71222" lon="4.76419">
        <ele>80.83</ele>
        <time>2019-05-27T09:42:32.000Z</time>
      </trkpt>
      <trkpt lat="44.71218" lon="4.76404">
        <ele>82.51</ele>
        <time>2019-05-27T09:42:37.000Z</time>
      </trkpt>
      <trkpt lat="44.71215" lon="4.76391">
        <ele>81.84</ele>
        <time>2019-05-27T09:42:42.000Z</time>
      </trkpt>
      <trkpt lat="44.71207" lon="4.76384">
        <ele>81.78</ele>
        <time>2019-05-27T09:42:50.000Z</time>
      </trkpt>
      <trkpt lat="44.71189" lon="4.76409">
        <ele>84.98</ele>
        <time>2019-05-27T09:42:55.000Z</time>
      </trkpt>
      <trkpt lat="44.7117" lon="4.76435">
        <ele>90.57</ele>
        <time>2019-05-27T09:43:00.000Z</time>
      </trkpt>
      <trkpt lat="44.71153" lon="4.76457">
        <ele>87.01</ele>
        <time>2019-05-27T09:43:05.000Z</time>
      </trkpt>
      <trkpt lat="44.71137" lon="4.76481">
        <ele>90.06</ele>
        <time>2019-05-27T09:43:10.000Z</time>
      </trkpt>
      <trkpt lat="44.71116" lon="4.76498">
        <ele>88.03</ele>
        <time>2019-05-27T09:43:15.000Z</time>
      </trkpt>
      <trkpt lat="44.71095" lon="4.76523">
        <ele>85.23</ele>
        <time>2019-05-27T09:43:20.000Z</time>
      </trkpt>
      <trkpt lat="44.71076" lon="4.7654">
        <ele>85.01</ele>
        <time>2019-05-27T09:43:25.000Z</time>
      </trkpt>
      <trkpt lat="44.71078" lon="4.76555">
        <ele>86.26</ele>
        <time>2019-05-27T09:43:31.000Z</time>
      </trkpt>
      <trkpt lat="44.71083" lon="4.76568">
        <ele>87.01</ele>
        <time>2019-05-27T09:43:49.000Z</time>
      </trkpt>
      <trkpt lat="44.7108" lon="4.76594">
        <ele>86.21</ele>
        <time>2019-05-27T09:43:54.000Z</time>
      </trkpt>
      <trkpt lat="44.71053" lon="4.76627">
        <ele>84.09</ele>
        <time>2019-05-27T09:43:59.000Z</time>
      </trkpt>
      <trkpt lat="44.71028" lon="4.76664">
        <ele>81.09</ele>
        <time>2019-05-27T09:44:04.000Z</time>
      </trkpt>
      <trkpt lat="44.70997" lon="4.76679">
        <ele>81.96</ele>
        <time>2019-05-27T09:44:09.000Z</time>
      </trkpt>
      <trkpt lat="44.7097" lon="4.76684">
        <ele>79.48</ele>
        <time>2019-05-27T09:44:14.000Z</time>
      </trkpt>
      <trkpt lat="44.70945" lon="4.76708">
        <ele>77.79</ele>
        <time>2019-05-27T09:44:19.000Z</time>
      </trkpt>
      <trkpt lat="44.70923" lon="4.76719">
        <ele>82.8</ele>
        <time>2019-05-27T09:44:24.000Z</time>
      </trkpt>
      <trkpt lat="44.70904" lon="4.76742">
        <ele>84.95</ele>
        <time>2019-05-27T09:44:29.000Z</time>
      </trkpt>
      <trkpt lat="44.70876" lon="4.76748">
        <ele>86</ele>
        <time>2019-05-27T09:44:34.000Z</time>
      </trkpt>
      <trkpt lat="44.70845" lon="4.76756">
        <ele>87.01</ele>
        <time>2019-05-27T09:44:39.000Z</time>
      </trkpt>
      <trkpt lat="44.70811" lon="4.76755">
        <ele>85.02</ele>
        <time>2019-05-27T09:44:44.000Z</time>
      </trkpt>
      <trkpt lat="44.70777" lon="4.76752">
        <ele>86.51</ele>
        <time>2019-05-27T09:44:49.000Z</time>
      </trkpt>
      <trkpt lat="44.7074" lon="4.7675">
        <ele>85.45</ele>
        <time>2019-05-27T09:44:54.000Z</time>
      </trkpt>
      <trkpt lat="44.70707" lon="4.76756">
        <ele>84</ele>
        <time>2019-05-27T09:44:59.000Z</time>
      </trkpt>
      <trkpt lat="44.70673" lon="4.76762">
        <ele>87</ele>
        <time>2019-05-27T09:45:04.000Z</time>
      </trkpt>
      <trkpt lat="44.7064" lon="4.76759">
        <ele>85.03</ele>
        <time>2019-05-27T09:45:09.000Z</time>
      </trkpt>
      <trkpt lat="44.70608" lon="4.76748">
        <ele>83.09</ele>
        <time>2019-05-27T09:45:14.000Z</time>
      </trkpt>
      <trkpt lat="44.70577" lon="4.76733">
        <ele>84.01</ele>
        <time>2019-05-27T09:45:19.000Z</time>
      </trkpt>
      <trkpt lat="44.70543" lon="4.76734">
        <ele>82.02</ele>
        <time>2019-05-27T09:45:24.000Z</time>
      </trkpt>
      <trkpt lat="44.70517" lon="4.76703">
        <ele>84.7</ele>
        <time>2019-05-27T09:45:29.000Z</time>
      </trkpt>
      <trkpt lat="44.70486" lon="4.76686">
        <ele>85.02</ele>
        <time>2019-05-27T09:45:34.000Z</time>
      </trkpt>
      <trkpt lat="44.70454" lon="4.76677">
        <ele>85.81</ele>
        <time>2019-05-27T09:45:39.000Z</time>
      </trkpt>
      <trkpt lat="44.70419" lon="4.76679">
        <ele>84.27</ele>
        <time>2019-05-27T09:45:44.000Z</time>
      </trkpt>
      <trkpt lat="44.70383" lon="4.76683">
        <ele>84.01</ele>
        <time>2019-05-27T09:45:49.000Z</time>
      </trkpt>
      <trkpt lat="44.70351" lon="4.76688">
        <ele>84.02</ele>
        <time>2019-05-27T09:45:54.000Z</time>
      </trkpt>
      <trkpt lat="44.70319" lon="4.76699">
        <ele>84</ele>
        <time>2019-05-27T09:45:59.000Z</time>
      </trkpt>
      <trkpt lat="44.70289" lon="4.76726">
        <ele>82.14</ele>
        <time>2019-05-27T09:46:04.000Z</time>
      </trkpt>
      <trkpt lat="44.7027" lon="4.76736">
        <ele>83</ele>
        <time>2019-05-27T09:46:09.000Z</time>
      </trkpt>
      <trkpt lat="44.70266" lon="4.76708">
        <ele>85.7</ele>
        <time>2019-05-27T09:46:14.000Z</time>
      </trkpt>
      <trkpt lat="44.70261" lon="4.76679">
        <ele>86</ele>
        <time>2019-05-27T09:46:19.000Z</time>
      </trkpt>
      <trkpt lat="44.70247" lon="4.76657">
        <ele>85.21</ele>
        <time>2019-05-27T09:46:24.000Z</time>
      </trkpt>
      <trkpt lat="44.70224" lon="4.7667">
        <ele>87.01</ele>
        <time>2019-05-27T09:46:29.000Z</time>
      </trkpt>
      <trkpt lat="44.70202" lon="4.76682">
        <ele>87.77</ele>
        <time>2019-05-27T09:46:34.000Z</time>
      </trkpt>
      <trkpt lat="44.70186" lon="4.7669">
        <ele>89.01</ele>
        <time>2019-05-27T09:46:39.000Z</time>
      </trkpt>
      <trkpt lat="44.70174" lon="4.76675">
        <ele>89.02</ele>
        <time>2019-05-27T09:46:44.000Z</time>
      </trkpt>
      <trkpt lat="44.70162" lon="4.76659">
        <ele>89.27</ele>
        <time>2019-05-27T09:46:49.000Z</time>
      </trkpt>
      <trkpt lat="44.70152" lon="4.76669">
        <ele>90.52</ele>
        <time>2019-05-27T09:46:54.000Z</time>
      </trkpt>
      <trkpt lat="44.70139" lon="4.76684">
        <ele>93.75</ele>
        <time>2019-05-27T09:46:59.000Z</time>
      </trkpt>
      <trkpt lat="44.70113" lon="4.76698">
        <ele>91.85</ele>
        <time>2019-05-27T09:47:04.000Z</time>
      </trkpt>
      <trkpt lat="44.70085" lon="4.76714">
        <ele>91.27</ele>
        <time>2019-05-27T09:47:09.000Z</time>
      </trkpt>
      <trkpt lat="44.70054" lon="4.76732">
        <ele>89.78</ele>
        <time>2019-05-27T09:47:14.000Z</time>
      </trkpt>
      <trkpt lat="44.70022" lon="4.76749">
        <ele>89.02</ele>
        <time>2019-05-27T09:47:19.000Z</time>
      </trkpt>
      <trkpt lat="44.69988" lon="4.76768">
        <ele>88.77</ele>
        <time>2019-05-27T09:47:24.000Z</time>
      </trkpt>
      <trkpt lat="44.69956" lon="4.76789">
        <ele>88.22</ele>
        <time>2019-05-27T09:47:29.000Z</time>
      </trkpt>
      <trkpt lat="44.69925" lon="4.76808">
        <ele>89.25</ele>
        <time>2019-05-27T09:47:34.000Z</time>
      </trkpt>
      <trkpt lat="44.69903" lon="4.76823">
        <ele>90.76</ele>
        <time>2019-05-27T09:47:39.000Z</time>
      </trkpt>
      <trkpt lat="44.69908" lon="4.76853">
        <ele>90.03</ele>
        <time>2019-05-27T09:47:44.000Z</time>
      </trkpt>
      <trkpt lat="44.69901" lon="4.76878">
        <ele>87.04</ele>
        <time>2019-05-27T09:47:49.000Z</time>
      </trkpt>
      <trkpt lat="44.69881" lon="4.76889">
        <ele>86.02</ele>
        <time>2019-05-27T09:47:54.000Z</time>
      </trkpt>
      <trkpt lat="44.69858" lon="4.76898">
        <ele>86.06</ele>
        <time>2019-05-27T09:47:59.000Z</time>
      </trkpt>
      <trkpt lat="44.69833" lon="4.76909">
        <ele>85.22</ele>
        <time>2019-05-27T09:48:04.000Z</time>
      </trkpt>
      <trkpt lat="44.69807" lon="4.76921">
        <ele>86</ele>
        <time>2019-05-27T09:48:09.000Z</time>
      </trkpt>
      <trkpt lat="44.6978" lon="4.76938">
        <ele>86.96</ele>
        <time>2019-05-27T09:48:14.000Z</time>
      </trkpt>
      <trkpt lat="44.69758" lon="4.76951">
        <ele>88.02</ele>
        <time>2019-05-27T09:48:19.000Z</time>
      </trkpt>
      <trkpt lat="44.69741" lon="4.76962">
        <ele>88.77</ele>
        <time>2019-05-27T09:48:24.000Z</time>
      </trkpt>
      <trkpt lat="44.69724" lon="4.76973">
        <ele>91.5</ele>
        <time>2019-05-27T09:48:29.000Z</time>
      </trkpt>
      <trkpt lat="44.69699" lon="4.76988">
        <ele>90.28</ele>
        <time>2019-05-27T09:48:34.000Z</time>
      </trkpt>
      <trkpt lat="44.69669" lon="4.77008">
        <ele>87.29</ele>
        <time>2019-05-27T09:48:39.000Z</time>
      </trkpt>
      <trkpt lat="44.69639" lon="4.77026">
        <ele>88.14</ele>
        <time>2019-05-27T09:48:44.000Z</time>
      </trkpt>
      <trkpt lat="44.69607" lon="4.77043">
        <ele>85.09</ele>
        <time>2019-05-27T09:48:49.000Z</time>
      </trkpt>
      <trkpt lat="44.69575" lon="4.77064">
        <ele>85.02</ele>
        <time>2019-05-27T09:48:54.000Z</time>
      </trkpt>
      <trkpt lat="44.69545" lon="4.77084">
        <ele>85.27</ele>
        <time>2019-05-27T09:48:59.000Z</time>
      </trkpt>
      <trkpt lat="44.69514" lon="4.77101">
        <ele>82.09</ele>
        <time>2019-05-27T09:49:04.000Z</time>
      </trkpt>
      <trkpt lat="44.69482" lon="4.77119">
        <ele>81.09</ele>
        <time>2019-05-27T09:49:09.000Z</time>
      </trkpt>
      <trkpt lat="44.69452" lon="4.77138">
        <ele>83.75</ele>
        <time>2019-05-27T09:49:14.000Z</time>
      </trkpt>
      <trkpt lat="44.69426" lon="4.7715">
        <ele>84.82</ele>
        <time>2019-05-27T09:49:19.000Z</time>
      </trkpt>
      <trkpt lat="44.69404" lon="4.77162">
        <ele>87.01</ele>
        <time>2019-05-27T09:49:24.000Z</time>
      </trkpt>
      <trkpt lat="44.69381" lon="4.77178">
        <ele>85.27</ele>
        <time>2019-05-27T09:49:29.000Z</time>
      </trkpt>
      <trkpt lat="44.69353" lon="4.77196">
        <ele>84.02</ele>
        <time>2019-05-27T09:49:34.000Z</time>
      </trkpt>
      <trkpt lat="44.69325" lon="4.77215">
        <ele>83.96</ele>
        <time>2019-05-27T09:49:39.000Z</time>
      </trkpt>
      <trkpt lat="44.69304" lon="4.77233">
        <ele>83.04</ele>
        <time>2019-05-27T09:49:44.000Z</time>
      </trkpt>
      <trkpt lat="44.69277" lon="4.77241">
        <ele>81.08</ele>
        <time>2019-05-27T09:49:49.000Z</time>
      </trkpt>
      <trkpt lat="44.6925" lon="4.77252">
        <ele>81.27</ele>
        <time>2019-05-27T09:49:54.000Z</time>
      </trkpt>
      <trkpt lat="44.69219" lon="4.77266">
        <ele>81.07</ele>
        <time>2019-05-27T09:49:59.000Z</time>
      </trkpt>
      <trkpt lat="44.69189" lon="4.77277">
        <ele>81.02</ele>
        <time>2019-05-27T09:50:04.000Z</time>
      </trkpt>
      <trkpt lat="44.69154" lon="4.77288">
        <ele>81.77</ele>
        <time>2019-05-27T09:50:09.000Z</time>
      </trkpt>
      <trkpt lat="44.69119" lon="4.77293">
        <ele>81.96</ele>
        <time>2019-05-27T09:50:14.000Z</time>
      </trkpt>
      <trkpt lat="44.69083" lon="4.77293">
        <ele>83.02</ele>
        <time>2019-05-27T09:50:19.000Z</time>
      </trkpt>
      <trkpt lat="44.69049" lon="4.77292">
        <ele>83.26</ele>
        <time>2019-05-27T09:50:24.000Z</time>
      </trkpt>
      <trkpt lat="44.69017" lon="4.77291">
        <ele>85.01</ele>
        <time>2019-05-27T09:50:29.000Z</time>
      </trkpt>
      <trkpt lat="44.68982" lon="4.7729">
        <ele>85.02</ele>
        <time>2019-05-27T09:50:34.000Z</time>
      </trkpt>
      <trkpt lat="44.68946" lon="4.77289">
        <ele>84.27</ele>
        <time>2019-05-27T09:50:39.000Z</time>
      </trkpt>
      <trkpt lat="44.6891" lon="4.77287">
        <ele>85.02</ele>
        <time>2019-05-27T09:50:44.000Z</time>
      </trkpt>
      <trkpt lat="44.68874" lon="4.77282">
        <ele>84.08</ele>
        <time>2019-05-27T09:50:49.000Z</time>
      </trkpt>
      <trkpt lat="44.68838" lon="4.77279">
        <ele>83.03</ele>
        <time>2019-05-27T09:50:54.000Z</time>
      </trkpt>
      <trkpt lat="44.68802" lon="4.77277">
        <ele>83.02</ele>
        <time>2019-05-27T09:50:59.000Z</time>
      </trkpt>
      <trkpt lat="44.68766" lon="4.77274">
        <ele>83.79</ele>
        <time>2019-05-27T09:51:04.000Z</time>
      </trkpt>
      <trkpt lat="44.68729" lon="4.77272">
        <ele>83.04</ele>
        <time>2019-05-27T09:51:09.000Z</time>
      </trkpt>
      <trkpt lat="44.68691" lon="4.7727">
        <ele>81.22</ele>
        <time>2019-05-27T09:51:14.000Z</time>
      </trkpt>
      <trkpt lat="44.68654" lon="4.77269">
        <ele>82.95</ele>
        <time>2019-05-27T09:51:19.000Z</time>
      </trkpt>
      <trkpt lat="44.68629" lon="4.77265">
        <ele>82.04</ele>
        <time>2019-05-27T09:51:24.000Z</time>
      </trkpt>
      <trkpt lat="44.68615" lon="4.77254">
        <ele>80.09</ele>
        <time>2019-05-27T09:51:29.000Z</time>
      </trkpt>
      <trkpt lat="44.68593" lon="4.77252">
        <ele>79.83</ele>
        <time>2019-05-27T09:51:34.000Z</time>
      </trkpt>
      <trkpt lat="44.68564" lon="4.7725">
        <ele>79.03</ele>
        <time>2019-05-27T09:51:39.000Z</time>
      </trkpt>
      <trkpt lat="44.68532" lon="4.77248">
        <ele>79.96</ele>
        <time>2019-05-27T09:51:44.000Z</time>
      </trkpt>
      <trkpt lat="44.685" lon="4.77245">
        <ele>79.83</ele>
        <time>2019-05-27T09:51:49.000Z</time>
      </trkpt>
      <trkpt lat="44.68467" lon="4.77241">
        <ele>80.04</ele>
        <time>2019-05-27T09:51:54.000Z</time>
      </trkpt>
      <trkpt lat="44.68433" lon="4.77235">
        <ele>80.03</ele>
        <time>2019-05-27T09:51:59.000Z</time>
      </trkpt>
      <trkpt lat="44.68399" lon="4.77238">
        <ele>81.57</ele>
        <time>2019-05-27T09:52:04.000Z</time>
      </trkpt>
      <trkpt lat="44.68365" lon="4.77244">
        <ele>81.03</ele>
        <time>2019-05-27T09:52:09.000Z</time>
      </trkpt>
      <trkpt lat="44.68333" lon="4.77246">
        <ele>82.77</ele>
        <time>2019-05-27T09:52:14.000Z</time>
      </trkpt>
      <trkpt lat="44.68299" lon="4.77247">
        <ele>83.03</ele>
        <time>2019-05-27T09:52:19.000Z</time>
      </trkpt>
      <trkpt lat="44.68267" lon="4.77249">
        <ele>84.03</ele>
        <time>2019-05-27T09:52:24.000Z</time>
      </trkpt>
      <trkpt lat="44.68236" lon="4.77249">
        <ele>84.97</ele>
        <time>2019-05-27T09:52:29.000Z</time>
      </trkpt>
      <trkpt lat="44.68208" lon="4.77246">
        <ele>85.96</ele>
        <time>2019-05-27T09:52:34.000Z</time>
      </trkpt>
      <trkpt lat="44.68184" lon="4.77239">
        <ele>86.79</ele>
        <time>2019-05-27T09:52:39.000Z</time>
      </trkpt>
      <trkpt lat="44.68162" lon="4.77233">
        <ele>88.71</ele>
        <time>2019-05-27T09:52:44.000Z</time>
      </trkpt>
      <trkpt lat="44.68142" lon="4.77228">
        <ele>88.97</ele>
        <time>2019-05-27T09:52:49.000Z</time>
      </trkpt>
      <trkpt lat="44.68122" lon="4.77225">
        <ele>90.96</ele>
        <time>2019-05-27T09:52:54.000Z</time>
      </trkpt>
      <trkpt lat="44.68103" lon="4.77223">
        <ele>92.03</ele>
        <time>2019-05-27T09:52:59.000Z</time>
      </trkpt>
      <trkpt lat="44.68083" lon="4.77222">
        <ele>93.07</ele>
        <time>2019-05-27T09:53:04.000Z</time>
      </trkpt>
      <trkpt lat="44.68062" lon="4.77219">
        <ele>93.96</ele>
        <time>2019-05-27T09:53:09.000Z</time>
      </trkpt>
      <trkpt lat="44.68041" lon="4.77218">
        <ele>93.03</ele>
        <time>2019-05-27T09:53:14.000Z</time>
      </trkpt>
      <trkpt lat="44.6802" lon="4.77218">
        <ele>92.03</ele>
        <time>2019-05-27T09:53:19.000Z</time>
      </trkpt>
      <trkpt lat="44.67997" lon="4.77216">
        <ele>90.28</ele>
        <time>2019-05-27T09:53:24.000Z</time>
      </trkpt>
      <trkpt lat="44.67966" lon="4.77224">
        <ele>89.09</ele>
        <time>2019-05-27T09:53:29.000Z</time>
      </trkpt>
      <trkpt lat="44.67947" lon="4.77232">
        <ele>90.02</ele>
        <time>2019-05-27T09:53:34.000Z</time>
      </trkpt>
      <trkpt lat="44.67944" lon="4.77254">
        <ele>90.03</ele>
        <time>2019-05-27T09:53:39.000Z</time>
      </trkpt>
      <trkpt lat="44.67945" lon="4.77283">
        <ele>88.09</ele>
        <time>2019-05-27T09:53:44.000Z</time>
      </trkpt>
      <trkpt lat="44.67948" lon="4.7732">
        <ele>86.09</ele>
        <time>2019-05-27T09:53:49.000Z</time>
      </trkpt>
      <trkpt lat="44.67943" lon="4.77364">
        <ele>84.22</ele>
        <time>2019-05-27T09:53:54.000Z</time>
      </trkpt>
      <trkpt lat="44.67932" lon="4.77412">
        <ele>85.54</ele>
        <time>2019-05-27T09:53:59.000Z</time>
      </trkpt>
      <trkpt lat="44.67927" lon="4.77455">
        <ele>83.29</ele>
        <time>2019-05-27T09:54:04.000Z</time>
      </trkpt>
      <trkpt lat="44.67925" lon="4.77488">
        <ele>82.78</ele>
        <time>2019-05-27T09:54:09.000Z</time>
      </trkpt>
      <trkpt lat="44.67931" lon="4.77512">
        <ele>84.15</ele>
        <time>2019-05-27T09:54:14.000Z</time>
      </trkpt>
      <trkpt lat="44.67927" lon="4.77545">
        <ele>82.97</ele>
        <time>2019-05-27T09:54:19.000Z</time>
      </trkpt>
      <trkpt lat="44.67918" lon="4.77584">
        <ele>83.03</ele>
        <time>2019-05-27T09:54:24.000Z</time>
      </trkpt>
      <trkpt lat="44.67904" lon="4.77618">
        <ele>83.03</ele>
        <time>2019-05-27T09:54:29.000Z</time>
      </trkpt>
      <trkpt lat="44.67884" lon="4.77651">
        <ele>81.03</ele>
        <time>2019-05-27T09:54:34.000Z</time>
      </trkpt>
      <trkpt lat="44.67861" lon="4.7768">
        <ele>81.96</ele>
        <time>2019-05-27T09:54:39.000Z</time>
      </trkpt>
      <trkpt lat="44.67833" lon="4.777">
        <ele>83.03</ele>
        <time>2019-05-27T09:54:44.000Z</time>
      </trkpt>
      <trkpt lat="44.67803" lon="4.77709">
        <ele>83.03</ele>
        <time>2019-05-27T09:54:49.000Z</time>
      </trkpt>
      <trkpt lat="44.67774" lon="4.77709">
        <ele>83.03</ele>
        <time>2019-05-27T09:54:54.000Z</time>
      </trkpt>
      <trkpt lat="44.67744" lon="4.77705">
        <ele>84.77</ele>
        <time>2019-05-27T09:54:59.000Z</time>
      </trkpt>
      <trkpt lat="44.67713" lon="4.77702">
        <ele>84.83</ele>
        <time>2019-05-27T09:55:04.000Z</time>
      </trkpt>
      <trkpt lat="44.67683" lon="4.77696">
        <ele>86.72</ele>
        <time>2019-05-27T09:55:09.000Z</time>
      </trkpt>
      <trkpt lat="44.67651" lon="4.77692">
        <ele>86.22</ele>
        <time>2019-05-27T09:55:14.000Z</time>
      </trkpt>
      <trkpt lat="44.67619" lon="4.7769">
        <ele>86.03</ele>
        <time>2019-05-27T09:55:19.000Z</time>
      </trkpt>
      <trkpt lat="44.67587" lon="4.77692">
        <ele>86.03</ele>
        <time>2019-05-27T09:55:24.000Z</time>
      </trkpt>
      <trkpt lat="44.67554" lon="4.777">
        <ele>87.78</ele>
        <time>2019-05-27T09:55:29.000Z</time>
      </trkpt>
      <trkpt lat="44.67522" lon="4.77707">
        <ele>87.98</ele>
        <time>2019-05-27T09:55:34.000Z</time>
      </trkpt>
      <trkpt lat="44.6749" lon="4.77726">
        <ele>86.81</ele>
        <time>2019-05-27T09:55:39.000Z</time>
      </trkpt>
      <trkpt lat="44.67458" lon="4.77745">
        <ele>86.04</ele>
        <time>2019-05-27T09:55:44.000Z</time>
      </trkpt>
      <trkpt lat="44.67429" lon="4.77769">
        <ele>85.02</ele>
        <time>2019-05-27T09:55:49.000Z</time>
      </trkpt>
      <trkpt lat="44.67398" lon="4.77794">
        <ele>85.03</ele>
        <time>2019-05-27T09:55:54.000Z</time>
      </trkpt>
      <trkpt lat="44.67371" lon="4.77818">
        <ele>85.02</ele>
        <time>2019-05-27T09:55:59.000Z</time>
      </trkpt>
      <trkpt lat="44.67343" lon="4.77844">
        <ele>86.01</ele>
        <time>2019-05-27T09:56:04.000Z</time>
      </trkpt>
      <trkpt lat="44.67314" lon="4.77868">
        <ele>86.03</ele>
        <time>2019-05-27T09:56:09.000Z</time>
      </trkpt>
      <trkpt lat="44.67286" lon="4.77893">
        <ele>86.03</ele>
        <time>2019-05-27T09:56:14.000Z</time>
      </trkpt>
      <trkpt lat="44.67257" lon="4.77915">
        <ele>85.33</ele>
        <time>2019-05-27T09:56:19.000Z</time>
      </trkpt>
      <trkpt lat="44.6723" lon="4.77938">
        <ele>82.29</ele>
        <time>2019-05-27T09:56:24.000Z</time>
      </trkpt>
      <trkpt lat="44.67203" lon="4.77962">
        <ele>80.53</ele>
        <time>2019-05-27T09:56:29.000Z</time>
      </trkpt>
      <trkpt lat="44.67174" lon="4.77983">
        <ele>80.27</ele>
        <time>2019-05-27T09:56:34.000Z</time>
      </trkpt>
      <trkpt lat="44.67145" lon="4.77999">
        <ele>80.04</ele>
        <time>2019-05-27T09:56:39.000Z</time>
      </trkpt>
      <trkpt lat="44.67114" lon="4.78013">
        <ele>77.35</ele>
        <time>2019-05-27T09:56:44.000Z</time>
      </trkpt>
      <trkpt lat="44.67081" lon="4.78019">
        <ele>79.72</ele>
        <time>2019-05-27T09:56:49.000Z</time>
      </trkpt>
      <trkpt lat="44.67048" lon="4.7803">
        <ele>81.02</ele>
        <time>2019-05-27T09:56:54.000Z</time>
      </trkpt>
      <trkpt lat="44.67016" lon="4.7804">
        <ele>81.03</ele>
        <time>2019-05-27T09:56:59.000Z</time>
      </trkpt>
      <trkpt lat="44.66982" lon="4.7805">
        <ele>82.96</ele>
        <time>2019-05-27T09:57:04.000Z</time>
      </trkpt>
      <trkpt lat="44.66949" lon="4.78062">
        <ele>83.03</ele>
        <time>2019-05-27T09:57:09.000Z</time>
      </trkpt>
      <trkpt lat="44.66915" lon="4.78072">
        <ele>84.22</ele>
        <time>2019-05-27T09:57:14.000Z</time>
      </trkpt>
      <trkpt lat="44.66883" lon="4.78083">
        <ele>84.02</ele>
        <time>2019-05-27T09:57:19.000Z</time>
      </trkpt>
      <trkpt lat="44.66852" lon="4.78091">
        <ele>84.04</ele>
        <time>2019-05-27T09:57:24.000Z</time>
      </trkpt>
      <trkpt lat="44.66819" lon="4.78103">
        <ele>84.33</ele>
        <time>2019-05-27T09:57:29.000Z</time>
      </trkpt>
      <trkpt lat="44.66788" lon="4.78111">
        <ele>82.35</ele>
        <time>2019-05-27T09:57:34.000Z</time>
      </trkpt>
      <trkpt lat="44.66757" lon="4.7812">
        <ele>82.78</ele>
        <time>2019-05-27T09:57:39.000Z</time>
      </trkpt>
      <trkpt lat="44.66724" lon="4.7813">
        <ele>82.09</ele>
        <time>2019-05-27T09:57:44.000Z</time>
      </trkpt>
      <trkpt lat="44.66691" lon="4.7814">
        <ele>82.6</ele>
        <time>2019-05-27T09:57:49.000Z</time>
      </trkpt>
      <trkpt lat="44.66658" lon="4.78148">
        <ele>83.08</ele>
        <time>2019-05-27T09:57:54.000Z</time>
      </trkpt>
      <trkpt lat="44.66624" lon="4.78147">
        <ele>83.03</ele>
        <time>2019-05-27T09:57:59.000Z</time>
      </trkpt>
      <trkpt lat="44.66591" lon="4.78145">
        <ele>83.78</ele>
        <time>2019-05-27T09:58:04.000Z</time>
      </trkpt>
      <trkpt lat="44.66558" lon="4.78143">
        <ele>85.22</ele>
        <time>2019-05-27T09:58:09.000Z</time>
      </trkpt>
      <trkpt lat="44.66523" lon="4.78137">
        <ele>86.02</ele>
        <time>2019-05-27T09:58:14.000Z</time>
      </trkpt>
      <trkpt lat="44.66491" lon="4.78124">
        <ele>85.28</ele>
        <time>2019-05-27T09:58:19.000Z</time>
      </trkpt>
      <trkpt lat="44.66457" lon="4.7811">
        <ele>85.03</ele>
        <time>2019-05-27T09:58:24.000Z</time>
      </trkpt>
      <trkpt lat="44.66422" lon="4.78095">
        <ele>85.02</ele>
        <time>2019-05-27T09:58:29.000Z</time>
      </trkpt>
      <trkpt lat="44.66386" lon="4.78081">
        <ele>84.04</ele>
        <time>2019-05-27T09:58:34.000Z</time>
      </trkpt>
      <trkpt lat="44.66347" lon="4.78066">
        <ele>83.04</ele>
        <time>2019-05-27T09:58:39.000Z</time>
      </trkpt>
      <trkpt lat="44.66309" lon="4.7805">
        <ele>83.85</ele>
        <time>2019-05-27T09:58:44.000Z</time>
      </trkpt>
      <trkpt lat="44.66271" lon="4.78034">
        <ele>83.05</ele>
        <time>2019-05-27T09:58:49.000Z</time>
      </trkpt>
      <trkpt lat="44.66233" lon="4.78019">
        <ele>82.97</ele>
        <time>2019-05-27T09:58:54.000Z</time>
      </trkpt>
      <trkpt lat="44.66194" lon="4.78004">
        <ele>82.85</ele>
        <time>2019-05-27T09:58:59.000Z</time>
      </trkpt>
      <trkpt lat="44.66157" lon="4.77989">
        <ele>83.83</ele>
        <time>2019-05-27T09:59:04.000Z</time>
      </trkpt>
      <trkpt lat="44.66119" lon="4.77973">
        <ele>83.97</ele>
        <time>2019-05-27T09:59:09.000Z</time>
      </trkpt>
      <trkpt lat="44.66082" lon="4.77957">
        <ele>83.03</ele>
        <time>2019-05-27T09:59:14.000Z</time>
      </trkpt>
      <trkpt lat="44.66046" lon="4.77943">
        <ele>84.97</ele>
        <time>2019-05-27T09:59:19.000Z</time>
      </trkpt>
      <trkpt lat="44.6601" lon="4.77926">
        <ele>85.1</ele>
        <time>2019-05-27T09:59:24.000Z</time>
      </trkpt>
      <trkpt lat="44.65974" lon="4.77911">
        <ele>82.98</ele>
        <time>2019-05-27T09:59:29.000Z</time>
      </trkpt>
      <trkpt lat="44.65939" lon="4.77899">
        <ele>80.98</ele>
        <time>2019-05-27T09:59:34.000Z</time>
      </trkpt>
      <trkpt lat="44.65902" lon="4.77881">
        <ele>81.05</ele>
        <time>2019-05-27T09:59:39.000Z</time>
      </trkpt>
      <trkpt lat="44.65868" lon="4.77862">
        <ele>82.02</ele>
        <time>2019-05-27T09:59:44.000Z</time>
      </trkpt>
      <trkpt lat="44.65834" lon="4.77838">
        <ele>82.23</ele>
        <time>2019-05-27T09:59:49.000Z</time>
      </trkpt>
      <trkpt lat="44.65802" lon="4.77811">
        <ele>81.29</ele>
        <time>2019-05-27T09:59:54.000Z</time>
      </trkpt>
      <trkpt lat="44.65772" lon="4.77784">
        <ele>82.02</ele>
        <time>2019-05-27T09:59:59.000Z</time>
      </trkpt>
      <trkpt lat="44.65741" lon="4.77759">
        <ele>84.77</ele>
        <time>2019-05-27T10:00:04.000Z</time>
      </trkpt>
      <trkpt lat="44.65709" lon="4.77739">
        <ele>84.04</ele>
        <time>2019-05-27T10:00:09.000Z</time>
      </trkpt>
      <trkpt lat="44.65674" lon="4.77724">
        <ele>84.04</ele>
        <time>2019-05-27T10:00:14.000Z</time>
      </trkpt>
      <trkpt lat="44.65639" lon="4.7771">
        <ele>84.79</ele>
        <time>2019-05-27T10:00:19.000Z</time>
      </trkpt>
      <trkpt lat="44.65604" lon="4.77697">
        <ele>84.29</ele>
        <time>2019-05-27T10:00:24.000Z</time>
      </trkpt>
      <trkpt lat="44.65571" lon="4.77684">
        <ele>85.04</ele>
        <time>2019-05-27T10:00:29.000Z</time>
      </trkpt>
      <trkpt lat="44.65541" lon="4.77673">
        <ele>85.04</ele>
        <time>2019-05-27T10:00:34.000Z</time>
      </trkpt>
      <trkpt lat="44.65526" lon="4.77671">
        <ele>84.34</ele>
        <time>2019-05-27T10:00:39.000Z</time>
      </trkpt>
      <trkpt lat="44.65533" lon="4.77688">
        <ele>81.36</ele>
        <time>2019-05-27T10:00:44.000Z</time>
      </trkpt>
      <trkpt lat="44.6555" lon="4.77705">
        <ele>80.04</ele>
        <time>2019-05-27T10:00:49.000Z</time>
      </trkpt>
      <trkpt lat="44.65561" lon="4.77721">
        <ele>78.31</ele>
        <time>2019-05-27T10:00:54.000Z</time>
      </trkpt>
      <trkpt lat="44.65554" lon="4.77734">
        <ele>79.22</ele>
        <time>2019-05-27T10:00:59.000Z</time>
      </trkpt>
      <trkpt lat="44.65541" lon="4.77733">
        <ele>80.03</ele>
        <time>2019-05-27T10:01:04.000Z</time>
      </trkpt>
      <trkpt lat="44.65532" lon="4.77735">
        <ele>82.04</ele>
        <time>2019-05-27T10:01:14.000Z</time>
      </trkpt>
      <trkpt lat="44.65524" lon="4.77722">
        <ele>81.05</ele>
        <time>2019-05-27T10:01:19.000Z</time>
      </trkpt>
      <trkpt lat="44.65511" lon="4.7771">
        <ele>80.98</ele>
        <time>2019-05-27T10:01:24.000Z</time>
      </trkpt>
      <trkpt lat="44.65496" lon="4.77713">
        <ele>82.79</ele>
        <time>2019-05-27T10:01:29.000Z</time>
      </trkpt>
      <trkpt lat="44.65485" lon="4.77726">
        <ele>80.06</ele>
        <time>2019-05-27T10:01:34.000Z</time>
      </trkpt>
      <trkpt lat="44.65474" lon="4.77739">
        <ele>78.29</ele>
        <time>2019-05-27T10:01:39.000Z</time>
      </trkpt>
      <trkpt lat="44.65463" lon="4.77727">
        <ele>77.29</ele>
        <time>2019-05-27T10:01:44.000Z</time>
      </trkpt>
      <trkpt lat="44.65452" lon="4.77719">
        <ele>77.98</ele>
        <time>2019-05-27T10:01:49.000Z</time>
      </trkpt>
      <trkpt lat="44.65436" lon="4.77713">
        <ele>77.29</ele>
        <time>2019-05-27T10:01:54.000Z</time>
      </trkpt>
      <trkpt lat="44.65417" lon="4.77703">
        <ele>79.02</ele>
        <time>2019-05-27T10:01:59.000Z</time>
      </trkpt>
      <trkpt lat="44.65399" lon="4.77695">
        <ele>80.04</ele>
        <time>2019-05-27T10:02:04.000Z</time>
      </trkpt>
      <trkpt lat="44.65387" lon="4.77688">
        <ele>79.29</ele>
        <time>2019-05-27T10:02:09.000Z</time>
      </trkpt>
      <trkpt lat="44.6539" lon="4.77676">
        <ele>78.12</ele>
        <time>2019-05-27T10:02:22.000Z</time>
      </trkpt>
      <trkpt lat="44.65388" lon="4.77689">
        <ele>80.98</ele>
        <time>2019-05-27T10:05:38.000Z</time>
      </trkpt>
      <trkpt lat="44.65401" lon="4.77699">
        <ele>81.04</ele>
        <time>2019-05-27T10:05:43.000Z</time>
      </trkpt>
      <trkpt lat="44.65414" lon="4.77685">
        <ele>81.79</ele>
        <time>2019-05-27T10:05:48.000Z</time>
      </trkpt>
      <trkpt lat="44.65417" lon="4.7766">
        <ele>82.1</ele>
        <time>2019-05-27T10:05:53.000Z</time>
      </trkpt>
      <trkpt lat="44.65415" lon="4.77635">
        <ele>82.04</ele>
        <time>2019-05-27T10:05:58.000Z</time>
      </trkpt>
      <trkpt lat="44.65423" lon="4.7762">
        <ele>83.04</ele>
        <time>2019-05-27T10:06:03.000Z</time>
      </trkpt>
      <trkpt lat="44.65445" lon="4.77634">
        <ele>83.98</ele>
        <time>2019-05-27T10:06:08.000Z</time>
      </trkpt>
      <trkpt lat="44.65465" lon="4.77645">
        <ele>84.99</ele>
        <time>2019-05-27T10:06:13.000Z</time>
      </trkpt>
      <trkpt lat="44.65484" lon="4.77654">
        <ele>85.04</ele>
        <time>2019-05-27T10:06:18.000Z</time>
      </trkpt>
      <trkpt lat="44.655" lon="4.77661">
        <ele>86.04</ele>
        <time>2019-05-27T10:06:23.000Z</time>
      </trkpt>
      <trkpt lat="44.65514" lon="4.77666">
        <ele>86.04</ele>
        <time>2019-05-27T10:06:28.000Z</time>
      </trkpt>
      <trkpt lat="44.65528" lon="4.77656">
        <ele>85.29</ele>
        <time>2019-05-27T10:06:33.000Z</time>
      </trkpt>
      <trkpt lat="44.65531" lon="4.77621">
        <ele>84.3</ele>
        <time>2019-05-27T10:06:38.000Z</time>
      </trkpt>
      <trkpt lat="44.65536" lon="4.7759">
        <ele>83.99</ele>
        <time>2019-05-27T10:06:43.000Z</time>
      </trkpt>
      <trkpt lat="44.6554" lon="4.77564">
        <ele>84.98</ele>
        <time>2019-05-27T10:06:48.000Z</time>
      </trkpt>
      <trkpt lat="44.65533" lon="4.77575">
        <ele>82.12</ele>
        <time>2019-05-27T10:06:55.000Z</time>
      </trkpt>
      <trkpt lat="44.6553" lon="4.77593">
        <ele>81.04</ele>
        <time>2019-05-27T10:07:00.000Z</time>
      </trkpt>
      <trkpt lat="44.65526" lon="4.7761">
        <ele>80.04</ele>
        <time>2019-05-27T10:07:05.000Z</time>
      </trkpt>
      <trkpt lat="44.65505" lon="4.77602">
        <ele>76.36</ele>
        <time>2019-05-27T10:07:10.000Z</time>
      </trkpt>
      <trkpt lat="44.65471" lon="4.77592">
        <ele>75.23</ele>
        <time>2019-05-27T10:07:15.000Z</time>
      </trkpt>
      <trkpt lat="44.65441" lon="4.77576">
        <ele>76.78</ele>
        <time>2019-05-27T10:07:20.000Z</time>
      </trkpt>
      <trkpt lat="44.65411" lon="4.7756">
        <ele>77.78</ele>
        <time>2019-05-27T10:07:25.000Z</time>
      </trkpt>
      <trkpt lat="44.65388" lon="4.77542">
        <ele>79.74</ele>
        <time>2019-05-27T10:07:30.000Z</time>
      </trkpt>
      <trkpt lat="44.65366" lon="4.77523">
        <ele>81.04</ele>
        <time>2019-05-27T10:07:35.000Z</time>
      </trkpt>
      <trkpt lat="44.65344" lon="4.77506">
        <ele>81.98</ele>
        <time>2019-05-27T10:07:40.000Z</time>
      </trkpt>
      <trkpt lat="44.65322" lon="4.77487">
        <ele>83.04</ele>
        <time>2019-05-27T10:07:45.000Z</time>
      </trkpt>
      <trkpt lat="44.65304" lon="4.77467">
        <ele>84.04</ele>
        <time>2019-05-27T10:07:50.000Z</time>
      </trkpt>
      <trkpt lat="44.6528" lon="4.7745">
        <ele>81.11</ele>
        <time>2019-05-27T10:07:55.000Z</time>
      </trkpt>
      <trkpt lat="44.65256" lon="4.7743">
        <ele>81.22</ele>
        <time>2019-05-27T10:08:00.000Z</time>
      </trkpt>
      <trkpt lat="44.65231" lon="4.77412">
        <ele>80.47</ele>
        <time>2019-05-27T10:08:05.000Z</time>
      </trkpt>
      <trkpt lat="44.65208" lon="4.77393">
        <ele>80.1</ele>
        <time>2019-05-27T10:08:10.000Z</time>
      </trkpt>
      <trkpt lat="44.65184" lon="4.77371">
        <ele>81.86</ele>
        <time>2019-05-27T10:08:15.000Z</time>
      </trkpt>
      <trkpt lat="44.6516" lon="4.7735">
        <ele>82.04</ele>
        <time>2019-05-27T10:08:20.000Z</time>
      </trkpt>
      <trkpt lat="44.65131" lon="4.77327">
        <ele>80.06</ele>
        <time>2019-05-27T10:08:25.000Z</time>
      </trkpt>
      <trkpt lat="44.65103" lon="4.77303">
        <ele>80.98</ele>
        <time>2019-05-27T10:08:30.000Z</time>
      </trkpt>
      <trkpt lat="44.65074" lon="4.77283">
        <ele>81.04</ele>
        <time>2019-05-27T10:08:35.000Z</time>
      </trkpt>
      <trkpt lat="44.65048" lon="4.77261">
        <ele>79.29</ele>
        <time>2019-05-27T10:08:40.000Z</time>
      </trkpt>
      <trkpt lat="44.65019" lon="4.77238">
        <ele>79.11</ele>
        <time>2019-05-27T10:08:45.000Z</time>
      </trkpt>
      <trkpt lat="44.64992" lon="4.77214">
        <ele>79.28</ele>
        <time>2019-05-27T10:08:50.000Z</time>
      </trkpt>
      <trkpt lat="44.64966" lon="4.7719">
        <ele>79.79</ele>
        <time>2019-05-27T10:08:55.000Z</time>
      </trkpt>
      <trkpt lat="44.64939" lon="4.77168">
        <ele>83.02</ele>
        <time>2019-05-27T10:09:00.000Z</time>
      </trkpt>
      <trkpt lat="44.64913" lon="4.77147">
        <ele>80.42</ele>
        <time>2019-05-27T10:09:05.000Z</time>
      </trkpt>
      <trkpt lat="44.64884" lon="4.77126">
        <ele>80.8</ele>
        <time>2019-05-27T10:09:10.000Z</time>
      </trkpt>
      <trkpt lat="44.64857" lon="4.77102">
        <ele>79.28</ele>
        <time>2019-05-27T10:09:15.000Z</time>
      </trkpt>
      <trkpt lat="44.6483" lon="4.77081">
        <ele>78.3</ele>
        <time>2019-05-27T10:09:20.000Z</time>
      </trkpt>
      <trkpt lat="44.64799" lon="4.77054">
        <ele>79.95</ele>
        <time>2019-05-27T10:09:25.000Z</time>
      </trkpt>
      <trkpt lat="44.64772" lon="4.77032">
        <ele>81.24</ele>
        <time>2019-05-27T10:09:30.000Z</time>
      </trkpt>
      <trkpt lat="44.64742" lon="4.77012">
        <ele>79.17</ele>
        <time>2019-05-27T10:09:35.000Z</time>
      </trkpt>
      <trkpt lat="44.64714" lon="4.76986">
        <ele>79.05</ele>
        <time>2019-05-27T10:09:40.000Z</time>
      </trkpt>
      <trkpt lat="44.64685" lon="4.7696">
        <ele>78.06</ele>
        <time>2019-05-27T10:09:45.000Z</time>
      </trkpt>
      <trkpt lat="44.64655" lon="4.76935">
        <ele>77.3</ele>
        <time>2019-05-27T10:09:50.000Z</time>
      </trkpt>
      <trkpt lat="44.64626" lon="4.76908">
        <ele>78.05</ele>
        <time>2019-05-27T10:09:55.000Z</time>
      </trkpt>
      <trkpt lat="44.64595" lon="4.76884">
        <ele>77.99</ele>
        <time>2019-05-27T10:10:00.000Z</time>
      </trkpt>
      <trkpt lat="44.64564" lon="4.76862">
        <ele>77.99</ele>
        <time>2019-05-27T10:10:05.000Z</time>
      </trkpt>
      <trkpt lat="44.64537" lon="4.76836">
        <ele>78.05</ele>
        <time>2019-05-27T10:10:10.000Z</time>
      </trkpt>
      <trkpt lat="44.64507" lon="4.7681">
        <ele>77</ele>
        <time>2019-05-27T10:10:15.000Z</time>
      </trkpt>
      <trkpt lat="44.64478" lon="4.76784">
        <ele>77.99</ele>
        <time>2019-05-27T10:10:20.000Z</time>
      </trkpt>
      <trkpt lat="44.64449" lon="4.76761">
        <ele>77.53</ele>
        <time>2019-05-27T10:10:25.000Z</time>
      </trkpt>
      <trkpt lat="44.64421" lon="4.76735">
        <ele>78.8</ele>
        <time>2019-05-27T10:10:30.000Z</time>
      </trkpt>
      <trkpt lat="44.64391" lon="4.76711">
        <ele>80.05</ele>
        <time>2019-05-27T10:10:35.000Z</time>
      </trkpt>
      <trkpt lat="44.64361" lon="4.76686">
        <ele>78.3</ele>
        <time>2019-05-27T10:10:40.000Z</time>
      </trkpt>
      <trkpt lat="44.64333" lon="4.76664">
        <ele>80.04</ele>
        <time>2019-05-27T10:10:45.000Z</time>
      </trkpt>
      <trkpt lat="44.64305" lon="4.7664">
        <ele>81.05</ele>
        <time>2019-05-27T10:10:50.000Z</time>
      </trkpt>
      <trkpt lat="44.64274" lon="4.76615">
        <ele>80.05</ele>
        <time>2019-05-27T10:10:55.000Z</time>
      </trkpt>
      <trkpt lat="44.64243" lon="4.76592">
        <ele>80.05</ele>
        <time>2019-05-27T10:11:00.000Z</time>
      </trkpt>
      <trkpt lat="44.64215" lon="4.76564">
        <ele>79.11</ele>
        <time>2019-05-27T10:11:05.000Z</time>
      </trkpt>
      <trkpt lat="44.64183" lon="4.7654">
        <ele>79.05</ele>
        <time>2019-05-27T10:11:10.000Z</time>
      </trkpt>
      <trkpt lat="44.64152" lon="4.76513">
        <ele>78.05</ele>
        <time>2019-05-27T10:11:15.000Z</time>
      </trkpt>
      <trkpt lat="44.64122" lon="4.76489">
        <ele>78.86</ele>
        <time>2019-05-27T10:11:20.000Z</time>
      </trkpt>
      <trkpt lat="44.64097" lon="4.76465">
        <ele>79.93</ele>
        <time>2019-05-27T10:11:25.000Z</time>
      </trkpt>
      <trkpt lat="44.64065" lon="4.76443">
        <ele>79.3</ele>
        <time>2019-05-27T10:11:30.000Z</time>
      </trkpt>
      <trkpt lat="44.64039" lon="4.76418">
        <ele>77.36</ele>
        <time>2019-05-27T10:11:35.000Z</time>
      </trkpt>
      <trkpt lat="44.6401" lon="4.76395">
        <ele>78</ele>
        <time>2019-05-27T10:11:40.000Z</time>
      </trkpt>
      <trkpt lat="44.63983" lon="4.76373">
        <ele>79.24</ele>
        <time>2019-05-27T10:11:45.000Z</time>
      </trkpt>
      <trkpt lat="44.63954" lon="4.76347">
        <ele>81.8</ele>
        <time>2019-05-27T10:11:50.000Z</time>
      </trkpt>
      <trkpt lat="44.63926" lon="4.76324">
        <ele>82.36</ele>
        <time>2019-05-27T10:11:55.000Z</time>
      </trkpt>
      <trkpt lat="44.63904" lon="4.76288">
        <ele>79.07</ele>
        <time>2019-05-27T10:12:00.000Z</time>
      </trkpt>
      <trkpt lat="44.63886" lon="4.76262">
        <ele>79.11</ele>
        <time>2019-05-27T10:12:05.000Z</time>
      </trkpt>
      <trkpt lat="44.6389" lon="4.76226">
        <ele>77.37</ele>
        <time>2019-05-27T10:12:10.000Z</time>
      </trkpt>
      <trkpt lat="44.63902" lon="4.76194">
        <ele>74.31</ele>
        <time>2019-05-27T10:12:15.000Z</time>
      </trkpt>
      <trkpt lat="44.63902" lon="4.76154">
        <ele>73.05</ele>
        <time>2019-05-27T10:12:20.000Z</time>
      </trkpt>
      <trkpt lat="44.63904" lon="4.76114">
        <ele>73.8</ele>
        <time>2019-05-27T10:12:25.000Z</time>
      </trkpt>
      <trkpt lat="44.63908" lon="4.76078">
        <ele>77.72</ele>
        <time>2019-05-27T10:12:30.000Z</time>
      </trkpt>
      <trkpt lat="44.6391" lon="4.76043">
        <ele>78.05</ele>
        <time>2019-05-27T10:12:35.000Z</time>
      </trkpt>
      <trkpt lat="44.63912" lon="4.76017">
        <ele>76.87</ele>
        <time>2019-05-27T10:12:40.000Z</time>
      </trkpt>
      <trkpt lat="44.63913" lon="4.76002">
        <ele>78.07</ele>
        <time>2019-05-27T10:15:30.000Z</time>
      </trkpt>
      <trkpt lat="44.63915" lon="4.7598">
        <ele>78.29</ele>
        <time>2019-05-27T10:15:35.000Z</time>
      </trkpt>
      <trkpt lat="44.63917" lon="4.75955">
        <ele>78.99</ele>
        <time>2019-05-27T10:15:40.000Z</time>
      </trkpt>
      <trkpt lat="44.63922" lon="4.75925">
        <ele>78.07</ele>
        <time>2019-05-27T10:15:45.000Z</time>
      </trkpt>
      <trkpt lat="44.63927" lon="4.75894">
        <ele>78.05</ele>
        <time>2019-05-27T10:15:50.000Z</time>
      </trkpt>
      <trkpt lat="44.63931" lon="4.75861">
        <ele>76.07</ele>
        <time>2019-05-27T10:15:55.000Z</time>
      </trkpt>
      <trkpt lat="44.63938" lon="4.75828">
        <ele>76.05</ele>
        <time>2019-05-27T10:16:00.000Z</time>
      </trkpt>
      <trkpt lat="44.63942" lon="4.75799">
        <ele>76.29</ele>
        <time>2019-05-27T10:16:05.000Z</time>
      </trkpt>
      <trkpt lat="44.63947" lon="4.75772">
        <ele>77.04</ele>
        <time>2019-05-27T10:16:10.000Z</time>
      </trkpt>
      <trkpt lat="44.63949" lon="4.75757">
        <ele>76.06</ele>
        <time>2019-05-27T10:17:06.000Z</time>
      </trkpt>
      <trkpt lat="44.63954" lon="4.75729">
        <ele>75.3</ele>
        <time>2019-05-27T10:17:11.000Z</time>
      </trkpt>
      <trkpt lat="44.6396" lon="4.75697">
        <ele>75.06</ele>
        <time>2019-05-27T10:17:16.000Z</time>
      </trkpt>
      <trkpt lat="44.63962" lon="4.75664">
        <ele>75.99</ele>
        <time>2019-05-27T10:17:21.000Z</time>
      </trkpt>
      <trkpt lat="44.63961" lon="4.7563">
        <ele>75.06</ele>
        <time>2019-05-27T10:17:26.000Z</time>
      </trkpt>
      <trkpt lat="44.63958" lon="4.75597">
        <ele>74.11</ele>
        <time>2019-05-27T10:17:31.000Z</time>
      </trkpt>
      <trkpt lat="44.63959" lon="4.75565">
        <ele>76.05</ele>
        <time>2019-05-27T10:17:36.000Z</time>
      </trkpt>
      <trkpt lat="44.63947" lon="4.75537">
        <ele>77.74</ele>
        <time>2019-05-27T10:17:41.000Z</time>
      </trkpt>
      <trkpt lat="44.63936" lon="4.75515">
        <ele>77.81</ele>
        <time>2019-05-27T10:17:46.000Z</time>
      </trkpt>
      <trkpt lat="44.63924" lon="4.75491">
        <ele>77.06</ele>
        <time>2019-05-27T10:17:51.000Z</time>
      </trkpt>
      <trkpt lat="44.63909" lon="4.75472">
        <ele>77.29</ele>
        <time>2019-05-27T10:17:56.000Z</time>
      </trkpt>
      <trkpt lat="44.6389" lon="4.75453">
        <ele>77.06</ele>
        <time>2019-05-27T10:18:01.000Z</time>
      </trkpt>
      <trkpt lat="44.63886" lon="4.75436">
        <ele>76.12</ele>
        <time>2019-05-27T10:18:06.000Z</time>
      </trkpt>
      <trkpt lat="44.6388" lon="4.75419">
        <ele>77.74</ele>
        <time>2019-05-27T10:18:11.000Z</time>
      </trkpt>
      <trkpt lat="44.63866" lon="4.75408">
        <ele>79.74</ele>
        <time>2019-05-27T10:18:16.000Z</time>
      </trkpt>
      <trkpt lat="44.6386" lon="4.75398">
        <ele>76.99</ele>
        <time>2019-05-27T10:18:50.000Z</time>
      </trkpt>
      <trkpt lat="44.63841" lon="4.75378">
        <ele>77.1</ele>
        <time>2019-05-27T10:18:55.000Z</time>
      </trkpt>
      <trkpt lat="44.63819" lon="4.75356">
        <ele>76.06</ele>
        <time>2019-05-27T10:19:00.000Z</time>
      </trkpt>
      <trkpt lat="44.63797" lon="4.75333">
        <ele>77.04</ele>
        <time>2019-05-27T10:19:05.000Z</time>
      </trkpt>
      <trkpt lat="44.63775" lon="4.75308">
        <ele>77.07</ele>
        <time>2019-05-27T10:19:10.000Z</time>
      </trkpt>
      <trkpt lat="44.63751" lon="4.7528">
        <ele>78.04</ele>
        <time>2019-05-27T10:19:15.000Z</time>
      </trkpt>
      <trkpt lat="44.63724" lon="4.75255">
        <ele>78.06</ele>
        <time>2019-05-27T10:19:20.000Z</time>
      </trkpt>
      <trkpt lat="44.63698" lon="4.75228">
        <ele>78.06</ele>
        <time>2019-05-27T10:19:25.000Z</time>
      </trkpt>
      <trkpt lat="44.63669" lon="4.75201">
        <ele>78.1</ele>
        <time>2019-05-27T10:19:30.000Z</time>
      </trkpt>
      <trkpt lat="44.63641" lon="4.75171">
        <ele>77.86</ele>
        <time>2019-05-27T10:19:35.000Z</time>
      </trkpt>
      <trkpt lat="44.63613" lon="4.75144">
        <ele>78.25</ele>
        <time>2019-05-27T10:19:40.000Z</time>
      </trkpt>
      <trkpt lat="44.63589" lon="4.7512">
        <ele>79.06</ele>
        <time>2019-05-27T10:19:45.000Z</time>
      </trkpt>
      <trkpt lat="44.63576" lon="4.751">
        <ele>78.08</ele>
        <time>2019-05-27T10:19:50.000Z</time>
      </trkpt>
      <trkpt lat="44.63558" lon="4.75086">
        <ele>78.12</ele>
        <time>2019-05-27T10:19:55.000Z</time>
      </trkpt>
      <trkpt lat="44.63539" lon="4.75064">
        <ele>78.87</ele>
        <time>2019-05-27T10:20:00.000Z</time>
      </trkpt>
      <trkpt lat="44.63517" lon="4.75039">
        <ele>79.01</ele>
        <time>2019-05-27T10:20:05.000Z</time>
      </trkpt>
      <trkpt lat="44.63497" lon="4.75009">
        <ele>78.11</ele>
        <time>2019-05-27T10:20:10.000Z</time>
      </trkpt>
      <trkpt lat="44.63508" lon="4.74971">
        <ele>78.81</ele>
        <time>2019-05-27T10:20:15.000Z</time>
      </trkpt>
      <trkpt lat="44.63522" lon="4.74931">
        <ele>78.06</ele>
        <time>2019-05-27T10:20:20.000Z</time>
      </trkpt>
      <trkpt lat="44.63534" lon="4.74893">
        <ele>78.06</ele>
        <time>2019-05-27T10:20:25.000Z</time>
      </trkpt>
      <trkpt lat="44.63548" lon="4.74856">
        <ele>78.06</ele>
        <time>2019-05-27T10:20:30.000Z</time>
      </trkpt>
      <trkpt lat="44.6356" lon="4.7482">
        <ele>80.04</ele>
        <time>2019-05-27T10:20:35.000Z</time>
      </trkpt>
      <trkpt lat="44.63547" lon="4.74796">
        <ele>80.06</ele>
        <time>2019-05-27T10:20:40.000Z</time>
      </trkpt>
      <trkpt lat="44.63523" lon="4.74775">
        <ele>80.06</ele>
        <time>2019-05-27T10:20:45.000Z</time>
      </trkpt>
      <trkpt lat="44.63498" lon="4.74752">
        <ele>79.12</ele>
        <time>2019-05-27T10:20:50.000Z</time>
      </trkpt>
      <trkpt lat="44.63467" lon="4.74735">
        <ele>78.82</ele>
        <time>2019-05-27T10:20:55.000Z</time>
      </trkpt>
      <trkpt lat="44.63439" lon="4.74716">
        <ele>78.81</ele>
        <time>2019-05-27T10:21:00.000Z</time>
      </trkpt>
      <trkpt lat="44.63412" lon="4.74702">
        <ele>78.06</ele>
        <time>2019-05-27T10:21:05.000Z</time>
      </trkpt>
      <trkpt lat="44.63397" lon="4.7469">
        <ele>78.04</ele>
        <time>2019-05-27T10:21:10.000Z</time>
      </trkpt>
      <trkpt lat="44.63384" lon="4.74682">
        <ele>79.05</ele>
        <time>2019-05-27T10:21:15.000Z</time>
      </trkpt>
      <trkpt lat="44.63373" lon="4.74672">
        <ele>80.04</ele>
        <time>2019-05-27T10:21:20.000Z</time>
      </trkpt>
      <trkpt lat="44.63366" lon="4.74663">
        <ele>78.56</ele>
        <time>2019-05-27T10:21:26.000Z</time>
      </trkpt>
      <trkpt lat="44.63354" lon="4.74657">
        <ele>79.05</ele>
        <time>2019-05-27T10:21:31.000Z</time>
      </trkpt>
      <trkpt lat="44.63336" lon="4.74649">
        <ele>79.79</ele>
        <time>2019-05-27T10:21:36.000Z</time>
      </trkpt>
      <trkpt lat="44.63326" lon="4.74617">
        <ele>79.06</ele>
        <time>2019-05-27T10:21:41.000Z</time>
      </trkpt>
      <trkpt lat="44.63313" lon="4.74583">
        <ele>77.31</ele>
        <time>2019-05-27T10:21:46.000Z</time>
      </trkpt>
      <trkpt lat="44.63289" lon="4.74557">
        <ele>76.13</ele>
        <time>2019-05-27T10:21:51.000Z</time>
      </trkpt>
      <trkpt lat="44.63258" lon="4.74537">
        <ele>75.11</ele>
        <time>2019-05-27T10:21:56.000Z</time>
      </trkpt>
      <trkpt lat="44.63228" lon="4.74526">
        <ele>74.08</ele>
        <time>2019-05-27T10:22:01.000Z</time>
      </trkpt>
      <trkpt lat="44.63198" lon="4.74513">
        <ele>75.01</ele>
        <time>2019-05-27T10:22:06.000Z</time>
      </trkpt>
      <trkpt lat="44.63167" lon="4.745">
        <ele>76.04</ele>
        <time>2019-05-27T10:22:11.000Z</time>
      </trkpt>
      <trkpt lat="44.63137" lon="4.74488">
        <ele>76.3</ele>
        <time>2019-05-27T10:22:16.000Z</time>
      </trkpt>
      <trkpt lat="44.63102" lon="4.74476">
        <ele>76.29</ele>
        <time>2019-05-27T10:22:21.000Z</time>
      </trkpt>
      <trkpt lat="44.63068" lon="4.74462">
        <ele>75.32</ele>
        <time>2019-05-27T10:22:26.000Z</time>
      </trkpt>
      <trkpt lat="44.63034" lon="4.74447">
        <ele>75.05</ele>
        <time>2019-05-27T10:22:31.000Z</time>
      </trkpt>
      <trkpt lat="44.62997" lon="4.74433">
        <ele>73.13</ele>
        <time>2019-05-27T10:22:36.000Z</time>
      </trkpt>
      <trkpt lat="44.62963" lon="4.74419">
        <ele>74.29</ele>
        <time>2019-05-27T10:22:41.000Z</time>
      </trkpt>
      <trkpt lat="44.62927" lon="4.7442">
        <ele>74.07</ele>
        <time>2019-05-27T10:22:46.000Z</time>
      </trkpt>
      <trkpt lat="44.62896" lon="4.74426">
        <ele>75.8</ele>
        <time>2019-05-27T10:22:51.000Z</time>
      </trkpt>
      <trkpt lat="44.62867" lon="4.74437">
        <ele>73.87</ele>
        <time>2019-05-27T10:22:56.000Z</time>
      </trkpt>
      <trkpt lat="44.62836" lon="4.74446">
        <ele>74.81</ele>
        <time>2019-05-27T10:23:01.000Z</time>
      </trkpt>
      <trkpt lat="44.62806" lon="4.74455">
        <ele>75.99</ele>
        <time>2019-05-27T10:23:06.000Z</time>
      </trkpt>
      <trkpt lat="44.6278" lon="4.7446">
        <ele>77.04</ele>
        <time>2019-05-27T10:23:11.000Z</time>
      </trkpt>
      <trkpt lat="44.6277" lon="4.74484">
        <ele>78.8</ele>
        <time>2019-05-27T10:23:16.000Z</time>
      </trkpt>
      <trkpt lat="44.62764" lon="4.74514">
        <ele>79.06</ele>
        <time>2019-05-27T10:23:21.000Z</time>
      </trkpt>
      <trkpt lat="44.62755" lon="4.74545">
        <ele>78.12</ele>
        <time>2019-05-27T10:23:26.000Z</time>
      </trkpt>
      <trkpt lat="44.62749" lon="4.7458">
        <ele>76.13</ele>
        <time>2019-05-27T10:23:31.000Z</time>
      </trkpt>
      <trkpt lat="44.62742" lon="4.74616">
        <ele>76.06</ele>
        <time>2019-05-27T10:23:36.000Z</time>
      </trkpt>
      <trkpt lat="44.62736" lon="4.7465">
        <ele>76.86</ele>
        <time>2019-05-27T10:23:41.000Z</time>
      </trkpt>
      <trkpt lat="44.62729" lon="4.74684">
        <ele>75.33</ele>
        <time>2019-05-27T10:23:46.000Z</time>
      </trkpt>
      <trkpt lat="44.62723" lon="4.74722">
        <ele>76.04</ele>
        <time>2019-05-27T10:23:51.000Z</time>
      </trkpt>
      <trkpt lat="44.62713" lon="4.74758">
        <ele>76.06</ele>
        <time>2019-05-27T10:23:56.000Z</time>
      </trkpt>
      <trkpt lat="44.62706" lon="4.74795">
        <ele>76.06</ele>
        <time>2019-05-27T10:24:01.000Z</time>
      </trkpt>
      <trkpt lat="44.62698" lon="4.74831">
        <ele>77.25</ele>
        <time>2019-05-27T10:24:06.000Z</time>
      </trkpt>
      <trkpt lat="44.62693" lon="4.74864">
        <ele>78</ele>
        <time>2019-05-27T10:24:11.000Z</time>
      </trkpt>
      <trkpt lat="44.62688" lon="4.74892">
        <ele>79.06</ele>
        <time>2019-05-27T10:24:16.000Z</time>
      </trkpt>
      <trkpt lat="44.62682" lon="4.74921">
        <ele>79.06</ele>
        <time>2019-05-27T10:24:21.000Z</time>
      </trkpt>
      <trkpt lat="44.62668" lon="4.7494">
        <ele>77.33</ele>
        <time>2019-05-27T10:24:26.000Z</time>
      </trkpt>
      <trkpt lat="44.62639" lon="4.74926">
        <ele>77.06</ele>
        <time>2019-05-27T10:24:31.000Z</time>
      </trkpt>
      <trkpt lat="44.62609" lon="4.7491">
        <ele>77.12</ele>
        <time>2019-05-27T10:24:36.000Z</time>
      </trkpt>
      <trkpt lat="44.62578" lon="4.74898">
        <ele>78.06</ele>
        <time>2019-05-27T10:24:41.000Z</time>
      </trkpt>
      <trkpt lat="44.6256" lon="4.74925">
        <ele>78.07</ele>
        <time>2019-05-27T10:24:46.000Z</time>
      </trkpt>
      <trkpt lat="44.62552" lon="4.74961">
        <ele>77.07</ele>
        <time>2019-05-27T10:24:51.000Z</time>
      </trkpt>
      <trkpt lat="44.62546" lon="4.74997">
        <ele>78.94</ele>
        <time>2019-05-27T10:24:56.000Z</time>
      </trkpt>
      <trkpt lat="44.62539" lon="4.75032">
        <ele>78.08</ele>
        <time>2019-05-27T10:25:01.000Z</time>
      </trkpt>
      <trkpt lat="44.6254" lon="4.7506">
        <ele>79</ele>
        <time>2019-05-27T10:25:06.000Z</time>
      </trkpt>
      <trkpt lat="44.62541" lon="4.75075">
        <ele>81.05</ele>
        <time>2019-05-27T10:25:11.000Z</time>
      </trkpt>
      <trkpt lat="44.62535" lon="4.75087">
        <ele>82.12</ele>
        <time>2019-05-27T10:25:17.000Z</time>
      </trkpt>
      <trkpt lat="44.62519" lon="4.75089">
        <ele>82.05</ele>
        <time>2019-05-27T10:25:22.000Z</time>
      </trkpt>
      <trkpt lat="44.625" lon="4.75082">
        <ele>81.07</ele>
        <time>2019-05-27T10:25:27.000Z</time>
      </trkpt>
      <trkpt lat="44.62479" lon="4.75063">
        <ele>81.06</ele>
        <time>2019-05-27T10:25:32.000Z</time>
      </trkpt>
      <trkpt lat="44.62457" lon="4.75044">
        <ele>82.06</ele>
        <time>2019-05-27T10:25:37.000Z</time>
      </trkpt>
      <trkpt lat="44.62434" lon="4.75027">
        <ele>83.05</ele>
        <time>2019-05-27T10:25:42.000Z</time>
      </trkpt>
      <trkpt lat="44.6241" lon="4.7501">
        <ele>83.07</ele>
        <time>2019-05-27T10:25:47.000Z</time>
      </trkpt>
      <trkpt lat="44.62384" lon="4.74992">
        <ele>84</ele>
        <time>2019-05-27T10:25:52.000Z</time>
      </trkpt>
      <trkpt lat="44.62356" lon="4.74973">
        <ele>84.07</ele>
        <time>2019-05-27T10:25:57.000Z</time>
      </trkpt>
      <trkpt lat="44.62328" lon="4.74954">
        <ele>84.11</ele>
        <time>2019-05-27T10:26:02.000Z</time>
      </trkpt>
      <trkpt lat="44.62297" lon="4.74936">
        <ele>83.32</ele>
        <time>2019-05-27T10:26:07.000Z</time>
      </trkpt>
      <trkpt lat="44.62267" lon="4.74914">
        <ele>82.08</ele>
        <time>2019-05-27T10:26:12.000Z</time>
      </trkpt>
      <trkpt lat="44.62236" lon="4.74897">
        <ele>81.08</ele>
        <time>2019-05-27T10:26:17.000Z</time>
      </trkpt>
      <trkpt lat="44.62206" lon="4.74877">
        <ele>81.07</ele>
        <time>2019-05-27T10:26:22.000Z</time>
      </trkpt>
      <trkpt lat="44.62175" lon="4.74856">
        <ele>81.07</ele>
        <time>2019-05-27T10:26:27.000Z</time>
      </trkpt>
      <trkpt lat="44.62142" lon="4.74835">
        <ele>81.07</ele>
        <time>2019-05-27T10:26:32.000Z</time>
      </trkpt>
      <trkpt lat="44.62108" lon="4.74813">
        <ele>81.07</ele>
        <time>2019-05-27T10:26:37.000Z</time>
      </trkpt>
      <trkpt lat="44.62072" lon="4.74791">
        <ele>81.01</ele>
        <time>2019-05-27T10:26:42.000Z</time>
      </trkpt>
      <trkpt lat="44.62038" lon="4.74771">
        <ele>79.32</ele>
        <time>2019-05-27T10:26:47.000Z</time>
      </trkpt>
      <trkpt lat="44.62005" lon="4.74749">
        <ele>79.82</ele>
        <time>2019-05-27T10:26:52.000Z</time>
      </trkpt>
      <trkpt lat="44.6197" lon="4.74726">
        <ele>80.81</ele>
        <time>2019-05-27T10:26:57.000Z</time>
      </trkpt>
      <trkpt lat="44.61936" lon="4.74705">
        <ele>81.06</ele>
        <time>2019-05-27T10:27:02.000Z</time>
      </trkpt>
      <trkpt lat="44.61901" lon="4.74682">
        <ele>81.06</ele>
        <time>2019-05-27T10:27:07.000Z</time>
      </trkpt>
      <trkpt lat="44.61866" lon="4.7466">
        <ele>80.02</ele>
        <time>2019-05-27T10:27:12.000Z</time>
      </trkpt>
      <trkpt lat="44.61831" lon="4.74638">
        <ele>79.07</ele>
        <time>2019-05-27T10:27:17.000Z</time>
      </trkpt>
      <trkpt lat="44.61795" lon="4.74615">
        <ele>78.12</ele>
        <time>2019-05-27T10:27:22.000Z</time>
      </trkpt>
      <trkpt lat="44.61759" lon="4.74591">
        <ele>79.05</ele>
        <time>2019-05-27T10:27:27.000Z</time>
      </trkpt>
      <trkpt lat="44.61722" lon="4.74569">
        <ele>77.13</ele>
        <time>2019-05-27T10:27:32.000Z</time>
      </trkpt>
      <trkpt lat="44.61686" lon="4.74546">
        <ele>77.81</ele>
        <time>2019-05-27T10:27:37.000Z</time>
      </trkpt>
      <trkpt lat="44.6165" lon="4.74523">
        <ele>78.3</ele>
        <time>2019-05-27T10:27:42.000Z</time>
      </trkpt>
      <trkpt lat="44.61615" lon="4.74502">
        <ele>78.31</ele>
        <time>2019-05-27T10:27:47.000Z</time>
      </trkpt>
      <trkpt lat="44.61578" lon="4.74477">
        <ele>78.25</ele>
        <time>2019-05-27T10:27:52.000Z</time>
      </trkpt>
      <trkpt lat="44.6154" lon="4.74454">
        <ele>78.13</ele>
        <time>2019-05-27T10:27:57.000Z</time>
      </trkpt>
      <trkpt lat="44.61503" lon="4.7443">
        <ele>78.81</ele>
        <time>2019-05-27T10:28:02.000Z</time>
      </trkpt>
      <trkpt lat="44.61466" lon="4.74406">
        <ele>79.06</ele>
        <time>2019-05-27T10:28:07.000Z</time>
      </trkpt>
      <trkpt lat="44.61429" lon="4.74382">
        <ele>79.06</ele>
        <time>2019-05-27T10:28:12.000Z</time>
      </trkpt>
      <trkpt lat="44.61392" lon="4.74358">
        <ele>79.06</ele>
        <time>2019-05-27T10:28:17.000Z</time>
      </trkpt>
      <trkpt lat="44.61354" lon="4.74334">
        <ele>79</ele>
        <time>2019-05-27T10:28:22.000Z</time>
      </trkpt>
      <trkpt lat="44.61317" lon="4.74312">
        <ele>80.01</ele>
        <time>2019-05-27T10:28:27.000Z</time>
      </trkpt>
      <trkpt lat="44.61282" lon="4.74289">
        <ele>80.06</ele>
        <time>2019-05-27T10:28:32.000Z</time>
      </trkpt>
      <trkpt lat="44.61246" lon="4.74266">
        <ele>79.06</ele>
        <time>2019-05-27T10:28:37.000Z</time>
      </trkpt>
      <trkpt lat="44.6121" lon="4.74244">
        <ele>78.31</ele>
        <time>2019-05-27T10:28:42.000Z</time>
      </trkpt>
      <trkpt lat="44.61174" lon="4.74221">
        <ele>79.06</ele>
        <time>2019-05-27T10:28:47.000Z</time>
      </trkpt>
      <trkpt lat="44.61139" lon="4.74199">
        <ele>77.32</ele>
        <time>2019-05-27T10:28:52.000Z</time>
      </trkpt>
      <trkpt lat="44.61105" lon="4.74176">
        <ele>78.81</ele>
        <time>2019-05-27T10:28:57.000Z</time>
      </trkpt>
      <trkpt lat="44.6107" lon="4.74153">
        <ele>79.06</ele>
        <time>2019-05-27T10:29:02.000Z</time>
      </trkpt>
      <trkpt lat="44.61034" lon="4.74131">
        <ele>79.06</ele>
        <time>2019-05-27T10:29:07.000Z</time>
      </trkpt>
      <trkpt lat="44.60998" lon="4.74109">
        <ele>79.07</ele>
        <time>2019-05-27T10:29:12.000Z</time>
      </trkpt>
      <trkpt lat="44.60962" lon="4.74087">
        <ele>79.25</ele>
        <time>2019-05-27T10:29:17.000Z</time>
      </trkpt>
      <trkpt lat="44.60927" lon="4.74064">
        <ele>80.06</ele>
        <time>2019-05-27T10:29:22.000Z</time>
      </trkpt>
      <trkpt lat="44.60891" lon="4.74044">
        <ele>80.12</ele>
        <time>2019-05-27T10:29:27.000Z</time>
      </trkpt>
      <trkpt lat="44.60856" lon="4.74021">
        <ele>80.06</ele>
        <time>2019-05-27T10:29:32.000Z</time>
      </trkpt>
      <trkpt lat="44.60822" lon="4.73998">
        <ele>80.06</ele>
        <time>2019-05-27T10:29:37.000Z</time>
      </trkpt>
      <trkpt lat="44.60786" lon="4.73974">
        <ele>78.88</ele>
        <time>2019-05-27T10:29:42.000Z</time>
      </trkpt>
      <trkpt lat="44.60751" lon="4.7395">
        <ele>77.01</ele>
        <time>2019-05-27T10:29:47.000Z</time>
      </trkpt>
      <trkpt lat="44.60716" lon="4.73929">
        <ele>77.06</ele>
        <time>2019-05-27T10:29:52.000Z</time>
      </trkpt>
      <trkpt lat="44.60683" lon="4.73911">
        <ele>77.02</ele>
        <time>2019-05-27T10:29:57.000Z</time>
      </trkpt>
      <trkpt lat="44.60657" lon="4.73879">
        <ele>76.14</ele>
        <time>2019-05-27T10:30:02.000Z</time>
      </trkpt>
      <trkpt lat="44.60652" lon="4.73845">
        <ele>75.31</ele>
        <time>2019-05-27T10:30:07.000Z</time>
      </trkpt>
      <trkpt lat="44.60659" lon="4.7382">
        <ele>74.31</ele>
        <time>2019-05-27T10:30:12.000Z</time>
      </trkpt>
      <trkpt lat="44.60646" lon="4.73803">
        <ele>75.06</ele>
        <time>2019-05-27T10:30:17.000Z</time>
      </trkpt>
      <trkpt lat="44.60622" lon="4.73789">
        <ele>75.01</ele>
        <time>2019-05-27T10:30:22.000Z</time>
      </trkpt>
      <trkpt lat="44.60592" lon="4.73771">
        <ele>73.83</ele>
        <time>2019-05-27T10:30:27.000Z</time>
      </trkpt>
      <trkpt lat="44.60561" lon="4.73752">
        <ele>75.92</ele>
        <time>2019-05-27T10:30:32.000Z</time>
      </trkpt>
      <trkpt lat="44.6053" lon="4.73734">
        <ele>77.81</ele>
        <time>2019-05-27T10:30:37.000Z</time>
      </trkpt>
      <trkpt lat="44.605" lon="4.73717">
        <ele>77.87</ele>
        <time>2019-05-27T10:30:42.000Z</time>
      </trkpt>
      <trkpt lat="44.60468" lon="4.737">
        <ele>77.08</ele>
        <time>2019-05-27T10:30:47.000Z</time>
      </trkpt>
      <trkpt lat="44.60438" lon="4.73678">
        <ele>76.06</ele>
        <time>2019-05-27T10:30:52.000Z</time>
      </trkpt>
      <trkpt lat="44.60409" lon="4.7366">
        <ele>76.31</ele>
        <time>2019-05-27T10:30:57.000Z</time>
      </trkpt>
      <trkpt lat="44.60381" lon="4.73638">
        <ele>77.82</ele>
        <time>2019-05-27T10:31:02.000Z</time>
      </trkpt>
      <trkpt lat="44.60348" lon="4.73613">
        <ele>77.26</ele>
        <time>2019-05-27T10:31:07.000Z</time>
      </trkpt>
      <trkpt lat="44.60318" lon="4.73592">
        <ele>75.08</ele>
        <time>2019-05-27T10:31:12.000Z</time>
      </trkpt>
      <trkpt lat="44.60288" lon="4.73575">
        <ele>76.31</ele>
        <time>2019-05-27T10:31:17.000Z</time>
      </trkpt>
      <trkpt lat="44.60257" lon="4.73553">
        <ele>77.06</ele>
        <time>2019-05-27T10:31:22.000Z</time>
      </trkpt>
      <trkpt lat="44.60228" lon="4.73531">
        <ele>73.15</ele>
        <time>2019-05-27T10:31:27.000Z</time>
      </trkpt>
      <trkpt lat="44.60199" lon="4.73507">
        <ele>75.04</ele>
        <time>2019-05-27T10:31:32.000Z</time>
      </trkpt>
      <trkpt lat="44.60174" lon="4.73485">
        <ele>73.87</ele>
        <time>2019-05-27T10:31:37.000Z</time>
      </trkpt>
      <trkpt lat="44.60144" lon="4.73459">
        <ele>75.86</ele>
        <time>2019-05-27T10:31:42.000Z</time>
      </trkpt>
      <trkpt lat="44.60115" lon="4.73433">
        <ele>77</ele>
        <time>2019-05-27T10:31:47.000Z</time>
      </trkpt>
      <trkpt lat="44.60083" lon="4.73408">
        <ele>76.06</ele>
        <time>2019-05-27T10:31:52.000Z</time>
      </trkpt>
      <trkpt lat="44.60056" lon="4.73383">
        <ele>76.01</ele>
        <time>2019-05-27T10:31:57.000Z</time>
      </trkpt>
      <trkpt lat="44.60028" lon="4.73359">
        <ele>77.04</ele>
        <time>2019-05-27T10:32:02.000Z</time>
      </trkpt>
      <trkpt lat="44.6" lon="4.73331">
        <ele>74.37</ele>
        <time>2019-05-27T10:32:07.000Z</time>
      </trkpt>
      <trkpt lat="44.59974" lon="4.73298">
        <ele>75.99</ele>
        <time>2019-05-27T10:32:12.000Z</time>
      </trkpt>
      <trkpt lat="44.59952" lon="4.73265">
        <ele>75.09</ele>
        <time>2019-05-27T10:32:17.000Z</time>
      </trkpt>
      <trkpt lat="44.59931" lon="4.73233">
        <ele>77.3</ele>
        <time>2019-05-27T10:32:22.000Z</time>
      </trkpt>
      <trkpt lat="44.5992" lon="4.73201">
        <ele>75.88</ele>
        <time>2019-05-27T10:32:27.000Z</time>
      </trkpt>
      <trkpt lat="44.59926" lon="4.7318">
        <ele>76.11</ele>
        <time>2019-05-27T10:32:32.000Z</time>
      </trkpt>
      <trkpt lat="44.59925" lon="4.73166">
        <ele>79.54</ele>
        <time>2019-05-27T10:32:37.000Z</time>
      </trkpt>
      <trkpt lat="44.59911" lon="4.73169">
        <ele>79.31</ele>
        <time>2019-05-27T10:32:42.000Z</time>
      </trkpt>
      <trkpt lat="44.59895" lon="4.73187">
        <ele>79.25</ele>
        <time>2019-05-27T10:32:47.000Z</time>
      </trkpt>
      <trkpt lat="44.5988" lon="4.73207">
        <ele>79.05</ele>
        <time>2019-05-27T10:32:52.000Z</time>
      </trkpt>
      <trkpt lat="44.59866" lon="4.73228">
        <ele>79.06</ele>
        <time>2019-05-27T10:32:57.000Z</time>
      </trkpt>
      <trkpt lat="44.59851" lon="4.73249">
        <ele>78.83</ele>
        <time>2019-05-27T10:33:02.000Z</time>
      </trkpt>
      <trkpt lat="44.59832" lon="4.73246">
        <ele>79.06</ele>
        <time>2019-05-27T10:33:07.000Z</time>
      </trkpt>
      <trkpt lat="44.59812" lon="4.73225">
        <ele>79.81</ele>
        <time>2019-05-27T10:33:12.000Z</time>
      </trkpt>
      <trkpt lat="44.59791" lon="4.73199">
        <ele>80.06</ele>
        <time>2019-05-27T10:33:17.000Z</time>
      </trkpt>
      <trkpt lat="44.59769" lon="4.73172">
        <ele>80.06</ele>
        <time>2019-05-27T10:33:22.000Z</time>
      </trkpt>
      <trkpt lat="44.59747" lon="4.73145">
        <ele>79.06</ele>
        <time>2019-05-27T10:33:27.000Z</time>
      </trkpt>
      <trkpt lat="44.59724" lon="4.73117">
        <ele>79.06</ele>
        <time>2019-05-27T10:33:32.000Z</time>
      </trkpt>
      <trkpt lat="44.59701" lon="4.7309">
        <ele>81</ele>
        <time>2019-05-27T10:33:37.000Z</time>
      </trkpt>
      <trkpt lat="44.59679" lon="4.73063">
        <ele>80.31</ele>
        <time>2019-05-27T10:33:42.000Z</time>
      </trkpt>
      <trkpt lat="44.59655" lon="4.73034">
        <ele>79.06</ele>
        <time>2019-05-27T10:33:47.000Z</time>
      </trkpt>
      <trkpt lat="44.59631" lon="4.73006">
        <ele>78.06</ele>
        <time>2019-05-27T10:33:52.000Z</time>
      </trkpt>
      <trkpt lat="44.59606" lon="4.72977">
        <ele>79.06</ele>
        <time>2019-05-27T10:33:57.000Z</time>
      </trkpt>
      <trkpt lat="44.59581" lon="4.72945">
        <ele>79.06</ele>
        <time>2019-05-27T10:34:02.000Z</time>
      </trkpt>
      <trkpt lat="44.59555" lon="4.72914">
        <ele>79.81</ele>
        <time>2019-05-27T10:34:07.000Z</time>
      </trkpt>
      <trkpt lat="44.59531" lon="4.72883">
        <ele>79.05</ele>
        <time>2019-05-27T10:34:12.000Z</time>
      </trkpt>
      <trkpt lat="44.59508" lon="4.72851">
        <ele>80.06</ele>
        <time>2019-05-27T10:34:17.000Z</time>
      </trkpt>
      <trkpt lat="44.5949" lon="4.72815">
        <ele>81.06</ele>
        <time>2019-05-27T10:34:22.000Z</time>
      </trkpt>
      <trkpt lat="44.59472" lon="4.72778">
        <ele>80.12</ele>
        <time>2019-05-27T10:34:27.000Z</time>
      </trkpt>
      <trkpt lat="44.59456" lon="4.72742">
        <ele>80.87</ele>
        <time>2019-05-27T10:34:32.000Z</time>
      </trkpt>
      <trkpt lat="44.59439" lon="4.72708">
        <ele>80.88</ele>
        <time>2019-05-27T10:34:37.000Z</time>
      </trkpt>
      <trkpt lat="44.59424" lon="4.72677">
        <ele>81</ele>
        <time>2019-05-27T10:34:42.000Z</time>
      </trkpt>
      <trkpt lat="44.59415" lon="4.72645">
        <ele>79.12</ele>
        <time>2019-05-27T10:34:47.000Z</time>
      </trkpt>
      <trkpt lat="44.59422" lon="4.72621">
        <ele>77.12</ele>
        <time>2019-05-27T10:34:52.000Z</time>
      </trkpt>
      <trkpt lat="44.59431" lon="4.72601">
        <ele>77.06</ele>
        <time>2019-05-27T10:34:57.000Z</time>
      </trkpt>
      <trkpt lat="44.59418" lon="4.72568">
        <ele>77.99</ele>
        <time>2019-05-27T10:35:02.000Z</time>
      </trkpt>
      <trkpt lat="44.59404" lon="4.72535">
        <ele>78.06</ele>
        <time>2019-05-27T10:35:07.000Z</time>
      </trkpt>
      <trkpt lat="44.59388" lon="4.72503">
        <ele>78.05</ele>
        <time>2019-05-27T10:35:12.000Z</time>
      </trkpt>
      <trkpt lat="44.59375" lon="4.72469">
        <ele>77.82</ele>
        <time>2019-05-27T10:35:17.000Z</time>
      </trkpt>
      <trkpt lat="44.5936" lon="4.72436">
        <ele>77.1</ele>
        <time>2019-05-27T10:35:22.000Z</time>
      </trkpt>
      <trkpt lat="44.59345" lon="4.72411">
        <ele>78.79</ele>
        <time>2019-05-27T10:35:27.000Z</time>
      </trkpt>
      <trkpt lat="44.59346" lon="4.72396">
        <ele>79.06</ele>
        <time>2019-05-27T10:35:32.000Z</time>
      </trkpt>
      <trkpt lat="44.59357" lon="4.72375">
        <ele>79.07</ele>
        <time>2019-05-27T10:35:37.000Z</time>
      </trkpt>
      <trkpt lat="44.5937" lon="4.72351">
        <ele>79.05</ele>
        <time>2019-05-27T10:35:42.000Z</time>
      </trkpt>
      <trkpt lat="44.59384" lon="4.72325">
        <ele>78.07</ele>
        <time>2019-05-27T10:35:47.000Z</time>
      </trkpt>
      <trkpt lat="44.59389" lon="4.72292">
        <ele>78.05</ele>
        <time>2019-05-27T10:35:52.000Z</time>
      </trkpt>
      <trkpt lat="44.59392" lon="4.72254">
        <ele>77.06</ele>
        <time>2019-05-27T10:35:57.000Z</time>
      </trkpt>
      <trkpt lat="44.59395" lon="4.72214">
        <ele>77.05</ele>
        <time>2019-05-27T10:36:02.000Z</time>
      </trkpt>
      <trkpt lat="44.59398" lon="4.72173">
        <ele>76.3</ele>
        <time>2019-05-27T10:36:07.000Z</time>
      </trkpt>
      <trkpt lat="44.59401" lon="4.72131">
        <ele>75.3</ele>
        <time>2019-05-27T10:36:12.000Z</time>
      </trkpt>
      <trkpt lat="44.59408" lon="4.7209">
        <ele>72.86</ele>
        <time>2019-05-27T10:36:17.000Z</time>
      </trkpt>
      <trkpt lat="44.59418" lon="4.72061">
        <ele>72.86</ele>
        <time>2019-05-27T10:36:22.000Z</time>
      </trkpt>
      <trkpt lat="44.59414" lon="4.7205">
        <ele>74.3</ele>
        <time>2019-05-27T10:36:29.000Z</time>
      </trkpt>
      <trkpt lat="44.59391" lon="4.72045">
        <ele>73.07</ele>
        <time>2019-05-27T10:36:34.000Z</time>
      </trkpt>
      <trkpt lat="44.59362" lon="4.72036">
        <ele>72.05</ele>
        <time>2019-05-27T10:36:39.000Z</time>
      </trkpt>
      <trkpt lat="44.59334" lon="4.72021">
        <ele>72.05</ele>
        <time>2019-05-27T10:36:44.000Z</time>
      </trkpt>
      <trkpt lat="44.59308" lon="4.72005">
        <ele>73.05</ele>
        <time>2019-05-27T10:36:49.000Z</time>
      </trkpt>
      <trkpt lat="44.59281" lon="4.7199">
        <ele>72.36</ele>
        <time>2019-05-27T10:36:54.000Z</time>
      </trkpt>
      <trkpt lat="44.59252" lon="4.71974">
        <ele>73.05</ele>
        <time>2019-05-27T10:36:59.000Z</time>
      </trkpt>
      <trkpt lat="44.59224" lon="4.71959">
        <ele>74.05</ele>
        <time>2019-05-27T10:37:04.000Z</time>
      </trkpt>
      <trkpt lat="44.59199" lon="4.71951">
        <ele>73.25</ele>
        <time>2019-05-27T10:37:09.000Z</time>
      </trkpt>
      <trkpt lat="44.59184" lon="4.71983">
        <ele>72.05</ele>
        <time>2019-05-27T10:37:14.000Z</time>
      </trkpt>
      <trkpt lat="44.59161" lon="4.72005">
        <ele>71.05</ele>
        <time>2019-05-27T10:37:19.000Z</time>
      </trkpt>
      <trkpt lat="44.59136" lon="4.71988">
        <ele>71.05</ele>
        <time>2019-05-27T10:37:24.000Z</time>
      </trkpt>
      <trkpt lat="44.5911" lon="4.71967">
        <ele>72.8</ele>
        <time>2019-05-27T10:37:29.000Z</time>
      </trkpt>
      <trkpt lat="44.59083" lon="4.71947">
        <ele>72.07</ele>
        <time>2019-05-27T10:37:34.000Z</time>
      </trkpt>
      <trkpt lat="44.59056" lon="4.71927">
        <ele>72.05</ele>
        <time>2019-05-27T10:37:39.000Z</time>
      </trkpt>
      <trkpt lat="44.5903" lon="4.71905">
        <ele>72.05</ele>
        <time>2019-05-27T10:37:44.000Z</time>
      </trkpt>
      <trkpt lat="44.59006" lon="4.71879">
        <ele>73.05</ele>
        <time>2019-05-27T10:37:49.000Z</time>
      </trkpt>
      <trkpt lat="44.58983" lon="4.71852">
        <ele>73.05</ele>
        <time>2019-05-27T10:37:54.000Z</time>
      </trkpt>
      <trkpt lat="44.5896" lon="4.71824">
        <ele>73.05</ele>
        <time>2019-05-27T10:37:59.000Z</time>
      </trkpt>
      <trkpt lat="44.58938" lon="4.71795">
        <ele>74.8</ele>
        <time>2019-05-27T10:38:04.000Z</time>
      </trkpt>
      <trkpt lat="44.58916" lon="4.71769">
        <ele>74.06</ele>
        <time>2019-05-27T10:38:09.000Z</time>
      </trkpt>
      <trkpt lat="44.58896" lon="4.71741">
        <ele>74.05</ele>
        <time>2019-05-27T10:38:14.000Z</time>
      </trkpt>
      <trkpt lat="44.58874" lon="4.71712">
        <ele>73.01</ele>
        <time>2019-05-27T10:38:19.000Z</time>
      </trkpt>
      <trkpt lat="44.58853" lon="4.71686">
        <ele>71.82</ele>
        <time>2019-05-27T10:38:24.000Z</time>
      </trkpt>
      <trkpt lat="44.58829" lon="4.7166">
        <ele>72.05</ele>
        <time>2019-05-27T10:38:29.000Z</time>
      </trkpt>
      <trkpt lat="44.58809" lon="4.71631">
        <ele>73.05</ele>
        <time>2019-05-27T10:38:34.000Z</time>
      </trkpt>
      <trkpt lat="44.58788" lon="4.71598">
        <ele>73.05</ele>
        <time>2019-05-27T10:38:39.000Z</time>
      </trkpt>
      <trkpt lat="44.58765" lon="4.71565">
        <ele>72.05</ele>
        <time>2019-05-27T10:38:44.000Z</time>
      </trkpt>
      <trkpt lat="44.58742" lon="4.71532">
        <ele>72.8</ele>
        <time>2019-05-27T10:38:49.000Z</time>
      </trkpt>
      <trkpt lat="44.5872" lon="4.71501">
        <ele>72.05</ele>
        <time>2019-05-27T10:38:54.000Z</time>
      </trkpt>
      <trkpt lat="44.58699" lon="4.71471">
        <ele>73.04</ele>
        <time>2019-05-27T10:38:59.000Z</time>
      </trkpt>
      <trkpt lat="44.58682" lon="4.71451">
        <ele>72.24</ele>
        <time>2019-05-27T10:39:04.000Z</time>
      </trkpt>
      <trkpt lat="44.58663" lon="4.71425">
        <ele>73</ele>
        <time>2019-05-27T10:39:09.000Z</time>
      </trkpt>
      <trkpt lat="44.58642" lon="4.71395">
        <ele>73.04</ele>
        <time>2019-05-27T10:39:14.000Z</time>
      </trkpt>
      <trkpt lat="44.58621" lon="4.71363">
        <ele>74.8</ele>
        <time>2019-05-27T10:39:19.000Z</time>
      </trkpt>
      <trkpt lat="44.58599" lon="4.71331">
        <ele>74.86</ele>
        <time>2019-05-27T10:39:24.000Z</time>
      </trkpt>
      <trkpt lat="44.5858" lon="4.71294">
        <ele>75.03</ele>
        <time>2019-05-27T10:39:29.000Z</time>
      </trkpt>
      <trkpt lat="44.58567" lon="4.71252">
        <ele>75.8</ele>
        <time>2019-05-27T10:39:34.000Z</time>
      </trkpt>
      <trkpt lat="44.58554" lon="4.71215">
        <ele>75.31</ele>
        <time>2019-05-27T10:39:39.000Z</time>
      </trkpt>
      <trkpt lat="44.58531" lon="4.71192">
        <ele>75</ele>
        <time>2019-05-27T10:39:44.000Z</time>
      </trkpt>
      <trkpt lat="44.58504" lon="4.71171">
        <ele>75.81</ele>
        <time>2019-05-27T10:39:49.000Z</time>
      </trkpt>
      <trkpt lat="44.58486" lon="4.71141">
        <ele>76.85</ele>
        <time>2019-05-27T10:39:54.000Z</time>
      </trkpt>
      <trkpt lat="44.58486" lon="4.71105">
        <ele>75.06</ele>
        <time>2019-05-27T10:39:59.000Z</time>
      </trkpt>
      <trkpt lat="44.58504" lon="4.71084">
        <ele>75.04</ele>
        <time>2019-05-27T10:40:04.000Z</time>
      </trkpt>
      <trkpt lat="44.58522" lon="4.71063">
        <ele>74.06</ele>
        <time>2019-05-27T10:40:09.000Z</time>
      </trkpt>
      <trkpt lat="44.5854" lon="4.7104">
        <ele>74.04</ele>
        <time>2019-05-27T10:40:14.000Z</time>
      </trkpt>
      <trkpt lat="44.58558" lon="4.71015">
        <ele>73.11</ele>
        <time>2019-05-27T10:40:19.000Z</time>
      </trkpt>
      <trkpt lat="44.58577" lon="4.70993">
        <ele>73.04</ele>
        <time>2019-05-27T10:40:24.000Z</time>
      </trkpt>
      <trkpt lat="44.58598" lon="4.70969">
        <ele>73.04</ele>
        <time>2019-05-27T10:40:29.000Z</time>
      </trkpt>
      <trkpt lat="44.58616" lon="4.70945">
        <ele>73.04</ele>
        <time>2019-05-27T10:40:34.000Z</time>
      </trkpt>
      <trkpt lat="44.58616" lon="4.70908">
        <ele>74.04</ele>
        <time>2019-05-27T10:40:39.000Z</time>
      </trkpt>
      <trkpt lat="44.58617" lon="4.70873">
        <ele>75.96</ele>
        <time>2019-05-27T10:40:44.000Z</time>
      </trkpt>
      <trkpt lat="44.58617" lon="4.70834">
        <ele>76.04</ele>
        <time>2019-05-27T10:40:49.000Z</time>
      </trkpt>
      <trkpt lat="44.58617" lon="4.70795">
        <ele>75.79</ele>
        <time>2019-05-27T10:40:54.000Z</time>
      </trkpt>
      <trkpt lat="44.58622" lon="4.70757">
        <ele>75.23</ele>
        <time>2019-05-27T10:40:59.000Z</time>
      </trkpt>
      <trkpt lat="44.58624" lon="4.70719">
        <ele>74.81</ele>
        <time>2019-05-27T10:41:04.000Z</time>
      </trkpt>
      <trkpt lat="44.5864" lon="4.70692">
        <ele>74.29</ele>
        <time>2019-05-27T10:41:09.000Z</time>
      </trkpt>
      <trkpt lat="44.58658" lon="4.70668">
        <ele>72.06</ele>
        <time>2019-05-27T10:41:14.000Z</time>
      </trkpt>
      <trkpt lat="44.58677" lon="4.70641">
        <ele>73.04</ele>
        <time>2019-05-27T10:41:19.000Z</time>
      </trkpt>
      <trkpt lat="44.58697" lon="4.70615">
        <ele>73.23</ele>
        <time>2019-05-27T10:41:24.000Z</time>
      </trkpt>
      <trkpt lat="44.58709" lon="4.70591">
        <ele>74.03</ele>
        <time>2019-05-27T10:41:29.000Z</time>
      </trkpt>
      <trkpt lat="44.58698" lon="4.70576">
        <ele>74.98</ele>
        <time>2019-05-27T10:41:34.000Z</time>
      </trkpt>
      <trkpt lat="44.5869" lon="4.70568">
        <ele>74.1</ele>
        <time>2019-05-27T10:41:40.000Z</time>
      </trkpt>
      <trkpt lat="44.5869" lon="4.70551">
        <ele>74.29</ele>
        <time>2019-05-27T10:41:45.000Z</time>
      </trkpt>
      <trkpt lat="44.58681" lon="4.70537">
        <ele>74.05</ele>
        <time>2019-05-27T10:41:50.000Z</time>
      </trkpt>
      <trkpt lat="44.58682" lon="4.70519">
        <ele>74.04</ele>
        <time>2019-05-27T10:41:55.000Z</time>
      </trkpt>
      <trkpt lat="44.5869" lon="4.70509">
        <ele>73.8</ele>
        <time>2019-05-27T10:42:00.000Z</time>
      </trkpt>
      <trkpt lat="44.58686" lon="4.70522">
        <ele>73.29</ele>
        <time>2019-05-27T10:42:07.000Z</time>
      </trkpt>
      <trkpt lat="44.58677" lon="4.70532">
        <ele>72.91</ele>
        <time>2019-05-27T10:42:12.000Z</time>
      </trkpt>
      <trkpt lat="44.58683" lon="4.70521">
        <ele>72.23</ele>
        <time>2019-05-27T10:42:23.000Z</time>
      </trkpt>
      <trkpt lat="44.58699" lon="4.70506">
        <ele>72.03</ele>
        <time>2019-05-27T10:42:28.000Z</time>
      </trkpt>
      <trkpt lat="44.58712" lon="4.7049">
        <ele>71.79</ele>
        <time>2019-05-27T10:42:33.000Z</time>
      </trkpt>
      <trkpt lat="44.58718" lon="4.7048">
        <ele>72.04</ele>
        <time>2019-05-27T10:42:38.000Z</time>
      </trkpt>
      <trkpt lat="44.58725" lon="4.70468">
        <ele>72.04</ele>
        <time>2019-05-27T10:42:55.000Z</time>
      </trkpt>
      <trkpt lat="44.58737" lon="4.70454">
        <ele>71.09</ele>
        <time>2019-05-27T10:43:00.000Z</time>
      </trkpt>
      <trkpt lat="44.58751" lon="4.70432">
        <ele>70.04</ele>
        <time>2019-05-27T10:43:05.000Z</time>
      </trkpt>
      <trkpt lat="44.58765" lon="4.70413">
        <ele>71.77</ele>
        <time>2019-05-27T10:43:10.000Z</time>
      </trkpt>
      <trkpt lat="44.58771" lon="4.70403">
        <ele>75.02</ele>
        <time>2019-05-27T10:43:36.000Z</time>
      </trkpt>
      <trkpt lat="44.58765" lon="4.70387">
        <ele>75.04</ele>
        <time>2019-05-27T10:43:41.000Z</time>
      </trkpt>
      <trkpt lat="44.58755" lon="4.70371">
        <ele>75.98</ele>
        <time>2019-05-27T10:43:46.000Z</time>
      </trkpt>
      <trkpt lat="44.58743" lon="4.70354">
        <ele>76.03</ele>
        <time>2019-05-27T10:43:51.000Z</time>
      </trkpt>
      <trkpt lat="44.58731" lon="4.70337">
        <ele>75.8</ele>
        <time>2019-05-27T10:43:56.000Z</time>
      </trkpt>
      <trkpt lat="44.58719" lon="4.70323">
        <ele>75.03</ele>
        <time>2019-05-27T10:44:01.000Z</time>
      </trkpt>
      <trkpt lat="44.5871" lon="4.70299">
        <ele>75.8</ele>
        <time>2019-05-27T10:44:06.000Z</time>
      </trkpt>
      <trkpt lat="44.587" lon="4.70276">
        <ele>77.72</ele>
        <time>2019-05-27T10:44:11.000Z</time>
      </trkpt>
      <trkpt lat="44.58683" lon="4.70259">
        <ele>76.99</ele>
        <time>2019-05-27T10:44:16.000Z</time>
      </trkpt>
      <trkpt lat="44.58664" lon="4.70246">
        <ele>78.97</ele>
        <time>2019-05-27T10:44:21.000Z</time>
      </trkpt>
      <trkpt lat="44.58642" lon="4.70229">
        <ele>78.47</ele>
        <time>2019-05-27T10:44:26.000Z</time>
      </trkpt>
      <trkpt lat="44.58619" lon="4.70208">
        <ele>76.36</ele>
        <time>2019-05-27T10:44:31.000Z</time>
      </trkpt>
      <trkpt lat="44.58599" lon="4.7019">
        <ele>78.96</ele>
        <time>2019-05-27T10:44:36.000Z</time>
      </trkpt>
      <trkpt lat="44.58578" lon="4.70167">
        <ele>78</ele>
        <time>2019-05-27T10:44:41.000Z</time>
      </trkpt>
      <trkpt lat="44.58559" lon="4.70146">
        <ele>79.69</ele>
        <time>2019-05-27T10:44:46.000Z</time>
      </trkpt>
      <trkpt lat="44.58541" lon="4.70126">
        <ele>80.77</ele>
        <time>2019-05-27T10:44:51.000Z</time>
      </trkpt>
      <trkpt lat="44.58524" lon="4.70107">
        <ele>82.02</ele>
        <time>2019-05-27T10:44:56.000Z</time>
      </trkpt>
      <trkpt lat="44.58506" lon="4.70088">
        <ele>81.97</ele>
        <time>2019-05-27T10:45:01.000Z</time>
      </trkpt>
      <trkpt lat="44.58488" lon="4.70068">
        <ele>82.03</ele>
        <time>2019-05-27T10:45:06.000Z</time>
      </trkpt>
      <trkpt lat="44.58471" lon="4.7005">
        <ele>82.98</ele>
        <time>2019-05-27T10:45:11.000Z</time>
      </trkpt>
      <trkpt lat="44.58452" lon="4.70035">
        <ele>84.97</ele>
        <time>2019-05-27T10:45:16.000Z</time>
      </trkpt>
      <trkpt lat="44.58436" lon="4.70019">
        <ele>85.03</ele>
        <time>2019-05-27T10:45:21.000Z</time>
      </trkpt>
      <trkpt lat="44.58424" lon="4.69999">
        <ele>85.09</ele>
        <time>2019-05-27T10:45:26.000Z</time>
      </trkpt>
      <trkpt lat="44.5843" lon="4.69988">
        <ele>85.1</ele>
        <time>2019-05-27T10:45:42.000Z</time>
      </trkpt>
      <trkpt lat="44.58441" lon="4.7001">
        <ele>85.03</ele>
        <time>2019-05-27T10:45:47.000Z</time>
      </trkpt>
      <trkpt lat="44.58458" lon="4.70035">
        <ele>84.03</ele>
        <time>2019-05-27T10:45:52.000Z</time>
      </trkpt>
      <trkpt lat="44.58481" lon="4.70046">
        <ele>83.97</ele>
        <time>2019-05-27T10:45:57.000Z</time>
      </trkpt>
      <trkpt lat="44.58502" lon="4.7005">
        <ele>84.03</ele>
        <time>2019-05-27T10:46:02.000Z</time>
      </trkpt>
      <trkpt lat="44.58517" lon="4.70054">
        <ele>84.78</ele>
        <time>2019-05-27T10:46:07.000Z</time>
      </trkpt>
      <trkpt lat="44.58532" lon="4.70059">
        <ele>85.03</ele>
        <time>2019-05-27T10:46:12.000Z</time>
      </trkpt>
      <trkpt lat="44.58546" lon="4.70066">
        <ele>87.22</ele>
        <time>2019-05-27T10:46:17.000Z</time>
      </trkpt>
      <trkpt lat="44.58559" lon="4.70069">
        <ele>88.03</ele>
        <time>2019-05-27T10:46:22.000Z</time>
      </trkpt>
      <trkpt lat="44.58571" lon="4.7007">
        <ele>88.03</ele>
        <time>2019-05-27T10:46:27.000Z</time>
      </trkpt>
      <trkpt lat="44.58583" lon="4.70077">
        <ele>88.78</ele>
        <time>2019-05-27T10:46:32.000Z</time>
      </trkpt>
      <trkpt lat="44.58592" lon="4.70086">
        <ele>90.77</ele>
        <time>2019-05-27T10:46:37.000Z</time>
      </trkpt>
      <trkpt lat="44.58601" lon="4.70096">
        <ele>93.97</ele>
        <time>2019-05-27T10:46:42.000Z</time>
      </trkpt>
      <trkpt lat="44.5861" lon="4.70105">
        <ele>95.97</ele>
        <time>2019-05-27T10:46:47.000Z</time>
      </trkpt>
      <trkpt lat="44.5862" lon="4.70113">
        <ele>98.95</ele>
        <time>2019-05-27T10:46:52.000Z</time>
      </trkpt>
      <trkpt lat="44.58627" lon="4.70123">
        <ele>98.1</ele>
        <time>2019-05-27T10:46:57.000Z</time>
      </trkpt>
      <trkpt lat="44.58637" lon="4.70132">
        <ele>98.03</ele>
        <time>2019-05-27T10:47:20.000Z</time>
      </trkpt>
      <trkpt lat="44.58647" lon="4.70144">
        <ele>95.11</ele>
        <time>2019-05-27T10:47:25.000Z</time>
      </trkpt>
      <trkpt lat="44.58662" lon="4.70147">
        <ele>94.1</ele>
        <time>2019-05-27T10:47:30.000Z</time>
      </trkpt>
      <trkpt lat="44.58664" lon="4.7016">
        <ele>94.1</ele>
        <time>2019-05-27T10:47:41.000Z</time>
      </trkpt>
      <trkpt lat="44.58664" lon="4.70184">
        <ele>94.78</ele>
        <time>2019-05-27T10:47:46.000Z</time>
      </trkpt>
      <trkpt lat="44.5867" lon="4.70195">
        <ele>97.28</ele>
        <time>2019-05-27T10:47:51.000Z</time>
      </trkpt>
      <trkpt lat="44.58662" lon="4.70201">
        <ele>96.08</ele>
        <time>2019-05-27T10:47:56.000Z</time>
      </trkpt>
      <trkpt lat="44.58651" lon="4.70208">
        <ele>94.86</ele>
        <time>2019-05-27T10:48:01.000Z</time>
      </trkpt>
      <trkpt lat="44.58656" lon="4.70196">
        <ele>95.02</ele>
        <time>2019-05-27T10:48:10.000Z</time>
      </trkpt>
      <trkpt lat="44.58663" lon="4.70187">
        <ele>94.04</ele>
        <time>2019-05-27T10:48:15.000Z</time>
      </trkpt>
      <trkpt lat="44.5867" lon="4.70201">
        <ele>93.28</ele>
        <time>2019-05-27T10:48:20.000Z</time>
      </trkpt>
      <trkpt lat="44.5868" lon="4.70212">
        <ele>93.27</ele>
        <time>2019-05-27T10:48:25.000Z</time>
      </trkpt>
      <trkpt lat="44.58699" lon="4.70208">
        <ele>93.25</ele>
        <time>2019-05-27T10:48:30.000Z</time>
      </trkpt>
      <trkpt lat="44.58719" lon="4.70226">
        <ele>93.22</ele>
        <time>2019-05-27T10:48:35.000Z</time>
      </trkpt>
      <trkpt lat="44.58717" lon="4.70246">
        <ele>92.04</ele>
        <time>2019-05-27T10:48:40.000Z</time>
      </trkpt>
      <trkpt lat="44.58724" lon="4.70265">
        <ele>91.04</ele>
        <time>2019-05-27T10:48:45.000Z</time>
      </trkpt>
      <trkpt lat="44.58737" lon="4.7028">
        <ele>90.05</ele>
        <time>2019-05-27T10:48:50.000Z</time>
      </trkpt>
      <trkpt lat="44.58748" lon="4.70295">
        <ele>91.77</ele>
        <time>2019-05-27T10:48:55.000Z</time>
      </trkpt>
      <trkpt lat="44.58751" lon="4.7031">
        <ele>82.29</ele>
        <time>2019-05-27T10:49:00.000Z</time>
      </trkpt>
      <trkpt lat="44.5876" lon="4.70331">
        <ele>79.12</ele>
        <time>2019-05-27T10:49:05.000Z</time>
      </trkpt>
      <trkpt lat="44.58775" lon="4.70348">
        <ele>79.03</ele>
        <time>2019-05-27T10:49:10.000Z</time>
      </trkpt>
      <trkpt lat="44.58794" lon="4.70359">
        <ele>80.02</ele>
        <time>2019-05-27T10:49:15.000Z</time>
      </trkpt>
      <trkpt lat="44.5881" lon="4.70365">
        <ele>79.79</ele>
        <time>2019-05-27T10:49:20.000Z</time>
      </trkpt>
      <trkpt lat="44.58801" lon="4.70408">
        <ele>79.79</ele>
        <time>2019-05-27T10:49:25.000Z</time>
      </trkpt>
      <trkpt lat="44.58833" lon="4.70384">
        <ele>78.03</ele>
        <time>2019-05-27T10:49:30.000Z</time>
      </trkpt>
      <trkpt lat="44.58846" lon="4.70395">
        <ele>78.77</ele>
        <time>2019-05-27T10:49:35.000Z</time>
      </trkpt>
      <trkpt lat="44.5885" lon="4.70414">
        <ele>79.23</ele>
        <time>2019-05-27T10:49:40.000Z</time>
      </trkpt>
      <trkpt lat="44.58853" lon="4.70429">
        <ele>79.04</ele>
        <time>2019-05-27T10:49:45.000Z</time>
      </trkpt>
      <trkpt lat="44.58876" lon="4.70417">
        <ele>80.86</ele>
        <time>2019-05-27T10:49:50.000Z</time>
      </trkpt>
      <trkpt lat="44.58886" lon="4.70421">
        <ele>79.29</ele>
        <time>2019-05-27T10:49:55.000Z</time>
      </trkpt>
      <trkpt lat="44.58891" lon="4.70435">
        <ele>80.04</ele>
        <time>2019-05-27T10:50:00.000Z</time>
      </trkpt>
      <trkpt lat="44.58902" lon="4.70453">
        <ele>80.97</ele>
        <time>2019-05-27T10:50:05.000Z</time>
      </trkpt>
      <trkpt lat="44.5891" lon="4.70471">
        <ele>81.27</ele>
        <time>2019-05-27T10:50:10.000Z</time>
      </trkpt>
      <trkpt lat="44.58913" lon="4.70493">
        <ele>81.17</ele>
        <time>2019-05-27T10:50:15.000Z</time>
      </trkpt>
      <trkpt lat="44.58926" lon="4.70519">
        <ele>78.87</ele>
        <time>2019-05-27T10:50:20.000Z</time>
      </trkpt>
      <trkpt lat="44.58938" lon="4.70551">
        <ele>76.1</ele>
        <time>2019-05-27T10:50:25.000Z</time>
      </trkpt>
      <trkpt lat="44.58932" lon="4.70567">
        <ele>72.96</ele>
        <time>2019-05-27T10:50:30.000Z</time>
      </trkpt>
      <trkpt lat="44.58923" lon="4.70572">
        <ele>72.33</ele>
        <time>2019-05-27T10:50:36.000Z</time>
      </trkpt>
      <trkpt lat="44.58912" lon="4.70564">
        <ele>72.78</ele>
        <time>2019-05-27T10:51:07.000Z</time>
      </trkpt>
      <trkpt lat="44.58889" lon="4.7055">
        <ele>72.77</ele>
        <time>2019-05-27T10:51:12.000Z</time>
      </trkpt>
      <trkpt lat="44.58858" lon="4.70541">
        <ele>70.04</ele>
        <time>2019-05-27T10:51:17.000Z</time>
      </trkpt>
      <trkpt lat="44.58835" lon="4.70509">
        <ele>70.1</ele>
        <time>2019-05-27T10:51:22.000Z</time>
      </trkpt>
      <trkpt lat="44.58812" lon="4.70471">
        <ele>71.03</ele>
        <time>2019-05-27T10:51:27.000Z</time>
      </trkpt>
      <trkpt lat="44.58791" lon="4.70439">
        <ele>72.06</ele>
        <time>2019-05-27T10:51:32.000Z</time>
      </trkpt>
      <trkpt lat="44.58772" lon="4.70408">
        <ele>67.13</ele>
        <time>2019-05-27T10:51:37.000Z</time>
      </trkpt>
      <trkpt lat="44.58766" lon="4.70388">
        <ele>68.97</ele>
        <time>2019-05-27T10:51:42.000Z</time>
      </trkpt>
      <trkpt lat="44.58768" lon="4.70375">
        <ele>73.84</ele>
        <time>2019-05-27T11:06:08.000Z</time>
      </trkpt>
      <trkpt lat="44.5876" lon="4.70387">
        <ele>83.79</ele>
        <time>2019-05-27T11:11:49.000Z</time>
      </trkpt>
      <trkpt lat="44.58761" lon="4.70385">
        <ele>83.04</ele>
        <time>2019-05-27T11:12:02.000Z</time>
      </trkpt>
      <trkpt lat="44.58759" lon="4.7037">
        <ele>81.71</ele>
        <time>2019-05-27T11:43:28.000Z</time>
      </trkpt>
      <trkpt lat="44.58753" lon="4.7038">
        <ele>83.97</ele>
        <time>2019-05-27T11:43:53.000Z</time>
      </trkpt>
      <trkpt lat="44.58746" lon="4.70396">
        <ele>81.06</ele>
        <time>2019-05-27T11:43:58.000Z</time>
      </trkpt>
      <trkpt lat="44.58736" lon="4.70416">
        <ele>81.09</ele>
        <time>2019-05-27T11:44:03.000Z</time>
      </trkpt>
      <trkpt lat="44.58722" lon="4.70435">
        <ele>82.02</ele>
        <time>2019-05-27T11:44:08.000Z</time>
      </trkpt>
      <trkpt lat="44.58704" lon="4.70458">
        <ele>82.99</ele>
        <time>2019-05-27T11:44:13.000Z</time>
      </trkpt>
      <trkpt lat="44.58695" lon="4.70485">
        <ele>81.11</ele>
        <time>2019-05-27T11:44:18.000Z</time>
      </trkpt>
      <trkpt lat="44.58684" lon="4.70513">
        <ele>82.04</ele>
        <time>2019-05-27T11:44:23.000Z</time>
      </trkpt>
      <trkpt lat="44.58673" lon="4.70525">
        <ele>79.35</ele>
        <time>2019-05-27T11:44:28.000Z</time>
      </trkpt>
      <trkpt lat="44.58682" lon="4.70527">
        <ele>76.8</ele>
        <time>2019-05-27T11:47:54.000Z</time>
      </trkpt>
      <trkpt lat="44.58674" lon="4.70534">
        <ele>73.28</ele>
        <time>2019-05-27T11:48:14.000Z</time>
      </trkpt>
      <trkpt lat="44.58683" lon="4.7053">
        <ele>74.54</ele>
        <time>2019-05-27T11:48:29.000Z</time>
      </trkpt>
      <trkpt lat="44.58672" lon="4.70533">
        <ele>74.97</ele>
        <time>2019-05-27T11:49:24.000Z</time>
      </trkpt>
      <trkpt lat="44.58665" lon="4.70544">
        <ele>78.71</ele>
        <time>2019-05-27T11:49:29.000Z</time>
      </trkpt>
      <trkpt lat="44.58656" lon="4.70558">
        <ele>78.04</ele>
        <time>2019-05-27T11:49:34.000Z</time>
      </trkpt>
      <trkpt lat="44.58644" lon="4.70576">
        <ele>78.23</ele>
        <time>2019-05-27T11:49:39.000Z</time>
      </trkpt>
      <trkpt lat="44.58628" lon="4.70599">
        <ele>78.04</ele>
        <time>2019-05-27T11:49:44.000Z</time>
      </trkpt>
      <trkpt lat="44.58612" lon="4.70622">
        <ele>79.04</ele>
        <time>2019-05-27T11:49:49.000Z</time>
      </trkpt>
      <trkpt lat="44.58596" lon="4.70644">
        <ele>78.04</ele>
        <time>2019-05-27T11:49:54.000Z</time>
      </trkpt>
      <trkpt lat="44.58582" lon="4.70667">
        <ele>76.12</ele>
        <time>2019-05-27T11:49:59.000Z</time>
      </trkpt>
      <trkpt lat="44.58566" lon="4.70688">
        <ele>75.04</ele>
        <time>2019-05-27T11:50:04.000Z</time>
      </trkpt>
      <trkpt lat="44.58551" lon="4.70713">
        <ele>74.1</ele>
        <time>2019-05-27T11:50:09.000Z</time>
      </trkpt>
      <trkpt lat="44.58534" lon="4.70735">
        <ele>74.09</ele>
        <time>2019-05-27T11:50:14.000Z</time>
      </trkpt>
      <trkpt lat="44.58517" lon="4.70759">
        <ele>75.05</ele>
        <time>2019-05-27T11:50:19.000Z</time>
      </trkpt>
      <trkpt lat="44.58499" lon="4.70784">
        <ele>76.79</ele>
        <time>2019-05-27T11:50:24.000Z</time>
      </trkpt>
      <trkpt lat="44.58481" lon="4.70808">
        <ele>77.04</ele>
        <time>2019-05-27T11:50:29.000Z</time>
      </trkpt>
      <trkpt lat="44.58465" lon="4.70832">
        <ele>77.28</ele>
        <time>2019-05-27T11:50:34.000Z</time>
      </trkpt>
      <trkpt lat="44.58446" lon="4.70857">
        <ele>76.05</ele>
        <time>2019-05-27T11:50:39.000Z</time>
      </trkpt>
      <trkpt lat="44.58431" lon="4.70881">
        <ele>75.35</ele>
        <time>2019-05-27T11:50:44.000Z</time>
      </trkpt>
      <trkpt lat="44.58415" lon="4.70906">
        <ele>72.25</ele>
        <time>2019-05-27T11:50:49.000Z</time>
      </trkpt>
      <trkpt lat="44.58396" lon="4.7093">
        <ele>72.69</ele>
        <time>2019-05-27T11:50:54.000Z</time>
      </trkpt>
      <trkpt lat="44.58379" lon="4.70952">
        <ele>73.86</ele>
        <time>2019-05-27T11:50:59.000Z</time>
      </trkpt>
      <trkpt lat="44.5836" lon="4.70977">
        <ele>76.96</ele>
        <time>2019-05-27T11:51:04.000Z</time>
      </trkpt>
      <trkpt lat="44.58345" lon="4.70995">
        <ele>75.92</ele>
        <time>2019-05-27T11:51:09.000Z</time>
      </trkpt>
      <trkpt lat="44.58334" lon="4.71012">
        <ele>79.03</ele>
        <time>2019-05-27T11:51:14.000Z</time>
      </trkpt>
      <trkpt lat="44.58325" lon="4.71027">
        <ele>81.09</ele>
        <time>2019-05-27T11:51:19.000Z</time>
      </trkpt>
      <trkpt lat="44.58313" lon="4.71042">
        <ele>80.05</ele>
        <time>2019-05-27T11:51:24.000Z</time>
      </trkpt>
      <trkpt lat="44.58301" lon="4.71061">
        <ele>80.05</ele>
        <time>2019-05-27T11:51:29.000Z</time>
      </trkpt>
      <trkpt lat="44.58287" lon="4.71081">
        <ele>78.25</ele>
        <time>2019-05-27T11:51:34.000Z</time>
      </trkpt>
      <trkpt lat="44.58274" lon="4.71099">
        <ele>78.05</ele>
        <time>2019-05-27T11:51:39.000Z</time>
      </trkpt>
      <trkpt lat="44.5826" lon="4.71119">
        <ele>78.06</ele>
        <time>2019-05-27T11:51:44.000Z</time>
      </trkpt>
      <trkpt lat="44.5825" lon="4.71136">
        <ele>77.8</ele>
        <time>2019-05-27T11:51:49.000Z</time>
      </trkpt>
      <trkpt lat="44.58239" lon="4.71151">
        <ele>79.98</ele>
        <time>2019-05-27T11:51:54.000Z</time>
      </trkpt>
      <trkpt lat="44.58229" lon="4.71162">
        <ele>79.06</ele>
        <time>2019-05-27T11:51:59.000Z</time>
      </trkpt>
      <trkpt lat="44.58214" lon="4.71183">
        <ele>77.11</ele>
        <time>2019-05-27T11:52:04.000Z</time>
      </trkpt>
      <trkpt lat="44.58198" lon="4.71207">
        <ele>77.05</ele>
        <time>2019-05-27T11:52:09.000Z</time>
      </trkpt>
      <trkpt lat="44.5818" lon="4.7123">
        <ele>77.8</ele>
        <time>2019-05-27T11:52:14.000Z</time>
      </trkpt>
      <trkpt lat="44.58164" lon="4.71253">
        <ele>76.12</ele>
        <time>2019-05-27T11:52:19.000Z</time>
      </trkpt>
      <trkpt lat="44.58151" lon="4.71271">
        <ele>76.05</ele>
        <time>2019-05-27T11:52:24.000Z</time>
      </trkpt>
      <trkpt lat="44.58142" lon="4.71285">
        <ele>77.05</ele>
        <time>2019-05-27T11:52:29.000Z</time>
      </trkpt>
      <trkpt lat="44.5813" lon="4.71298">
        <ele>78.78</ele>
        <time>2019-05-27T11:52:34.000Z</time>
      </trkpt>
      <trkpt lat="44.58116" lon="4.71318">
        <ele>80.3</ele>
        <time>2019-05-27T11:52:39.000Z</time>
      </trkpt>
      <trkpt lat="44.58099" lon="4.71344">
        <ele>79.05</ele>
        <time>2019-05-27T11:52:44.000Z</time>
      </trkpt>
      <trkpt lat="44.58077" lon="4.71374">
        <ele>78.05</ele>
        <time>2019-05-27T11:52:49.000Z</time>
      </trkpt>
      <trkpt lat="44.58058" lon="4.71408">
        <ele>78.05</ele>
        <time>2019-05-27T11:52:54.000Z</time>
      </trkpt>
      <trkpt lat="44.58061" lon="4.71447">
        <ele>78.05</ele>
        <time>2019-05-27T11:52:59.000Z</time>
      </trkpt>
      <trkpt lat="44.58072" lon="4.71485">
        <ele>77.07</ele>
        <time>2019-05-27T11:53:04.000Z</time>
      </trkpt>
      <trkpt lat="44.58082" lon="4.71522">
        <ele>78.05</ele>
        <time>2019-05-27T11:53:09.000Z</time>
      </trkpt>
      <trkpt lat="44.58091" lon="4.71559">
        <ele>78.05</ele>
        <time>2019-05-27T11:53:14.000Z</time>
      </trkpt>
      <trkpt lat="44.58098" lon="4.71592">
        <ele>77.3</ele>
        <time>2019-05-27T11:53:19.000Z</time>
      </trkpt>
      <trkpt lat="44.58106" lon="4.71623">
        <ele>77.05</ele>
        <time>2019-05-27T11:53:24.000Z</time>
      </trkpt>
      <trkpt lat="44.58114" lon="4.71656">
        <ele>78.04</ele>
        <time>2019-05-27T11:53:29.000Z</time>
      </trkpt>
      <trkpt lat="44.58123" lon="4.71688">
        <ele>78.05</ele>
        <time>2019-05-27T11:53:34.000Z</time>
      </trkpt>
      <trkpt lat="44.5813" lon="4.7172">
        <ele>77.06</ele>
        <time>2019-05-27T11:53:39.000Z</time>
      </trkpt>
      <trkpt lat="44.58123" lon="4.71747">
        <ele>77.06</ele>
        <time>2019-05-27T11:53:44.000Z</time>
      </trkpt>
      <trkpt lat="44.58119" lon="4.71765">
        <ele>79.79</ele>
        <time>2019-05-27T11:53:49.000Z</time>
      </trkpt>
      <trkpt lat="44.58121" lon="4.7178">
        <ele>80.06</ele>
        <time>2019-05-27T11:53:54.000Z</time>
      </trkpt>
      <trkpt lat="44.58115" lon="4.7179">
        <ele>81.8</ele>
        <time>2019-05-27T11:54:01.000Z</time>
      </trkpt>
      <trkpt lat="44.58108" lon="4.71776">
        <ele>80.88</ele>
        <time>2019-05-27T11:54:56.000Z</time>
      </trkpt>
      <trkpt lat="44.58091" lon="4.71768">
        <ele>81.06</ele>
        <time>2019-05-27T11:55:01.000Z</time>
      </trkpt>
      <trkpt lat="44.58068" lon="4.71759">
        <ele>80.31</ele>
        <time>2019-05-27T11:55:06.000Z</time>
      </trkpt>
      <trkpt lat="44.58045" lon="4.71749">
        <ele>81.05</ele>
        <time>2019-05-27T11:55:11.000Z</time>
      </trkpt>
      <trkpt lat="44.58019" lon="4.71738">
        <ele>81.81</ele>
        <time>2019-05-27T11:55:16.000Z</time>
      </trkpt>
      <trkpt lat="44.5799" lon="4.71728">
        <ele>82.06</ele>
        <time>2019-05-27T11:55:21.000Z</time>
      </trkpt>
      <trkpt lat="44.5796" lon="4.71718">
        <ele>82.1</ele>
        <time>2019-05-27T11:55:26.000Z</time>
      </trkpt>
      <trkpt lat="44.57929" lon="4.71708">
        <ele>82.81</ele>
        <time>2019-05-27T11:55:31.000Z</time>
      </trkpt>
      <trkpt lat="44.57896" lon="4.71699">
        <ele>83.06</ele>
        <time>2019-05-27T11:55:36.000Z</time>
      </trkpt>
      <trkpt lat="44.57861" lon="4.71693">
        <ele>82.31</ele>
        <time>2019-05-27T11:55:41.000Z</time>
      </trkpt>
      <trkpt lat="44.57825" lon="4.71687">
        <ele>82.06</ele>
        <time>2019-05-27T11:55:46.000Z</time>
      </trkpt>
      <trkpt lat="44.57789" lon="4.71682">
        <ele>83.04</ele>
        <time>2019-05-27T11:55:51.000Z</time>
      </trkpt>
      <trkpt lat="44.57753" lon="4.71677">
        <ele>83.06</ele>
        <time>2019-05-27T11:55:56.000Z</time>
      </trkpt>
      <trkpt lat="44.57716" lon="4.71673">
        <ele>83.06</ele>
        <time>2019-05-27T11:56:01.000Z</time>
      </trkpt>
      <trkpt lat="44.5768" lon="4.71668">
        <ele>83.06</ele>
        <time>2019-05-27T11:56:06.000Z</time>
      </trkpt>
      <trkpt lat="44.57644" lon="4.71663">
        <ele>83.06</ele>
        <time>2019-05-27T11:56:11.000Z</time>
      </trkpt>
      <trkpt lat="44.57611" lon="4.7166">
        <ele>83.3</ele>
        <time>2019-05-27T11:56:16.000Z</time>
      </trkpt>
      <trkpt lat="44.57573" lon="4.71654">
        <ele>83.06</ele>
        <time>2019-05-27T11:56:21.000Z</time>
      </trkpt>
      <trkpt lat="44.57536" lon="4.71648">
        <ele>82.31</ele>
        <time>2019-05-27T11:56:26.000Z</time>
      </trkpt>
      <trkpt lat="44.57497" lon="4.71643">
        <ele>81.31</ele>
        <time>2019-05-27T11:56:31.000Z</time>
      </trkpt>
      <trkpt lat="44.57458" lon="4.71639">
        <ele>82.06</ele>
        <time>2019-05-27T11:56:36.000Z</time>
      </trkpt>
      <trkpt lat="44.5742" lon="4.71634">
        <ele>82</ele>
        <time>2019-05-27T11:56:41.000Z</time>
      </trkpt>
      <trkpt lat="44.57383" lon="4.71628">
        <ele>82.06</ele>
        <time>2019-05-27T11:56:46.000Z</time>
      </trkpt>
      <trkpt lat="44.57346" lon="4.71624">
        <ele>81.31</ele>
        <time>2019-05-27T11:56:51.000Z</time>
      </trkpt>
      <trkpt lat="44.57308" lon="4.71619">
        <ele>82.11</ele>
        <time>2019-05-27T11:56:56.000Z</time>
      </trkpt>
      <trkpt lat="44.5727" lon="4.71613">
        <ele>82.06</ele>
        <time>2019-05-27T11:57:01.000Z</time>
      </trkpt>
      <trkpt lat="44.57229" lon="4.71609">
        <ele>82.05</ele>
        <time>2019-05-27T11:57:06.000Z</time>
      </trkpt>
      <trkpt lat="44.57192" lon="4.71605">
        <ele>82.06</ele>
        <time>2019-05-27T11:57:11.000Z</time>
      </trkpt>
      <trkpt lat="44.57154" lon="4.71598">
        <ele>82.06</ele>
        <time>2019-05-27T11:57:16.000Z</time>
      </trkpt>
      <trkpt lat="44.57117" lon="4.71592">
        <ele>82.06</ele>
        <time>2019-05-27T11:57:21.000Z</time>
      </trkpt>
      <trkpt lat="44.57079" lon="4.71587">
        <ele>82.06</ele>
        <time>2019-05-27T11:57:26.000Z</time>
      </trkpt>
      <trkpt lat="44.5704" lon="4.71583">
        <ele>82.06</ele>
        <time>2019-05-27T11:57:31.000Z</time>
      </trkpt>
      <trkpt lat="44.57002" lon="4.71578">
        <ele>82.81</ele>
        <time>2019-05-27T11:57:36.000Z</time>
      </trkpt>
      <trkpt lat="44.56964" lon="4.71574">
        <ele>82.06</ele>
        <time>2019-05-27T11:57:41.000Z</time>
      </trkpt>
      <trkpt lat="44.56925" lon="4.71569">
        <ele>82.06</ele>
        <time>2019-05-27T11:57:46.000Z</time>
      </trkpt>
      <trkpt lat="44.56886" lon="4.71563">
        <ele>82.11</ele>
        <time>2019-05-27T11:57:51.000Z</time>
      </trkpt>
      <trkpt lat="44.56847" lon="4.71557">
        <ele>83.06</ele>
        <time>2019-05-27T11:57:56.000Z</time>
      </trkpt>
      <trkpt lat="44.56808" lon="4.71551">
        <ele>82.06</ele>
        <time>2019-05-27T11:58:01.000Z</time>
      </trkpt>
      <trkpt lat="44.56767" lon="4.71547">
        <ele>82.06</ele>
        <time>2019-05-27T11:58:06.000Z</time>
      </trkpt>
      <trkpt lat="44.56727" lon="4.71541">
        <ele>83.01</ele>
        <time>2019-05-27T11:58:11.000Z</time>
      </trkpt>
      <trkpt lat="44.56685" lon="4.71536">
        <ele>83.06</ele>
        <time>2019-05-27T11:58:16.000Z</time>
      </trkpt>
      <trkpt lat="44.56643" lon="4.71531">
        <ele>82.07</ele>
        <time>2019-05-27T11:58:21.000Z</time>
      </trkpt>
      <trkpt lat="44.56601" lon="4.71527">
        <ele>81.07</ele>
        <time>2019-05-27T11:58:26.000Z</time>
      </trkpt>
      <trkpt lat="44.56562" lon="4.7152">
        <ele>82.06</ele>
        <time>2019-05-27T11:58:31.000Z</time>
      </trkpt>
      <trkpt lat="44.56521" lon="4.71515">
        <ele>81.13</ele>
        <time>2019-05-27T11:58:36.000Z</time>
      </trkpt>
      <trkpt lat="44.56481" lon="4.7151">
        <ele>81.13</ele>
        <time>2019-05-27T11:58:41.000Z</time>
      </trkpt>
      <trkpt lat="44.56442" lon="4.71504">
        <ele>81.06</ele>
        <time>2019-05-27T11:58:46.000Z</time>
      </trkpt>
      <trkpt lat="44.56402" lon="4.715">
        <ele>81.81</ele>
        <time>2019-05-27T11:58:51.000Z</time>
      </trkpt>
      <trkpt lat="44.56363" lon="4.71494">
        <ele>81.13</ele>
        <time>2019-05-27T11:58:56.000Z</time>
      </trkpt>
      <trkpt lat="44.56323" lon="4.71491">
        <ele>80.08</ele>
        <time>2019-05-27T11:59:01.000Z</time>
      </trkpt>
      <trkpt lat="44.56283" lon="4.71485">
        <ele>80.07</ele>
        <time>2019-05-27T11:59:06.000Z</time>
      </trkpt>
      <trkpt lat="44.56243" lon="4.71478">
        <ele>81.06</ele>
        <time>2019-05-27T11:59:11.000Z</time>
      </trkpt>
      <trkpt lat="44.56204" lon="4.71473">
        <ele>81.07</ele>
        <time>2019-05-27T11:59:16.000Z</time>
      </trkpt>
      <trkpt lat="44.56164" lon="4.71468">
        <ele>82.07</ele>
        <time>2019-05-27T11:59:21.000Z</time>
      </trkpt>
      <trkpt lat="44.56124" lon="4.71463">
        <ele>82.3</ele>
        <time>2019-05-27T11:59:26.000Z</time>
      </trkpt>
      <trkpt lat="44.56085" lon="4.71459">
        <ele>83.05</ele>
        <time>2019-05-27T11:59:31.000Z</time>
      </trkpt>
      <trkpt lat="44.56046" lon="4.71453">
        <ele>83.02</ele>
        <time>2019-05-27T11:59:36.000Z</time>
      </trkpt>
      <trkpt lat="44.56006" lon="4.71447">
        <ele>83.07</ele>
        <time>2019-05-27T11:59:41.000Z</time>
      </trkpt>
      <trkpt lat="44.55967" lon="4.71443">
        <ele>82.26</ele>
        <time>2019-05-27T11:59:46.000Z</time>
      </trkpt>
      <trkpt lat="44.55927" lon="4.71439">
        <ele>83.07</ele>
        <time>2019-05-27T11:59:51.000Z</time>
      </trkpt>
      <trkpt lat="44.55887" lon="4.71435">
        <ele>83.07</ele>
        <time>2019-05-27T11:59:56.000Z</time>
      </trkpt>
      <trkpt lat="44.55847" lon="4.71432">
        <ele>82.13</ele>
        <time>2019-05-27T12:00:01.000Z</time>
      </trkpt>
      <trkpt lat="44.55805" lon="4.71432">
        <ele>82.07</ele>
        <time>2019-05-27T12:00:06.000Z</time>
      </trkpt>
      <trkpt lat="44.55762" lon="4.71434">
        <ele>82.07</ele>
        <time>2019-05-27T12:00:11.000Z</time>
      </trkpt>
      <trkpt lat="44.5572" lon="4.71433">
        <ele>82.31</ele>
        <time>2019-05-27T12:00:16.000Z</time>
      </trkpt>
      <trkpt lat="44.55677" lon="4.71436">
        <ele>83.07</ele>
        <time>2019-05-27T12:00:21.000Z</time>
      </trkpt>
      <trkpt lat="44.55635" lon="4.71439">
        <ele>83.07</ele>
        <time>2019-05-27T12:00:26.000Z</time>
      </trkpt>
      <trkpt lat="44.55593" lon="4.71443">
        <ele>81.13</ele>
        <time>2019-05-27T12:00:31.000Z</time>
      </trkpt>
      <trkpt lat="44.55551" lon="4.71449">
        <ele>82.05</ele>
        <time>2019-05-27T12:00:36.000Z</time>
      </trkpt>
      <trkpt lat="44.55511" lon="4.71455">
        <ele>83.07</ele>
        <time>2019-05-27T12:00:41.000Z</time>
      </trkpt>
      <trkpt lat="44.55476" lon="4.71463">
        <ele>83.07</ele>
        <time>2019-05-27T12:00:46.000Z</time>
      </trkpt>
      <trkpt lat="44.55461" lon="4.71436">
        <ele>82.13</ele>
        <time>2019-05-27T12:00:51.000Z</time>
      </trkpt>
      <trkpt lat="44.55456" lon="4.71385">
        <ele>80.38</ele>
        <time>2019-05-27T12:00:56.000Z</time>
      </trkpt>
      <trkpt lat="44.55442" lon="4.71328">
        <ele>76.4</ele>
        <time>2019-05-27T12:01:01.000Z</time>
      </trkpt>
      <trkpt lat="44.55417" lon="4.71287">
        <ele>76.07</ele>
        <time>2019-05-27T12:01:06.000Z</time>
      </trkpt>
      <trkpt lat="44.55408" lon="4.71312">
        <ele>76.13</ele>
        <time>2019-05-27T12:01:11.000Z</time>
      </trkpt>
      <trkpt lat="44.5541" lon="4.71349">
        <ele>76.07</ele>
        <time>2019-05-27T12:01:16.000Z</time>
      </trkpt>
      <trkpt lat="44.55385" lon="4.71358">
        <ele>72.4</ele>
        <time>2019-05-27T12:01:21.000Z</time>
      </trkpt>
      <trkpt lat="44.55355" lon="4.71362">
        <ele>73.07</ele>
        <time>2019-05-27T12:01:26.000Z</time>
      </trkpt>
      <trkpt lat="44.55325" lon="4.71371">
        <ele>73.12</ele>
        <time>2019-05-27T12:01:31.000Z</time>
      </trkpt>
      <trkpt lat="44.55296" lon="4.71383">
        <ele>74.06</ele>
        <time>2019-05-27T12:01:36.000Z</time>
      </trkpt>
      <trkpt lat="44.55263" lon="4.71399">
        <ele>73.13</ele>
        <time>2019-05-27T12:01:41.000Z</time>
      </trkpt>
      <trkpt lat="44.5523" lon="4.71411">
        <ele>73.08</ele>
        <time>2019-05-27T12:01:46.000Z</time>
      </trkpt>
      <trkpt lat="44.55197" lon="4.71423">
        <ele>73.08</ele>
        <time>2019-05-27T12:01:51.000Z</time>
      </trkpt>
      <trkpt lat="44.5516" lon="4.71437">
        <ele>73.13</ele>
        <time>2019-05-27T12:01:56.000Z</time>
      </trkpt>
      <trkpt lat="44.55125" lon="4.71448">
        <ele>73.32</ele>
        <time>2019-05-27T12:02:01.000Z</time>
      </trkpt>
      <trkpt lat="44.55089" lon="4.71458">
        <ele>73.26</ele>
        <time>2019-05-27T12:02:06.000Z</time>
      </trkpt>
      <trkpt lat="44.55056" lon="4.71473">
        <ele>74.82</ele>
        <time>2019-05-27T12:02:11.000Z</time>
      </trkpt>
      <trkpt lat="44.5503" lon="4.71504">
        <ele>75.26</ele>
        <time>2019-05-27T12:02:16.000Z</time>
      </trkpt>
      <trkpt lat="44.55011" lon="4.71536">
        <ele>75.08</ele>
        <time>2019-05-27T12:02:21.000Z</time>
      </trkpt>
      <trkpt lat="44.54991" lon="4.71561">
        <ele>74.09</ele>
        <time>2019-05-27T12:02:26.000Z</time>
      </trkpt>
      <trkpt lat="44.54962" lon="4.71577">
        <ele>73.83</ele>
        <time>2019-05-27T12:02:31.000Z</time>
      </trkpt>
      <trkpt lat="44.54931" lon="4.71594">
        <ele>74.83</ele>
        <time>2019-05-27T12:02:36.000Z</time>
      </trkpt>
      <trkpt lat="44.54903" lon="4.71617">
        <ele>75.09</ele>
        <time>2019-05-27T12:02:41.000Z</time>
      </trkpt>
      <trkpt lat="44.54882" lon="4.71646">
        <ele>74.89</ele>
        <time>2019-05-27T12:02:46.000Z</time>
      </trkpt>
      <trkpt lat="44.54853" lon="4.71667">
        <ele>75.08</ele>
        <time>2019-05-27T12:02:51.000Z</time>
      </trkpt>
      <trkpt lat="44.54819" lon="4.71675">
        <ele>75.31</ele>
        <time>2019-05-27T12:02:56.000Z</time>
      </trkpt>
      <trkpt lat="44.54784" lon="4.71673">
        <ele>74.89</ele>
        <time>2019-05-27T12:03:01.000Z</time>
      </trkpt>
      <trkpt lat="44.54748" lon="4.71671">
        <ele>75.08</ele>
        <time>2019-05-27T12:03:06.000Z</time>
      </trkpt>
      <trkpt lat="44.54713" lon="4.7168">
        <ele>75.08</ele>
        <time>2019-05-27T12:03:11.000Z</time>
      </trkpt>
      <trkpt lat="44.54677" lon="4.71693">
        <ele>76.06</ele>
        <time>2019-05-27T12:03:16.000Z</time>
      </trkpt>
      <trkpt lat="44.54642" lon="4.71709">
        <ele>76.03</ele>
        <time>2019-05-27T12:03:21.000Z</time>
      </trkpt>
      <trkpt lat="44.54606" lon="4.71725">
        <ele>77.06</ele>
        <time>2019-05-27T12:03:26.000Z</time>
      </trkpt>
      <trkpt lat="44.54572" lon="4.71745">
        <ele>76.08</ele>
        <time>2019-05-27T12:03:31.000Z</time>
      </trkpt>
      <trkpt lat="44.54537" lon="4.71766">
        <ele>76.08</ele>
        <time>2019-05-27T12:03:36.000Z</time>
      </trkpt>
      <trkpt lat="44.54501" lon="4.71787">
        <ele>75.27</ele>
        <time>2019-05-27T12:03:41.000Z</time>
      </trkpt>
      <trkpt lat="44.54465" lon="4.71807">
        <ele>77.07</ele>
        <time>2019-05-27T12:03:46.000Z</time>
      </trkpt>
      <trkpt lat="44.5443" lon="4.71828">
        <ele>77.83</ele>
        <time>2019-05-27T12:03:51.000Z</time>
      </trkpt>
      <trkpt lat="44.54396" lon="4.71848">
        <ele>77.1</ele>
        <time>2019-05-27T12:03:56.000Z</time>
      </trkpt>
      <trkpt lat="44.54363" lon="4.71868">
        <ele>76.09</ele>
        <time>2019-05-27T12:04:01.000Z</time>
      </trkpt>
      <trkpt lat="44.5433" lon="4.71887">
        <ele>77.08</ele>
        <time>2019-05-27T12:04:06.000Z</time>
      </trkpt>
      <trkpt lat="44.54295" lon="4.71906">
        <ele>75.35</ele>
        <time>2019-05-27T12:04:11.000Z</time>
      </trkpt>
      <trkpt lat="44.54259" lon="4.71928">
        <ele>75.08</ele>
        <time>2019-05-27T12:04:16.000Z</time>
      </trkpt>
      <trkpt lat="44.54223" lon="4.71947">
        <ele>76.04</ele>
        <time>2019-05-27T12:04:21.000Z</time>
      </trkpt>
      <trkpt lat="44.54188" lon="4.71967">
        <ele>76.28</ele>
        <time>2019-05-27T12:04:26.000Z</time>
      </trkpt>
      <trkpt lat="44.54152" lon="4.71987">
        <ele>76.15</ele>
        <time>2019-05-27T12:04:31.000Z</time>
      </trkpt>
      <trkpt lat="44.54116" lon="4.72008">
        <ele>76.09</ele>
        <time>2019-05-27T12:04:36.000Z</time>
      </trkpt>
      <trkpt lat="44.54081" lon="4.72027">
        <ele>76.84</ele>
        <time>2019-05-27T12:04:41.000Z</time>
      </trkpt>
      <trkpt lat="44.54047" lon="4.72047">
        <ele>77.33</ele>
        <time>2019-05-27T12:04:46.000Z</time>
      </trkpt>
      <trkpt lat="44.54014" lon="4.72066">
        <ele>77.1</ele>
        <time>2019-05-27T12:04:51.000Z</time>
      </trkpt>
      <trkpt lat="44.53981" lon="4.72084">
        <ele>76.9</ele>
        <time>2019-05-27T12:04:56.000Z</time>
      </trkpt>
      <trkpt lat="44.53949" lon="4.72103">
        <ele>76.14</ele>
        <time>2019-05-27T12:05:01.000Z</time>
      </trkpt>
      <trkpt lat="44.53916" lon="4.72112">
        <ele>78.03</ele>
        <time>2019-05-27T12:05:06.000Z</time>
      </trkpt>
      <trkpt lat="44.53885" lon="4.72094">
        <ele>77.09</ele>
        <time>2019-05-27T12:05:11.000Z</time>
      </trkpt>
      <trkpt lat="44.53855" lon="4.72081">
        <ele>77.09</ele>
        <time>2019-05-27T12:05:16.000Z</time>
      </trkpt>
      <trkpt lat="44.53824" lon="4.72077">
        <ele>78.15</ele>
        <time>2019-05-27T12:05:21.000Z</time>
      </trkpt>
      <trkpt lat="44.53794" lon="4.72076">
        <ele>78.84</ele>
        <time>2019-05-27T12:05:26.000Z</time>
      </trkpt>
      <trkpt lat="44.53761" lon="4.72081">
        <ele>79.84</ele>
        <time>2019-05-27T12:05:31.000Z</time>
      </trkpt>
      <trkpt lat="44.53727" lon="4.72086">
        <ele>80.84</ele>
        <time>2019-05-27T12:05:36.000Z</time>
      </trkpt>
      <trkpt lat="44.53693" lon="4.721">
        <ele>81.14</ele>
        <time>2019-05-27T12:05:41.000Z</time>
      </trkpt>
      <trkpt lat="44.53664" lon="4.72124">
        <ele>83.07</ele>
        <time>2019-05-27T12:05:46.000Z</time>
      </trkpt>
      <trkpt lat="44.53639" lon="4.72156">
        <ele>77.83</ele>
        <time>2019-05-27T12:05:51.000Z</time>
      </trkpt>
      <trkpt lat="44.53613" lon="4.72188">
        <ele>76.09</ele>
        <time>2019-05-27T12:05:56.000Z</time>
      </trkpt>
      <trkpt lat="44.53586" lon="4.72219">
        <ele>77.09</ele>
        <time>2019-05-27T12:06:01.000Z</time>
      </trkpt>
      <trkpt lat="44.53559" lon="4.72251">
        <ele>76.15</ele>
        <time>2019-05-27T12:06:06.000Z</time>
      </trkpt>
      <trkpt lat="44.53535" lon="4.72285">
        <ele>76.56</ele>
        <time>2019-05-27T12:06:11.000Z</time>
      </trkpt>
      <trkpt lat="44.53514" lon="4.72318">
        <ele>75.97</ele>
        <time>2019-05-27T12:06:16.000Z</time>
      </trkpt>
      <trkpt lat="44.53495" lon="4.72354">
        <ele>79.03</ele>
        <time>2019-05-27T12:06:21.000Z</time>
      </trkpt>
      <trkpt lat="44.53486" lon="4.72384">
        <ele>78.11</ele>
        <time>2019-05-27T12:06:26.000Z</time>
      </trkpt>
      <trkpt lat="44.53462" lon="4.72381">
        <ele>78.35</ele>
        <time>2019-05-27T12:06:31.000Z</time>
      </trkpt>
      <trkpt lat="44.5345" lon="4.72354">
        <ele>80.07</ele>
        <time>2019-05-27T12:06:36.000Z</time>
      </trkpt>
      <trkpt lat="44.53432" lon="4.72332">
        <ele>81.09</ele>
        <time>2019-05-27T12:06:41.000Z</time>
      </trkpt>
      <trkpt lat="44.53418" lon="4.72312">
        <ele>81.09</ele>
        <time>2019-05-27T12:06:46.000Z</time>
      </trkpt>
      <trkpt lat="44.53409" lon="4.72298">
        <ele>82.27</ele>
        <time>2019-05-27T12:06:51.000Z</time>
      </trkpt>
      <trkpt lat="44.53413" lon="4.72313">
        <ele>86.08</ele>
        <time>2019-05-27T12:09:01.000Z</time>
      </trkpt>
      <trkpt lat="44.53419" lon="4.72334">
        <ele>86.09</ele>
        <time>2019-05-27T12:09:06.000Z</time>
      </trkpt>
      <trkpt lat="44.53425" lon="4.72352">
        <ele>85.1</ele>
        <time>2019-05-27T12:09:11.000Z</time>
      </trkpt>
      <trkpt lat="44.53431" lon="4.72364">
        <ele>86.33</ele>
        <time>2019-05-27T12:09:16.000Z</time>
      </trkpt>
      <trkpt lat="44.5344" lon="4.7237">
        <ele>84.1</ele>
        <time>2019-05-27T12:12:12.000Z</time>
      </trkpt>
      <trkpt lat="44.53437" lon="4.72383">
        <ele>85.08</ele>
        <time>2019-05-27T12:12:17.000Z</time>
      </trkpt>
      <trkpt lat="44.53431" lon="4.72402">
        <ele>86.03</ele>
        <time>2019-05-27T12:12:22.000Z</time>
      </trkpt>
      <trkpt lat="44.53435" lon="4.72426">
        <ele>86.09</ele>
        <time>2019-05-27T12:12:27.000Z</time>
      </trkpt>
      <trkpt lat="44.53439" lon="4.72447">
        <ele>86.09</ele>
        <time>2019-05-27T12:12:32.000Z</time>
      </trkpt>
      <trkpt lat="44.53441" lon="4.72464">
        <ele>86.85</ele>
        <time>2019-05-27T12:12:37.000Z</time>
      </trkpt>
      <trkpt lat="44.53447" lon="4.72476">
        <ele>90.09</ele>
        <time>2019-05-27T12:13:30.000Z</time>
      </trkpt>
      <trkpt lat="44.53453" lon="4.72507">
        <ele>90.34</ele>
        <time>2019-05-27T12:13:35.000Z</time>
      </trkpt>
      <trkpt lat="44.53461" lon="4.72539">
        <ele>91.83</ele>
        <time>2019-05-27T12:13:40.000Z</time>
      </trkpt>
      <trkpt lat="44.53466" lon="4.72568">
        <ele>91.08</ele>
        <time>2019-05-27T12:13:45.000Z</time>
      </trkpt>
      <trkpt lat="44.53474" lon="4.72604">
        <ele>90.16</ele>
        <time>2019-05-27T12:13:50.000Z</time>
      </trkpt>
      <trkpt lat="44.53482" lon="4.7264">
        <ele>90.05</ele>
        <time>2019-05-27T12:13:55.000Z</time>
      </trkpt>
      <trkpt lat="44.53489" lon="4.72678">
        <ele>88.86</ele>
        <time>2019-05-27T12:14:00.000Z</time>
      </trkpt>
      <trkpt lat="44.53501" lon="4.72718">
        <ele>88.1</ele>
        <time>2019-05-27T12:14:05.000Z</time>
      </trkpt>
      <trkpt lat="44.5351" lon="4.7276">
        <ele>89.04</ele>
        <time>2019-05-27T12:14:10.000Z</time>
      </trkpt>
      <trkpt lat="44.5351" lon="4.72798">
        <ele>89.04</ele>
        <time>2019-05-27T12:14:15.000Z</time>
      </trkpt>
      <trkpt lat="44.53508" lon="4.72834">
        <ele>86.18</ele>
        <time>2019-05-27T12:14:20.000Z</time>
      </trkpt>
      <trkpt lat="44.53505" lon="4.72872">
        <ele>85.35</ele>
        <time>2019-05-27T12:14:25.000Z</time>
      </trkpt>
      <trkpt lat="44.53494" lon="4.72911">
        <ele>85.29</ele>
        <time>2019-05-27T12:14:30.000Z</time>
      </trkpt>
      <trkpt lat="44.53486" lon="4.72947">
        <ele>86.1</ele>
        <time>2019-05-27T12:14:35.000Z</time>
      </trkpt>
      <trkpt lat="44.53474" lon="4.72977">
        <ele>87.04</ele>
        <time>2019-05-27T12:14:40.000Z</time>
      </trkpt>
      <trkpt lat="44.53467" lon="4.73011">
        <ele>87.1</ele>
        <time>2019-05-27T12:14:45.000Z</time>
      </trkpt>
      <trkpt lat="44.53483" lon="4.73039">
        <ele>86.16</ele>
        <time>2019-05-27T12:14:50.000Z</time>
      </trkpt>
      <trkpt lat="44.53506" lon="4.73038">
        <ele>87.1</ele>
        <time>2019-05-27T12:14:55.000Z</time>
      </trkpt>
      <trkpt lat="44.53522" lon="4.73008">
        <ele>86.12</ele>
        <time>2019-05-27T12:15:00.000Z</time>
      </trkpt>
      <trkpt lat="44.53532" lon="4.72979">
        <ele>86.79</ele>
        <time>2019-05-27T12:15:05.000Z</time>
      </trkpt>
      <trkpt lat="44.53523" lon="4.72974">
        <ele>87.1</ele>
        <time>2019-05-27T12:15:55.000Z</time>
      </trkpt>
      <trkpt lat="44.53513" lon="4.72967">
        <ele>87.1</ele>
        <time>2019-05-27T12:16:00.000Z</time>
      </trkpt>
      <trkpt lat="44.53494" lon="4.72949">
        <ele>86.1</ele>
        <time>2019-05-27T12:16:05.000Z</time>
      </trkpt>
      <trkpt lat="44.535" lon="4.72915">
        <ele>86.11</ele>
        <time>2019-05-27T12:16:10.000Z</time>
      </trkpt>
      <trkpt lat="44.5351" lon="4.72882">
        <ele>87.29</ele>
        <time>2019-05-27T12:16:15.000Z</time>
      </trkpt>
      <trkpt lat="44.53516" lon="4.72848">
        <ele>87.1</ele>
        <time>2019-05-27T12:16:20.000Z</time>
      </trkpt>
      <trkpt lat="44.53524" lon="4.72824">
        <ele>87.11</ele>
        <time>2019-05-27T12:16:25.000Z</time>
      </trkpt>
      <trkpt lat="44.53529" lon="4.72814">
        <ele>85.11</ele>
        <time>2019-05-27T12:16:31.000Z</time>
      </trkpt>
      <trkpt lat="44.53518" lon="4.72795">
        <ele>85.1</ele>
        <time>2019-05-27T12:16:36.000Z</time>
      </trkpt>
      <trkpt lat="44.53517" lon="4.72767">
        <ele>84.41</ele>
        <time>2019-05-27T12:16:41.000Z</time>
      </trkpt>
      <trkpt lat="44.53521" lon="4.72745">
        <ele>84.11</ele>
        <time>2019-05-27T12:16:46.000Z</time>
      </trkpt>
      <trkpt lat="44.53548" lon="4.72721">
        <ele>82.17</ele>
        <time>2019-05-27T12:16:51.000Z</time>
      </trkpt>
      <trkpt lat="44.5358" lon="4.727">
        <ele>82.16</ele>
        <time>2019-05-27T12:16:56.000Z</time>
      </trkpt>
      <trkpt lat="44.5361" lon="4.72685">
        <ele>82.34</ele>
        <time>2019-05-27T12:17:01.000Z</time>
      </trkpt>
      <trkpt lat="44.53639" lon="4.72668">
        <ele>79.18</ele>
        <time>2019-05-27T12:17:06.000Z</time>
      </trkpt>
      <trkpt lat="44.53669" lon="4.72653">
        <ele>78.1</ele>
        <time>2019-05-27T12:17:11.000Z</time>
      </trkpt>
      <trkpt lat="44.53698" lon="4.72636">
        <ele>79.14</ele>
        <time>2019-05-27T12:17:16.000Z</time>
      </trkpt>
      <trkpt lat="44.53726" lon="4.72623">
        <ele>80.83</ele>
        <time>2019-05-27T12:17:21.000Z</time>
      </trkpt>
      <trkpt lat="44.53755" lon="4.72605">
        <ele>80.2</ele>
        <time>2019-05-27T12:17:26.000Z</time>
      </trkpt>
      <trkpt lat="44.53783" lon="4.72589">
        <ele>81.84</ele>
        <time>2019-05-27T12:17:31.000Z</time>
      </trkpt>
      <trkpt lat="44.53809" lon="4.72574">
        <ele>80.35</ele>
        <time>2019-05-27T12:17:36.000Z</time>
      </trkpt>
      <trkpt lat="44.53838" lon="4.72558">
        <ele>81.09</ele>
        <time>2019-05-27T12:17:41.000Z</time>
      </trkpt>
      <trkpt lat="44.53865" lon="4.72542">
        <ele>82.03</ele>
        <time>2019-05-27T12:17:46.000Z</time>
      </trkpt>
      <trkpt lat="44.53891" lon="4.72529">
        <ele>81.85</ele>
        <time>2019-05-27T12:17:51.000Z</time>
      </trkpt>
      <trkpt lat="44.53919" lon="4.72512">
        <ele>80.86</ele>
        <time>2019-05-27T12:17:56.000Z</time>
      </trkpt>
      <trkpt lat="44.53946" lon="4.72495">
        <ele>81.9</ele>
        <time>2019-05-27T12:18:01.000Z</time>
      </trkpt>
      <trkpt lat="44.53972" lon="4.7248">
        <ele>80.36</ele>
        <time>2019-05-27T12:18:06.000Z</time>
      </trkpt>
      <trkpt lat="44.53995" lon="4.72467">
        <ele>80.09</ele>
        <time>2019-05-27T12:18:11.000Z</time>
      </trkpt>
      <trkpt lat="44.54017" lon="4.72455">
        <ele>80.33</ele>
        <time>2019-05-27T12:18:16.000Z</time>
      </trkpt>
      <trkpt lat="44.54039" lon="4.72442">
        <ele>79.34</ele>
        <time>2019-05-27T12:18:21.000Z</time>
      </trkpt>
      <trkpt lat="44.54063" lon="4.7243">
        <ele>81.03</ele>
        <time>2019-05-27T12:18:26.000Z</time>
      </trkpt>
      <trkpt lat="44.54087" lon="4.72417">
        <ele>81.84</ele>
        <time>2019-05-27T12:18:31.000Z</time>
      </trkpt>
      <trkpt lat="44.54111" lon="4.72404">
        <ele>83.09</ele>
        <time>2019-05-27T12:18:36.000Z</time>
      </trkpt>
      <trkpt lat="44.54134" lon="4.72389">
        <ele>83.09</ele>
        <time>2019-05-27T12:18:41.000Z</time>
      </trkpt>
      <trkpt lat="44.54161" lon="4.72373">
        <ele>82.15</ele>
        <time>2019-05-27T12:18:46.000Z</time>
      </trkpt>
      <trkpt lat="44.54187" lon="4.72359">
        <ele>82.15</ele>
        <time>2019-05-27T12:18:51.000Z</time>
      </trkpt>
      <trkpt lat="44.54213" lon="4.72345">
        <ele>82.09</ele>
        <time>2019-05-27T12:18:56.000Z</time>
      </trkpt>
      <trkpt lat="44.54237" lon="4.72331">
        <ele>81.9</ele>
        <time>2019-05-27T12:19:01.000Z</time>
      </trkpt>
      <trkpt lat="44.54263" lon="4.72316">
        <ele>81.1</ele>
        <time>2019-05-27T12:19:06.000Z</time>
      </trkpt>
      <trkpt lat="44.54287" lon="4.72302">
        <ele>80.85</ele>
        <time>2019-05-27T12:19:11.000Z</time>
      </trkpt>
      <trkpt lat="44.54311" lon="4.72288">
        <ele>80.1</ele>
        <time>2019-05-27T12:19:16.000Z</time>
      </trkpt>
      <trkpt lat="44.54336" lon="4.72275">
        <ele>80.27</ele>
        <time>2019-05-27T12:19:21.000Z</time>
      </trkpt>
      <trkpt lat="44.54361" lon="4.72259">
        <ele>81.96</ele>
        <time>2019-05-27T12:19:26.000Z</time>
      </trkpt>
      <trkpt lat="44.54384" lon="4.72243">
        <ele>81.84</ele>
        <time>2019-05-27T12:19:31.000Z</time>
      </trkpt>
      <trkpt lat="44.54407" lon="4.72231">
        <ele>80.16</ele>
        <time>2019-05-27T12:19:36.000Z</time>
      </trkpt>
      <trkpt lat="44.5443" lon="4.72219">
        <ele>79.85</ele>
        <time>2019-05-27T12:19:41.000Z</time>
      </trkpt>
      <trkpt lat="44.54451" lon="4.72207">
        <ele>80.84</ele>
        <time>2019-05-27T12:19:46.000Z</time>
      </trkpt>
      <trkpt lat="44.54473" lon="4.72197">
        <ele>80.34</ele>
        <time>2019-05-27T12:19:51.000Z</time>
      </trkpt>
      <trkpt lat="44.54495" lon="4.72183">
        <ele>80.04</ele>
        <time>2019-05-27T12:19:56.000Z</time>
      </trkpt>
      <trkpt lat="44.54519" lon="4.7217">
        <ele>79.84</ele>
        <time>2019-05-27T12:20:01.000Z</time>
      </trkpt>
      <trkpt lat="44.54541" lon="4.72157">
        <ele>81.07</ele>
        <time>2019-05-27T12:20:06.000Z</time>
      </trkpt>
      <trkpt lat="44.54565" lon="4.72144">
        <ele>80.09</ele>
        <time>2019-05-27T12:20:11.000Z</time>
      </trkpt>
      <trkpt lat="44.5459" lon="4.72132">
        <ele>81.02</ele>
        <time>2019-05-27T12:20:16.000Z</time>
      </trkpt>
      <trkpt lat="44.54615" lon="4.72115">
        <ele>82.08</ele>
        <time>2019-05-27T12:20:21.000Z</time>
      </trkpt>
      <trkpt lat="44.54642" lon="4.72099">
        <ele>80.38</ele>
        <time>2019-05-27T12:20:26.000Z</time>
      </trkpt>
      <trkpt lat="44.54668" lon="4.72085">
        <ele>80.27</ele>
        <time>2019-05-27T12:20:31.000Z</time>
      </trkpt>
      <trkpt lat="44.54694" lon="4.72071">
        <ele>80.1</ele>
        <time>2019-05-27T12:20:36.000Z</time>
      </trkpt>
      <trkpt lat="44.54718" lon="4.72056">
        <ele>78.16</ele>
        <time>2019-05-27T12:20:41.000Z</time>
      </trkpt>
      <trkpt lat="44.54744" lon="4.72043">
        <ele>80.77</ele>
        <time>2019-05-27T12:20:46.000Z</time>
      </trkpt>
      <trkpt lat="44.54769" lon="4.72021">
        <ele>83.06</ele>
        <time>2019-05-27T12:20:51.000Z</time>
      </trkpt>
      <trkpt lat="44.54791" lon="4.72">
        <ele>83.08</ele>
        <time>2019-05-27T12:20:56.000Z</time>
      </trkpt>
      <trkpt lat="44.54811" lon="4.71979">
        <ele>83.08</ele>
        <time>2019-05-27T12:21:01.000Z</time>
      </trkpt>
      <trkpt lat="44.54832" lon="4.71962">
        <ele>83.07</ele>
        <time>2019-05-27T12:21:06.000Z</time>
      </trkpt>
      <trkpt lat="44.54854" lon="4.71952">
        <ele>84.3</ele>
        <time>2019-05-27T12:21:11.000Z</time>
      </trkpt>
      <trkpt lat="44.54862" lon="4.71962">
        <ele>83.08</ele>
        <time>2019-05-27T12:21:16.000Z</time>
      </trkpt>
      <trkpt lat="44.54866" lon="4.71947">
        <ele>81.02</ele>
        <time>2019-05-27T12:22:35.000Z</time>
      </trkpt>
      <trkpt lat="44.54879" lon="4.71929">
        <ele>82.08</ele>
        <time>2019-05-27T12:22:40.000Z</time>
      </trkpt>
      <trkpt lat="44.54896" lon="4.71921">
        <ele>83.27</ele>
        <time>2019-05-27T12:22:45.000Z</time>
      </trkpt>
      <trkpt lat="44.54915" lon="4.71912">
        <ele>82.1</ele>
        <time>2019-05-27T12:22:50.000Z</time>
      </trkpt>
      <trkpt lat="44.54936" lon="4.71901">
        <ele>81.88</ele>
        <time>2019-05-27T12:22:55.000Z</time>
      </trkpt>
      <trkpt lat="44.54959" lon="4.71887">
        <ele>81.08</ele>
        <time>2019-05-27T12:23:00.000Z</time>
      </trkpt>
      <trkpt lat="44.54982" lon="4.71875">
        <ele>82.07</ele>
        <time>2019-05-27T12:23:05.000Z</time>
      </trkpt>
      <trkpt lat="44.55006" lon="4.71875">
        <ele>81.08</ele>
        <time>2019-05-27T12:23:10.000Z</time>
      </trkpt>
      <trkpt lat="44.55023" lon="4.71904">
        <ele>81.02</ele>
        <time>2019-05-27T12:23:15.000Z</time>
      </trkpt>
      <trkpt lat="44.55038" lon="4.71934">
        <ele>81.28</ele>
        <time>2019-05-27T12:23:20.000Z</time>
      </trkpt>
      <trkpt lat="44.55051" lon="4.71966">
        <ele>82.83</ele>
        <time>2019-05-27T12:23:25.000Z</time>
      </trkpt>
      <trkpt lat="44.55065" lon="4.71996">
        <ele>82.33</ele>
        <time>2019-05-27T12:23:30.000Z</time>
      </trkpt>
      <trkpt lat="44.55078" lon="4.72026">
        <ele>82.19</ele>
        <time>2019-05-27T12:23:35.000Z</time>
      </trkpt>
      <trkpt lat="44.55093" lon="4.72056">
        <ele>84.58</ele>
        <time>2019-05-27T12:23:40.000Z</time>
      </trkpt>
      <trkpt lat="44.55107" lon="4.72082">
        <ele>83.39</ele>
        <time>2019-05-27T12:23:45.000Z</time>
      </trkpt>
      <trkpt lat="44.55119" lon="4.72107">
        <ele>81.33</ele>
        <time>2019-05-27T12:23:50.000Z</time>
      </trkpt>
      <trkpt lat="44.55133" lon="4.72137">
        <ele>81.13</ele>
        <time>2019-05-27T12:23:55.000Z</time>
      </trkpt>
      <trkpt lat="44.55147" lon="4.72165">
        <ele>80.14</ele>
        <time>2019-05-27T12:24:00.000Z</time>
      </trkpt>
      <trkpt lat="44.55163" lon="4.72196">
        <ele>80.07</ele>
        <time>2019-05-27T12:24:05.000Z</time>
      </trkpt>
      <trkpt lat="44.55177" lon="4.72225">
        <ele>78.39</ele>
        <time>2019-05-27T12:24:10.000Z</time>
      </trkpt>
      <trkpt lat="44.55191" lon="4.72255">
        <ele>79.06</ele>
        <time>2019-05-27T12:24:15.000Z</time>
      </trkpt>
      <trkpt lat="44.55207" lon="4.72287">
        <ele>80.08</ele>
        <time>2019-05-27T12:24:20.000Z</time>
      </trkpt>
      <trkpt lat="44.55223" lon="4.72318">
        <ele>80.08</ele>
        <time>2019-05-27T12:24:25.000Z</time>
      </trkpt>
      <trkpt lat="44.55239" lon="4.7235">
        <ele>81.82</ele>
        <time>2019-05-27T12:24:30.000Z</time>
      </trkpt>
      <trkpt lat="44.55253" lon="4.72381">
        <ele>81.1</ele>
        <time>2019-05-27T12:24:35.000Z</time>
      </trkpt>
      <trkpt lat="44.55267" lon="4.7241">
        <ele>80.14</ele>
        <time>2019-05-27T12:24:40.000Z</time>
      </trkpt>
      <trkpt lat="44.55281" lon="4.72439">
        <ele>81.02</ele>
        <time>2019-05-27T12:24:45.000Z</time>
      </trkpt>
      <trkpt lat="44.55296" lon="4.7247">
        <ele>79.9</ele>
        <time>2019-05-27T12:24:50.000Z</time>
      </trkpt>
      <trkpt lat="44.5531" lon="4.725">
        <ele>81.08</ele>
        <time>2019-05-27T12:24:55.000Z</time>
      </trkpt>
      <trkpt lat="44.55325" lon="4.72532">
        <ele>79.09</ele>
        <time>2019-05-27T12:25:00.000Z</time>
      </trkpt>
      <trkpt lat="44.55341" lon="4.72564">
        <ele>80.02</ele>
        <time>2019-05-27T12:25:05.000Z</time>
      </trkpt>
      <trkpt lat="44.55357" lon="4.72595">
        <ele>82.07</ele>
        <time>2019-05-27T12:25:10.000Z</time>
      </trkpt>
      <trkpt lat="44.55372" lon="4.72627">
        <ele>81.15</ele>
        <time>2019-05-27T12:25:15.000Z</time>
      </trkpt>
      <trkpt lat="44.55387" lon="4.72659">
        <ele>80.33</ele>
        <time>2019-05-27T12:25:20.000Z</time>
      </trkpt>
      <trkpt lat="44.55402" lon="4.72689">
        <ele>80.08</ele>
        <time>2019-05-27T12:25:25.000Z</time>
      </trkpt>
      <trkpt lat="44.55419" lon="4.7272">
        <ele>80.83</ele>
        <time>2019-05-27T12:25:30.000Z</time>
      </trkpt>
      <trkpt lat="44.55433" lon="4.72753">
        <ele>80.1</ele>
        <time>2019-05-27T12:25:35.000Z</time>
      </trkpt>
      <trkpt lat="44.55449" lon="4.72786">
        <ele>80.33</ele>
        <time>2019-05-27T12:25:40.000Z</time>
      </trkpt>
      <trkpt lat="44.55463" lon="4.72818">
        <ele>80.1</ele>
        <time>2019-05-27T12:25:45.000Z</time>
      </trkpt>
      <trkpt lat="44.55474" lon="4.72853">
        <ele>79.1</ele>
        <time>2019-05-27T12:25:50.000Z</time>
      </trkpt>
      <trkpt lat="44.55485" lon="4.7289">
        <ele>80.82</ele>
        <time>2019-05-27T12:25:55.000Z</time>
      </trkpt>
      <trkpt lat="44.55497" lon="4.72926">
        <ele>81.1</ele>
        <time>2019-05-27T12:26:00.000Z</time>
      </trkpt>
      <trkpt lat="44.55507" lon="4.72962">
        <ele>80.1</ele>
        <time>2019-05-27T12:26:05.000Z</time>
      </trkpt>
      <trkpt lat="44.55507" lon="4.72995">
        <ele>80.09</ele>
        <time>2019-05-27T12:26:10.000Z</time>
      </trkpt>
      <trkpt lat="44.55509" lon="4.73033">
        <ele>81.02</ele>
        <time>2019-05-27T12:26:15.000Z</time>
      </trkpt>
      <trkpt lat="44.55515" lon="4.73078">
        <ele>79.1</ele>
        <time>2019-05-27T12:26:20.000Z</time>
      </trkpt>
      <trkpt lat="44.55521" lon="4.73118">
        <ele>79.09</ele>
        <time>2019-05-27T12:26:25.000Z</time>
      </trkpt>
      <trkpt lat="44.55525" lon="4.73158">
        <ele>79.28</ele>
        <time>2019-05-27T12:26:30.000Z</time>
      </trkpt>
      <trkpt lat="44.55529" lon="4.73198">
        <ele>81.02</ele>
        <time>2019-05-27T12:26:35.000Z</time>
      </trkpt>
      <trkpt lat="44.55531" lon="4.73239">
        <ele>81.28</ele>
        <time>2019-05-27T12:26:40.000Z</time>
      </trkpt>
      <trkpt lat="44.55531" lon="4.73278">
        <ele>80.14</ele>
        <time>2019-05-27T12:26:45.000Z</time>
      </trkpt>
      <trkpt lat="44.5553" lon="4.73317">
        <ele>79.15</ele>
        <time>2019-05-27T12:26:50.000Z</time>
      </trkpt>
      <trkpt lat="44.55529" lon="4.73358">
        <ele>80.07</ele>
        <time>2019-05-27T12:26:55.000Z</time>
      </trkpt>
      <trkpt lat="44.55526" lon="4.73395">
        <ele>80.09</ele>
        <time>2019-05-27T12:27:00.000Z</time>
      </trkpt>
      <trkpt lat="44.55523" lon="4.73432">
        <ele>79.34</ele>
        <time>2019-05-27T12:27:05.000Z</time>
      </trkpt>
      <trkpt lat="44.55518" lon="4.7347">
        <ele>79.04</ele>
        <time>2019-05-27T12:27:10.000Z</time>
      </trkpt>
      <trkpt lat="44.55511" lon="4.73508">
        <ele>78.14</ele>
        <time>2019-05-27T12:27:15.000Z</time>
      </trkpt>
      <trkpt lat="44.55504" lon="4.73543">
        <ele>78.14</ele>
        <time>2019-05-27T12:27:20.000Z</time>
      </trkpt>
      <trkpt lat="44.55496" lon="4.73578">
        <ele>81.01</ele>
        <time>2019-05-27T12:27:25.000Z</time>
      </trkpt>
      <trkpt lat="44.55486" lon="4.7361">
        <ele>79.11</ele>
        <time>2019-05-27T12:27:30.000Z</time>
      </trkpt>
      <trkpt lat="44.55465" lon="4.73636">
        <ele>78.85</ele>
        <time>2019-05-27T12:27:35.000Z</time>
      </trkpt>
      <trkpt lat="44.55454" lon="4.73675">
        <ele>80.14</ele>
        <time>2019-05-27T12:27:40.000Z</time>
      </trkpt>
      <trkpt lat="44.55444" lon="4.73715">
        <ele>80.09</ele>
        <time>2019-05-27T12:27:45.000Z</time>
      </trkpt>
      <trkpt lat="44.55432" lon="4.73753">
        <ele>81.09</ele>
        <time>2019-05-27T12:27:50.000Z</time>
      </trkpt>
      <trkpt lat="44.55422" lon="4.73794">
        <ele>79.22</ele>
        <time>2019-05-27T12:27:55.000Z</time>
      </trkpt>
      <trkpt lat="44.55414" lon="4.73836">
        <ele>79.85</ele>
        <time>2019-05-27T12:28:00.000Z</time>
      </trkpt>
      <trkpt lat="44.55407" lon="4.73879">
        <ele>80.05</ele>
        <time>2019-05-27T12:28:05.000Z</time>
      </trkpt>
      <trkpt lat="44.55402" lon="4.7392">
        <ele>79.1</ele>
        <time>2019-05-27T12:28:10.000Z</time>
      </trkpt>
      <trkpt lat="44.55397" lon="4.73964">
        <ele>80.1</ele>
        <time>2019-05-27T12:28:15.000Z</time>
      </trkpt>
      <trkpt lat="44.55391" lon="4.74006">
        <ele>80.1</ele>
        <time>2019-05-27T12:28:20.000Z</time>
      </trkpt>
      <trkpt lat="44.55386" lon="4.74048">
        <ele>80.11</ele>
        <time>2019-05-27T12:28:25.000Z</time>
      </trkpt>
      <trkpt lat="44.55381" lon="4.74089">
        <ele>79.35</ele>
        <time>2019-05-27T12:28:30.000Z</time>
      </trkpt>
      <trkpt lat="44.55379" lon="4.74129">
        <ele>79.15</ele>
        <time>2019-05-27T12:28:35.000Z</time>
      </trkpt>
      <trkpt lat="44.55376" lon="4.74169">
        <ele>78.1</ele>
        <time>2019-05-27T12:28:40.000Z</time>
      </trkpt>
      <trkpt lat="44.55374" lon="4.74211">
        <ele>79.1</ele>
        <time>2019-05-27T12:28:45.000Z</time>
      </trkpt>
      <trkpt lat="44.5537" lon="4.74254">
        <ele>79.15</ele>
        <time>2019-05-27T12:28:50.000Z</time>
      </trkpt>
      <trkpt lat="44.55366" lon="4.74296">
        <ele>79.85</ele>
        <time>2019-05-27T12:28:55.000Z</time>
      </trkpt>
      <trkpt lat="44.55361" lon="4.74338">
        <ele>78.17</ele>
        <time>2019-05-27T12:29:00.000Z</time>
      </trkpt>
      <trkpt lat="44.55352" lon="4.7438">
        <ele>79.09</ele>
        <time>2019-05-27T12:29:05.000Z</time>
      </trkpt>
      <trkpt lat="44.55343" lon="4.74418">
        <ele>78.34</ele>
        <time>2019-05-27T12:29:10.000Z</time>
      </trkpt>
      <trkpt lat="44.55337" lon="4.74458">
        <ele>78.91</ele>
        <time>2019-05-27T12:29:15.000Z</time>
      </trkpt>
      <trkpt lat="44.55328" lon="4.74497">
        <ele>78.1</ele>
        <time>2019-05-27T12:29:20.000Z</time>
      </trkpt>
      <trkpt lat="44.5532" lon="4.7454">
        <ele>78.86</ele>
        <time>2019-05-27T12:29:25.000Z</time>
      </trkpt>
      <trkpt lat="44.55314" lon="4.74583">
        <ele>83.67</ele>
        <time>2019-05-27T12:29:30.000Z</time>
      </trkpt>
      <trkpt lat="44.55303" lon="4.74623">
        <ele>79.33</ele>
        <time>2019-05-27T12:29:35.000Z</time>
      </trkpt>
      <trkpt lat="44.55293" lon="4.74662">
        <ele>82.06</ele>
        <time>2019-05-27T12:29:40.000Z</time>
      </trkpt>
      <trkpt lat="44.55285" lon="4.74699">
        <ele>80.92</ele>
        <time>2019-05-27T12:29:45.000Z</time>
      </trkpt>
      <trkpt lat="44.55278" lon="4.74733">
        <ele>81.67</ele>
        <time>2019-05-27T12:29:50.000Z</time>
      </trkpt>
      <trkpt lat="44.55271" lon="4.74758">
        <ele>81.18</ele>
        <time>2019-05-27T12:29:55.000Z</time>
      </trkpt>
      <trkpt lat="44.55264" lon="4.74785">
        <ele>83.1</ele>
        <time>2019-05-27T12:30:00.000Z</time>
      </trkpt>
      <trkpt lat="44.55254" lon="4.74797">
        <ele>85.04</ele>
        <time>2019-05-27T12:30:05.000Z</time>
      </trkpt>
      <trkpt lat="44.55248" lon="4.74825">
        <ele>88.12</ele>
        <time>2019-05-27T12:30:10.000Z</time>
      </trkpt>
      <trkpt lat="44.55249" lon="4.74866">
        <ele>86.92</ele>
        <time>2019-05-27T12:30:15.000Z</time>
      </trkpt>
      <trkpt lat="44.55255" lon="4.74901">
        <ele>84.19</ele>
        <time>2019-05-27T12:30:20.000Z</time>
      </trkpt>
      <trkpt lat="44.55267" lon="4.74934">
        <ele>84.11</ele>
        <time>2019-05-27T12:30:25.000Z</time>
      </trkpt>
      <trkpt lat="44.55281" lon="4.74963">
        <ele>84.11</ele>
        <time>2019-05-27T12:30:30.000Z</time>
      </trkpt>
      <trkpt lat="44.55299" lon="4.74988">
        <ele>83.11</ele>
        <time>2019-05-27T12:30:35.000Z</time>
      </trkpt>
      <trkpt lat="44.55315" lon="4.75014">
        <ele>81.12</ele>
        <time>2019-05-27T12:30:40.000Z</time>
      </trkpt>
      <trkpt lat="44.55335" lon="4.75036">
        <ele>82.56</ele>
        <time>2019-05-27T12:30:45.000Z</time>
      </trkpt>
      <trkpt lat="44.55353" lon="4.75057">
        <ele>82.11</ele>
        <time>2019-05-27T12:30:50.000Z</time>
      </trkpt>
      <trkpt lat="44.55372" lon="4.75075">
        <ele>82.11</ele>
        <time>2019-05-27T12:30:55.000Z</time>
      </trkpt>
      <trkpt lat="44.55388" lon="4.75094">
        <ele>81.17</ele>
        <time>2019-05-27T12:31:00.000Z</time>
      </trkpt>
      <trkpt lat="44.55407" lon="4.75113">
        <ele>83.04</ele>
        <time>2019-05-27T12:31:05.000Z</time>
      </trkpt>
      <trkpt lat="44.55426" lon="4.75133">
        <ele>82.18</ele>
        <time>2019-05-27T12:31:10.000Z</time>
      </trkpt>
      <trkpt lat="44.55445" lon="4.75152">
        <ele>81.36</ele>
        <time>2019-05-27T12:31:15.000Z</time>
      </trkpt>
      <trkpt lat="44.55465" lon="4.75173">
        <ele>82.04</ele>
        <time>2019-05-27T12:31:20.000Z</time>
      </trkpt>
      <trkpt lat="44.55485" lon="4.75192">
        <ele>81.36</ele>
        <time>2019-05-27T12:31:25.000Z</time>
      </trkpt>
      <trkpt lat="44.55504" lon="4.75211">
        <ele>81.11</ele>
        <time>2019-05-27T12:31:30.000Z</time>
      </trkpt>
      <trkpt lat="44.55524" lon="4.75233">
        <ele>81.34</ele>
        <time>2019-05-27T12:31:35.000Z</time>
      </trkpt>
      <trkpt lat="44.55545" lon="4.75253">
        <ele>81.86</ele>
        <time>2019-05-27T12:31:40.000Z</time>
      </trkpt>
      <trkpt lat="44.55564" lon="4.75272">
        <ele>81.11</ele>
        <time>2019-05-27T12:31:45.000Z</time>
      </trkpt>
      <trkpt lat="44.55583" lon="4.75291">
        <ele>81.35</ele>
        <time>2019-05-27T12:31:50.000Z</time>
      </trkpt>
      <trkpt lat="44.55602" lon="4.75308">
        <ele>82.1</ele>
        <time>2019-05-27T12:31:55.000Z</time>
      </trkpt>
      <trkpt lat="44.5562" lon="4.75326">
        <ele>82.1</ele>
        <time>2019-05-27T12:32:00.000Z</time>
      </trkpt>
      <trkpt lat="44.55638" lon="4.75345">
        <ele>81.35</ele>
        <time>2019-05-27T12:32:05.000Z</time>
      </trkpt>
      <trkpt lat="44.55657" lon="4.75365">
        <ele>80.91</ele>
        <time>2019-05-27T12:32:10.000Z</time>
      </trkpt>
      <trkpt lat="44.55676" lon="4.75382">
        <ele>82.35</ele>
        <time>2019-05-27T12:32:15.000Z</time>
      </trkpt>
      <trkpt lat="44.55692" lon="4.75395">
        <ele>82.9</ele>
        <time>2019-05-27T12:32:20.000Z</time>
      </trkpt>
      <trkpt lat="44.55704" lon="4.75404">
        <ele>85.27</ele>
        <time>2019-05-27T12:32:25.000Z</time>
      </trkpt>
      <trkpt lat="44.55714" lon="4.75411">
        <ele>85.15</ele>
        <time>2019-05-27T12:32:30.000Z</time>
      </trkpt>
      <trkpt lat="44.55725" lon="4.75422">
        <ele>87.79</ele>
        <time>2019-05-27T12:32:35.000Z</time>
      </trkpt>
      <trkpt lat="44.55737" lon="4.75416">
        <ele>87.04</ele>
        <time>2019-05-27T12:32:54.000Z</time>
      </trkpt>
      <trkpt lat="44.5575" lon="4.75401">
        <ele>88.09</ele>
        <time>2019-05-27T12:32:59.000Z</time>
      </trkpt>
      <trkpt lat="44.55759" lon="4.75383">
        <ele>88.29</ele>
        <time>2019-05-27T12:33:04.000Z</time>
      </trkpt>
      <trkpt lat="44.55766" lon="4.75363">
        <ele>87.12</ele>
        <time>2019-05-27T12:33:09.000Z</time>
      </trkpt>
      <trkpt lat="44.55772" lon="4.75338">
        <ele>87.1</ele>
        <time>2019-05-27T12:33:14.000Z</time>
      </trkpt>
      <trkpt lat="44.55782" lon="4.75314">
        <ele>88.6</ele>
        <time>2019-05-27T12:33:19.000Z</time>
      </trkpt>
      <trkpt lat="44.55788" lon="4.75301">
        <ele>92.03</ele>
        <time>2019-05-27T12:33:25.000Z</time>
      </trkpt>
      <trkpt lat="44.55797" lon="4.75308">
        <ele>89.92</ele>
        <time>2019-05-27T12:33:30.000Z</time>
      </trkpt>
      <trkpt lat="44.55788" lon="4.75298">
        <ele>87.1</ele>
        <time>2019-05-27T12:33:45.000Z</time>
      </trkpt>
      <trkpt lat="44.55771" lon="4.7528">
        <ele>89.03</ele>
        <time>2019-05-27T12:33:50.000Z</time>
      </trkpt>
      <trkpt lat="44.5576" lon="4.75265">
        <ele>89.11</ele>
        <time>2019-05-27T12:33:55.000Z</time>
      </trkpt>
      <trkpt lat="44.5575" lon="4.75247">
        <ele>89.11</ele>
        <time>2019-05-27T12:34:00.000Z</time>
      </trkpt>
      <trkpt lat="44.55747" lon="4.75234">
        <ele>90.98</ele>
        <time>2019-05-27T12:34:10.000Z</time>
      </trkpt>
      <trkpt lat="44.55752" lon="4.75211">
        <ele>93.85</ele>
        <time>2019-05-27T12:34:15.000Z</time>
      </trkpt>
      <trkpt lat="44.55753" lon="4.75186">
        <ele>90.07</ele>
        <time>2019-05-27T12:34:20.000Z</time>
      </trkpt>
      <trkpt lat="44.55758" lon="4.75159">
        <ele>92.1</ele>
        <time>2019-05-27T12:34:25.000Z</time>
      </trkpt>
      <trkpt lat="44.55758" lon="4.75129">
        <ele>89.04</ele>
        <time>2019-05-27T12:34:30.000Z</time>
      </trkpt>
      <trkpt lat="44.55761" lon="4.75107">
        <ele>91.11</ele>
        <time>2019-05-27T12:34:35.000Z</time>
      </trkpt>
      <trkpt lat="44.55775" lon="4.75079">
        <ele>89.09</ele>
        <time>2019-05-27T12:34:40.000Z</time>
      </trkpt>
      <trkpt lat="44.55774" lon="4.75063">
        <ele>87.34</ele>
        <time>2019-05-27T12:34:45.000Z</time>
      </trkpt>
      <trkpt lat="44.55783" lon="4.75066">
        <ele>88.9</ele>
        <time>2019-05-27T12:34:51.000Z</time>
      </trkpt>
      <trkpt lat="44.55799" lon="4.75074">
        <ele>89.96</ele>
        <time>2019-05-27T12:34:56.000Z</time>
      </trkpt>
      <trkpt lat="44.55813" lon="4.75078">
        <ele>92.29</ele>
        <time>2019-05-27T12:35:01.000Z</time>
      </trkpt>
      <trkpt lat="44.55822" lon="4.75083">
        <ele>89.37</ele>
        <time>2019-05-27T12:35:06.000Z</time>
      </trkpt>
      <trkpt lat="44.55831" lon="4.75089">
        <ele>89.05</ele>
        <time>2019-05-27T12:35:11.000Z</time>
      </trkpt>
      <trkpt lat="44.55845" lon="4.75092">
        <ele>89.21</ele>
        <time>2019-05-27T12:35:16.000Z</time>
      </trkpt>
      <trkpt lat="44.5586" lon="4.75093">
        <ele>90.1</ele>
        <time>2019-05-27T12:35:21.000Z</time>
      </trkpt>
      <trkpt lat="44.55878" lon="4.75101">
        <ele>89.04</ele>
        <time>2019-05-27T12:35:26.000Z</time>
      </trkpt>
      <trkpt lat="44.55893" lon="4.7511">
        <ele>90.9</ele>
        <time>2019-05-27T12:35:31.000Z</time>
      </trkpt>
      <trkpt lat="44.5591" lon="4.75118">
        <ele>90.1</ele>
        <time>2019-05-27T12:35:36.000Z</time>
      </trkpt>
      <trkpt lat="44.55921" lon="4.75117">
        <ele>93.97</ele>
        <time>2019-05-27T12:35:41.000Z</time>
      </trkpt>
      <trkpt lat="44.55933" lon="4.75123">
        <ele>93.09</ele>
        <time>2019-05-27T12:35:46.000Z</time>
      </trkpt>
      <trkpt lat="44.55943" lon="4.75125">
        <ele>95.33</ele>
        <time>2019-05-27T12:35:51.000Z</time>
      </trkpt>
      <trkpt lat="44.55946" lon="4.75137">
        <ele>91.94</ele>
        <time>2019-05-27T12:35:57.000Z</time>
      </trkpt>
      <trkpt lat="44.55944" lon="4.75157">
        <ele>90.11</ele>
        <time>2019-05-27T12:36:02.000Z</time>
      </trkpt>
      <trkpt lat="44.55938" lon="4.75174">
        <ele>88.12</ele>
        <time>2019-05-27T12:36:07.000Z</time>
      </trkpt>
      <trkpt lat="44.55925" lon="4.7517">
        <ele>88.1</ele>
        <time>2019-05-27T12:36:12.000Z</time>
      </trkpt>
      <trkpt lat="44.5591" lon="4.75168">
        <ele>90.77</ele>
        <time>2019-05-27T12:36:17.000Z</time>
      </trkpt>
      <trkpt lat="44.559" lon="4.75157">
        <ele>92.1</ele>
        <time>2019-05-27T12:36:22.000Z</time>
      </trkpt>
      <trkpt lat="44.55904" lon="4.75144">
        <ele>90.24</ele>
        <time>2019-05-27T12:36:27.000Z</time>
      </trkpt>
      <trkpt lat="44.55911" lon="4.75127">
        <ele>90.1</ele>
        <time>2019-05-27T12:36:32.000Z</time>
      </trkpt>
      <trkpt lat="44.55915" lon="4.75112">
        <ele>88.6</ele>
        <time>2019-05-27T12:36:37.000Z</time>
      </trkpt>
      <trkpt lat="44.55917" lon="4.75097">
        <ele>86.77</ele>
        <time>2019-05-27T12:36:43.000Z</time>
      </trkpt>
      <trkpt lat="44.55919" lon="4.75078">
        <ele>85.3</ele>
        <time>2019-05-27T12:36:48.000Z</time>
      </trkpt>
      <trkpt lat="44.55929" lon="4.75069">
        <ele>87.13</ele>
        <time>2019-05-27T12:36:53.000Z</time>
      </trkpt>
      <trkpt lat="44.55922" lon="4.7508">
        <ele>82.27</ele>
        <time>2019-05-27T12:38:20.000Z</time>
      </trkpt>
      <trkpt lat="44.55931" lon="4.75074">
        <ele>77.77</ele>
        <time>2019-05-27T12:42:07.000Z</time>
      </trkpt>
      <trkpt lat="44.55941" lon="4.75073">
        <ele>80.79</ele>
        <time>2019-05-27T12:42:12.000Z</time>
      </trkpt>
      <trkpt lat="44.5595" lon="4.75078">
        <ele>85.83</ele>
        <time>2019-05-27T12:42:19.000Z</time>
      </trkpt>
      <trkpt lat="44.55959" lon="4.75072">
        <ele>85.41</ele>
        <time>2019-05-27T12:42:26.000Z</time>
      </trkpt>
      <trkpt lat="44.55971" lon="4.75076">
        <ele>85.11</ele>
        <time>2019-05-27T12:42:31.000Z</time>
      </trkpt>
      <trkpt lat="44.55982" lon="4.75085">
        <ele>83.12</ele>
        <time>2019-05-27T12:42:36.000Z</time>
      </trkpt>
      <trkpt lat="44.55999" lon="4.75093">
        <ele>85.05</ele>
        <time>2019-05-27T12:42:41.000Z</time>
      </trkpt>
      <trkpt lat="44.56015" lon="4.751">
        <ele>87.27</ele>
        <time>2019-05-27T12:42:46.000Z</time>
      </trkpt>
      <trkpt lat="44.56029" lon="4.75106">
        <ele>85.23</ele>
        <time>2019-05-27T12:42:51.000Z</time>
      </trkpt>
      <trkpt lat="44.56044" lon="4.75115">
        <ele>88.07</ele>
        <time>2019-05-27T12:42:56.000Z</time>
      </trkpt>
      <trkpt lat="44.56057" lon="4.75117">
        <ele>84.27</ele>
        <time>2019-05-27T12:43:01.000Z</time>
      </trkpt>
      <trkpt lat="44.56071" lon="4.75121">
        <ele>83.87</ele>
        <time>2019-05-27T12:43:06.000Z</time>
      </trkpt>
      <trkpt lat="44.56082" lon="4.75107">
        <ele>85.16</ele>
        <time>2019-05-27T12:43:11.000Z</time>
      </trkpt>
      <trkpt lat="44.5609" lon="4.75097">
        <ele>87.08</ele>
        <time>2019-05-27T12:43:16.000Z</time>
      </trkpt>
      <trkpt lat="44.56106" lon="4.75113">
        <ele>84.98</ele>
        <time>2019-05-27T12:43:21.000Z</time>
      </trkpt>
      <trkpt lat="44.56119" lon="4.75116">
        <ele>87.94</ele>
        <time>2019-05-27T12:43:26.000Z</time>
      </trkpt>
      <trkpt lat="44.5613" lon="4.75112">
        <ele>87.81</ele>
        <time>2019-05-27T12:44:47.000Z</time>
      </trkpt>
      <trkpt lat="44.56137" lon="4.75103">
        <ele>89.36</ele>
        <time>2019-05-27T12:44:53.000Z</time>
      </trkpt>
      <trkpt lat="44.5613" lon="4.75113">
        <ele>85.13</ele>
        <time>2019-05-27T12:45:08.000Z</time>
      </trkpt>
      <trkpt lat="44.56128" lon="4.75131">
        <ele>83.17</ele>
        <time>2019-05-27T12:45:13.000Z</time>
      </trkpt>
      <trkpt lat="44.56128" lon="4.75151">
        <ele>83.11</ele>
        <time>2019-05-27T12:45:18.000Z</time>
      </trkpt>
      <trkpt lat="44.56121" lon="4.75169">
        <ele>83.85</ele>
        <time>2019-05-27T12:45:23.000Z</time>
      </trkpt>
      <trkpt lat="44.56116" lon="4.75189">
        <ele>87.87</ele>
        <time>2019-05-27T12:45:28.000Z</time>
      </trkpt>
      <trkpt lat="44.56111" lon="4.75207">
        <ele>87.4</ele>
        <time>2019-05-27T12:45:33.000Z</time>
      </trkpt>
      <trkpt lat="44.56107" lon="4.75224">
        <ele>87.34</ele>
        <time>2019-05-27T12:45:38.000Z</time>
      </trkpt>
      <trkpt lat="44.56104" lon="4.75238">
        <ele>86.92</ele>
        <time>2019-05-27T12:45:43.000Z</time>
      </trkpt>
      <trkpt lat="44.56099" lon="4.75252">
        <ele>87.29</ele>
        <time>2019-05-27T12:45:48.000Z</time>
      </trkpt>
      <trkpt lat="44.56094" lon="4.75265">
        <ele>86.87</ele>
        <time>2019-05-27T12:45:53.000Z</time>
      </trkpt>
      <trkpt lat="44.56098" lon="4.75276">
        <ele>95.04</ele>
        <time>2019-05-27T12:46:22.000Z</time>
      </trkpt>
      <trkpt lat="44.56105" lon="4.75285">
        <ele>96.11</ele>
        <time>2019-05-27T12:47:24.000Z</time>
      </trkpt>
      <trkpt lat="44.56128" lon="4.75293">
        <ele>93.99</ele>
        <time>2019-05-27T12:47:29.000Z</time>
      </trkpt>
      <trkpt lat="44.56149" lon="4.75306">
        <ele>93.93</ele>
        <time>2019-05-27T12:47:34.000Z</time>
      </trkpt>
      <trkpt lat="44.5617" lon="4.75322">
        <ele>92.73</ele>
        <time>2019-05-27T12:47:39.000Z</time>
      </trkpt>
      <trkpt lat="44.56192" lon="4.75332">
        <ele>91.16</ele>
        <time>2019-05-27T12:47:44.000Z</time>
      </trkpt>
      <trkpt lat="44.56214" lon="4.75345">
        <ele>91.09</ele>
        <time>2019-05-27T12:47:49.000Z</time>
      </trkpt>
      <trkpt lat="44.56237" lon="4.75357">
        <ele>91.54</ele>
        <time>2019-05-27T12:47:54.000Z</time>
      </trkpt>
      <trkpt lat="44.56259" lon="4.7537">
        <ele>90.11</ele>
        <time>2019-05-27T12:47:59.000Z</time>
      </trkpt>
      <trkpt lat="44.56279" lon="4.75381">
        <ele>89.87</ele>
        <time>2019-05-27T12:48:04.000Z</time>
      </trkpt>
      <trkpt lat="44.56301" lon="4.75391">
        <ele>89.1</ele>
        <time>2019-05-27T12:48:09.000Z</time>
      </trkpt>
      <trkpt lat="44.56323" lon="4.75402">
        <ele>89.15</ele>
        <time>2019-05-27T12:48:14.000Z</time>
      </trkpt>
      <trkpt lat="44.56344" lon="4.75414">
        <ele>88.16</ele>
        <time>2019-05-27T12:48:19.000Z</time>
      </trkpt>
      <trkpt lat="44.56375" lon="4.75428">
        <ele>87.5</ele>
        <time>2019-05-27T14:00:27.000Z</time>
      </trkpt>
      <trkpt lat="44.56374" lon="4.7542">
        <ele>82.85</ele>
        <time>2019-05-27T14:00:32.000Z</time>
      </trkpt>
      <trkpt lat="44.56352" lon="4.75409">
        <ele>81.93</ele>
        <time>2019-05-27T14:00:37.000Z</time>
      </trkpt>
      <trkpt lat="44.56328" lon="4.75395">
        <ele>82.29</ele>
        <time>2019-05-27T14:00:42.000Z</time>
      </trkpt>
      <trkpt lat="44.56303" lon="4.75381">
        <ele>83.1</ele>
        <time>2019-05-27T14:00:47.000Z</time>
      </trkpt>
      <trkpt lat="44.56278" lon="4.75366">
        <ele>83.12</ele>
        <time>2019-05-27T14:00:52.000Z</time>
      </trkpt>
      <trkpt lat="44.56251" lon="4.75351">
        <ele>82.87</ele>
        <time>2019-05-27T14:00:57.000Z</time>
      </trkpt>
      <trkpt lat="44.56221" lon="4.75337">
        <ele>84.1</ele>
        <time>2019-05-27T14:01:02.000Z</time>
      </trkpt>
      <trkpt lat="44.56192" lon="4.75321">
        <ele>85.85</ele>
        <time>2019-05-27T14:01:07.000Z</time>
      </trkpt>
      <trkpt lat="44.56164" lon="4.75308">
        <ele>86.09</ele>
        <time>2019-05-27T14:01:12.000Z</time>
      </trkpt>
      <trkpt lat="44.56138" lon="4.75293">
        <ele>89.09</ele>
        <time>2019-05-27T14:01:17.000Z</time>
      </trkpt>
      <trkpt lat="44.56113" lon="4.75279">
        <ele>91.35</ele>
        <time>2019-05-27T14:01:22.000Z</time>
      </trkpt>
      <trkpt lat="44.56111" lon="4.75243">
        <ele>89.17</ele>
        <time>2019-05-27T14:01:27.000Z</time>
      </trkpt>
      <trkpt lat="44.56124" lon="4.75194">
        <ele>85.42</ele>
        <time>2019-05-27T14:01:32.000Z</time>
      </trkpt>
      <trkpt lat="44.56136" lon="4.75159">
        <ele>82.17</ele>
        <time>2019-05-27T14:01:37.000Z</time>
      </trkpt>
      <trkpt lat="44.56147" lon="4.75126">
        <ele>80.42</ele>
        <time>2019-05-27T14:01:42.000Z</time>
      </trkpt>
      <trkpt lat="44.56151" lon="4.7508">
        <ele>79.85</ele>
        <time>2019-05-27T14:01:47.000Z</time>
      </trkpt>
      <trkpt lat="44.56148" lon="4.75036">
        <ele>75.39</ele>
        <time>2019-05-27T14:01:52.000Z</time>
      </trkpt>
      <trkpt lat="44.56141" lon="4.74995">
        <ele>74.35</ele>
        <time>2019-05-27T14:01:57.000Z</time>
      </trkpt>
      <trkpt lat="44.56129" lon="4.74954">
        <ele>74.14</ele>
        <time>2019-05-27T14:02:02.000Z</time>
      </trkpt>
      <trkpt lat="44.56119" lon="4.74917">
        <ele>76.04</ele>
        <time>2019-05-27T14:02:07.000Z</time>
      </trkpt>
      <trkpt lat="44.56106" lon="4.74877">
        <ele>78.09</ele>
        <time>2019-05-27T14:02:12.000Z</time>
      </trkpt>
      <trkpt lat="44.56093" lon="4.74842">
        <ele>78.85</ele>
        <time>2019-05-27T14:02:17.000Z</time>
      </trkpt>
      <trkpt lat="44.5607" lon="4.74819">
        <ele>76.06</ele>
        <time>2019-05-27T14:02:22.000Z</time>
      </trkpt>
      <trkpt lat="44.56052" lon="4.7481">
        <ele>77.36</ele>
        <time>2019-05-27T14:02:27.000Z</time>
      </trkpt>
      <trkpt lat="44.56048" lon="4.74799">
        <ele>76.1</ele>
        <time>2019-05-27T14:02:32.000Z</time>
      </trkpt>
      <trkpt lat="44.56028" lon="4.7479">
        <ele>76.13</ele>
        <time>2019-05-27T14:02:37.000Z</time>
      </trkpt>
      <trkpt lat="44.56007" lon="4.7479">
        <ele>76.04</ele>
        <time>2019-05-27T14:02:42.000Z</time>
      </trkpt>
      <trkpt lat="44.55982" lon="4.74789">
        <ele>78.17</ele>
        <time>2019-05-27T14:02:47.000Z</time>
      </trkpt>
      <trkpt lat="44.55957" lon="4.74788">
        <ele>76.17</ele>
        <time>2019-05-27T14:02:52.000Z</time>
      </trkpt>
      <trkpt lat="44.55931" lon="4.74788">
        <ele>75.35</ele>
        <time>2019-05-27T14:02:57.000Z</time>
      </trkpt>
      <trkpt lat="44.55905" lon="4.74784">
        <ele>79.05</ele>
        <time>2019-05-27T14:03:02.000Z</time>
      </trkpt>
      <trkpt lat="44.55879" lon="4.74785">
        <ele>80.1</ele>
        <time>2019-05-27T14:03:07.000Z</time>
      </trkpt>
      <trkpt lat="44.55857" lon="4.74783">
        <ele>81.07</ele>
        <time>2019-05-27T14:03:12.000Z</time>
      </trkpt>
      <trkpt lat="44.55842" lon="4.74786">
        <ele>81.11</ele>
        <time>2019-05-27T14:03:20.000Z</time>
      </trkpt>
      <trkpt lat="44.55831" lon="4.74787">
        <ele>82.11</ele>
        <time>2019-05-27T14:03:27.000Z</time>
      </trkpt>
      <trkpt lat="44.55823" lon="4.74781">
        <ele>82.09</ele>
        <time>2019-05-27T14:03:32.000Z</time>
      </trkpt>
      <trkpt lat="44.55794" lon="4.7477">
        <ele>82.1</ele>
        <time>2019-05-27T14:03:37.000Z</time>
      </trkpt>
      <trkpt lat="44.55771" lon="4.74768">
        <ele>80.35</ele>
        <time>2019-05-27T14:03:42.000Z</time>
      </trkpt>
      <trkpt lat="44.55745" lon="4.74763">
        <ele>78.17</ele>
        <time>2019-05-27T14:03:47.000Z</time>
      </trkpt>
      <trkpt lat="44.5572" lon="4.74756">
        <ele>78.06</ele>
        <time>2019-05-27T14:03:52.000Z</time>
      </trkpt>
      <trkpt lat="44.55696" lon="4.74748">
        <ele>77.15</ele>
        <time>2019-05-27T14:03:57.000Z</time>
      </trkpt>
      <trkpt lat="44.55685" lon="4.74744">
        <ele>76.35</ele>
        <time>2019-05-27T14:04:02.000Z</time>
      </trkpt>
      <trkpt lat="44.55669" lon="4.74734">
        <ele>76.87</ele>
        <time>2019-05-27T14:04:07.000Z</time>
      </trkpt>
      <trkpt lat="44.55644" lon="4.74729">
        <ele>77.38</ele>
        <time>2019-05-27T14:04:12.000Z</time>
      </trkpt>
      <trkpt lat="44.55621" lon="4.74756">
        <ele>78.29</ele>
        <time>2019-05-27T14:04:17.000Z</time>
      </trkpt>
      <trkpt lat="44.55611" lon="4.74794">
        <ele>79.1</ele>
        <time>2019-05-27T14:04:22.000Z</time>
      </trkpt>
      <trkpt lat="44.556" lon="4.74827">
        <ele>81.04</ele>
        <time>2019-05-27T14:04:27.000Z</time>
      </trkpt>
      <trkpt lat="44.55586" lon="4.74862">
        <ele>80.92</ele>
        <time>2019-05-27T14:04:32.000Z</time>
      </trkpt>
      <trkpt lat="44.5557" lon="4.74892">
        <ele>83.23</ele>
        <time>2019-05-27T14:04:37.000Z</time>
      </trkpt>
      <trkpt lat="44.55549" lon="4.74914">
        <ele>81.87</ele>
        <time>2019-05-27T14:04:42.000Z</time>
      </trkpt>
      <trkpt lat="44.55531" lon="4.74933">
        <ele>79.88</ele>
        <time>2019-05-27T14:04:47.000Z</time>
      </trkpt>
      <trkpt lat="44.5551" lon="4.74927">
        <ele>80.11</ele>
        <time>2019-05-27T14:04:52.000Z</time>
      </trkpt>
      <trkpt lat="44.55484" lon="4.74917">
        <ele>80.86</ele>
        <time>2019-05-27T14:04:57.000Z</time>
      </trkpt>
      <trkpt lat="44.55457" lon="4.74905">
        <ele>79.36</ele>
        <time>2019-05-27T14:05:02.000Z</time>
      </trkpt>
      <trkpt lat="44.55429" lon="4.74894">
        <ele>80.29</ele>
        <time>2019-05-27T14:05:07.000Z</time>
      </trkpt>
      <trkpt lat="44.55399" lon="4.7488">
        <ele>80.11</ele>
        <time>2019-05-27T14:05:12.000Z</time>
      </trkpt>
      <trkpt lat="44.5537" lon="4.74865">
        <ele>82.04</ele>
        <time>2019-05-27T14:05:17.000Z</time>
      </trkpt>
      <trkpt lat="44.55344" lon="4.74846">
        <ele>83.11</ele>
        <time>2019-05-27T14:05:22.000Z</time>
      </trkpt>
      <trkpt lat="44.55329" lon="4.74823">
        <ele>85.03</ele>
        <time>2019-05-27T14:05:43.000Z</time>
      </trkpt>
      <trkpt lat="44.55321" lon="4.74818">
        <ele>86.1</ele>
        <time>2019-05-27T14:05:48.000Z</time>
      </trkpt>
      <trkpt lat="44.55301" lon="4.74827">
        <ele>84.36</ele>
        <time>2019-05-27T14:05:53.000Z</time>
      </trkpt>
      <trkpt lat="44.55282" lon="4.74832">
        <ele>84.11</ele>
        <time>2019-05-27T14:05:58.000Z</time>
      </trkpt>
      <trkpt lat="44.55275" lon="4.74814">
        <ele>83.43</ele>
        <time>2019-05-27T14:06:03.000Z</time>
      </trkpt>
      <trkpt lat="44.55276" lon="4.74781">
        <ele>81.36</ele>
        <time>2019-05-27T14:06:08.000Z</time>
      </trkpt>
      <trkpt lat="44.55283" lon="4.74734">
        <ele>79.22</ele>
        <time>2019-05-27T14:06:13.000Z</time>
      </trkpt>
      <trkpt lat="44.55295" lon="4.74682">
        <ele>79.3</ele>
        <time>2019-05-27T14:06:18.000Z</time>
      </trkpt>
      <trkpt lat="44.55305" lon="4.74633">
        <ele>78.12</ele>
        <time>2019-05-27T14:06:23.000Z</time>
      </trkpt>
      <trkpt lat="44.55315" lon="4.74584">
        <ele>77.1</ele>
        <time>2019-05-27T14:06:28.000Z</time>
      </trkpt>
      <trkpt lat="44.55325" lon="4.74537">
        <ele>77.06</ele>
        <time>2019-05-27T14:06:33.000Z</time>
      </trkpt>
      <trkpt lat="44.55334" lon="4.74488">
        <ele>77.9</ele>
        <time>2019-05-27T14:06:38.000Z</time>
      </trkpt>
      <trkpt lat="44.55344" lon="4.74441">
        <ele>77.54</ele>
        <time>2019-05-27T14:06:43.000Z</time>
      </trkpt>
      <trkpt lat="44.55354" lon="4.74399">
        <ele>74.42</ele>
        <time>2019-05-27T14:06:48.000Z</time>
      </trkpt>
      <trkpt lat="44.55363" lon="4.74353">
        <ele>74.85</ele>
        <time>2019-05-27T14:06:53.000Z</time>
      </trkpt>
      <trkpt lat="44.55369" lon="4.74307">
        <ele>75.85</ele>
        <time>2019-05-27T14:06:58.000Z</time>
      </trkpt>
      <trkpt lat="44.55372" lon="4.74259">
        <ele>75.16</ele>
        <time>2019-05-27T14:07:03.000Z</time>
      </trkpt>
      <trkpt lat="44.55375" lon="4.74213">
        <ele>74.1</ele>
        <time>2019-05-27T14:07:08.000Z</time>
      </trkpt>
      <trkpt lat="44.55379" lon="4.74169">
        <ele>74.09</ele>
        <time>2019-05-27T14:07:13.000Z</time>
      </trkpt>
      <trkpt lat="44.55381" lon="4.74126">
        <ele>74.1</ele>
        <time>2019-05-27T14:07:18.000Z</time>
      </trkpt>
      <trkpt lat="44.55384" lon="4.7408">
        <ele>75.05</ele>
        <time>2019-05-27T14:07:23.000Z</time>
      </trkpt>
      <trkpt lat="44.55387" lon="4.74035">
        <ele>74.35</ele>
        <time>2019-05-27T14:07:28.000Z</time>
      </trkpt>
      <trkpt lat="44.55398" lon="4.73995">
        <ele>73.11</ele>
        <time>2019-05-27T14:07:33.000Z</time>
      </trkpt>
      <trkpt lat="44.55402" lon="4.73957">
        <ele>73.1</ele>
        <time>2019-05-27T14:07:38.000Z</time>
      </trkpt>
      <trkpt lat="44.55405" lon="4.73918">
        <ele>73.1</ele>
        <time>2019-05-27T14:07:43.000Z</time>
      </trkpt>
      <trkpt lat="44.55411" lon="4.73876">
        <ele>74.1</ele>
        <time>2019-05-27T14:07:48.000Z</time>
      </trkpt>
      <trkpt lat="44.55418" lon="4.73833">
        <ele>73.35</ele>
        <time>2019-05-27T14:07:53.000Z</time>
      </trkpt>
      <trkpt lat="44.55427" lon="4.73789">
        <ele>73.15</ele>
        <time>2019-05-27T14:07:58.000Z</time>
      </trkpt>
      <trkpt lat="44.55438" lon="4.73749">
        <ele>74.09</ele>
        <time>2019-05-27T14:08:03.000Z</time>
      </trkpt>
      <trkpt lat="44.55451" lon="4.7371">
        <ele>75.28</ele>
        <time>2019-05-27T14:08:08.000Z</time>
      </trkpt>
      <trkpt lat="44.55468" lon="4.73681">
        <ele>76.03</ele>
        <time>2019-05-27T14:08:13.000Z</time>
      </trkpt>
      <trkpt lat="44.5546" lon="4.73672">
        <ele>74.41</ele>
        <time>2019-05-27T14:08:18.000Z</time>
      </trkpt>
      <trkpt lat="44.55467" lon="4.73641">
        <ele>74.84</ele>
        <time>2019-05-27T14:08:23.000Z</time>
      </trkpt>
      <trkpt lat="44.55485" lon="4.73617">
        <ele>75.09</ele>
        <time>2019-05-27T14:08:28.000Z</time>
      </trkpt>
      <trkpt lat="44.55497" lon="4.73584">
        <ele>75.28</ele>
        <time>2019-05-27T14:08:33.000Z</time>
      </trkpt>
      <trkpt lat="44.55507" lon="4.73545">
        <ele>76.09</ele>
        <time>2019-05-27T14:08:38.000Z</time>
      </trkpt>
      <trkpt lat="44.55515" lon="4.73503">
        <ele>75.89</ele>
        <time>2019-05-27T14:08:43.000Z</time>
      </trkpt>
      <trkpt lat="44.55523" lon="4.73459">
        <ele>75.15</ele>
        <time>2019-05-27T14:08:48.000Z</time>
      </trkpt>
      <trkpt lat="44.55528" lon="4.73415">
        <ele>76.04</ele>
        <time>2019-05-27T14:08:53.000Z</time>
      </trkpt>
      <trkpt lat="44.55531" lon="4.73371">
        <ele>76.09</ele>
        <time>2019-05-27T14:08:58.000Z</time>
      </trkpt>
      <trkpt lat="44.55533" lon="4.73326">
        <ele>75.09</ele>
        <time>2019-05-27T14:09:03.000Z</time>
      </trkpt>
      <trkpt lat="44.55532" lon="4.73282">
        <ele>73.34</ele>
        <time>2019-05-27T14:09:08.000Z</time>
      </trkpt>
      <trkpt lat="44.55531" lon="4.73237">
        <ele>73.32</ele>
        <time>2019-05-27T14:09:13.000Z</time>
      </trkpt>
      <trkpt lat="44.5553" lon="4.7319">
        <ele>73.09</ele>
        <time>2019-05-27T14:09:18.000Z</time>
      </trkpt>
      <trkpt lat="44.55526" lon="4.73142">
        <ele>73.09</ele>
        <time>2019-05-27T14:09:23.000Z</time>
      </trkpt>
      <trkpt lat="44.55521" lon="4.73094">
        <ele>74.08</ele>
        <time>2019-05-27T14:09:28.000Z</time>
      </trkpt>
      <trkpt lat="44.55512" lon="4.73048">
        <ele>74.09</ele>
        <time>2019-05-27T14:09:33.000Z</time>
      </trkpt>
      <trkpt lat="44.5551" lon="4.73002">
        <ele>74.84</ele>
        <time>2019-05-27T14:09:38.000Z</time>
      </trkpt>
      <trkpt lat="44.55512" lon="4.72973">
        <ele>75.14</ele>
        <time>2019-05-27T14:09:43.000Z</time>
      </trkpt>
      <trkpt lat="44.55505" lon="4.72936">
        <ele>74.1</ele>
        <time>2019-05-27T14:09:48.000Z</time>
      </trkpt>
      <trkpt lat="44.55493" lon="4.72898">
        <ele>74.09</ele>
        <time>2019-05-27T14:09:53.000Z</time>
      </trkpt>
      <trkpt lat="44.55479" lon="4.72858">
        <ele>74.33</ele>
        <time>2019-05-27T14:09:58.000Z</time>
      </trkpt>
      <trkpt lat="44.55466" lon="4.72818">
        <ele>74.15</ele>
        <time>2019-05-27T14:10:03.000Z</time>
      </trkpt>
      <trkpt lat="44.55449" lon="4.72778">
        <ele>75.07</ele>
        <time>2019-05-27T14:10:08.000Z</time>
      </trkpt>
      <trkpt lat="44.5543" lon="4.72737">
        <ele>75.07</ele>
        <time>2019-05-27T14:10:13.000Z</time>
      </trkpt>
      <trkpt lat="44.5541" lon="4.72695">
        <ele>74.1</ele>
        <time>2019-05-27T14:10:18.000Z</time>
      </trkpt>
      <trkpt lat="44.55389" lon="4.72654">
        <ele>74.08</ele>
        <time>2019-05-27T14:10:23.000Z</time>
      </trkpt>
      <trkpt lat="44.55369" lon="4.72614">
        <ele>75.07</ele>
        <time>2019-05-27T14:10:28.000Z</time>
      </trkpt>
      <trkpt lat="44.55349" lon="4.72573">
        <ele>76.07</ele>
        <time>2019-05-27T14:10:33.000Z</time>
      </trkpt>
      <trkpt lat="44.55328" lon="4.72532">
        <ele>75.09</ele>
        <time>2019-05-27T14:10:38.000Z</time>
      </trkpt>
      <trkpt lat="44.55309" lon="4.72493">
        <ele>75.08</ele>
        <time>2019-05-27T14:10:43.000Z</time>
      </trkpt>
      <trkpt lat="44.55291" lon="4.72455">
        <ele>75.1</ele>
        <time>2019-05-27T14:10:48.000Z</time>
      </trkpt>
      <trkpt lat="44.55273" lon="4.72417">
        <ele>76.07</ele>
        <time>2019-05-27T14:10:53.000Z</time>
      </trkpt>
      <trkpt lat="44.55254" lon="4.72379">
        <ele>75.08</ele>
        <time>2019-05-27T14:10:58.000Z</time>
      </trkpt>
      <trkpt lat="44.55236" lon="4.72342">
        <ele>76.08</ele>
        <time>2019-05-27T14:11:03.000Z</time>
      </trkpt>
      <trkpt lat="44.55219" lon="4.72304">
        <ele>74.29</ele>
        <time>2019-05-27T14:11:08.000Z</time>
      </trkpt>
      <trkpt lat="44.55199" lon="4.72264">
        <ele>74.08</ele>
        <time>2019-05-27T14:11:13.000Z</time>
      </trkpt>
      <trkpt lat="44.5518" lon="4.72225">
        <ele>75.08</ele>
        <time>2019-05-27T14:11:18.000Z</time>
      </trkpt>
      <trkpt lat="44.55161" lon="4.72187">
        <ele>76.02</ele>
        <time>2019-05-27T14:11:23.000Z</time>
      </trkpt>
      <trkpt lat="44.55143" lon="4.72151">
        <ele>76.08</ele>
        <time>2019-05-27T14:11:28.000Z</time>
      </trkpt>
      <trkpt lat="44.55126" lon="4.72113">
        <ele>76.08</ele>
        <time>2019-05-27T14:11:33.000Z</time>
      </trkpt>
      <trkpt lat="44.55107" lon="4.72074">
        <ele>76.08</ele>
        <time>2019-05-27T14:11:38.000Z</time>
      </trkpt>
      <trkpt lat="44.55088" lon="4.72035">
        <ele>76.06</ele>
        <time>2019-05-27T14:11:43.000Z</time>
      </trkpt>
      <trkpt lat="44.55069" lon="4.71997">
        <ele>75.08</ele>
        <time>2019-05-27T14:11:48.000Z</time>
      </trkpt>
      <trkpt lat="44.5505" lon="4.71959">
        <ele>75.14</ele>
        <time>2019-05-27T14:11:53.000Z</time>
      </trkpt>
      <trkpt lat="44.55032" lon="4.71919">
        <ele>76.06</ele>
        <time>2019-05-27T14:11:58.000Z</time>
      </trkpt>
      <trkpt lat="44.55013" lon="4.7188">
        <ele>76.08</ele>
        <time>2019-05-27T14:12:03.000Z</time>
      </trkpt>
      <trkpt lat="44.54988" lon="4.71871">
        <ele>76.08</ele>
        <time>2019-05-27T14:12:08.000Z</time>
      </trkpt>
      <trkpt lat="44.54962" lon="4.71884">
        <ele>76.08</ele>
        <time>2019-05-27T14:12:13.000Z</time>
      </trkpt>
      <trkpt lat="44.54934" lon="4.71899">
        <ele>76.08</ele>
        <time>2019-05-27T14:12:18.000Z</time>
      </trkpt>
      <trkpt lat="44.54904" lon="4.71915">
        <ele>76.08</ele>
        <time>2019-05-27T14:12:23.000Z</time>
      </trkpt>
      <trkpt lat="44.54874" lon="4.71933">
        <ele>76.31</ele>
        <time>2019-05-27T14:12:28.000Z</time>
      </trkpt>
      <trkpt lat="44.54843" lon="4.71952">
        <ele>76.14</ele>
        <time>2019-05-27T14:12:33.000Z</time>
      </trkpt>
      <trkpt lat="44.54812" lon="4.71974">
        <ele>76.08</ele>
        <time>2019-05-27T14:12:38.000Z</time>
      </trkpt>
      <trkpt lat="44.54783" lon="4.72004">
        <ele>75.08</ele>
        <time>2019-05-27T14:12:43.000Z</time>
      </trkpt>
      <trkpt lat="44.54752" lon="4.72032">
        <ele>74.09</ele>
        <time>2019-05-27T14:12:48.000Z</time>
      </trkpt>
      <trkpt lat="44.5472" lon="4.72053">
        <ele>74.33</ele>
        <time>2019-05-27T14:12:53.000Z</time>
      </trkpt>
      <trkpt lat="44.54686" lon="4.72074">
        <ele>75.08</ele>
        <time>2019-05-27T14:12:58.000Z</time>
      </trkpt>
      <trkpt lat="44.54652" lon="4.72093">
        <ele>75.08</ele>
        <time>2019-05-27T14:13:03.000Z</time>
      </trkpt>
      <trkpt lat="44.54619" lon="4.72112">
        <ele>74.09</ele>
        <time>2019-05-27T14:13:08.000Z</time>
      </trkpt>
      <trkpt lat="44.54585" lon="4.72131">
        <ele>74.08</ele>
        <time>2019-05-27T14:13:13.000Z</time>
      </trkpt>
      <trkpt lat="44.54552" lon="4.7215">
        <ele>74.15</ele>
        <time>2019-05-27T14:13:18.000Z</time>
      </trkpt>
      <trkpt lat="44.54522" lon="4.72167">
        <ele>74.08</ele>
        <time>2019-05-27T14:13:23.000Z</time>
      </trkpt>
      <trkpt lat="44.54492" lon="4.72184">
        <ele>74.13</ele>
        <time>2019-05-27T14:13:28.000Z</time>
      </trkpt>
      <trkpt lat="44.54461" lon="4.72202">
        <ele>74.09</ele>
        <time>2019-05-27T14:13:33.000Z</time>
      </trkpt>
      <trkpt lat="44.54429" lon="4.7222">
        <ele>75.08</ele>
        <time>2019-05-27T14:13:38.000Z</time>
      </trkpt>
      <trkpt lat="44.54395" lon="4.72237">
        <ele>75.08</ele>
        <time>2019-05-27T14:13:43.000Z</time>
      </trkpt>
      <trkpt lat="44.54363" lon="4.72257">
        <ele>75.09</ele>
        <time>2019-05-27T14:13:48.000Z</time>
      </trkpt>
      <trkpt lat="44.5433" lon="4.72276">
        <ele>75.09</ele>
        <time>2019-05-27T14:13:53.000Z</time>
      </trkpt>
      <trkpt lat="44.54297" lon="4.72295">
        <ele>75.09</ele>
        <time>2019-05-27T14:13:58.000Z</time>
      </trkpt>
      <trkpt lat="44.54264" lon="4.72313">
        <ele>76.09</ele>
        <time>2019-05-27T14:14:03.000Z</time>
      </trkpt>
      <trkpt lat="44.54231" lon="4.72331">
        <ele>75.89</ele>
        <time>2019-05-27T14:14:08.000Z</time>
      </trkpt>
      <trkpt lat="44.54197" lon="4.72351">
        <ele>76.09</ele>
        <time>2019-05-27T14:14:13.000Z</time>
      </trkpt>
      <trkpt lat="44.54162" lon="4.72371">
        <ele>76.84</ele>
        <time>2019-05-27T14:14:18.000Z</time>
      </trkpt>
      <trkpt lat="44.54125" lon="4.72391">
        <ele>77.09</ele>
        <time>2019-05-27T14:14:23.000Z</time>
      </trkpt>
      <trkpt lat="44.5409" lon="4.72413">
        <ele>76.34</ele>
        <time>2019-05-27T14:14:28.000Z</time>
      </trkpt>
      <trkpt lat="44.54054" lon="4.72432">
        <ele>76.09</ele>
        <time>2019-05-27T14:14:33.000Z</time>
      </trkpt>
      <trkpt lat="44.54018" lon="4.72452">
        <ele>76.84</ele>
        <time>2019-05-27T14:14:38.000Z</time>
      </trkpt>
      <trkpt lat="44.53983" lon="4.72472">
        <ele>77.03</ele>
        <time>2019-05-27T14:14:43.000Z</time>
      </trkpt>
      <trkpt lat="44.53947" lon="4.72492">
        <ele>76.1</ele>
        <time>2019-05-27T14:14:48.000Z</time>
      </trkpt>
      <trkpt lat="44.53911" lon="4.72512">
        <ele>77.08</ele>
        <time>2019-05-27T14:14:53.000Z</time>
      </trkpt>
      <trkpt lat="44.53878" lon="4.72532">
        <ele>76.1</ele>
        <time>2019-05-27T14:14:58.000Z</time>
      </trkpt>
      <trkpt lat="44.53846" lon="4.72551">
        <ele>75.28</ele>
        <time>2019-05-27T14:15:03.000Z</time>
      </trkpt>
      <trkpt lat="44.53814" lon="4.72571">
        <ele>75.1</ele>
        <time>2019-05-27T14:15:08.000Z</time>
      </trkpt>
      <trkpt lat="44.53781" lon="4.72588">
        <ele>74.34</ele>
        <time>2019-05-27T14:15:13.000Z</time>
      </trkpt>
      <trkpt lat="44.53746" lon="4.72607">
        <ele>75.09</ele>
        <time>2019-05-27T14:15:18.000Z</time>
      </trkpt>
      <trkpt lat="44.53711" lon="4.72626">
        <ele>75.09</ele>
        <time>2019-05-27T14:15:23.000Z</time>
      </trkpt>
      <trkpt lat="44.53677" lon="4.72645">
        <ele>75.09</ele>
        <time>2019-05-27T14:15:28.000Z</time>
      </trkpt>
      <trkpt lat="44.53644" lon="4.72664">
        <ele>75.9</ele>
        <time>2019-05-27T14:15:33.000Z</time>
      </trkpt>
      <trkpt lat="44.53612" lon="4.72681">
        <ele>76.1</ele>
        <time>2019-05-27T14:15:38.000Z</time>
      </trkpt>
      <trkpt lat="44.5358" lon="4.72699">
        <ele>76.11</ele>
        <time>2019-05-27T14:15:43.000Z</time>
      </trkpt>
      <trkpt lat="44.53551" lon="4.72717">
        <ele>77.09</ele>
        <time>2019-05-27T14:15:48.000Z</time>
      </trkpt>
      <trkpt lat="44.53532" lon="4.72736">
        <ele>79.03</ele>
        <time>2019-05-27T14:15:53.000Z</time>
      </trkpt>
      <trkpt lat="44.53521" lon="4.72752">
        <ele>81.02</ele>
        <time>2019-05-27T14:15:58.000Z</time>
      </trkpt>
      <trkpt lat="44.53512" lon="4.72755">
        <ele>83.84</ele>
        <time>2019-05-27T14:16:03.000Z</time>
      </trkpt>
      <trkpt lat="44.53509" lon="4.72737">
        <ele>83.1</ele>
        <time>2019-05-27T14:16:39.000Z</time>
      </trkpt>
      <trkpt lat="44.53505" lon="4.72722">
        <ele>81.35</ele>
        <time>2019-05-27T14:16:44.000Z</time>
      </trkpt>
      <trkpt lat="44.53498" lon="4.7269">
        <ele>81.1</ele>
        <time>2019-05-27T14:16:49.000Z</time>
      </trkpt>
      <trkpt lat="44.53492" lon="4.72657">
        <ele>82.08</ele>
        <time>2019-05-27T14:16:54.000Z</time>
      </trkpt>
      <trkpt lat="44.53483" lon="4.7262">
        <ele>83.03</ele>
        <time>2019-05-27T14:16:59.000Z</time>
      </trkpt>
      <trkpt lat="44.53474" lon="4.72579">
        <ele>83.1</ele>
        <time>2019-05-27T14:17:04.000Z</time>
      </trkpt>
      <trkpt lat="44.53463" lon="4.72535">
        <ele>82.16</ele>
        <time>2019-05-27T14:17:09.000Z</time>
      </trkpt>
      <trkpt lat="44.53453" lon="4.72489">
        <ele>82.14</ele>
        <time>2019-05-27T14:17:14.000Z</time>
      </trkpt>
      <trkpt lat="44.53444" lon="4.72441">
        <ele>81.11</ele>
        <time>2019-05-27T14:17:19.000Z</time>
      </trkpt>
      <trkpt lat="44.53436" lon="4.7239">
        <ele>79.36</ele>
        <time>2019-05-27T14:17:24.000Z</time>
      </trkpt>
      <trkpt lat="44.53427" lon="4.72349">
        <ele>77.16</ele>
        <time>2019-05-27T14:17:29.000Z</time>
      </trkpt>
      <trkpt lat="44.53412" lon="4.72308">
        <ele>75.11</ele>
        <time>2019-05-27T14:17:34.000Z</time>
      </trkpt>
      <trkpt lat="44.53402" lon="4.72301">
        <ele>74.09</ele>
        <time>2019-05-27T14:17:39.000Z</time>
      </trkpt>
      <trkpt lat="44.53388" lon="4.72304">
        <ele>74.09</ele>
        <time>2019-05-27T14:17:45.000Z</time>
      </trkpt>
      <trkpt lat="44.53397" lon="4.72308">
        <ele>75.14</ele>
        <time>2019-05-27T14:17:53.000Z</time>
      </trkpt>
      <trkpt lat="44.53388" lon="4.72304">
        <ele>74.16</ele>
        <time>2019-05-27T14:17:58.000Z</time>
      </trkpt>
      <trkpt lat="44.53367" lon="4.72291">
        <ele>74.09</ele>
        <time>2019-05-27T14:18:03.000Z</time>
      </trkpt>
      <trkpt lat="44.53342" lon="4.72298">
        <ele>74.09</ele>
        <time>2019-05-27T14:18:08.000Z</time>
      </trkpt>
      <trkpt lat="44.53315" lon="4.7231">
        <ele>75.09</ele>
        <time>2019-05-27T14:18:13.000Z</time>
      </trkpt>
      <trkpt lat="44.53286" lon="4.7232">
        <ele>75.09</ele>
        <time>2019-05-27T14:18:18.000Z</time>
      </trkpt>
      <trkpt lat="44.53256" lon="4.72331">
        <ele>74.3</ele>
        <time>2019-05-27T14:18:23.000Z</time>
      </trkpt>
      <trkpt lat="44.53224" lon="4.72342">
        <ele>73.11</ele>
        <time>2019-05-27T14:18:28.000Z</time>
      </trkpt>
      <trkpt lat="44.53191" lon="4.72353">
        <ele>72.85</ele>
        <time>2019-05-27T14:18:33.000Z</time>
      </trkpt>
      <trkpt lat="44.53158" lon="4.72363">
        <ele>72.1</ele>
        <time>2019-05-27T14:18:38.000Z</time>
      </trkpt>
      <trkpt lat="44.53126" lon="4.72373">
        <ele>73.08</ele>
        <time>2019-05-27T14:18:43.000Z</time>
      </trkpt>
      <trkpt lat="44.53094" lon="4.72383">
        <ele>72.11</ele>
        <time>2019-05-27T14:18:48.000Z</time>
      </trkpt>
      <trkpt lat="44.5306" lon="4.72394">
        <ele>73.08</ele>
        <time>2019-05-27T14:18:53.000Z</time>
      </trkpt>
      <trkpt lat="44.53026" lon="4.72404">
        <ele>73.1</ele>
        <time>2019-05-27T14:18:58.000Z</time>
      </trkpt>
      <trkpt lat="44.52991" lon="4.72411">
        <ele>73.85</ele>
        <time>2019-05-27T14:19:03.000Z</time>
      </trkpt>
      <trkpt lat="44.52957" lon="4.72406">
        <ele>75.85</ele>
        <time>2019-05-27T14:19:08.000Z</time>
      </trkpt>
      <trkpt lat="44.52926" lon="4.72393">
        <ele>75.85</ele>
        <time>2019-05-27T14:19:13.000Z</time>
      </trkpt>
      <trkpt lat="44.52892" lon="4.72385">
        <ele>76.1</ele>
        <time>2019-05-27T14:19:18.000Z</time>
      </trkpt>
      <trkpt lat="44.52859" lon="4.72378">
        <ele>76.1</ele>
        <time>2019-05-27T14:19:23.000Z</time>
      </trkpt>
      <trkpt lat="44.52824" lon="4.72371">
        <ele>76.1</ele>
        <time>2019-05-27T14:19:28.000Z</time>
      </trkpt>
      <trkpt lat="44.52791" lon="4.72363">
        <ele>76.1</ele>
        <time>2019-05-27T14:19:33.000Z</time>
      </trkpt>
      <trkpt lat="44.52756" lon="4.72354">
        <ele>76.1</ele>
        <time>2019-05-27T14:19:38.000Z</time>
      </trkpt>
      <trkpt lat="44.52721" lon="4.72345">
        <ele>76.85</ele>
        <time>2019-05-27T14:19:43.000Z</time>
      </trkpt>
      <trkpt lat="44.52687" lon="4.72336">
        <ele>76.16</ele>
        <time>2019-05-27T14:19:48.000Z</time>
      </trkpt>
      <trkpt lat="44.52651" lon="4.72327">
        <ele>76.1</ele>
        <time>2019-05-27T14:19:53.000Z</time>
      </trkpt>
      <trkpt lat="44.52616" lon="4.72319">
        <ele>76.85</ele>
        <time>2019-05-27T14:19:58.000Z</time>
      </trkpt>
      <trkpt lat="44.52582" lon="4.7231">
        <ele>76.11</ele>
        <time>2019-05-27T14:20:03.000Z</time>
      </trkpt>
      <trkpt lat="44.52547" lon="4.72303">
        <ele>76.1</ele>
        <time>2019-05-27T14:20:08.000Z</time>
      </trkpt>
      <trkpt lat="44.52512" lon="4.72307">
        <ele>75.91</ele>
        <time>2019-05-27T14:20:13.000Z</time>
      </trkpt>
      <trkpt lat="44.5248" lon="4.72326">
        <ele>76.1</ele>
        <time>2019-05-27T14:20:18.000Z</time>
      </trkpt>
      <trkpt lat="44.52448" lon="4.72344">
        <ele>76.35</ele>
        <time>2019-05-27T14:20:23.000Z</time>
      </trkpt>
      <trkpt lat="44.52416" lon="4.72363">
        <ele>76.16</ele>
        <time>2019-05-27T14:20:28.000Z</time>
      </trkpt>
      <trkpt lat="44.52382" lon="4.72383">
        <ele>76.1</ele>
        <time>2019-05-27T14:20:33.000Z</time>
      </trkpt>
      <trkpt lat="44.52346" lon="4.72405">
        <ele>75.11</ele>
        <time>2019-05-27T14:20:38.000Z</time>
      </trkpt>
      <trkpt lat="44.52308" lon="4.72422">
        <ele>74.31</ele>
        <time>2019-05-27T14:20:43.000Z</time>
      </trkpt>
      <trkpt lat="44.52268" lon="4.72425">
        <ele>73.17</ele>
        <time>2019-05-27T14:20:48.000Z</time>
      </trkpt>
      <trkpt lat="44.52219" lon="4.72424">
        <ele>70.18</ele>
        <time>2019-05-27T14:20:53.000Z</time>
      </trkpt>
      <trkpt lat="44.52175" lon="4.72424">
        <ele>66.19</ele>
        <time>2019-05-27T14:20:58.000Z</time>
      </trkpt>
      <trkpt lat="44.52147" lon="4.72447">
        <ele>65.1</ele>
        <time>2019-05-27T14:21:03.000Z</time>
      </trkpt>
      <trkpt lat="44.52114" lon="4.72473">
        <ele>64.11</ele>
        <time>2019-05-27T14:21:08.000Z</time>
      </trkpt>
      <trkpt lat="44.52083" lon="4.72506">
        <ele>62.98</ele>
        <time>2019-05-27T14:21:13.000Z</time>
      </trkpt>
      <trkpt lat="44.52053" lon="4.72533">
        <ele>64.05</ele>
        <time>2019-05-27T14:21:18.000Z</time>
      </trkpt>
      <trkpt lat="44.52016" lon="4.72535">
        <ele>63.12</ele>
        <time>2019-05-27T14:21:23.000Z</time>
      </trkpt>
      <trkpt lat="44.51978" lon="4.72534">
        <ele>63.11</ele>
        <time>2019-05-27T14:21:28.000Z</time>
      </trkpt>
      <trkpt lat="44.51941" lon="4.72532">
        <ele>64.04</ele>
        <time>2019-05-27T14:21:33.000Z</time>
      </trkpt>
      <trkpt lat="44.51907" lon="4.72526">
        <ele>63.87</ele>
        <time>2019-05-27T14:21:38.000Z</time>
      </trkpt>
      <trkpt lat="44.51874" lon="4.72519">
        <ele>64.11</ele>
        <time>2019-05-27T14:21:43.000Z</time>
      </trkpt>
      <trkpt lat="44.51842" lon="4.72514">
        <ele>64.11</ele>
        <time>2019-05-27T14:21:48.000Z</time>
      </trkpt>
      <trkpt lat="44.5181" lon="4.72505">
        <ele>65.1</ele>
        <time>2019-05-27T14:21:53.000Z</time>
      </trkpt>
      <trkpt lat="44.51777" lon="4.72494">
        <ele>65.11</ele>
        <time>2019-05-27T14:21:58.000Z</time>
      </trkpt>
      <trkpt lat="44.51748" lon="4.7247">
        <ele>65.85</ele>
        <time>2019-05-27T14:22:03.000Z</time>
      </trkpt>
      <trkpt lat="44.51716" lon="4.72458">
        <ele>66.11</ele>
        <time>2019-05-27T14:22:08.000Z</time>
      </trkpt>
      <trkpt lat="44.51681" lon="4.72445">
        <ele>64.19</ele>
        <time>2019-05-27T14:22:13.000Z</time>
      </trkpt>
      <trkpt lat="44.51644" lon="4.72433">
        <ele>65.11</ele>
        <time>2019-05-27T14:22:18.000Z</time>
      </trkpt>
      <trkpt lat="44.51608" lon="4.72417">
        <ele>64.35</ele>
        <time>2019-05-27T14:22:23.000Z</time>
      </trkpt>
      <trkpt lat="44.51571" lon="4.724">
        <ele>64.11</ele>
        <time>2019-05-27T14:22:28.000Z</time>
      </trkpt>
      <trkpt lat="44.51536" lon="4.72385">
        <ele>63.88</ele>
        <time>2019-05-27T14:22:33.000Z</time>
      </trkpt>
      <trkpt lat="44.515" lon="4.72368">
        <ele>64.11</ele>
        <time>2019-05-27T14:22:38.000Z</time>
      </trkpt>
      <trkpt lat="44.51467" lon="4.72354">
        <ele>64.34</ele>
        <time>2019-05-27T14:22:43.000Z</time>
      </trkpt>
      <trkpt lat="44.51432" lon="4.72339">
        <ele>63.37</ele>
        <time>2019-05-27T14:22:48.000Z</time>
      </trkpt>
      <trkpt lat="44.514" lon="4.72324">
        <ele>63.3</ele>
        <time>2019-05-27T14:22:53.000Z</time>
      </trkpt>
      <trkpt lat="44.51368" lon="4.7231">
        <ele>62.16</ele>
        <time>2019-05-27T14:22:58.000Z</time>
      </trkpt>
      <trkpt lat="44.51336" lon="4.72295">
        <ele>62.11</ele>
        <time>2019-05-27T14:23:03.000Z</time>
      </trkpt>
      <trkpt lat="44.51302" lon="4.72281">
        <ele>62.11</ele>
        <time>2019-05-27T14:23:08.000Z</time>
      </trkpt>
      <trkpt lat="44.51269" lon="4.72265">
        <ele>60.11</ele>
        <time>2019-05-27T14:23:13.000Z</time>
      </trkpt>
      <trkpt lat="44.5124" lon="4.72241">
        <ele>59.12</ele>
        <time>2019-05-27T14:23:18.000Z</time>
      </trkpt>
      <trkpt lat="44.51232" lon="4.72198">
        <ele>61.09</ele>
        <time>2019-05-27T14:23:23.000Z</time>
      </trkpt>
      <trkpt lat="44.51226" lon="4.72151">
        <ele>60.36</ele>
        <time>2019-05-27T14:23:28.000Z</time>
      </trkpt>
      <trkpt lat="44.51218" lon="4.72105">
        <ele>61.11</ele>
        <time>2019-05-27T14:23:33.000Z</time>
      </trkpt>
      <trkpt lat="44.51216" lon="4.72063">
        <ele>62.09</ele>
        <time>2019-05-27T14:23:38.000Z</time>
      </trkpt>
      <trkpt lat="44.51215" lon="4.7202">
        <ele>63.09</ele>
        <time>2019-05-27T14:23:43.000Z</time>
      </trkpt>
      <trkpt lat="44.51213" lon="4.71976">
        <ele>62.17</ele>
        <time>2019-05-27T14:23:48.000Z</time>
      </trkpt>
      <trkpt lat="44.51207" lon="4.7193">
        <ele>61.29</ele>
        <time>2019-05-27T14:23:53.000Z</time>
      </trkpt>
      <trkpt lat="44.5119" lon="4.7189">
        <ele>61.11</ele>
        <time>2019-05-27T14:23:58.000Z</time>
      </trkpt>
      <trkpt lat="44.51166" lon="4.71858">
        <ele>61.05</ele>
        <time>2019-05-27T14:24:03.000Z</time>
      </trkpt>
      <trkpt lat="44.51137" lon="4.71832">
        <ele>61.11</ele>
        <time>2019-05-27T14:24:08.000Z</time>
      </trkpt>
      <trkpt lat="44.51108" lon="4.71803">
        <ele>62.04</ele>
        <time>2019-05-27T14:24:13.000Z</time>
      </trkpt>
      <trkpt lat="44.51078" lon="4.71775">
        <ele>61.12</ele>
        <time>2019-05-27T14:24:18.000Z</time>
      </trkpt>
      <trkpt lat="44.51049" lon="4.71748">
        <ele>60.09</ele>
        <time>2019-05-27T14:24:23.000Z</time>
      </trkpt>
      <trkpt lat="44.5102" lon="4.71717">
        <ele>60.29</ele>
        <time>2019-05-27T14:24:28.000Z</time>
      </trkpt>
      <trkpt lat="44.50993" lon="4.71683">
        <ele>60.86</ele>
        <time>2019-05-27T14:24:33.000Z</time>
      </trkpt>
      <trkpt lat="44.50967" lon="4.71649">
        <ele>61.1</ele>
        <time>2019-05-27T14:24:38.000Z</time>
      </trkpt>
      <trkpt lat="44.50944" lon="4.71616">
        <ele>61.12</ele>
        <time>2019-05-27T14:24:43.000Z</time>
      </trkpt>
      <trkpt lat="44.50917" lon="4.71589">
        <ele>60.17</ele>
        <time>2019-05-27T14:24:48.000Z</time>
      </trkpt>
      <trkpt lat="44.50889" lon="4.71566">
        <ele>60.06</ele>
        <time>2019-05-27T14:24:53.000Z</time>
      </trkpt>
      <trkpt lat="44.50861" lon="4.71547">
        <ele>61.1</ele>
        <time>2019-05-27T14:24:58.000Z</time>
      </trkpt>
      <trkpt lat="44.50832" lon="4.7153">
        <ele>61.85</ele>
        <time>2019-05-27T14:25:03.000Z</time>
      </trkpt>
      <trkpt lat="44.50801" lon="4.71511">
        <ele>64.78</ele>
        <time>2019-05-27T14:25:08.000Z</time>
      </trkpt>
      <trkpt lat="44.50773" lon="4.71497">
        <ele>66.1</ele>
        <time>2019-05-27T14:25:13.000Z</time>
      </trkpt>
      <trkpt lat="44.5074" lon="4.71485">
        <ele>64.87</ele>
        <time>2019-05-27T14:25:18.000Z</time>
      </trkpt>
      <trkpt lat="44.50712" lon="4.71464">
        <ele>63.41</ele>
        <time>2019-05-27T14:25:23.000Z</time>
      </trkpt>
      <trkpt lat="44.50699" lon="4.71422">
        <ele>62.91</ele>
        <time>2019-05-27T14:25:28.000Z</time>
      </trkpt>
      <trkpt lat="44.50685" lon="4.71383">
        <ele>62.87</ele>
        <time>2019-05-27T14:25:33.000Z</time>
      </trkpt>
      <trkpt lat="44.50668" lon="4.71344">
        <ele>61.12</ele>
        <time>2019-05-27T14:25:38.000Z</time>
      </trkpt>
      <trkpt lat="44.50653" lon="4.71304">
        <ele>60.12</ele>
        <time>2019-05-27T14:25:43.000Z</time>
      </trkpt>
      <trkpt lat="44.50637" lon="4.71264">
        <ele>59.12</ele>
        <time>2019-05-27T14:25:48.000Z</time>
      </trkpt>
      <trkpt lat="44.50621" lon="4.71222">
        <ele>58.92</ele>
        <time>2019-05-27T14:25:53.000Z</time>
      </trkpt>
      <trkpt lat="44.50607" lon="4.71179">
        <ele>58.12</ele>
        <time>2019-05-27T14:25:58.000Z</time>
      </trkpt>
      <trkpt lat="44.5059" lon="4.71135">
        <ele>58.85</ele>
        <time>2019-05-27T14:26:03.000Z</time>
      </trkpt>
      <trkpt lat="44.50574" lon="4.71093">
        <ele>60.09</ele>
        <time>2019-05-27T14:26:08.000Z</time>
      </trkpt>
      <trkpt lat="44.50559" lon="4.71053">
        <ele>60.1</ele>
        <time>2019-05-27T14:26:13.000Z</time>
      </trkpt>
      <trkpt lat="44.50543" lon="4.71014">
        <ele>59.92</ele>
        <time>2019-05-27T14:26:18.000Z</time>
      </trkpt>
      <trkpt lat="44.50527" lon="4.70974">
        <ele>60.1</ele>
        <time>2019-05-27T14:26:23.000Z</time>
      </trkpt>
      <trkpt lat="44.50505" lon="4.7094">
        <ele>61.1</ele>
        <time>2019-05-27T14:26:28.000Z</time>
      </trkpt>
      <trkpt lat="44.50488" lon="4.70901">
        <ele>60.86</ele>
        <time>2019-05-27T14:26:33.000Z</time>
      </trkpt>
      <trkpt lat="44.50472" lon="4.7086">
        <ele>60.12</ele>
        <time>2019-05-27T14:26:38.000Z</time>
      </trkpt>
      <trkpt lat="44.50456" lon="4.70818">
        <ele>60.1</ele>
        <time>2019-05-27T14:26:43.000Z</time>
      </trkpt>
      <trkpt lat="44.50434" lon="4.70784">
        <ele>60.15</ele>
        <time>2019-05-27T14:26:48.000Z</time>
      </trkpt>
      <trkpt lat="44.50417" lon="4.70749">
        <ele>60.11</ele>
        <time>2019-05-27T14:26:53.000Z</time>
      </trkpt>
      <trkpt lat="44.50389" lon="4.70724">
        <ele>60.1</ele>
        <time>2019-05-27T14:26:58.000Z</time>
      </trkpt>
      <trkpt lat="44.50359" lon="4.70717">
        <ele>61.05</ele>
        <time>2019-05-27T14:27:03.000Z</time>
      </trkpt>
      <trkpt lat="44.50338" lon="4.7075">
        <ele>60.1</ele>
        <time>2019-05-27T14:27:08.000Z</time>
      </trkpt>
      <trkpt lat="44.50321" lon="4.70785">
        <ele>61.09</ele>
        <time>2019-05-27T14:27:13.000Z</time>
      </trkpt>
      <trkpt lat="44.50302" lon="4.70787">
        <ele>63.79</ele>
        <time>2019-05-27T14:27:18.000Z</time>
      </trkpt>
      <trkpt lat="44.5029" lon="4.70771">
        <ele>63.35</ele>
        <time>2019-05-27T14:27:23.000Z</time>
      </trkpt>
      <trkpt lat="44.50271" lon="4.70788">
        <ele>64.09</ele>
        <time>2019-05-27T14:27:28.000Z</time>
      </trkpt>
      <trkpt lat="44.50248" lon="4.70787">
        <ele>62.92</ele>
        <time>2019-05-27T14:27:33.000Z</time>
      </trkpt>
      <trkpt lat="44.50224" lon="4.70764">
        <ele>62.35</ele>
        <time>2019-05-27T14:27:38.000Z</time>
      </trkpt>
      <trkpt lat="44.50215" lon="4.70729">
        <ele>62.16</ele>
        <time>2019-05-27T14:27:43.000Z</time>
      </trkpt>
      <trkpt lat="44.50204" lon="4.70691">
        <ele>62.1</ele>
        <time>2019-05-27T14:27:48.000Z</time>
      </trkpt>
      <trkpt lat="44.50189" lon="4.70655">
        <ele>61.16</ele>
        <time>2019-05-27T14:27:53.000Z</time>
      </trkpt>
      <trkpt lat="44.50175" lon="4.70616">
        <ele>61.85</ele>
        <time>2019-05-27T14:27:58.000Z</time>
      </trkpt>
      <trkpt lat="44.50151" lon="4.70586">
        <ele>61.35</ele>
        <time>2019-05-27T14:28:03.000Z</time>
      </trkpt>
      <trkpt lat="44.50132" lon="4.70547">
        <ele>62.1</ele>
        <time>2019-05-27T14:28:08.000Z</time>
      </trkpt>
      <trkpt lat="44.50116" lon="4.70508">
        <ele>62.1</ele>
        <time>2019-05-27T14:28:13.000Z</time>
      </trkpt>
      <trkpt lat="44.50106" lon="4.70485">
        <ele>62.1</ele>
        <time>2019-05-27T14:28:18.000Z</time>
      </trkpt>
      <trkpt lat="44.50094" lon="4.70485">
        <ele>63.04</ele>
        <time>2019-05-27T14:28:23.000Z</time>
      </trkpt>
      <trkpt lat="44.5008" lon="4.70506">
        <ele>62.4</ele>
        <time>2019-05-27T14:28:28.000Z</time>
      </trkpt>
      <trkpt lat="44.50064" lon="4.70526">
        <ele>62.1</ele>
        <time>2019-05-27T14:28:33.000Z</time>
      </trkpt>
      <trkpt lat="44.50047" lon="4.70549">
        <ele>63.04</ele>
        <time>2019-05-27T14:28:38.000Z</time>
      </trkpt>
      <trkpt lat="44.50031" lon="4.7057">
        <ele>63.85</ele>
        <time>2019-05-27T14:28:43.000Z</time>
      </trkpt>
      <trkpt lat="44.50015" lon="4.70587">
        <ele>65.09</ele>
        <time>2019-05-27T14:28:48.000Z</time>
      </trkpt>
      <trkpt lat="44.5" lon="4.70603">
        <ele>67.05</ele>
        <time>2019-05-27T14:28:53.000Z</time>
      </trkpt>
      <trkpt lat="44.49989" lon="4.70612">
        <ele>68.09</ele>
        <time>2019-05-27T14:30:10.000Z</time>
      </trkpt>
      <trkpt lat="44.49982" lon="4.70623">
        <ele>70.35</ele>
        <time>2019-05-27T14:30:15.000Z</time>
      </trkpt>
      <trkpt lat="44.49979" lon="4.70646">
        <ele>70.09</ele>
        <time>2019-05-27T14:30:20.000Z</time>
      </trkpt>
      <trkpt lat="44.49969" lon="4.70667">
        <ele>70.9</ele>
        <time>2019-05-27T14:30:25.000Z</time>
      </trkpt>
      <trkpt lat="44.49959" lon="4.70681">
        <ele>72.04</ele>
        <time>2019-05-27T14:30:30.000Z</time>
      </trkpt>
      <trkpt lat="44.4995" lon="4.70694">
        <ele>72.1</ele>
        <time>2019-05-27T14:30:35.000Z</time>
      </trkpt>
      <trkpt lat="44.4994" lon="4.70708">
        <ele>69.65</ele>
        <time>2019-05-27T14:30:40.000Z</time>
      </trkpt>
      <trkpt lat="44.49925" lon="4.70729">
        <ele>66.18</ele>
        <time>2019-05-27T14:30:45.000Z</time>
      </trkpt>
      <trkpt lat="44.49903" lon="4.7076">
        <ele>65.36</ele>
        <time>2019-05-27T14:30:50.000Z</time>
      </trkpt>
      <trkpt lat="44.49879" lon="4.70794">
        <ele>67.04</ele>
        <time>2019-05-27T14:30:55.000Z</time>
      </trkpt>
      <trkpt lat="44.49857" lon="4.70825">
        <ele>68.06</ele>
        <time>2019-05-27T14:31:00.000Z</time>
      </trkpt>
      <trkpt lat="44.49834" lon="4.70854">
        <ele>69.1</ele>
        <time>2019-05-27T14:31:05.000Z</time>
      </trkpt>
      <trkpt lat="44.49814" lon="4.70881">
        <ele>69.86</ele>
        <time>2019-05-27T14:31:10.000Z</time>
      </trkpt>
      <trkpt lat="44.4979" lon="4.70889">
        <ele>69.17</ele>
        <time>2019-05-27T14:31:15.000Z</time>
      </trkpt>
      <trkpt lat="44.4977" lon="4.70899">
        <ele>69.1</ele>
        <time>2019-05-27T14:31:20.000Z</time>
      </trkpt>
      <trkpt lat="44.49755" lon="4.7092">
        <ele>69.17</ele>
        <time>2019-05-27T14:31:25.000Z</time>
      </trkpt>
      <trkpt lat="44.49735" lon="4.70941">
        <ele>72.04</ele>
        <time>2019-05-27T14:31:30.000Z</time>
      </trkpt>
      <trkpt lat="44.49718" lon="4.70965">
        <ele>71.86</ele>
        <time>2019-05-27T14:31:35.000Z</time>
      </trkpt>
      <trkpt lat="44.49702" lon="4.70989">
        <ele>71.3</ele>
        <time>2019-05-27T14:31:40.000Z</time>
      </trkpt>
      <trkpt lat="44.49686" lon="4.7101">
        <ele>70.41</ele>
        <time>2019-05-27T14:31:45.000Z</time>
      </trkpt>
      <trkpt lat="44.4967" lon="4.71032">
        <ele>72.83</ele>
        <time>2019-05-27T14:31:50.000Z</time>
      </trkpt>
      <trkpt lat="44.49664" lon="4.7106">
        <ele>71.13</ele>
        <time>2019-05-27T14:31:55.000Z</time>
      </trkpt>
      <trkpt lat="44.49663" lon="4.71086">
        <ele>70.13</ele>
        <time>2019-05-27T14:32:00.000Z</time>
      </trkpt>
      <trkpt lat="44.4965" lon="4.71107">
        <ele>68.61</ele>
        <time>2019-05-27T14:32:05.000Z</time>
      </trkpt>
      <trkpt lat="44.49619" lon="4.71111">
        <ele>67.32</ele>
        <time>2019-05-27T14:32:10.000Z</time>
      </trkpt>
      <trkpt lat="44.49587" lon="4.71104">
        <ele>64.38</ele>
        <time>2019-05-27T14:32:15.000Z</time>
      </trkpt>
      <trkpt lat="44.49551" lon="4.71109">
        <ele>64.11</ele>
        <time>2019-05-27T14:32:20.000Z</time>
      </trkpt>
      <trkpt lat="44.49517" lon="4.71117">
        <ele>64.36</ele>
        <time>2019-05-27T14:32:25.000Z</time>
      </trkpt>
      <trkpt lat="44.49478" lon="4.7112">
        <ele>64.11</ele>
        <time>2019-05-27T14:32:30.000Z</time>
      </trkpt>
      <trkpt lat="44.49442" lon="4.71133">
        <ele>64.11</ele>
        <time>2019-05-27T14:32:35.000Z</time>
      </trkpt>
      <trkpt lat="44.49409" lon="4.71156">
        <ele>66.05</ele>
        <time>2019-05-27T14:32:40.000Z</time>
      </trkpt>
      <trkpt lat="44.49377" lon="4.71157">
        <ele>65.93</ele>
        <time>2019-05-27T14:32:45.000Z</time>
      </trkpt>
      <trkpt lat="44.49353" lon="4.71168">
        <ele>66.1</ele>
        <time>2019-05-27T14:32:50.000Z</time>
      </trkpt>
      <trkpt lat="44.49336" lon="4.71201">
        <ele>67.11</ele>
        <time>2019-05-27T14:32:55.000Z</time>
      </trkpt>
      <trkpt lat="44.49321" lon="4.71239">
        <ele>66.37</ele>
        <time>2019-05-27T14:33:00.000Z</time>
      </trkpt>
      <trkpt lat="44.49308" lon="4.71262">
        <ele>65.37</ele>
        <time>2019-05-27T14:33:05.000Z</time>
      </trkpt>
      <trkpt lat="44.4929" lon="4.71236">
        <ele>65.12</ele>
        <time>2019-05-27T14:33:10.000Z</time>
      </trkpt>
      <trkpt lat="44.49263" lon="4.71212">
        <ele>64.37</ele>
        <time>2019-05-27T14:33:15.000Z</time>
      </trkpt>
      <trkpt lat="44.49233" lon="4.71188">
        <ele>64.13</ele>
        <time>2019-05-27T14:33:20.000Z</time>
      </trkpt>
      <trkpt lat="44.49203" lon="4.71164">
        <ele>63.18</ele>
        <time>2019-05-27T14:33:25.000Z</time>
      </trkpt>
      <trkpt lat="44.49175" lon="4.71141">
        <ele>63.87</ele>
        <time>2019-05-27T14:33:30.000Z</time>
      </trkpt>
      <trkpt lat="44.49146" lon="4.71117">
        <ele>63.12</ele>
        <time>2019-05-27T14:33:35.000Z</time>
      </trkpt>
      <trkpt lat="44.49117" lon="4.71093">
        <ele>64.11</ele>
        <time>2019-05-27T14:33:40.000Z</time>
      </trkpt>
      <trkpt lat="44.49087" lon="4.71067">
        <ele>64.12</ele>
        <time>2019-05-27T14:33:45.000Z</time>
      </trkpt>
      <trkpt lat="44.49057" lon="4.7104">
        <ele>64.12</ele>
        <time>2019-05-27T14:33:50.000Z</time>
      </trkpt>
      <trkpt lat="44.49026" lon="4.71012">
        <ele>64.92</ele>
        <time>2019-05-27T14:33:55.000Z</time>
      </trkpt>
      <trkpt lat="44.48994" lon="4.70987">
        <ele>64.12</ele>
        <time>2019-05-27T14:34:00.000Z</time>
      </trkpt>
      <trkpt lat="44.48962" lon="4.70961">
        <ele>64.31</ele>
        <time>2019-05-27T14:34:05.000Z</time>
      </trkpt>
      <trkpt lat="44.48933" lon="4.70935">
        <ele>64.87</ele>
        <time>2019-05-27T14:34:10.000Z</time>
      </trkpt>
      <trkpt lat="44.48904" lon="4.7091">
        <ele>65.12</ele>
        <time>2019-05-27T14:34:15.000Z</time>
      </trkpt>
      <trkpt lat="44.48876" lon="4.70882">
        <ele>64.13</ele>
        <time>2019-05-27T14:34:20.000Z</time>
      </trkpt>
      <trkpt lat="44.48851" lon="4.70851">
        <ele>64.12</ele>
        <time>2019-05-27T14:34:25.000Z</time>
      </trkpt>
      <trkpt lat="44.48826" lon="4.7082">
        <ele>64.12</ele>
        <time>2019-05-27T14:34:30.000Z</time>
      </trkpt>
      <trkpt lat="44.48801" lon="4.70787">
        <ele>63.12</ele>
        <time>2019-05-27T14:34:35.000Z</time>
      </trkpt>
      <trkpt lat="44.48779" lon="4.70753">
        <ele>63.17</ele>
        <time>2019-05-27T14:34:40.000Z</time>
      </trkpt>
      <trkpt lat="44.48755" lon="4.70719">
        <ele>62.12</ele>
        <time>2019-05-27T14:34:45.000Z</time>
      </trkpt>
      <trkpt lat="44.48729" lon="4.70681">
        <ele>61.18</ele>
        <time>2019-05-27T14:34:50.000Z</time>
      </trkpt>
      <trkpt lat="44.48704" lon="4.70642">
        <ele>63.1</ele>
        <time>2019-05-27T14:34:55.000Z</time>
      </trkpt>
      <trkpt lat="44.48676" lon="4.70605">
        <ele>63.31</ele>
        <time>2019-05-27T14:35:00.000Z</time>
      </trkpt>
      <trkpt lat="44.48649" lon="4.70567">
        <ele>62.12</ele>
        <time>2019-05-27T14:35:05.000Z</time>
      </trkpt>
      <trkpt lat="44.48622" lon="4.7053">
        <ele>61.12</ele>
        <time>2019-05-27T14:35:10.000Z</time>
      </trkpt>
      <trkpt lat="44.48597" lon="4.70491">
        <ele>61.12</ele>
        <time>2019-05-27T14:35:15.000Z</time>
      </trkpt>
      <trkpt lat="44.48572" lon="4.70454">
        <ele>60.93</ele>
        <time>2019-05-27T14:35:20.000Z</time>
      </trkpt>
      <trkpt lat="44.48547" lon="4.70417">
        <ele>59.18</ele>
        <time>2019-05-27T14:35:25.000Z</time>
      </trkpt>
      <trkpt lat="44.48522" lon="4.70383">
        <ele>58.31</ele>
        <time>2019-05-27T14:35:30.000Z</time>
      </trkpt>
      <trkpt lat="44.48496" lon="4.70348">
        <ele>59.07</ele>
        <time>2019-05-27T14:35:35.000Z</time>
      </trkpt>
      <trkpt lat="44.48471" lon="4.70315">
        <ele>58.37</ele>
        <time>2019-05-27T14:35:40.000Z</time>
      </trkpt>
      <trkpt lat="44.48444" lon="4.70284">
        <ele>59.12</ele>
        <time>2019-05-27T14:35:45.000Z</time>
      </trkpt>
      <trkpt lat="44.48416" lon="4.70255">
        <ele>61.1</ele>
        <time>2019-05-27T14:35:50.000Z</time>
      </trkpt>
      <trkpt lat="44.48393" lon="4.7022">
        <ele>61.35</ele>
        <time>2019-05-27T14:35:55.000Z</time>
      </trkpt>
      <trkpt lat="44.4837" lon="4.70186">
        <ele>61.18</ele>
        <time>2019-05-27T14:36:00.000Z</time>
      </trkpt>
      <trkpt lat="44.48348" lon="4.70154">
        <ele>61.37</ele>
        <time>2019-05-27T14:36:05.000Z</time>
      </trkpt>
      <trkpt lat="44.48324" lon="4.70129">
        <ele>61.87</ele>
        <time>2019-05-27T14:36:10.000Z</time>
      </trkpt>
      <trkpt lat="44.48312" lon="4.70113">
        <ele>61.12</ele>
        <time>2019-05-27T14:36:58.000Z</time>
      </trkpt>
      <trkpt lat="44.48301" lon="4.70119">
        <ele>59.39</ele>
        <time>2019-05-27T14:37:03.000Z</time>
      </trkpt>
      <trkpt lat="44.48285" lon="4.70115">
        <ele>59.12</ele>
        <time>2019-05-27T14:37:08.000Z</time>
      </trkpt>
      <trkpt lat="44.48262" lon="4.7011">
        <ele>58.12</ele>
        <time>2019-05-27T14:37:13.000Z</time>
      </trkpt>
      <trkpt lat="44.48237" lon="4.70113">
        <ele>59.06</ele>
        <time>2019-05-27T14:37:18.000Z</time>
      </trkpt>
      <trkpt lat="44.48222" lon="4.70126">
        <ele>58.12</ele>
        <time>2019-05-27T14:37:23.000Z</time>
      </trkpt>
      <trkpt lat="44.48207" lon="4.70143">
        <ele>58.12</ele>
        <time>2019-05-27T14:37:28.000Z</time>
      </trkpt>
      <trkpt lat="44.48189" lon="4.70146">
        <ele>58.13</ele>
        <time>2019-05-27T14:37:40.000Z</time>
      </trkpt>
      <trkpt lat="44.48183" lon="4.70156">
        <ele>60.87</ele>
        <time>2019-05-27T14:37:53.000Z</time>
      </trkpt>
      <trkpt lat="44.48184" lon="4.7017">
        <ele>64.12</ele>
        <time>2019-05-27T14:37:58.000Z</time>
      </trkpt>
      <trkpt lat="44.48178" lon="4.70156">
        <ele>62.36</ele>
        <time>2019-05-27T14:38:03.000Z</time>
      </trkpt>
      <trkpt lat="44.48177" lon="4.70127">
        <ele>62.87</ele>
        <time>2019-05-27T14:38:08.000Z</time>
      </trkpt>
      <trkpt lat="44.48175" lon="4.701">
        <ele>62.37</ele>
        <time>2019-05-27T14:38:13.000Z</time>
      </trkpt>
      <trkpt lat="44.48173" lon="4.70073">
        <ele>62.11</ele>
        <time>2019-05-27T14:38:18.000Z</time>
      </trkpt>
      <trkpt lat="44.48171" lon="4.70047">
        <ele>64.85</ele>
        <time>2019-05-27T14:38:23.000Z</time>
      </trkpt>
      <trkpt lat="44.48169" lon="4.70021">
        <ele>67.85</ele>
        <time>2019-05-27T14:38:28.000Z</time>
      </trkpt>
      <trkpt lat="44.48167" lon="4.69996">
        <ele>69.05</ele>
        <time>2019-05-27T14:38:33.000Z</time>
      </trkpt>
      <trkpt lat="44.48164" lon="4.69968">
        <ele>70.1</ele>
        <time>2019-05-27T14:38:38.000Z</time>
      </trkpt>
      <trkpt lat="44.48162" lon="4.69942">
        <ele>70.87</ele>
        <time>2019-05-27T14:38:43.000Z</time>
      </trkpt>
      <trkpt lat="44.4816" lon="4.69915">
        <ele>70.14</ele>
        <time>2019-05-27T14:38:48.000Z</time>
      </trkpt>
      <trkpt lat="44.48157" lon="4.69884">
        <ele>70.12</ele>
        <time>2019-05-27T14:38:53.000Z</time>
      </trkpt>
      <trkpt lat="44.48156" lon="4.69849">
        <ele>69.12</ele>
        <time>2019-05-27T14:38:58.000Z</time>
      </trkpt>
      <trkpt lat="44.48153" lon="4.69812">
        <ele>69.12</ele>
        <time>2019-05-27T14:39:03.000Z</time>
      </trkpt>
      <trkpt lat="44.4815" lon="4.69775">
        <ele>69.12</ele>
        <time>2019-05-27T14:39:08.000Z</time>
      </trkpt>
      <trkpt lat="44.48146" lon="4.69735">
        <ele>68.18</ele>
        <time>2019-05-27T14:39:13.000Z</time>
      </trkpt>
      <trkpt lat="44.48144" lon="4.69697">
        <ele>66.37</ele>
        <time>2019-05-27T14:39:18.000Z</time>
      </trkpt>
      <trkpt lat="44.48146" lon="4.69667">
        <ele>64.2</ele>
        <time>2019-05-27T14:39:23.000Z</time>
      </trkpt>
      <trkpt lat="44.48174" lon="4.69663">
        <ele>62.39</ele>
        <time>2019-05-27T14:39:28.000Z</time>
      </trkpt>
      <trkpt lat="44.48193" lon="4.69655">
        <ele>61.12</ele>
        <time>2019-05-27T14:39:44.000Z</time>
      </trkpt>
      <trkpt lat="44.48185" lon="4.69668">
        <ele>62.12</ele>
        <time>2019-05-27T14:39:49.000Z</time>
      </trkpt>
      <trkpt lat="44.48177" lon="4.69694">
        <ele>60.12</ele>
        <time>2019-05-27T14:39:54.000Z</time>
      </trkpt>
      <trkpt lat="44.4816" lon="4.69714">
        <ele>58.89</ele>
        <time>2019-05-27T14:39:59.000Z</time>
      </trkpt>
      <trkpt lat="44.48145" lon="4.69742">
        <ele>58.18</ele>
        <time>2019-05-27T14:40:04.000Z</time>
      </trkpt>
      <trkpt lat="44.48125" lon="4.69747">
        <ele>58.12</ele>
        <time>2019-05-27T14:40:09.000Z</time>
      </trkpt>
      <trkpt lat="44.48107" lon="4.69741">
        <ele>61.05</ele>
        <time>2019-05-27T14:40:14.000Z</time>
      </trkpt>
      <trkpt lat="44.48082" lon="4.69746">
        <ele>58.39</ele>
        <time>2019-05-27T14:40:19.000Z</time>
      </trkpt>
      <trkpt lat="44.48055" lon="4.69751">
        <ele>59.06</ele>
        <time>2019-05-27T14:40:24.000Z</time>
      </trkpt>
      <trkpt lat="44.48027" lon="4.6975">
        <ele>58.18</ele>
        <time>2019-05-27T14:40:29.000Z</time>
      </trkpt>
      <trkpt lat="44.47999" lon="4.69752">
        <ele>55.39</ele>
        <time>2019-05-27T14:40:34.000Z</time>
      </trkpt>
      <trkpt lat="44.47968" lon="4.69758">
        <ele>55.37</ele>
        <time>2019-05-27T14:40:39.000Z</time>
      </trkpt>
      <trkpt lat="44.47935" lon="4.69769">
        <ele>54.12</ele>
        <time>2019-05-27T14:40:44.000Z</time>
      </trkpt>
      <trkpt lat="44.47905" lon="4.69766">
        <ele>56.09</ele>
        <time>2019-05-27T14:40:49.000Z</time>
      </trkpt>
      <trkpt lat="44.47873" lon="4.69764">
        <ele>56.13</ele>
        <time>2019-05-27T14:40:54.000Z</time>
      </trkpt>
      <trkpt lat="44.47845" lon="4.69769">
        <ele>57</ele>
        <time>2019-05-27T14:40:59.000Z</time>
      </trkpt>
      <trkpt lat="44.47817" lon="4.69772">
        <ele>57.12</ele>
        <time>2019-05-27T14:41:04.000Z</time>
      </trkpt>
      <trkpt lat="44.4779" lon="4.69775">
        <ele>53.43</ele>
        <time>2019-05-27T14:41:09.000Z</time>
      </trkpt>
      <trkpt lat="44.47764" lon="4.69782">
        <ele>53.12</ele>
        <time>2019-05-27T14:41:14.000Z</time>
      </trkpt>
      <trkpt lat="44.47738" lon="4.69785">
        <ele>55.3</ele>
        <time>2019-05-27T14:41:19.000Z</time>
      </trkpt>
      <trkpt lat="44.4771" lon="4.69789">
        <ele>57.03</ele>
        <time>2019-05-27T14:41:24.000Z</time>
      </trkpt>
      <trkpt lat="44.47679" lon="4.69791">
        <ele>58.12</ele>
        <time>2019-05-27T14:41:29.000Z</time>
      </trkpt>
      <trkpt lat="44.47647" lon="4.69798">
        <ele>59.13</ele>
        <time>2019-05-27T14:41:34.000Z</time>
      </trkpt>
      <trkpt lat="44.47618" lon="4.69804">
        <ele>58.39</ele>
        <time>2019-05-27T14:41:39.000Z</time>
      </trkpt>
      <trkpt lat="44.47592" lon="4.69812">
        <ele>58.13</ele>
        <time>2019-05-27T14:41:44.000Z</time>
      </trkpt>
      <trkpt lat="44.47559" lon="4.69818">
        <ele>55.49</ele>
        <time>2019-05-27T14:41:49.000Z</time>
      </trkpt>
      <trkpt lat="44.47525" lon="4.69819">
        <ele>54.38</ele>
        <time>2019-05-27T14:41:54.000Z</time>
      </trkpt>
      <trkpt lat="44.47494" lon="4.69818">
        <ele>53.13</ele>
        <time>2019-05-27T14:41:59.000Z</time>
      </trkpt>
      <trkpt lat="44.47462" lon="4.69816">
        <ele>53.38</ele>
        <time>2019-05-27T14:42:04.000Z</time>
      </trkpt>
      <trkpt lat="44.47428" lon="4.69814">
        <ele>53.13</ele>
        <time>2019-05-27T14:42:09.000Z</time>
      </trkpt>
      <trkpt lat="44.47397" lon="4.69812">
        <ele>55.87</ele>
        <time>2019-05-27T14:42:14.000Z</time>
      </trkpt>
      <trkpt lat="44.47364" lon="4.69812">
        <ele>56.13</ele>
        <time>2019-05-27T14:42:19.000Z</time>
      </trkpt>
      <trkpt lat="44.47333" lon="4.69811">
        <ele>57.08</ele>
        <time>2019-05-27T14:42:24.000Z</time>
      </trkpt>
      <trkpt lat="44.47312" lon="4.69812">
        <ele>55.9</ele>
        <time>2019-05-27T14:43:11.000Z</time>
      </trkpt>
      <trkpt lat="44.47312" lon="4.69798">
        <ele>56.13</ele>
        <time>2019-05-27T14:43:16.000Z</time>
      </trkpt>
      <trkpt lat="44.47321" lon="4.6978">
        <ele>56.08</ele>
        <time>2019-05-27T14:43:21.000Z</time>
      </trkpt>
      <trkpt lat="44.47324" lon="4.69747">
        <ele>54.13</ele>
        <time>2019-05-27T14:43:26.000Z</time>
      </trkpt>
      <trkpt lat="44.47324" lon="4.69716">
        <ele>57.05</ele>
        <time>2019-05-27T14:43:31.000Z</time>
      </trkpt>
      <trkpt lat="44.47322" lon="4.69684">
        <ele>59.86</ele>
        <time>2019-05-27T14:43:36.000Z</time>
      </trkpt>
      <trkpt lat="44.47311" lon="4.69662">
        <ele>58.39</ele>
        <time>2019-05-27T14:43:41.000Z</time>
      </trkpt>
      <trkpt lat="44.473" lon="4.69644">
        <ele>58.13</ele>
        <time>2019-05-27T14:43:46.000Z</time>
      </trkpt>
      <trkpt lat="44.47294" lon="4.6963">
        <ele>57.37</ele>
        <time>2019-05-27T14:43:51.000Z</time>
      </trkpt>
      <trkpt lat="44.47275" lon="4.69633">
        <ele>57.94</ele>
        <time>2019-05-27T14:43:56.000Z</time>
      </trkpt>
      <trkpt lat="44.47248" lon="4.69637">
        <ele>56.38</ele>
        <time>2019-05-27T14:44:01.000Z</time>
      </trkpt>
      <trkpt lat="44.4722" lon="4.69641">
        <ele>54.9</ele>
        <time>2019-05-27T14:44:06.000Z</time>
      </trkpt>
      <trkpt lat="44.4719" lon="4.69643">
        <ele>55.83</ele>
        <time>2019-05-27T14:44:11.000Z</time>
      </trkpt>
      <trkpt lat="44.47159" lon="4.69644">
        <ele>55.13</ele>
        <time>2019-05-27T14:44:16.000Z</time>
      </trkpt>
      <trkpt lat="44.47128" lon="4.69644">
        <ele>54.15</ele>
        <time>2019-05-27T14:44:21.000Z</time>
      </trkpt>
      <trkpt lat="44.47096" lon="4.69641">
        <ele>55.82</ele>
        <time>2019-05-27T14:44:26.000Z</time>
      </trkpt>
      <trkpt lat="44.47064" lon="4.69641">
        <ele>55.13</ele>
        <time>2019-05-27T14:44:31.000Z</time>
      </trkpt>
      <trkpt lat="44.47035" lon="4.69644">
        <ele>55.13</ele>
        <time>2019-05-27T14:44:36.000Z</time>
      </trkpt>
      <trkpt lat="44.47004" lon="4.69645">
        <ele>56.07</ele>
        <time>2019-05-27T14:44:41.000Z</time>
      </trkpt>
      <trkpt lat="44.46974" lon="4.69648">
        <ele>55.13</ele>
        <time>2019-05-27T14:44:46.000Z</time>
      </trkpt>
      <trkpt lat="44.46943" lon="4.69651">
        <ele>54.08</ele>
        <time>2019-05-27T14:44:51.000Z</time>
      </trkpt>
      <trkpt lat="44.46913" lon="4.69653">
        <ele>52.89</ele>
        <time>2019-05-27T14:44:56.000Z</time>
      </trkpt>
      <trkpt lat="44.46882" lon="4.69653">
        <ele>55.06</ele>
        <time>2019-05-27T14:45:01.000Z</time>
      </trkpt>
      <trkpt lat="44.46849" lon="4.69658">
        <ele>55.12</ele>
        <time>2019-05-27T14:45:06.000Z</time>
      </trkpt>
      <trkpt lat="44.46816" lon="4.69665">
        <ele>53.4</ele>
        <time>2019-05-27T14:45:11.000Z</time>
      </trkpt>
      <trkpt lat="44.46784" lon="4.69675">
        <ele>53.09</ele>
        <time>2019-05-27T14:45:16.000Z</time>
      </trkpt>
      <trkpt lat="44.46753" lon="4.69687">
        <ele>53.15</ele>
        <time>2019-05-27T14:45:21.000Z</time>
      </trkpt>
      <trkpt lat="44.46722" lon="4.69698">
        <ele>57.06</ele>
        <time>2019-05-27T14:45:26.000Z</time>
      </trkpt>
      <trkpt lat="44.4669" lon="4.6971">
        <ele>55.45</ele>
        <time>2019-05-27T14:45:31.000Z</time>
      </trkpt>
      <trkpt lat="44.46661" lon="4.69722">
        <ele>56.07</ele>
        <time>2019-05-27T14:45:36.000Z</time>
      </trkpt>
      <trkpt lat="44.4663" lon="4.69734">
        <ele>55.19</ele>
        <time>2019-05-27T14:45:41.000Z</time>
      </trkpt>
      <trkpt lat="44.46601" lon="4.6975">
        <ele>53.64</ele>
        <time>2019-05-27T14:45:46.000Z</time>
      </trkpt>
      <trkpt lat="44.4657" lon="4.69758">
        <ele>55.88</ele>
        <time>2019-05-27T14:45:51.000Z</time>
      </trkpt>
      <trkpt lat="44.46536" lon="4.69762">
        <ele>56.2</ele>
        <time>2019-05-27T14:45:56.000Z</time>
      </trkpt>
      <trkpt lat="44.46503" lon="4.69764">
        <ele>57.14</ele>
        <time>2019-05-27T14:46:01.000Z</time>
      </trkpt>
      <trkpt lat="44.4647" lon="4.69768">
        <ele>57.14</ele>
        <time>2019-05-27T14:46:06.000Z</time>
      </trkpt>
      <trkpt lat="44.4644" lon="4.69773">
        <ele>57.14</ele>
        <time>2019-05-27T14:46:11.000Z</time>
      </trkpt>
      <trkpt lat="44.46408" lon="4.69776">
        <ele>56.95</ele>
        <time>2019-05-27T14:46:16.000Z</time>
      </trkpt>
      <trkpt lat="44.46379" lon="4.69776">
        <ele>58.08</ele>
        <time>2019-05-27T14:46:21.000Z</time>
      </trkpt>
      <trkpt lat="44.46352" lon="4.69775">
        <ele>57.2</ele>
        <time>2019-05-27T14:46:26.000Z</time>
      </trkpt>
      <trkpt lat="44.46325" lon="4.6978">
        <ele>57.14</ele>
        <time>2019-05-27T14:46:31.000Z</time>
      </trkpt>
      <trkpt lat="44.46296" lon="4.69783">
        <ele>55.39</ele>
        <time>2019-05-27T14:46:36.000Z</time>
      </trkpt>
      <trkpt lat="44.46267" lon="4.69784">
        <ele>54.96</ele>
        <time>2019-05-27T14:46:41.000Z</time>
      </trkpt>
      <trkpt lat="44.46236" lon="4.69783">
        <ele>55.14</ele>
        <time>2019-05-27T14:46:46.000Z</time>
      </trkpt>
      <trkpt lat="44.46211" lon="4.69784">
        <ele>55.38</ele>
        <time>2019-05-27T14:46:51.000Z</time>
      </trkpt>
      <trkpt lat="44.46185" lon="4.6979">
        <ele>56.09</ele>
        <time>2019-05-27T14:46:56.000Z</time>
      </trkpt>
      <trkpt lat="44.46157" lon="4.69799">
        <ele>56.14</ele>
        <time>2019-05-27T14:47:01.000Z</time>
      </trkpt>
      <trkpt lat="44.46129" lon="4.69807">
        <ele>56.14</ele>
        <time>2019-05-27T14:47:06.000Z</time>
      </trkpt>
      <trkpt lat="44.46099" lon="4.69813">
        <ele>56.14</ele>
        <time>2019-05-27T14:47:11.000Z</time>
      </trkpt>
      <trkpt lat="44.46069" lon="4.69816">
        <ele>54.1</ele>
        <time>2019-05-27T14:47:16.000Z</time>
      </trkpt>
      <trkpt lat="44.46038" lon="4.69815">
        <ele>55.65</ele>
        <time>2019-05-27T14:47:21.000Z</time>
      </trkpt>
      <trkpt lat="44.46006" lon="4.69812">
        <ele>55.15</ele>
        <time>2019-05-27T14:47:26.000Z</time>
      </trkpt>
      <trkpt lat="44.45974" lon="4.69807">
        <ele>56.94</ele>
        <time>2019-05-27T14:47:31.000Z</time>
      </trkpt>
      <trkpt lat="44.45941" lon="4.69801">
        <ele>56.15</ele>
        <time>2019-05-27T14:47:36.000Z</time>
      </trkpt>
      <trkpt lat="44.45912" lon="4.69794">
        <ele>54.46</ele>
        <time>2019-05-27T14:47:41.000Z</time>
      </trkpt>
      <trkpt lat="44.45882" lon="4.69787">
        <ele>55.15</ele>
        <time>2019-05-27T14:47:46.000Z</time>
      </trkpt>
      <trkpt lat="44.45851" lon="4.69778">
        <ele>55.21</ele>
        <time>2019-05-27T14:47:51.000Z</time>
      </trkpt>
      <trkpt lat="44.45823" lon="4.69771">
        <ele>55.96</ele>
        <time>2019-05-27T14:47:56.000Z</time>
      </trkpt>
      <trkpt lat="44.45814" lon="4.69776">
        <ele>55.34</ele>
        <time>2019-05-27T14:49:14.000Z</time>
      </trkpt>
      <trkpt lat="44.45807" lon="4.69766">
        <ele>56.9</ele>
        <time>2019-05-27T14:49:19.000Z</time>
      </trkpt>
      <trkpt lat="44.4579" lon="4.69763">
        <ele>57.89</ele>
        <time>2019-05-27T14:49:24.000Z</time>
      </trkpt>
      <trkpt lat="44.45768" lon="4.69758">
        <ele>58.14</ele>
        <time>2019-05-27T14:49:29.000Z</time>
      </trkpt>
      <trkpt lat="44.45744" lon="4.69753">
        <ele>57.38</ele>
        <time>2019-05-27T14:49:34.000Z</time>
      </trkpt>
      <trkpt lat="44.45721" lon="4.69745">
        <ele>59.32</ele>
        <time>2019-05-27T14:49:39.000Z</time>
      </trkpt>
      <trkpt lat="44.45697" lon="4.6974">
        <ele>60.21</ele>
        <time>2019-05-27T14:49:44.000Z</time>
      </trkpt>
      <trkpt lat="44.4567" lon="4.69729">
        <ele>60.4</ele>
        <time>2019-05-27T14:49:49.000Z</time>
      </trkpt>
      <trkpt lat="44.45646" lon="4.69722">
        <ele>60.16</ele>
        <time>2019-05-27T14:49:54.000Z</time>
      </trkpt>
      <trkpt lat="44.45625" lon="4.69715">
        <ele>60.15</ele>
        <time>2019-05-27T14:50:49.000Z</time>
      </trkpt>
      <trkpt lat="44.45616" lon="4.69713">
        <ele>60.88</ele>
        <time>2019-05-27T14:50:54.000Z</time>
      </trkpt>
      <trkpt lat="44.45606" lon="4.69707">
        <ele>60.15</ele>
        <time>2019-05-27T14:50:59.000Z</time>
      </trkpt>
      <trkpt lat="44.45587" lon="4.697">
        <ele>60.09</ele>
        <time>2019-05-27T14:51:04.000Z</time>
      </trkpt>
      <trkpt lat="44.45564" lon="4.69693">
        <ele>58.4</ele>
        <time>2019-05-27T14:51:09.000Z</time>
      </trkpt>
      <trkpt lat="44.45541" lon="4.69682">
        <ele>58.21</ele>
        <time>2019-05-27T14:51:14.000Z</time>
      </trkpt>
      <trkpt lat="44.45518" lon="4.69667">
        <ele>60.07</ele>
        <time>2019-05-27T14:51:19.000Z</time>
      </trkpt>
      <trkpt lat="44.45494" lon="4.69653">
        <ele>62.15</ele>
        <time>2019-05-27T14:51:24.000Z</time>
      </trkpt>
      <trkpt lat="44.45468" lon="4.6964">
        <ele>65.08</ele>
        <time>2019-05-27T14:51:29.000Z</time>
      </trkpt>
      <trkpt lat="44.45443" lon="4.69627">
        <ele>64.21</ele>
        <time>2019-05-27T14:51:34.000Z</time>
      </trkpt>
      <trkpt lat="44.45416" lon="4.6961">
        <ele>64.17</ele>
        <time>2019-05-27T14:51:39.000Z</time>
      </trkpt>
      <trkpt lat="44.45387" lon="4.69601">
        <ele>62.16</ele>
        <time>2019-05-27T14:51:44.000Z</time>
      </trkpt>
      <trkpt lat="44.45358" lon="4.69606">
        <ele>61.15</ele>
        <time>2019-05-27T14:51:49.000Z</time>
      </trkpt>
      <trkpt lat="44.45327" lon="4.69609">
        <ele>61.09</ele>
        <time>2019-05-27T14:51:54.000Z</time>
      </trkpt>
      <trkpt lat="44.45298" lon="4.69611">
        <ele>61.15</ele>
        <time>2019-05-27T14:51:59.000Z</time>
      </trkpt>
      <trkpt lat="44.45275" lon="4.69597">
        <ele>61.84</ele>
        <time>2019-05-27T14:52:04.000Z</time>
      </trkpt>
      <trkpt lat="44.45267" lon="4.6958">
        <ele>63.16</ele>
        <time>2019-05-27T14:52:09.000Z</time>
      </trkpt>
      <trkpt lat="44.45255" lon="4.69577">
        <ele>63.4</ele>
        <time>2019-05-27T14:52:14.000Z</time>
      </trkpt>
      <trkpt lat="44.45239" lon="4.69597">
        <ele>62.42</ele>
        <time>2019-05-27T14:52:19.000Z</time>
      </trkpt>
      <trkpt lat="44.45209" lon="4.69591">
        <ele>61.91</ele>
        <time>2019-05-27T14:52:24.000Z</time>
      </trkpt>
      <trkpt lat="44.45181" lon="4.69572">
        <ele>60.36</ele>
        <time>2019-05-27T14:52:29.000Z</time>
      </trkpt>
      <trkpt lat="44.45154" lon="4.69548">
        <ele>59.22</ele>
        <time>2019-05-27T14:52:34.000Z</time>
      </trkpt>
      <trkpt lat="44.45129" lon="4.69527">
        <ele>59.17</ele>
        <time>2019-05-27T14:52:39.000Z</time>
      </trkpt>
      <trkpt lat="44.45103" lon="4.69512">
        <ele>60.28</ele>
        <time>2019-05-27T14:52:44.000Z</time>
      </trkpt>
      <trkpt lat="44.45075" lon="4.69497">
        <ele>59.16</ele>
        <time>2019-05-27T14:52:49.000Z</time>
      </trkpt>
      <trkpt lat="44.45046" lon="4.69482">
        <ele>58.41</ele>
        <time>2019-05-27T14:52:54.000Z</time>
      </trkpt>
      <trkpt lat="44.45015" lon="4.69465">
        <ele>58.16</ele>
        <time>2019-05-27T14:52:59.000Z</time>
      </trkpt>
      <trkpt lat="44.44985" lon="4.69448">
        <ele>57.41</ele>
        <time>2019-05-27T14:53:04.000Z</time>
      </trkpt>
      <trkpt lat="44.44953" lon="4.69433">
        <ele>57.91</ele>
        <time>2019-05-27T14:53:09.000Z</time>
      </trkpt>
      <trkpt lat="44.44921" lon="4.69417">
        <ele>56.41</ele>
        <time>2019-05-27T14:53:14.000Z</time>
      </trkpt>
      <trkpt lat="44.44906" lon="4.69377">
        <ele>56.91</ele>
        <time>2019-05-27T14:53:19.000Z</time>
      </trkpt>
      <trkpt lat="44.44904" lon="4.69329">
        <ele>58.15</ele>
        <time>2019-05-27T14:53:24.000Z</time>
      </trkpt>
      <trkpt lat="44.44902" lon="4.69284">
        <ele>58.16</ele>
        <time>2019-05-27T14:53:29.000Z</time>
      </trkpt>
      <trkpt lat="44.44883" lon="4.69257">
        <ele>57.91</ele>
        <time>2019-05-27T14:53:34.000Z</time>
      </trkpt>
      <trkpt lat="44.4485" lon="4.6926">
        <ele>55.42</ele>
        <time>2019-05-27T14:53:39.000Z</time>
      </trkpt>
      <trkpt lat="44.4482" lon="4.69266">
        <ele>55.16</ele>
        <time>2019-05-27T14:53:44.000Z</time>
      </trkpt>
      <trkpt lat="44.44789" lon="4.69266">
        <ele>55.91</ele>
        <time>2019-05-27T14:53:49.000Z</time>
      </trkpt>
      <trkpt lat="44.44762" lon="4.69254">
        <ele>55.91</ele>
        <time>2019-05-27T14:53:54.000Z</time>
      </trkpt>
      <trkpt lat="44.44736" lon="4.69234">
        <ele>55.22</ele>
        <time>2019-05-27T14:53:59.000Z</time>
      </trkpt>
      <trkpt lat="44.4471" lon="4.69214">
        <ele>55.1</ele>
        <time>2019-05-27T14:54:04.000Z</time>
      </trkpt>
      <trkpt lat="44.44682" lon="4.6919">
        <ele>54.96</ele>
        <time>2019-05-27T14:54:09.000Z</time>
      </trkpt>
      <trkpt lat="44.44652" lon="4.6917">
        <ele>54.16</ele>
        <time>2019-05-27T14:54:14.000Z</time>
      </trkpt>
      <trkpt lat="44.44624" lon="4.69151">
        <ele>55.1</ele>
        <time>2019-05-27T14:54:19.000Z</time>
      </trkpt>
      <trkpt lat="44.44592" lon="4.69137">
        <ele>55.71</ele>
        <time>2019-05-27T14:54:24.000Z</time>
      </trkpt>
      <trkpt lat="44.4456" lon="4.69123">
        <ele>55.35</ele>
        <time>2019-05-27T14:54:29.000Z</time>
      </trkpt>
      <trkpt lat="44.44528" lon="4.6911">
        <ele>55.41</ele>
        <time>2019-05-27T14:54:34.000Z</time>
      </trkpt>
      <trkpt lat="44.44496" lon="4.69097">
        <ele>55.39</ele>
        <time>2019-05-27T14:54:39.000Z</time>
      </trkpt>
      <trkpt lat="44.44466" lon="4.69079">
        <ele>57.14</ele>
        <time>2019-05-27T14:54:44.000Z</time>
      </trkpt>
      <trkpt lat="44.44439" lon="4.69056">
        <ele>56.21</ele>
        <time>2019-05-27T14:54:49.000Z</time>
      </trkpt>
      <trkpt lat="44.44413" lon="4.69028">
        <ele>56.86</ele>
        <time>2019-05-27T14:54:54.000Z</time>
      </trkpt>
      <trkpt lat="44.44394" lon="4.69049">
        <ele>57.15</ele>
        <time>2019-05-27T14:54:59.000Z</time>
      </trkpt>
      <trkpt lat="44.44371" lon="4.69041">
        <ele>58.89</ele>
        <time>2019-05-27T14:55:04.000Z</time>
      </trkpt>
      <trkpt lat="44.4436" lon="4.69006">
        <ele>59.16</ele>
        <time>2019-05-27T14:55:09.000Z</time>
      </trkpt>
      <trkpt lat="44.44342" lon="4.68979">
        <ele>56.48</ele>
        <time>2019-05-27T14:55:14.000Z</time>
      </trkpt>
      <trkpt lat="44.4432" lon="4.68951">
        <ele>55.42</ele>
        <time>2019-05-27T14:55:19.000Z</time>
      </trkpt>
      <trkpt lat="44.443" lon="4.68918">
        <ele>56.33</ele>
        <time>2019-05-27T14:55:24.000Z</time>
      </trkpt>
      <trkpt lat="44.4428" lon="4.68888">
        <ele>57.85</ele>
        <time>2019-05-27T14:55:29.000Z</time>
      </trkpt>
      <trkpt lat="44.44262" lon="4.68857">
        <ele>58.16</ele>
        <time>2019-05-27T14:55:34.000Z</time>
      </trkpt>
      <trkpt lat="44.44237" lon="4.68824">
        <ele>59.86</ele>
        <time>2019-05-27T14:55:39.000Z</time>
      </trkpt>
      <trkpt lat="44.44218" lon="4.68788">
        <ele>58.47</ele>
        <time>2019-05-27T14:55:44.000Z</time>
      </trkpt>
      <trkpt lat="44.442" lon="4.68749">
        <ele>56.91</ele>
        <time>2019-05-27T14:55:49.000Z</time>
      </trkpt>
      <trkpt lat="44.44178" lon="4.68722">
        <ele>55.26</ele>
        <time>2019-05-27T14:55:54.000Z</time>
      </trkpt>
      <trkpt lat="44.44163" lon="4.68697">
        <ele>55.39</ele>
        <time>2019-05-27T14:55:59.000Z</time>
      </trkpt>
      <trkpt lat="44.44141" lon="4.68656">
        <ele>54.53</ele>
        <time>2019-05-27T14:56:04.000Z</time>
      </trkpt>
      <trkpt lat="44.4413" lon="4.68621">
        <ele>55.34</ele>
        <time>2019-05-27T14:56:09.000Z</time>
      </trkpt>
      <trkpt lat="44.44108" lon="4.68595">
        <ele>57.1</ele>
        <time>2019-05-27T14:56:14.000Z</time>
      </trkpt>
      <trkpt lat="44.44083" lon="4.68574">
        <ele>58.9</ele>
        <time>2019-05-27T14:56:19.000Z</time>
      </trkpt>
      <trkpt lat="44.44061" lon="4.68551">
        <ele>60.1</ele>
        <time>2019-05-27T14:56:24.000Z</time>
      </trkpt>
      <trkpt lat="44.44048" lon="4.6852">
        <ele>57.42</ele>
        <time>2019-05-27T14:56:29.000Z</time>
      </trkpt>
      <trkpt lat="44.4404" lon="4.68484">
        <ele>57.86</ele>
        <time>2019-05-27T14:56:34.000Z</time>
      </trkpt>
      <trkpt lat="44.44033" lon="4.68448">
        <ele>61.11</ele>
        <time>2019-05-27T14:56:39.000Z</time>
      </trkpt>
      <trkpt lat="44.44036" lon="4.68414">
        <ele>60.41</ele>
        <time>2019-05-27T14:56:44.000Z</time>
      </trkpt>
      <trkpt lat="44.4405" lon="4.68394">
        <ele>58.18</ele>
        <time>2019-05-27T14:56:49.000Z</time>
      </trkpt>
      <trkpt lat="44.44056" lon="4.68369">
        <ele>57.16</ele>
        <time>2019-05-27T14:56:54.000Z</time>
      </trkpt>
      <trkpt lat="44.44053" lon="4.68349">
        <ele>57.89</ele>
        <time>2019-05-27T14:56:59.000Z</time>
      </trkpt>
      <trkpt lat="44.44049" lon="4.68326">
        <ele>58.35</ele>
        <time>2019-05-27T14:57:04.000Z</time>
      </trkpt>
      <trkpt lat="44.44047" lon="4.68295">
        <ele>59.04</ele>
        <time>2019-05-27T14:57:09.000Z</time>
      </trkpt>
      <trkpt lat="44.44039" lon="4.68266">
        <ele>60.16</ele>
        <time>2019-05-27T14:57:14.000Z</time>
      </trkpt>
      <trkpt lat="44.44021" lon="4.6825">
        <ele>61.16</ele>
        <time>2019-05-27T14:57:19.000Z</time>
      </trkpt>
      <trkpt lat="44.44004" lon="4.68242">
        <ele>61.39</ele>
        <time>2019-05-27T14:57:24.000Z</time>
      </trkpt>
      <trkpt lat="44.43997" lon="4.68225">
        <ele>62.1</ele>
        <time>2019-05-27T14:57:29.000Z</time>
      </trkpt>
      <trkpt lat="44.44006" lon="4.68211">
        <ele>63.16</ele>
        <time>2019-05-27T14:57:34.000Z</time>
      </trkpt>
      <trkpt lat="44.4402" lon="4.68195">
        <ele>64.1</ele>
        <time>2019-05-27T14:57:39.000Z</time>
      </trkpt>
      <trkpt lat="44.44038" lon="4.68188">
        <ele>65.16</ele>
        <time>2019-05-27T14:57:44.000Z</time>
      </trkpt>
      <trkpt lat="44.44055" lon="4.68184">
        <ele>62.41</ele>
        <time>2019-05-27T14:57:49.000Z</time>
      </trkpt>
      <trkpt lat="44.44067" lon="4.68174">
        <ele>62.16</ele>
        <time>2019-05-27T14:57:54.000Z</time>
      </trkpt>
      <trkpt lat="44.44069" lon="4.68158">
        <ele>62.86</ele>
        <time>2019-05-27T14:57:59.000Z</time>
      </trkpt>
      <trkpt lat="44.44061" lon="4.68141">
        <ele>63.35</ele>
        <time>2019-05-27T14:58:04.000Z</time>
      </trkpt>
      <trkpt lat="44.44036" lon="4.6813">
        <ele>61.22</ele>
        <time>2019-05-27T14:58:09.000Z</time>
      </trkpt>
      <trkpt lat="44.44011" lon="4.68123">
        <ele>62.14</ele>
        <time>2019-05-27T14:58:14.000Z</time>
      </trkpt>
      <trkpt lat="44.43992" lon="4.68093">
        <ele>60.93</ele>
        <time>2019-05-27T14:58:19.000Z</time>
      </trkpt>
      <trkpt lat="44.43976" lon="4.68062">
        <ele>60.97</ele>
        <time>2019-05-27T14:58:24.000Z</time>
      </trkpt>
      <trkpt lat="44.43959" lon="4.68031">
        <ele>60.41</ele>
        <time>2019-05-27T14:58:29.000Z</time>
      </trkpt>
      <trkpt lat="44.43939" lon="4.67982">
        <ele>57.16</ele>
        <time>2019-05-27T14:58:34.000Z</time>
      </trkpt>
      <trkpt lat="44.43932" lon="4.67931">
        <ele>57.91</ele>
        <time>2019-05-27T14:58:39.000Z</time>
      </trkpt>
      <trkpt lat="44.43931" lon="4.67886">
        <ele>57.17</ele>
        <time>2019-05-27T14:58:44.000Z</time>
      </trkpt>
      <trkpt lat="44.43926" lon="4.67843">
        <ele>56.39</ele>
        <time>2019-05-27T14:58:49.000Z</time>
      </trkpt>
      <trkpt lat="44.4392" lon="4.678">
        <ele>55.41</ele>
        <time>2019-05-27T14:58:54.000Z</time>
      </trkpt>
      <trkpt lat="44.43912" lon="4.67753">
        <ele>55.36</ele>
        <time>2019-05-27T14:58:59.000Z</time>
      </trkpt>
      <trkpt lat="44.43907" lon="4.67705">
        <ele>56.14</ele>
        <time>2019-05-27T14:59:04.000Z</time>
      </trkpt>
      <trkpt lat="44.43904" lon="4.67661">
        <ele>56.92</ele>
        <time>2019-05-27T14:59:09.000Z</time>
      </trkpt>
      <trkpt lat="44.43895" lon="4.67629">
        <ele>56.22</ele>
        <time>2019-05-27T14:59:14.000Z</time>
      </trkpt>
      <trkpt lat="44.4388" lon="4.67602">
        <ele>55.16</ele>
        <time>2019-05-27T14:59:19.000Z</time>
      </trkpt>
      <trkpt lat="44.43862" lon="4.67568">
        <ele>56.15</ele>
        <time>2019-05-27T14:59:24.000Z</time>
      </trkpt>
      <trkpt lat="44.43847" lon="4.67532">
        <ele>56.1</ele>
        <time>2019-05-27T14:59:29.000Z</time>
      </trkpt>
      <trkpt lat="44.43832" lon="4.67495">
        <ele>56.16</ele>
        <time>2019-05-27T14:59:34.000Z</time>
      </trkpt>
      <trkpt lat="44.43817" lon="4.6746">
        <ele>55.16</ele>
        <time>2019-05-27T14:59:39.000Z</time>
      </trkpt>
      <trkpt lat="44.43803" lon="4.67423">
        <ele>56.13</ele>
        <time>2019-05-27T14:59:44.000Z</time>
      </trkpt>
      <trkpt lat="44.4379" lon="4.67391">
        <ele>56.91</ele>
        <time>2019-05-27T14:59:49.000Z</time>
      </trkpt>
      <trkpt lat="44.43776" lon="4.67358">
        <ele>58.14</ele>
        <time>2019-05-27T14:59:54.000Z</time>
      </trkpt>
      <trkpt lat="44.43762" lon="4.67323">
        <ele>58.92</ele>
        <time>2019-05-27T14:59:59.000Z</time>
      </trkpt>
      <trkpt lat="44.43751" lon="4.67293">
        <ele>59.16</ele>
        <time>2019-05-27T15:00:04.000Z</time>
      </trkpt>
      <trkpt lat="44.43737" lon="4.67263">
        <ele>60.16</ele>
        <time>2019-05-27T15:00:09.000Z</time>
      </trkpt>
      <trkpt lat="44.43721" lon="4.67234">
        <ele>60.91</ele>
        <time>2019-05-27T15:00:14.000Z</time>
      </trkpt>
      <trkpt lat="44.43704" lon="4.6721">
        <ele>60.39</ele>
        <time>2019-05-27T15:00:19.000Z</time>
      </trkpt>
      <trkpt lat="44.43687" lon="4.67183">
        <ele>61.14</ele>
        <time>2019-05-27T15:00:24.000Z</time>
      </trkpt>
      <trkpt lat="44.43669" lon="4.67159">
        <ele>60.22</ele>
        <time>2019-05-27T15:00:29.000Z</time>
      </trkpt>
      <trkpt lat="44.4365" lon="4.67135">
        <ele>59.22</ele>
        <time>2019-05-27T15:00:34.000Z</time>
      </trkpt>
      <trkpt lat="44.43629" lon="4.6711">
        <ele>57.42</ele>
        <time>2019-05-27T15:00:39.000Z</time>
      </trkpt>
      <trkpt lat="44.43608" lon="4.67082">
        <ele>56.36</ele>
        <time>2019-05-27T15:00:44.000Z</time>
      </trkpt>
      <trkpt lat="44.43586" lon="4.67051">
        <ele>57.91</ele>
        <time>2019-05-27T15:00:49.000Z</time>
      </trkpt>
      <trkpt lat="44.43562" lon="4.67025">
        <ele>57.22</ele>
        <time>2019-05-27T15:00:54.000Z</time>
      </trkpt>
      <trkpt lat="44.43535" lon="4.67004">
        <ele>57.16</ele>
        <time>2019-05-27T15:00:59.000Z</time>
      </trkpt>
      <trkpt lat="44.43513" lon="4.66978">
        <ele>56.9</ele>
        <time>2019-05-27T15:01:04.000Z</time>
      </trkpt>
      <trkpt lat="44.43491" lon="4.66952">
        <ele>56.16</ele>
        <time>2019-05-27T15:01:09.000Z</time>
      </trkpt>
      <trkpt lat="44.43469" lon="4.66924">
        <ele>58.09</ele>
        <time>2019-05-27T15:01:14.000Z</time>
      </trkpt>
      <trkpt lat="44.43447" lon="4.66899">
        <ele>57.91</ele>
        <time>2019-05-27T15:01:19.000Z</time>
      </trkpt>
      <trkpt lat="44.43424" lon="4.66878">
        <ele>57.41</ele>
        <time>2019-05-27T15:01:24.000Z</time>
      </trkpt>
      <trkpt lat="44.43398" lon="4.6685">
        <ele>55.1</ele>
        <time>2019-05-27T15:01:29.000Z</time>
      </trkpt>
      <trkpt lat="44.43369" lon="4.66827">
        <ele>57.09</ele>
        <time>2019-05-27T15:01:34.000Z</time>
      </trkpt>
      <trkpt lat="44.4334" lon="4.66807">
        <ele>58.1</ele>
        <time>2019-05-27T15:01:39.000Z</time>
      </trkpt>
      <trkpt lat="44.43315" lon="4.66788">
        <ele>57.22</ele>
        <time>2019-05-27T15:01:44.000Z</time>
      </trkpt>
      <trkpt lat="44.43288" lon="4.66769">
        <ele>58.14</ele>
        <time>2019-05-27T15:01:49.000Z</time>
      </trkpt>
      <trkpt lat="44.43261" lon="4.66752">
        <ele>57.41</ele>
        <time>2019-05-27T15:01:54.000Z</time>
      </trkpt>
      <trkpt lat="44.43234" lon="4.66729">
        <ele>59.14</ele>
        <time>2019-05-27T15:01:59.000Z</time>
      </trkpt>
      <trkpt lat="44.43207" lon="4.66711">
        <ele>58.16</ele>
        <time>2019-05-27T15:02:04.000Z</time>
      </trkpt>
      <trkpt lat="44.43178" lon="4.66693">
        <ele>57.21</ele>
        <time>2019-05-27T15:02:09.000Z</time>
      </trkpt>
      <trkpt lat="44.43154" lon="4.66674">
        <ele>58.1</ele>
        <time>2019-05-27T15:02:14.000Z</time>
      </trkpt>
      <trkpt lat="44.43127" lon="4.66658">
        <ele>57.16</ele>
        <time>2019-05-27T15:02:19.000Z</time>
      </trkpt>
      <trkpt lat="44.43098" lon="4.6664">
        <ele>56.97</ele>
        <time>2019-05-27T15:02:24.000Z</time>
      </trkpt>
      <trkpt lat="44.43071" lon="4.66623">
        <ele>58.1</ele>
        <time>2019-05-27T15:02:29.000Z</time>
      </trkpt>
      <trkpt lat="44.43045" lon="4.66607">
        <ele>59.16</ele>
        <time>2019-05-27T15:02:34.000Z</time>
      </trkpt>
      <trkpt lat="44.43016" lon="4.6659">
        <ele>60.16</ele>
        <time>2019-05-27T15:02:39.000Z</time>
      </trkpt>
      <trkpt lat="44.42988" lon="4.66574">
        <ele>58.23</ele>
        <time>2019-05-27T15:02:44.000Z</time>
      </trkpt>
      <trkpt lat="44.42963" lon="4.6656">
        <ele>57.97</ele>
        <time>2019-05-27T15:02:49.000Z</time>
      </trkpt>
      <trkpt lat="44.42937" lon="4.66552">
        <ele>57.17</ele>
        <time>2019-05-27T15:02:54.000Z</time>
      </trkpt>
      <trkpt lat="44.42911" lon="4.66543">
        <ele>58.91</ele>
        <time>2019-05-27T15:02:59.000Z</time>
      </trkpt>
      <trkpt lat="44.42882" lon="4.6653">
        <ele>60.16</ele>
        <time>2019-05-27T15:03:04.000Z</time>
      </trkpt>
      <trkpt lat="44.42856" lon="4.66513">
        <ele>59.41</ele>
        <time>2019-05-27T15:03:09.000Z</time>
      </trkpt>
      <trkpt lat="44.42828" lon="4.665">
        <ele>60.16</ele>
        <time>2019-05-27T15:03:14.000Z</time>
      </trkpt>
      <trkpt lat="44.42799" lon="4.66483">
        <ele>59.47</ele>
        <time>2019-05-27T15:03:19.000Z</time>
      </trkpt>
      <trkpt lat="44.42772" lon="4.66469">
        <ele>59.31</ele>
        <time>2019-05-27T15:03:24.000Z</time>
      </trkpt>
      <trkpt lat="44.42746" lon="4.66458">
        <ele>59.1</ele>
        <time>2019-05-27T15:03:29.000Z</time>
      </trkpt>
      <trkpt lat="44.42722" lon="4.66443">
        <ele>57.24</ele>
        <time>2019-05-27T15:03:34.000Z</time>
      </trkpt>
      <trkpt lat="44.42691" lon="4.66432">
        <ele>58.21</ele>
        <time>2019-05-27T15:03:39.000Z</time>
      </trkpt>
      <trkpt lat="44.42661" lon="4.6642">
        <ele>56.18</ele>
        <time>2019-05-27T15:03:44.000Z</time>
      </trkpt>
      <trkpt lat="44.42632" lon="4.66408">
        <ele>53.43</ele>
        <time>2019-05-27T15:03:49.000Z</time>
      </trkpt>
      <trkpt lat="44.42604" lon="4.66397">
        <ele>53.18</ele>
        <time>2019-05-27T15:03:54.000Z</time>
      </trkpt>
      <trkpt lat="44.42575" lon="4.66387">
        <ele>55.1</ele>
        <time>2019-05-27T15:03:59.000Z</time>
      </trkpt>
      <trkpt lat="44.42545" lon="4.66378">
        <ele>53.17</ele>
        <time>2019-05-27T15:04:04.000Z</time>
      </trkpt>
      <trkpt lat="44.42515" lon="4.66366">
        <ele>52.41</ele>
        <time>2019-05-27T15:04:09.000Z</time>
      </trkpt>
      <trkpt lat="44.42486" lon="4.66354">
        <ele>54.09</ele>
        <time>2019-05-27T15:04:14.000Z</time>
      </trkpt>
      <trkpt lat="44.42459" lon="4.66346">
        <ele>53.67</ele>
        <time>2019-05-27T15:04:19.000Z</time>
      </trkpt>
      <trkpt lat="44.4243" lon="4.66339">
        <ele>53.12</ele>
        <time>2019-05-27T15:04:24.000Z</time>
      </trkpt>
      <trkpt lat="44.42402" lon="4.66328">
        <ele>53.47</ele>
        <time>2019-05-27T15:04:29.000Z</time>
      </trkpt>
      <trkpt lat="44.42372" lon="4.66318">
        <ele>52.73</ele>
        <time>2019-05-27T15:04:34.000Z</time>
      </trkpt>
      <trkpt lat="44.42344" lon="4.66307">
        <ele>54.16</ele>
        <time>2019-05-27T15:04:39.000Z</time>
      </trkpt>
      <trkpt lat="44.42317" lon="4.66303">
        <ele>53.11</ele>
        <time>2019-05-27T15:04:44.000Z</time>
      </trkpt>
      <trkpt lat="44.42287" lon="4.66294">
        <ele>51.42</ele>
        <time>2019-05-27T15:04:49.000Z</time>
      </trkpt>
      <trkpt lat="44.42258" lon="4.66286">
        <ele>51.54</ele>
        <time>2019-05-27T15:04:54.000Z</time>
      </trkpt>
      <trkpt lat="44.42233" lon="4.66276">
        <ele>52.92</ele>
        <time>2019-05-27T15:04:59.000Z</time>
      </trkpt>
      <trkpt lat="44.42204" lon="4.66268">
        <ele>53.98</ele>
        <time>2019-05-27T15:05:04.000Z</time>
      </trkpt>
      <trkpt lat="44.42176" lon="4.66262">
        <ele>54.92</ele>
        <time>2019-05-27T15:05:09.000Z</time>
      </trkpt>
      <trkpt lat="44.42148" lon="4.66258">
        <ele>55.23</ele>
        <time>2019-05-27T15:05:14.000Z</time>
      </trkpt>
      <trkpt lat="44.42119" lon="4.66253">
        <ele>56.12</ele>
        <time>2019-05-27T15:05:19.000Z</time>
      </trkpt>
      <trkpt lat="44.42089" lon="4.66242">
        <ele>53.48</ele>
        <time>2019-05-27T15:05:24.000Z</time>
      </trkpt>
      <trkpt lat="44.42061" lon="4.66239">
        <ele>53.17</ele>
        <time>2019-05-27T15:05:29.000Z</time>
      </trkpt>
      <trkpt lat="44.42031" lon="4.66238">
        <ele>54.87</ele>
        <time>2019-05-27T15:05:34.000Z</time>
      </trkpt>
      <trkpt lat="44.42003" lon="4.66232">
        <ele>53.19</ele>
        <time>2019-05-27T15:05:39.000Z</time>
      </trkpt>
      <trkpt lat="44.41975" lon="4.66227">
        <ele>53.92</ele>
        <time>2019-05-27T15:05:44.000Z</time>
      </trkpt>
      <trkpt lat="44.41946" lon="4.66223">
        <ele>54.37</ele>
        <time>2019-05-27T15:05:49.000Z</time>
      </trkpt>
      <trkpt lat="44.41915" lon="4.66219">
        <ele>55.11</ele>
        <time>2019-05-27T15:05:54.000Z</time>
      </trkpt>
      <trkpt lat="44.41886" lon="4.66213">
        <ele>56.11</ele>
        <time>2019-05-27T15:05:59.000Z</time>
      </trkpt>
      <trkpt lat="44.41855" lon="4.66211">
        <ele>58.22</ele>
        <time>2019-05-27T15:06:04.000Z</time>
      </trkpt>
      <trkpt lat="44.41824" lon="4.66213">
        <ele>55.44</ele>
        <time>2019-05-27T15:06:09.000Z</time>
      </trkpt>
      <trkpt lat="44.41792" lon="4.66214">
        <ele>57.11</ele>
        <time>2019-05-27T15:06:14.000Z</time>
      </trkpt>
      <trkpt lat="44.41761" lon="4.66207">
        <ele>54.38</ele>
        <time>2019-05-27T15:06:19.000Z</time>
      </trkpt>
      <trkpt lat="44.4173" lon="4.66203">
        <ele>53.18</ele>
        <time>2019-05-27T15:06:24.000Z</time>
      </trkpt>
      <trkpt lat="44.41699" lon="4.662">
        <ele>55.1</ele>
        <time>2019-05-27T15:06:29.000Z</time>
      </trkpt>
      <trkpt lat="44.41682" lon="4.66227">
        <ele>52.48</ele>
        <time>2019-05-27T15:06:34.000Z</time>
      </trkpt>
      <trkpt lat="44.41685" lon="4.66266">
        <ele>53.92</ele>
        <time>2019-05-27T15:06:39.000Z</time>
      </trkpt>
      <trkpt lat="44.41684" lon="4.66291">
        <ele>55.17</ele>
        <time>2019-05-27T15:06:44.000Z</time>
      </trkpt>
      <trkpt lat="44.41666" lon="4.66301">
        <ele>52.95</ele>
        <time>2019-05-27T15:06:49.000Z</time>
      </trkpt>
      <trkpt lat="44.41648" lon="4.66299">
        <ele>54.36</ele>
        <time>2019-05-27T15:06:54.000Z</time>
      </trkpt>
      <trkpt lat="44.41627" lon="4.66298">
        <ele>54.18</ele>
        <time>2019-05-27T15:06:59.000Z</time>
      </trkpt>
      <trkpt lat="44.41604" lon="4.66297">
        <ele>55.16</ele>
        <time>2019-05-27T15:07:04.000Z</time>
      </trkpt>
      <trkpt lat="44.41579" lon="4.66299">
        <ele>60.02</ele>
        <time>2019-05-27T15:07:09.000Z</time>
      </trkpt>
      <trkpt lat="44.41554" lon="4.663">
        <ele>59.23</ele>
        <time>2019-05-27T15:07:14.000Z</time>
      </trkpt>
      <trkpt lat="44.4153" lon="4.66298">
        <ele>56.26</ele>
        <time>2019-05-27T15:07:19.000Z</time>
      </trkpt>
      <trkpt lat="44.41504" lon="4.66301">
        <ele>56.47</ele>
        <time>2019-05-27T15:07:24.000Z</time>
      </trkpt>
      <trkpt lat="44.41473" lon="4.66307">
        <ele>56.18</ele>
        <time>2019-05-27T15:07:29.000Z</time>
      </trkpt>
      <trkpt lat="44.41445" lon="4.66308">
        <ele>56.41</ele>
        <time>2019-05-27T15:07:34.000Z</time>
      </trkpt>
      <trkpt lat="44.41419" lon="4.663">
        <ele>56.19</ele>
        <time>2019-05-27T15:07:39.000Z</time>
      </trkpt>
      <trkpt lat="44.41392" lon="4.66295">
        <ele>56.18</ele>
        <time>2019-05-27T15:07:44.000Z</time>
      </trkpt>
      <trkpt lat="44.41365" lon="4.6629">
        <ele>55.18</ele>
        <time>2019-05-27T15:07:49.000Z</time>
      </trkpt>
      <trkpt lat="44.41338" lon="4.66289">
        <ele>54.02</ele>
        <time>2019-05-27T15:07:54.000Z</time>
      </trkpt>
      <trkpt lat="44.41311" lon="4.66284">
        <ele>54.17</ele>
        <time>2019-05-27T15:07:59.000Z</time>
      </trkpt>
      <trkpt lat="44.41285" lon="4.66283">
        <ele>53.08</ele>
        <time>2019-05-27T15:08:04.000Z</time>
      </trkpt>
      <trkpt lat="44.41262" lon="4.66285">
        <ele>55.41</ele>
        <time>2019-05-27T15:08:09.000Z</time>
      </trkpt>
      <trkpt lat="44.41243" lon="4.66279">
        <ele>54.45</ele>
        <time>2019-05-27T15:09:27.000Z</time>
      </trkpt>
      <trkpt lat="44.41236" lon="4.66287">
        <ele>60.18</ele>
        <time>2019-05-27T15:09:32.000Z</time>
      </trkpt>
      <trkpt lat="44.41216" lon="4.66282">
        <ele>58.44</ele>
        <time>2019-05-27T15:09:37.000Z</time>
      </trkpt>
      <trkpt lat="44.4119" lon="4.66276">
        <ele>57.18</ele>
        <time>2019-05-27T15:09:42.000Z</time>
      </trkpt>
      <trkpt lat="44.4117" lon="4.66268">
        <ele>57.17</ele>
        <time>2019-05-27T15:09:47.000Z</time>
      </trkpt>
      <trkpt lat="44.41149" lon="4.66259">
        <ele>56.18</ele>
        <time>2019-05-27T15:09:52.000Z</time>
      </trkpt>
      <trkpt lat="44.41127" lon="4.66248">
        <ele>56.89</ele>
        <time>2019-05-27T15:09:57.000Z</time>
      </trkpt>
      <trkpt lat="44.41101" lon="4.66243">
        <ele>57.93</ele>
        <time>2019-05-27T15:10:02.000Z</time>
      </trkpt>
      <trkpt lat="44.41073" lon="4.66242">
        <ele>60.12</ele>
        <time>2019-05-27T15:10:07.000Z</time>
      </trkpt>
      <trkpt lat="44.41043" lon="4.66236">
        <ele>55.33</ele>
        <time>2019-05-27T15:10:12.000Z</time>
      </trkpt>
      <trkpt lat="44.41024" lon="4.66214">
        <ele>53.25</ele>
        <time>2019-05-27T15:10:17.000Z</time>
      </trkpt>
      <trkpt lat="44.41023" lon="4.66179">
        <ele>51.27</ele>
        <time>2019-05-27T15:10:22.000Z</time>
      </trkpt>
      <trkpt lat="44.40998" lon="4.66161">
        <ele>50</ele>
        <time>2019-05-27T15:10:27.000Z</time>
      </trkpt>
      <trkpt lat="44.40974" lon="4.66149">
        <ele>49.43</ele>
        <time>2019-05-27T15:10:32.000Z</time>
      </trkpt>
      <trkpt lat="44.40953" lon="4.66154">
        <ele>49.19</ele>
        <time>2019-05-27T15:10:37.000Z</time>
      </trkpt>
      <trkpt lat="44.40932" lon="4.6615">
        <ele>46.45</ele>
        <time>2019-05-27T15:10:42.000Z</time>
      </trkpt>
      <trkpt lat="44.40908" lon="4.6614">
        <ele>50.11</ele>
        <time>2019-05-27T15:10:47.000Z</time>
      </trkpt>
      <trkpt lat="44.40892" lon="4.66117">
        <ele>48.19</ele>
        <time>2019-05-27T15:10:52.000Z</time>
      </trkpt>
      <trkpt lat="44.40874" lon="4.66102">
        <ele>49.48</ele>
        <time>2019-05-27T15:10:57.000Z</time>
      </trkpt>
      <trkpt lat="44.4085" lon="4.66098">
        <ele>49.31</ele>
        <time>2019-05-27T15:11:02.000Z</time>
      </trkpt>
      <trkpt lat="44.40824" lon="4.66108">
        <ele>48.5</ele>
        <time>2019-05-27T15:11:07.000Z</time>
      </trkpt>
      <trkpt lat="44.40794" lon="4.6612">
        <ele>48.95</ele>
        <time>2019-05-27T15:11:12.000Z</time>
      </trkpt>
      <trkpt lat="44.40764" lon="4.66131">
        <ele>50.42</ele>
        <time>2019-05-27T15:11:17.000Z</time>
      </trkpt>
      <trkpt lat="44.40734" lon="4.66142">
        <ele>51.12</ele>
        <time>2019-05-27T15:11:22.000Z</time>
      </trkpt>
      <trkpt lat="44.40701" lon="4.66154">
        <ele>53.37</ele>
        <time>2019-05-27T15:11:27.000Z</time>
      </trkpt>
      <trkpt lat="44.4067" lon="4.66164">
        <ele>52.44</ele>
        <time>2019-05-27T15:11:32.000Z</time>
      </trkpt>
      <trkpt lat="44.4064" lon="4.66172">
        <ele>51.19</ele>
        <time>2019-05-27T15:11:37.000Z</time>
      </trkpt>
      <trkpt lat="44.40612" lon="4.66178">
        <ele>50.19</ele>
        <time>2019-05-27T15:11:42.000Z</time>
      </trkpt>
      <trkpt lat="44.40585" lon="4.66185">
        <ele>52.11</ele>
        <time>2019-05-27T15:11:47.000Z</time>
      </trkpt>
      <trkpt lat="44.40551" lon="4.66189">
        <ele>50.27</ele>
        <time>2019-05-27T15:11:52.000Z</time>
      </trkpt>
      <trkpt lat="44.40521" lon="4.66195">
        <ele>47.24</ele>
        <time>2019-05-27T15:11:57.000Z</time>
      </trkpt>
      <trkpt lat="44.40498" lon="4.6619">
        <ele>48.23</ele>
        <time>2019-05-27T15:12:02.000Z</time>
      </trkpt>
      <trkpt lat="44.40483" lon="4.66153">
        <ele>50.12</ele>
        <time>2019-05-27T15:12:07.000Z</time>
      </trkpt>
      <trkpt lat="44.4048" lon="4.66111">
        <ele>50.24</ele>
        <time>2019-05-27T15:12:12.000Z</time>
      </trkpt>
      <trkpt lat="44.40459" lon="4.66093">
        <ele>49.28</ele>
        <time>2019-05-27T15:12:17.000Z</time>
      </trkpt>
      <trkpt lat="44.40441" lon="4.6608">
        <ele>48.74</ele>
        <time>2019-05-27T15:12:22.000Z</time>
      </trkpt>
      <trkpt lat="44.40428" lon="4.6606">
        <ele>48.44</ele>
        <time>2019-05-27T15:12:27.000Z</time>
      </trkpt>
      <trkpt lat="44.40418" lon="4.66034">
        <ele>51.67</ele>
        <time>2019-05-27T15:12:32.000Z</time>
      </trkpt>
      <trkpt lat="44.404" lon="4.65995">
        <ele>49.35</ele>
        <time>2019-05-27T15:12:37.000Z</time>
      </trkpt>
      <trkpt lat="44.40385" lon="4.65964">
        <ele>48.7</ele>
        <time>2019-05-27T15:12:42.000Z</time>
      </trkpt>
      <trkpt lat="44.40369" lon="4.65964">
        <ele>51.92</ele>
        <time>2019-05-27T15:12:47.000Z</time>
      </trkpt>
      <trkpt lat="44.40355" lon="4.65969">
        <ele>53.45</ele>
        <time>2019-05-27T15:12:52.000Z</time>
      </trkpt>
      <trkpt lat="44.40341" lon="4.65974">
        <ele>55.11</ele>
        <time>2019-05-27T15:12:57.000Z</time>
      </trkpt>
      <trkpt lat="44.40338" lon="4.65954">
        <ele>56.19</ele>
        <time>2019-05-27T15:13:02.000Z</time>
      </trkpt>
      <trkpt lat="44.40327" lon="4.65922">
        <ele>56.18</ele>
        <time>2019-05-27T15:13:07.000Z</time>
      </trkpt>
      <trkpt lat="44.40313" lon="4.6589">
        <ele>57.19</ele>
        <time>2019-05-27T15:13:12.000Z</time>
      </trkpt>
      <trkpt lat="44.40299" lon="4.6586">
        <ele>57.21</ele>
        <time>2019-05-27T15:13:17.000Z</time>
      </trkpt>
      <trkpt lat="44.40283" lon="4.6583">
        <ele>55.5</ele>
        <time>2019-05-27T15:13:22.000Z</time>
      </trkpt>
      <trkpt lat="44.40269" lon="4.65793">
        <ele>56.19</ele>
        <time>2019-05-27T15:13:27.000Z</time>
      </trkpt>
      <trkpt lat="44.40252" lon="4.65767">
        <ele>56.24</ele>
        <time>2019-05-27T15:13:32.000Z</time>
      </trkpt>
      <trkpt lat="44.40229" lon="4.65785">
        <ele>54.2</ele>
        <time>2019-05-27T15:13:37.000Z</time>
      </trkpt>
      <trkpt lat="44.40217" lon="4.65816">
        <ele>56.13</ele>
        <time>2019-05-27T15:13:42.000Z</time>
      </trkpt>
      <trkpt lat="44.40209" lon="4.65854">
        <ele>54.2</ele>
        <time>2019-05-27T15:13:47.000Z</time>
      </trkpt>
      <trkpt lat="44.40201" lon="4.65893">
        <ele>54.19</ele>
        <time>2019-05-27T15:13:52.000Z</time>
      </trkpt>
      <trkpt lat="44.40193" lon="4.65933">
        <ele>54.19</ele>
        <time>2019-05-27T15:13:57.000Z</time>
      </trkpt>
      <trkpt lat="44.40184" lon="4.65973">
        <ele>54.19</ele>
        <time>2019-05-27T15:14:02.000Z</time>
      </trkpt>
      <trkpt lat="44.40157" lon="4.65981">
        <ele>54.44</ele>
        <time>2019-05-27T15:14:07.000Z</time>
      </trkpt>
      <trkpt lat="44.40127" lon="4.65976">
        <ele>54.18</ele>
        <time>2019-05-27T15:14:12.000Z</time>
      </trkpt>
      <trkpt lat="44.40097" lon="4.65971">
        <ele>53.95</ele>
        <time>2019-05-27T15:14:17.000Z</time>
      </trkpt>
      <trkpt lat="44.40067" lon="4.65967">
        <ele>54.18</ele>
        <time>2019-05-27T15:14:22.000Z</time>
      </trkpt>
      <trkpt lat="44.40041" lon="4.6598">
        <ele>52.46</ele>
        <time>2019-05-27T15:14:27.000Z</time>
      </trkpt>
      <trkpt lat="44.40018" lon="4.65995">
        <ele>52.2</ele>
        <time>2019-05-27T15:14:32.000Z</time>
      </trkpt>
      <trkpt lat="44.39988" lon="4.65991">
        <ele>50.45</ele>
        <time>2019-05-27T15:14:37.000Z</time>
      </trkpt>
      <trkpt lat="44.39958" lon="4.65979">
        <ele>51.19</ele>
        <time>2019-05-27T15:14:42.000Z</time>
      </trkpt>
      <trkpt lat="44.39926" lon="4.65967">
        <ele>51.2</ele>
        <time>2019-05-27T15:14:47.000Z</time>
      </trkpt>
      <trkpt lat="44.39895" lon="4.65956">
        <ele>52.19</ele>
        <time>2019-05-27T15:14:52.000Z</time>
      </trkpt>
      <trkpt lat="44.39867" lon="4.65941">
        <ele>51.26</ele>
        <time>2019-05-27T15:14:57.000Z</time>
      </trkpt>
      <trkpt lat="44.39839" lon="4.65927">
        <ele>51.2</ele>
        <time>2019-05-27T15:15:02.000Z</time>
      </trkpt>
      <trkpt lat="44.39809" lon="4.65918">
        <ele>51.2</ele>
        <time>2019-05-27T15:15:07.000Z</time>
      </trkpt>
      <trkpt lat="44.39782" lon="4.659">
        <ele>49.27</ele>
        <time>2019-05-27T15:15:12.000Z</time>
      </trkpt>
      <trkpt lat="44.39755" lon="4.65875">
        <ele>50.39</ele>
        <time>2019-05-27T15:15:17.000Z</time>
      </trkpt>
      <trkpt lat="44.3973" lon="4.6585">
        <ele>50.18</ele>
        <time>2019-05-27T15:15:22.000Z</time>
      </trkpt>
      <trkpt lat="44.397" lon="4.6583">
        <ele>51.25</ele>
        <time>2019-05-27T15:15:27.000Z</time>
      </trkpt>
      <trkpt lat="44.39671" lon="4.65809">
        <ele>53.14</ele>
        <time>2019-05-27T15:15:32.000Z</time>
      </trkpt>
      <trkpt lat="44.39642" lon="4.6579">
        <ele>52.64</ele>
        <time>2019-05-27T15:15:37.000Z</time>
      </trkpt>
      <trkpt lat="44.39616" lon="4.65773">
        <ele>51.45</ele>
        <time>2019-05-27T15:15:42.000Z</time>
      </trkpt>
      <trkpt lat="44.39585" lon="4.65752">
        <ele>50.2</ele>
        <time>2019-05-27T15:15:47.000Z</time>
      </trkpt>
      <trkpt lat="44.39557" lon="4.65734">
        <ele>49.22</ele>
        <time>2019-05-27T15:15:52.000Z</time>
      </trkpt>
      <trkpt lat="44.39532" lon="4.65708">
        <ele>50.15</ele>
        <time>2019-05-27T15:15:57.000Z</time>
      </trkpt>
      <trkpt lat="44.3953" lon="4.65666">
        <ele>51.2</ele>
        <time>2019-05-27T15:16:02.000Z</time>
      </trkpt>
      <trkpt lat="44.39536" lon="4.65626">
        <ele>51.45</ele>
        <time>2019-05-27T15:16:07.000Z</time>
      </trkpt>
      <trkpt lat="44.39542" lon="4.65585">
        <ele>51.95</ele>
        <time>2019-05-27T15:16:12.000Z</time>
      </trkpt>
      <trkpt lat="44.39548" lon="4.65547">
        <ele>51.2</ele>
        <time>2019-05-27T15:16:17.000Z</time>
      </trkpt>
      <trkpt lat="44.39555" lon="4.65508">
        <ele>52.14</ele>
        <time>2019-05-27T15:16:22.000Z</time>
      </trkpt>
      <trkpt lat="44.39562" lon="4.65469">
        <ele>53.14</ele>
        <time>2019-05-27T15:16:27.000Z</time>
      </trkpt>
      <trkpt lat="44.39566" lon="4.65432">
        <ele>52.25</ele>
        <time>2019-05-27T15:16:32.000Z</time>
      </trkpt>
      <trkpt lat="44.39572" lon="4.65395">
        <ele>52.14</ele>
        <time>2019-05-27T15:16:37.000Z</time>
      </trkpt>
      <trkpt lat="44.39576" lon="4.65358">
        <ele>51.95</ele>
        <time>2019-05-27T15:16:42.000Z</time>
      </trkpt>
      <trkpt lat="44.39582" lon="4.65326">
        <ele>52.2</ele>
        <time>2019-05-27T15:16:47.000Z</time>
      </trkpt>
      <trkpt lat="44.39585" lon="4.65293">
        <ele>51.95</ele>
        <time>2019-05-27T15:16:52.000Z</time>
      </trkpt>
      <trkpt lat="44.3959" lon="4.6526">
        <ele>51.39</ele>
        <time>2019-05-27T15:16:57.000Z</time>
      </trkpt>
      <trkpt lat="44.39596" lon="4.65227">
        <ele>52.15</ele>
        <time>2019-05-27T15:17:02.000Z</time>
      </trkpt>
      <trkpt lat="44.396" lon="4.65195">
        <ele>52.2</ele>
        <time>2019-05-27T15:17:07.000Z</time>
      </trkpt>
      <trkpt lat="44.39605" lon="4.65165">
        <ele>51.21</ele>
        <time>2019-05-27T15:17:12.000Z</time>
      </trkpt>
      <trkpt lat="44.39609" lon="4.65135">
        <ele>51.2</ele>
        <time>2019-05-27T15:17:17.000Z</time>
      </trkpt>
      <trkpt lat="44.39614" lon="4.65103">
        <ele>51.2</ele>
        <time>2019-05-27T15:17:22.000Z</time>
      </trkpt>
      <trkpt lat="44.39618" lon="4.65072">
        <ele>51.21</ele>
        <time>2019-05-27T15:17:27.000Z</time>
      </trkpt>
      <trkpt lat="44.39623" lon="4.65041">
        <ele>51.2</ele>
        <time>2019-05-27T15:17:32.000Z</time>
      </trkpt>
      <trkpt lat="44.39622" lon="4.65013">
        <ele>51.2</ele>
        <time>2019-05-27T15:17:37.000Z</time>
      </trkpt>
      <trkpt lat="44.3961" lon="4.64979">
        <ele>51.95</ele>
        <time>2019-05-27T15:17:42.000Z</time>
      </trkpt>
      <trkpt lat="44.39598" lon="4.64942">
        <ele>52.2</ele>
        <time>2019-05-27T15:17:47.000Z</time>
      </trkpt>
      <trkpt lat="44.39597" lon="4.64911">
        <ele>53.99</ele>
        <time>2019-05-27T15:17:52.000Z</time>
      </trkpt>
      <trkpt lat="44.39585" lon="4.64901">
        <ele>54.95</ele>
        <time>2019-05-27T15:17:57.000Z</time>
      </trkpt>
      <trkpt lat="44.39566" lon="4.64919">
        <ele>53.26</ele>
        <time>2019-05-27T15:18:02.000Z</time>
      </trkpt>
      <trkpt lat="44.3955" lon="4.64944">
        <ele>52.2</ele>
        <time>2019-05-27T15:18:07.000Z</time>
      </trkpt>
      <trkpt lat="44.39546" lon="4.64977">
        <ele>53.2</ele>
        <time>2019-05-27T15:18:12.000Z</time>
      </trkpt>
      <trkpt lat="44.39532" lon="4.6501">
        <ele>52.51</ele>
        <time>2019-05-27T15:18:17.000Z</time>
      </trkpt>
      <trkpt lat="44.39517" lon="4.65039">
        <ele>50.28</ele>
        <time>2019-05-27T15:18:22.000Z</time>
      </trkpt>
      <trkpt lat="44.39497" lon="4.65062">
        <ele>50.2</ele>
        <time>2019-05-27T15:18:27.000Z</time>
      </trkpt>
      <trkpt lat="44.39492" lon="4.65099">
        <ele>50.44</ele>
        <time>2019-05-27T15:18:32.000Z</time>
      </trkpt>
      <trkpt lat="44.39478" lon="4.65125">
        <ele>47.51</ele>
        <time>2019-05-27T15:18:37.000Z</time>
      </trkpt>
      <trkpt lat="44.3946" lon="4.65151">
        <ele>47.95</ele>
        <time>2019-05-27T15:18:42.000Z</time>
      </trkpt>
      <trkpt lat="44.39442" lon="4.65179">
        <ele>48.2</ele>
        <time>2019-05-27T15:18:47.000Z</time>
      </trkpt>
      <trkpt lat="44.3942" lon="4.65199">
        <ele>49.01</ele>
        <time>2019-05-27T15:18:52.000Z</time>
      </trkpt>
      <trkpt lat="44.39395" lon="4.65215">
        <ele>48.45</ele>
        <time>2019-05-27T15:18:57.000Z</time>
      </trkpt>
      <trkpt lat="44.3937" lon="4.65229">
        <ele>49.2</ele>
        <time>2019-05-27T15:19:02.000Z</time>
      </trkpt>
      <trkpt lat="44.39345" lon="4.65242">
        <ele>49.95</ele>
        <time>2019-05-27T15:19:07.000Z</time>
      </trkpt>
      <trkpt lat="44.39318" lon="4.65254">
        <ele>48.45</ele>
        <time>2019-05-27T15:19:12.000Z</time>
      </trkpt>
      <trkpt lat="44.39294" lon="4.65267">
        <ele>48.2</ele>
        <time>2019-05-27T15:19:17.000Z</time>
      </trkpt>
      <trkpt lat="44.39271" lon="4.65283">
        <ele>48.2</ele>
        <time>2019-05-27T15:19:22.000Z</time>
      </trkpt>
      <trkpt lat="44.39248" lon="4.653">
        <ele>50.43</ele>
        <time>2019-05-27T15:19:27.000Z</time>
      </trkpt>
      <trkpt lat="44.39224" lon="4.65314">
        <ele>50.21</ele>
        <time>2019-05-27T15:19:32.000Z</time>
      </trkpt>
      <trkpt lat="44.39199" lon="4.65328">
        <ele>50.22</ele>
        <time>2019-05-27T15:19:37.000Z</time>
      </trkpt>
      <trkpt lat="44.39175" lon="4.65341">
        <ele>49.2</ele>
        <time>2019-05-27T15:19:42.000Z</time>
      </trkpt>
      <trkpt lat="44.39152" lon="4.65349">
        <ele>50.02</ele>
        <time>2019-05-27T15:19:47.000Z</time>
      </trkpt>
      <trkpt lat="44.39141" lon="4.6535">
        <ele>50.25</ele>
        <time>2019-05-27T15:20:32.000Z</time>
      </trkpt>
      <trkpt lat="44.39137" lon="4.65337">
        <ele>52.14</ele>
        <time>2019-05-27T15:20:37.000Z</time>
      </trkpt>
      <trkpt lat="44.39118" lon="4.65335">
        <ele>51.22</ele>
        <time>2019-05-27T15:20:42.000Z</time>
      </trkpt>
      <trkpt lat="44.39094" lon="4.65332">
        <ele>50.21</ele>
        <time>2019-05-27T15:20:47.000Z</time>
      </trkpt>
      <trkpt lat="44.39069" lon="4.65326">
        <ele>50.2</ele>
        <time>2019-05-27T15:20:52.000Z</time>
      </trkpt>
      <trkpt lat="44.39044" lon="4.65327">
        <ele>50.21</ele>
        <time>2019-05-27T15:20:57.000Z</time>
      </trkpt>
      <trkpt lat="44.39018" lon="4.65327">
        <ele>49.22</ele>
        <time>2019-05-27T15:21:02.000Z</time>
      </trkpt>
      <trkpt lat="44.38993" lon="4.65328">
        <ele>49.02</ele>
        <time>2019-05-27T15:21:07.000Z</time>
      </trkpt>
      <trkpt lat="44.38967" lon="4.65329">
        <ele>50.14</ele>
        <time>2019-05-27T15:21:12.000Z</time>
      </trkpt>
      <trkpt lat="44.3894" lon="4.65325">
        <ele>51.95</ele>
        <time>2019-05-27T15:21:17.000Z</time>
      </trkpt>
      <trkpt lat="44.38913" lon="4.65318">
        <ele>51.21</ele>
        <time>2019-05-27T15:21:22.000Z</time>
      </trkpt>
      <trkpt lat="44.38885" lon="4.65314">
        <ele>50.46</ele>
        <time>2019-05-27T15:21:27.000Z</time>
      </trkpt>
      <trkpt lat="44.38858" lon="4.65309">
        <ele>51.9</ele>
        <time>2019-05-27T15:21:32.000Z</time>
      </trkpt>
      <trkpt lat="44.38836" lon="4.6529">
        <ele>53.2</ele>
        <time>2019-05-27T15:21:37.000Z</time>
      </trkpt>
      <trkpt lat="44.38814" lon="4.65266">
        <ele>52.46</ele>
        <time>2019-05-27T15:21:42.000Z</time>
      </trkpt>
      <trkpt lat="44.38792" lon="4.65242">
        <ele>53.25</ele>
        <time>2019-05-27T15:21:47.000Z</time>
      </trkpt>
      <trkpt lat="44.38771" lon="4.65216">
        <ele>54.15</ele>
        <time>2019-05-27T15:21:52.000Z</time>
      </trkpt>
      <trkpt lat="44.3875" lon="4.65191">
        <ele>53.26</ele>
        <time>2019-05-27T15:21:57.000Z</time>
      </trkpt>
      <trkpt lat="44.38728" lon="4.65165">
        <ele>53.4</ele>
        <time>2019-05-27T15:22:02.000Z</time>
      </trkpt>
      <trkpt lat="44.38706" lon="4.65138">
        <ele>52.41</ele>
        <time>2019-05-27T15:22:07.000Z</time>
      </trkpt>
      <trkpt lat="44.38683" lon="4.65115">
        <ele>52.21</ele>
        <time>2019-05-27T15:22:12.000Z</time>
      </trkpt>
      <trkpt lat="44.38657" lon="4.65095">
        <ele>53.21</ele>
        <time>2019-05-27T15:22:17.000Z</time>
      </trkpt>
      <trkpt lat="44.38632" lon="4.65073">
        <ele>53.21</ele>
        <time>2019-05-27T15:22:22.000Z</time>
      </trkpt>
      <trkpt lat="44.38605" lon="4.65054">
        <ele>53.21</ele>
        <time>2019-05-27T15:22:27.000Z</time>
      </trkpt>
      <trkpt lat="44.38578" lon="4.65034">
        <ele>52.23</ele>
        <time>2019-05-27T15:22:32.000Z</time>
      </trkpt>
      <trkpt lat="44.3855" lon="4.65017">
        <ele>53.9</ele>
        <time>2019-05-27T15:22:37.000Z</time>
      </trkpt>
      <trkpt lat="44.38522" lon="4.64997">
        <ele>53.27</ele>
        <time>2019-05-27T15:22:42.000Z</time>
      </trkpt>
      <trkpt lat="44.38494" lon="4.64976">
        <ele>52.21</ele>
        <time>2019-05-27T15:22:47.000Z</time>
      </trkpt>
      <trkpt lat="44.38468" lon="4.64955">
        <ele>52.21</ele>
        <time>2019-05-27T15:22:52.000Z</time>
      </trkpt>
      <trkpt lat="44.38443" lon="4.64931">
        <ele>52.97</ele>
        <time>2019-05-27T15:22:57.000Z</time>
      </trkpt>
      <trkpt lat="44.38415" lon="4.64921">
        <ele>53.96</ele>
        <time>2019-05-27T15:23:02.000Z</time>
      </trkpt>
      <trkpt lat="44.38386" lon="4.64925">
        <ele>54.21</ele>
        <time>2019-05-27T15:23:07.000Z</time>
      </trkpt>
      <trkpt lat="44.38356" lon="4.6492">
        <ele>54.96</ele>
        <time>2019-05-27T15:23:12.000Z</time>
      </trkpt>
      <trkpt lat="44.38326" lon="4.6491">
        <ele>54.22</ele>
        <time>2019-05-27T15:23:17.000Z</time>
      </trkpt>
      <trkpt lat="44.38297" lon="4.64897">
        <ele>54.21</ele>
        <time>2019-05-27T15:23:22.000Z</time>
      </trkpt>
      <trkpt lat="44.38268" lon="4.64885">
        <ele>52.98</ele>
        <time>2019-05-27T15:23:27.000Z</time>
      </trkpt>
      <trkpt lat="44.3824" lon="4.64866">
        <ele>52.23</ele>
        <time>2019-05-27T15:23:32.000Z</time>
      </trkpt>
      <trkpt lat="44.38216" lon="4.6484">
        <ele>52.15</ele>
        <time>2019-05-27T15:23:37.000Z</time>
      </trkpt>
      <trkpt lat="44.38193" lon="4.64811">
        <ele>51.23</ele>
        <time>2019-05-27T15:23:42.000Z</time>
      </trkpt>
      <trkpt lat="44.3817" lon="4.64787">
        <ele>49</ele>
        <time>2019-05-27T15:23:47.000Z</time>
      </trkpt>
      <trkpt lat="44.38152" lon="4.64761">
        <ele>53.18</ele>
        <time>2019-05-27T15:23:52.000Z</time>
      </trkpt>
      <trkpt lat="44.38139" lon="4.64769">
        <ele>50.98</ele>
        <time>2019-05-27T15:23:57.000Z</time>
      </trkpt>
      <trkpt lat="44.38135" lon="4.64793">
        <ele>49.22</ele>
        <time>2019-05-27T15:24:02.000Z</time>
      </trkpt>
      <trkpt lat="44.38128" lon="4.64816">
        <ele>48.28</ele>
        <time>2019-05-27T15:24:07.000Z</time>
      </trkpt>
      <trkpt lat="44.38125" lon="4.6484">
        <ele>46.23</ele>
        <time>2019-05-27T15:24:13.000Z</time>
      </trkpt>
      <trkpt lat="44.38126" lon="4.64852">
        <ele>49.94</ele>
        <time>2019-05-27T15:24:38.000Z</time>
      </trkpt>
      <trkpt lat="44.38137" lon="4.64853">
        <ele>57.19</ele>
        <time>2019-05-27T15:24:43.000Z</time>
      </trkpt>
      <trkpt lat="44.38147" lon="4.64861">
        <ele>57.21</ele>
        <time>2019-05-27T15:25:30.000Z</time>
      </trkpt>
      <trkpt lat="44.38153" lon="4.6485">
        <ele>48.28</ele>
        <time>2019-05-27T15:30:51.000Z</time>
      </trkpt>
      <trkpt lat="44.38158" lon="4.64861">
        <ele>49.08</ele>
        <time>2019-05-27T15:30:58.000Z</time>
      </trkpt>
      <trkpt lat="44.38153" lon="4.64873">
        <ele>50.42</ele>
        <time>2019-05-27T15:31:05.000Z</time>
      </trkpt>
      <trkpt lat="44.38145" lon="4.64882">
        <ele>49.2</ele>
        <time>2019-05-27T15:31:11.000Z</time>
      </trkpt>
      <trkpt lat="44.38139" lon="4.64892">
        <ele>50.21</ele>
        <time>2019-05-27T15:31:18.000Z</time>
      </trkpt>
      <trkpt lat="44.38135" lon="4.64905">
        <ele>50.46</ele>
        <time>2019-05-27T15:31:24.000Z</time>
      </trkpt>
      <trkpt lat="44.38134" lon="4.64919">
        <ele>50.27</ele>
        <time>2019-05-27T15:31:30.000Z</time>
      </trkpt>
      <trkpt lat="44.38129" lon="4.64932">
        <ele>51.2</ele>
        <time>2019-05-27T15:31:36.000Z</time>
      </trkpt>
      <trkpt lat="44.38128" lon="4.64945">
        <ele>50.28</ele>
        <time>2019-05-27T15:31:43.000Z</time>
      </trkpt>
      <trkpt lat="44.38126" lon="4.64958">
        <ele>50.22</ele>
        <time>2019-05-27T15:31:50.000Z</time>
      </trkpt>
      <trkpt lat="44.38117" lon="4.64957">
        <ele>48.2</ele>
        <time>2019-05-27T15:31:56.000Z</time>
      </trkpt>
      <trkpt lat="44.38108" lon="4.64955">
        <ele>47.97</ele>
        <time>2019-05-27T15:32:02.000Z</time>
      </trkpt>
      <trkpt lat="44.38098" lon="4.64952">
        <ele>53.13</ele>
        <time>2019-05-27T15:32:09.000Z</time>
      </trkpt>
      <trkpt lat="44.38089" lon="4.64945">
        <ele>54.03</ele>
        <time>2019-05-27T15:32:16.000Z</time>
      </trkpt>
      <trkpt lat="44.3808" lon="4.64941">
        <ele>57.96</ele>
        <time>2019-05-27T15:34:02.000Z</time>
      </trkpt>
      <trkpt lat="44.38082" lon="4.64954">
        <ele>58.71</ele>
        <time>2019-05-27T15:34:18.000Z</time>
      </trkpt>
      <trkpt lat="44.38081" lon="4.64951">
        <ele>61.22</ele>
      </trkpt>
    </trkseg>
  </trk>
</gpx>